<?xml version="1.0" encoding="UTF-8" standalone="no" ?>
<gpx xmlns="http://www.topografix.com/GPX/1/1" xmlns:xsi="http://www.w3.org/2001/XMLSchema-instance" xsi:schemaLocation="http://www.topografix.com/GPX/1/1 http://www.topografix.com/GPX/1/1/gpx.xsd" version="1.1" creator="VisuGPX - https://www.visugpx.com">
  <metadata>
    <name>2017-09-27 Bike ride-Ambérieux Saône O</name>
    <desc><![CDATA[2017-09-27 Bike ride-Ambérieux Saône O]]></desc>
  </metadata>
  <wpt lat="45.92451" lon="4.73715">
    <ele>174</ele>
    <name><![CDATA[2017-09-27 11:01 (Start)]]></name>
  </wpt>
  <wpt lat="45.92457" lon="4.73708">
    <ele>174</ele>
    <name><![CDATA[2017-09-27 11:01 (End)]]></name>
    <desc><![CDATA[Created by Google My Tracks on Android  Name: 2017-09-27 11:01 Activity type: biking Description: - Total distance: 31.40 km (19.5 mi) Total time: 1:47:51 Moving time: 1:47:28 Average speed: 17.47 km/h (10.9 mi/h) Average moving speed: 17.53 km/h (10.9 mi/h) Max speed: 37.69 km/h (23.4 mi/h) Average pace: 3:26 min/km (5:32 min/mi) Average moving pace: 3:25 min/km (5:31 min/mi) Fastest pace: 1:36 min/km (2:34 min/mi) Max elevation: 316 m (1036 ft) Min elevation: 211 m (693 ft) Elevation gain: 332 m (1089 ft) Max grade: 12 % Min grade: -14 % Recorded: 27/09/2017 11:01]]></desc>
  </wpt>
  <trk>
    <name><![CDATA[2017-09-27 11:01]]></name>
    <trkseg>
      <trkpt lat="45.92451" lon="4.73715">
        <ele>174</ele>
        <time>2017-09-27T09:01:45.649Z</time>
      </trkpt>
      <trkpt lat="45.92462" lon="4.73715">
        <ele>174</ele>
        <time>2017-09-27T09:01:49.066Z</time>
      </trkpt>
      <trkpt lat="45.92467" lon="4.73705">
        <ele>174</ele>
        <time>2017-09-27T09:02:07Z</time>
      </trkpt>
      <trkpt lat="45.92467" lon="4.73703">
        <ele>174</ele>
        <time>2017-09-27T09:02:08Z</time>
      </trkpt>
      <trkpt lat="45.92468" lon="4.7369">
        <ele>174</ele>
        <time>2017-09-27T09:02:11Z</time>
      </trkpt>
      <trkpt lat="45.92468" lon="4.73686">
        <ele>174</ele>
        <time>2017-09-27T09:02:12Z</time>
      </trkpt>
      <trkpt lat="45.92469" lon="4.73678">
        <ele>174</ele>
        <time>2017-09-27T09:02:14Z</time>
      </trkpt>
      <trkpt lat="45.92469" lon="4.73673">
        <ele>174</ele>
        <time>2017-09-27T09:02:15Z</time>
      </trkpt>
      <trkpt lat="45.9247" lon="4.73663">
        <ele>174</ele>
        <time>2017-09-27T09:02:17Z</time>
      </trkpt>
      <trkpt lat="45.92471" lon="4.73657">
        <ele>174</ele>
        <time>2017-09-27T09:02:18Z</time>
      </trkpt>
      <trkpt lat="45.92472" lon="4.73645">
        <ele>174</ele>
        <time>2017-09-27T09:02:20Z</time>
      </trkpt>
      <trkpt lat="45.92473" lon="4.7364">
        <ele>174</ele>
        <time>2017-09-27T09:02:21Z</time>
      </trkpt>
      <trkpt lat="45.92473" lon="4.73628">
        <ele>174</ele>
        <time>2017-09-27T09:02:23Z</time>
      </trkpt>
      <trkpt lat="45.92473" lon="4.73622">
        <ele>174</ele>
        <time>2017-09-27T09:02:24Z</time>
      </trkpt>
      <trkpt lat="45.92472" lon="4.7361">
        <ele>174</ele>
        <time>2017-09-27T09:02:26Z</time>
      </trkpt>
      <trkpt lat="45.92471" lon="4.73604">
        <ele>174</ele>
        <time>2017-09-27T09:02:27Z</time>
      </trkpt>
      <trkpt lat="45.92471" lon="4.73592">
        <ele>174</ele>
        <time>2017-09-27T09:02:29Z</time>
      </trkpt>
      <trkpt lat="45.92471" lon="4.73586">
        <ele>174</ele>
        <time>2017-09-27T09:02:30Z</time>
      </trkpt>
      <trkpt lat="45.92471" lon="4.73574">
        <ele>173</ele>
        <time>2017-09-27T09:02:32Z</time>
      </trkpt>
      <trkpt lat="45.92471" lon="4.73568">
        <ele>173</ele>
        <time>2017-09-27T09:02:33Z</time>
      </trkpt>
      <trkpt lat="45.92471" lon="4.73556">
        <ele>173</ele>
        <time>2017-09-27T09:02:35Z</time>
      </trkpt>
      <trkpt lat="45.9247" lon="4.7355">
        <ele>173</ele>
        <time>2017-09-27T09:02:36Z</time>
      </trkpt>
      <trkpt lat="45.9247" lon="4.73541">
        <ele>174</ele>
        <time>2017-09-27T09:02:38Z</time>
      </trkpt>
      <trkpt lat="45.9247" lon="4.73536">
        <ele>174</ele>
        <time>2017-09-27T09:02:39Z</time>
      </trkpt>
      <trkpt lat="45.9247" lon="4.73525">
        <ele>174</ele>
        <time>2017-09-27T09:02:41Z</time>
      </trkpt>
      <trkpt lat="45.9247" lon="4.7352">
        <ele>174</ele>
        <time>2017-09-27T09:02:42Z</time>
      </trkpt>
      <trkpt lat="45.92469" lon="4.73507">
        <ele>174</ele>
        <time>2017-09-27T09:02:44Z</time>
      </trkpt>
      <trkpt lat="45.92468" lon="4.73502">
        <ele>174</ele>
        <time>2017-09-27T09:02:44.862Z</time>
      </trkpt>
      <trkpt lat="45.92469" lon="4.73495">
        <ele>173</ele>
        <time>2017-09-27T09:02:46Z</time>
      </trkpt>
      <trkpt lat="45.92469" lon="4.73489">
        <ele>173</ele>
        <time>2017-09-27T09:02:47Z</time>
      </trkpt>
      <trkpt lat="45.9247" lon="4.73476">
        <ele>173</ele>
        <time>2017-09-27T09:02:49Z</time>
      </trkpt>
      <trkpt lat="45.9247" lon="4.7347">
        <ele>173</ele>
        <time>2017-09-27T09:02:50Z</time>
      </trkpt>
      <trkpt lat="45.92469" lon="4.73464">
        <ele>173</ele>
        <time>2017-09-27T09:02:51Z</time>
      </trkpt>
      <trkpt lat="45.92469" lon="4.73456">
        <ele>173</ele>
        <time>2017-09-27T09:02:52Z</time>
      </trkpt>
      <trkpt lat="45.92468" lon="4.73443">
        <ele>173</ele>
        <time>2017-09-27T09:02:54Z</time>
      </trkpt>
      <trkpt lat="45.92466" lon="4.73437">
        <ele>173</ele>
        <time>2017-09-27T09:02:55Z</time>
      </trkpt>
      <trkpt lat="45.92461" lon="4.73429">
        <ele>173</ele>
        <time>2017-09-27T09:02:57Z</time>
      </trkpt>
      <trkpt lat="45.92457" lon="4.73426">
        <ele>173</ele>
        <time>2017-09-27T09:02:58Z</time>
      </trkpt>
      <trkpt lat="45.92453" lon="4.73422">
        <ele>173</ele>
        <time>2017-09-27T09:02:59Z</time>
      </trkpt>
      <trkpt lat="45.92449" lon="4.73418">
        <ele>173</ele>
        <time>2017-09-27T09:03:00Z</time>
      </trkpt>
      <trkpt lat="45.92444" lon="4.73416">
        <ele>172</ele>
        <time>2017-09-27T09:03:01Z</time>
      </trkpt>
      <trkpt lat="45.9244" lon="4.73412">
        <ele>172</ele>
        <time>2017-09-27T09:03:02Z</time>
      </trkpt>
      <trkpt lat="45.92435" lon="4.73408">
        <ele>172</ele>
        <time>2017-09-27T09:03:03Z</time>
      </trkpt>
      <trkpt lat="45.92431" lon="4.73403">
        <ele>172</ele>
        <time>2017-09-27T09:03:04Z</time>
      </trkpt>
      <trkpt lat="45.92429" lon="4.73396">
        <ele>172</ele>
        <time>2017-09-27T09:03:05Z</time>
      </trkpt>
      <trkpt lat="45.92427" lon="4.7339">
        <ele>172</ele>
        <time>2017-09-27T09:03:06Z</time>
      </trkpt>
      <trkpt lat="45.92426" lon="4.73383">
        <ele>172</ele>
        <time>2017-09-27T09:03:07Z</time>
      </trkpt>
      <trkpt lat="45.92425" lon="4.73376">
        <ele>172</ele>
        <time>2017-09-27T09:03:08Z</time>
      </trkpt>
      <trkpt lat="45.92423" lon="4.73368">
        <ele>172</ele>
        <time>2017-09-27T09:03:09Z</time>
      </trkpt>
      <trkpt lat="45.92422" lon="4.73361">
        <ele>172</ele>
        <time>2017-09-27T09:03:10Z</time>
      </trkpt>
      <trkpt lat="45.92421" lon="4.73353">
        <ele>171</ele>
        <time>2017-09-27T09:03:11Z</time>
      </trkpt>
      <trkpt lat="45.9242" lon="4.73346">
        <ele>171</ele>
        <time>2017-09-27T09:03:12Z</time>
      </trkpt>
      <trkpt lat="45.92418" lon="4.73333">
        <ele>171</ele>
        <time>2017-09-27T09:03:14Z</time>
      </trkpt>
      <trkpt lat="45.92418" lon="4.73327">
        <ele>171</ele>
        <time>2017-09-27T09:03:15Z</time>
      </trkpt>
      <trkpt lat="45.92417" lon="4.7332">
        <ele>171</ele>
        <time>2017-09-27T09:03:16Z</time>
      </trkpt>
      <trkpt lat="45.92416" lon="4.73314">
        <ele>171</ele>
        <time>2017-09-27T09:03:17Z</time>
      </trkpt>
      <trkpt lat="45.92415" lon="4.73302">
        <ele>171</ele>
        <time>2017-09-27T09:03:19Z</time>
      </trkpt>
      <trkpt lat="45.92415" lon="4.73295">
        <ele>171</ele>
        <time>2017-09-27T09:03:20Z</time>
      </trkpt>
      <trkpt lat="45.92415" lon="4.73289">
        <ele>171</ele>
        <time>2017-09-27T09:03:21Z</time>
      </trkpt>
      <trkpt lat="45.92414" lon="4.73282">
        <ele>171</ele>
        <time>2017-09-27T09:03:22Z</time>
      </trkpt>
      <trkpt lat="45.92414" lon="4.73273">
        <ele>171</ele>
        <time>2017-09-27T09:03:23Z</time>
      </trkpt>
      <trkpt lat="45.92414" lon="4.73266">
        <ele>171</ele>
        <time>2017-09-27T09:03:24Z</time>
      </trkpt>
      <trkpt lat="45.92413" lon="4.73259">
        <ele>171</ele>
        <time>2017-09-27T09:03:25Z</time>
      </trkpt>
      <trkpt lat="45.92412" lon="4.73253">
        <ele>171</ele>
        <time>2017-09-27T09:03:26Z</time>
      </trkpt>
      <trkpt lat="45.92412" lon="4.73246">
        <ele>171</ele>
        <time>2017-09-27T09:03:27Z</time>
      </trkpt>
      <trkpt lat="45.92411" lon="4.73239">
        <ele>171</ele>
        <time>2017-09-27T09:03:28Z</time>
      </trkpt>
      <trkpt lat="45.92411" lon="4.73233">
        <ele>171</ele>
        <time>2017-09-27T09:03:29Z</time>
      </trkpt>
      <trkpt lat="45.92411" lon="4.73226">
        <ele>171</ele>
        <time>2017-09-27T09:03:30Z</time>
      </trkpt>
      <trkpt lat="45.9241" lon="4.73219">
        <ele>171</ele>
        <time>2017-09-27T09:03:31Z</time>
      </trkpt>
      <trkpt lat="45.9241" lon="4.73211">
        <ele>171</ele>
        <time>2017-09-27T09:03:32Z</time>
      </trkpt>
      <trkpt lat="45.92409" lon="4.73199">
        <ele>171</ele>
        <time>2017-09-27T09:03:34Z</time>
      </trkpt>
      <trkpt lat="45.92408" lon="4.73192">
        <ele>171</ele>
        <time>2017-09-27T09:03:35Z</time>
      </trkpt>
      <trkpt lat="45.92409" lon="4.73186">
        <ele>171</ele>
        <time>2017-09-27T09:03:36Z</time>
      </trkpt>
      <trkpt lat="45.92409" lon="4.73179">
        <ele>171</ele>
        <time>2017-09-27T09:03:37Z</time>
      </trkpt>
      <trkpt lat="45.92409" lon="4.73171">
        <ele>170</ele>
        <time>2017-09-27T09:03:38Z</time>
      </trkpt>
      <trkpt lat="45.92408" lon="4.73163">
        <ele>170</ele>
        <time>2017-09-27T09:03:39Z</time>
      </trkpt>
      <trkpt lat="45.92408" lon="4.73156">
        <ele>170</ele>
        <time>2017-09-27T09:03:40Z</time>
      </trkpt>
      <trkpt lat="45.92408" lon="4.73147">
        <ele>171</ele>
        <time>2017-09-27T09:03:41Z</time>
      </trkpt>
      <trkpt lat="45.92408" lon="4.7314">
        <ele>171</ele>
        <time>2017-09-27T09:03:42Z</time>
      </trkpt>
      <trkpt lat="45.92409" lon="4.73134">
        <ele>171</ele>
        <time>2017-09-27T09:03:43Z</time>
      </trkpt>
      <trkpt lat="45.9241" lon="4.73123">
        <ele>171</ele>
        <time>2017-09-27T09:03:45Z</time>
      </trkpt>
      <trkpt lat="45.92411" lon="4.73118">
        <ele>171</ele>
        <time>2017-09-27T09:03:46Z</time>
      </trkpt>
      <trkpt lat="45.92416" lon="4.73109">
        <ele>171</ele>
        <time>2017-09-27T09:03:48Z</time>
      </trkpt>
      <trkpt lat="45.92421" lon="4.73106">
        <ele>171</ele>
        <time>2017-09-27T09:03:49Z</time>
      </trkpt>
      <trkpt lat="45.92425" lon="4.73103">
        <ele>171</ele>
        <time>2017-09-27T09:03:50Z</time>
      </trkpt>
      <trkpt lat="45.92429" lon="4.731">
        <ele>171</ele>
        <time>2017-09-27T09:03:51Z</time>
      </trkpt>
      <trkpt lat="45.92434" lon="4.73096">
        <ele>171</ele>
        <time>2017-09-27T09:03:52Z</time>
      </trkpt>
      <trkpt lat="45.92438" lon="4.73092">
        <ele>171</ele>
        <time>2017-09-27T09:03:53Z</time>
      </trkpt>
      <trkpt lat="45.92443" lon="4.73087">
        <ele>170</ele>
        <time>2017-09-27T09:03:54Z</time>
      </trkpt>
      <trkpt lat="45.92447" lon="4.73084">
        <ele>170</ele>
        <time>2017-09-27T09:03:55Z</time>
      </trkpt>
      <trkpt lat="45.92452" lon="4.7308">
        <ele>170</ele>
        <time>2017-09-27T09:03:56Z</time>
      </trkpt>
      <trkpt lat="45.92457" lon="4.73078">
        <ele>170</ele>
        <time>2017-09-27T09:03:57Z</time>
      </trkpt>
      <trkpt lat="45.92461" lon="4.73074">
        <ele>170</ele>
        <time>2017-09-27T09:03:58Z</time>
      </trkpt>
      <trkpt lat="45.92465" lon="4.7307">
        <ele>170</ele>
        <time>2017-09-27T09:03:59Z</time>
      </trkpt>
      <trkpt lat="45.9247" lon="4.73067">
        <ele>170</ele>
        <time>2017-09-27T09:04:00Z</time>
      </trkpt>
      <trkpt lat="45.92474" lon="4.73063">
        <ele>170</ele>
        <time>2017-09-27T09:04:01Z</time>
      </trkpt>
      <trkpt lat="45.92479" lon="4.73059">
        <ele>170</ele>
        <time>2017-09-27T09:04:02Z</time>
      </trkpt>
      <trkpt lat="45.92484" lon="4.73055">
        <ele>170</ele>
        <time>2017-09-27T09:04:03Z</time>
      </trkpt>
      <trkpt lat="45.92489" lon="4.73051">
        <ele>170</ele>
        <time>2017-09-27T09:04:04Z</time>
      </trkpt>
      <trkpt lat="45.92494" lon="4.73045">
        <ele>170</ele>
        <time>2017-09-27T09:04:05Z</time>
      </trkpt>
      <trkpt lat="45.925" lon="4.73041">
        <ele>170</ele>
        <time>2017-09-27T09:04:06Z</time>
      </trkpt>
      <trkpt lat="45.92504" lon="4.73036">
        <ele>169</ele>
        <time>2017-09-27T09:04:07Z</time>
      </trkpt>
      <trkpt lat="45.92509" lon="4.73032">
        <ele>169</ele>
        <time>2017-09-27T09:04:08Z</time>
      </trkpt>
      <trkpt lat="45.92514" lon="4.73028">
        <ele>169</ele>
        <time>2017-09-27T09:04:09Z</time>
      </trkpt>
      <trkpt lat="45.92519" lon="4.73024">
        <ele>169</ele>
        <time>2017-09-27T09:04:10Z</time>
      </trkpt>
      <trkpt lat="45.92523" lon="4.73021">
        <ele>169</ele>
        <time>2017-09-27T09:04:11Z</time>
      </trkpt>
      <trkpt lat="45.92528" lon="4.73017">
        <ele>169</ele>
        <time>2017-09-27T09:04:12Z</time>
      </trkpt>
      <trkpt lat="45.92532" lon="4.73012">
        <ele>169</ele>
        <time>2017-09-27T09:04:13Z</time>
      </trkpt>
      <trkpt lat="45.92537" lon="4.73008">
        <ele>169</ele>
        <time>2017-09-27T09:04:14Z</time>
      </trkpt>
      <trkpt lat="45.92541" lon="4.73004">
        <ele>169</ele>
        <time>2017-09-27T09:04:15Z</time>
      </trkpt>
      <trkpt lat="45.92545" lon="4.73">
        <ele>169</ele>
        <time>2017-09-27T09:04:16Z</time>
      </trkpt>
      <trkpt lat="45.9255" lon="4.72996">
        <ele>169</ele>
        <time>2017-09-27T09:04:17Z</time>
      </trkpt>
      <trkpt lat="45.92554" lon="4.72992">
        <ele>169</ele>
        <time>2017-09-27T09:04:18Z</time>
      </trkpt>
      <trkpt lat="45.92558" lon="4.72987">
        <ele>169</ele>
        <time>2017-09-27T09:04:19Z</time>
      </trkpt>
      <trkpt lat="45.92563" lon="4.72982">
        <ele>169</ele>
        <time>2017-09-27T09:04:20Z</time>
      </trkpt>
      <trkpt lat="45.92567" lon="4.72978">
        <ele>169</ele>
        <time>2017-09-27T09:04:21Z</time>
      </trkpt>
      <trkpt lat="45.92571" lon="4.72974">
        <ele>169</ele>
        <time>2017-09-27T09:04:22Z</time>
      </trkpt>
      <trkpt lat="45.92575" lon="4.7297">
        <ele>169</ele>
        <time>2017-09-27T09:04:23Z</time>
      </trkpt>
      <trkpt lat="45.92579" lon="4.72966">
        <ele>169</ele>
        <time>2017-09-27T09:04:24Z</time>
      </trkpt>
      <trkpt lat="45.92583" lon="4.72961">
        <ele>169</ele>
        <time>2017-09-27T09:04:25Z</time>
      </trkpt>
      <trkpt lat="45.92587" lon="4.72957">
        <ele>169</ele>
        <time>2017-09-27T09:04:26Z</time>
      </trkpt>
      <trkpt lat="45.92591" lon="4.72953">
        <ele>169</ele>
        <time>2017-09-27T09:04:27Z</time>
      </trkpt>
      <trkpt lat="45.92595" lon="4.72949">
        <ele>169</ele>
        <time>2017-09-27T09:04:28Z</time>
      </trkpt>
      <trkpt lat="45.92599" lon="4.72944">
        <ele>169</ele>
        <time>2017-09-27T09:04:29Z</time>
      </trkpt>
      <trkpt lat="45.92602" lon="4.72939">
        <ele>169</ele>
        <time>2017-09-27T09:04:30Z</time>
      </trkpt>
      <trkpt lat="45.92606" lon="4.72934">
        <ele>169</ele>
        <time>2017-09-27T09:04:31Z</time>
      </trkpt>
      <trkpt lat="45.92611" lon="4.72929">
        <ele>169</ele>
        <time>2017-09-27T09:04:32Z</time>
      </trkpt>
      <trkpt lat="45.92615" lon="4.72924">
        <ele>169</ele>
        <time>2017-09-27T09:04:33Z</time>
      </trkpt>
      <trkpt lat="45.9262" lon="4.72921">
        <ele>169</ele>
        <time>2017-09-27T09:04:34Z</time>
      </trkpt>
      <trkpt lat="45.92625" lon="4.72917">
        <ele>169</ele>
        <time>2017-09-27T09:04:35Z</time>
      </trkpt>
      <trkpt lat="45.92629" lon="4.72913">
        <ele>169</ele>
        <time>2017-09-27T09:04:36Z</time>
      </trkpt>
      <trkpt lat="45.92635" lon="4.72909">
        <ele>169</ele>
        <time>2017-09-27T09:04:37Z</time>
      </trkpt>
      <trkpt lat="45.9264" lon="4.72905">
        <ele>169</ele>
        <time>2017-09-27T09:04:38Z</time>
      </trkpt>
      <trkpt lat="45.92645" lon="4.72901">
        <ele>169</ele>
        <time>2017-09-27T09:04:39Z</time>
      </trkpt>
      <trkpt lat="45.92651" lon="4.72897">
        <ele>170</ele>
        <time>2017-09-27T09:04:40Z</time>
      </trkpt>
      <trkpt lat="45.92656" lon="4.72894">
        <ele>169</ele>
        <time>2017-09-27T09:04:41Z</time>
      </trkpt>
      <trkpt lat="45.92661" lon="4.72889">
        <ele>169</ele>
        <time>2017-09-27T09:04:42Z</time>
      </trkpt>
      <trkpt lat="45.92666" lon="4.72886">
        <ele>169</ele>
        <time>2017-09-27T09:04:43Z</time>
      </trkpt>
      <trkpt lat="45.9267" lon="4.72881">
        <ele>170</ele>
        <time>2017-09-27T09:04:44Z</time>
      </trkpt>
      <trkpt lat="45.92675" lon="4.72878">
        <ele>170</ele>
        <time>2017-09-27T09:04:45Z</time>
      </trkpt>
      <trkpt lat="45.92679" lon="4.72873">
        <ele>169</ele>
        <time>2017-09-27T09:04:46Z</time>
      </trkpt>
      <trkpt lat="45.92684" lon="4.7287">
        <ele>169</ele>
        <time>2017-09-27T09:04:47Z</time>
      </trkpt>
      <trkpt lat="45.92689" lon="4.72865">
        <ele>169</ele>
        <time>2017-09-27T09:04:48Z</time>
      </trkpt>
      <trkpt lat="45.92694" lon="4.72862">
        <ele>169</ele>
        <time>2017-09-27T09:04:49Z</time>
      </trkpt>
      <trkpt lat="45.92699" lon="4.72857">
        <ele>169</ele>
        <time>2017-09-27T09:04:50Z</time>
      </trkpt>
      <trkpt lat="45.92704" lon="4.72853">
        <ele>169</ele>
        <time>2017-09-27T09:04:51Z</time>
      </trkpt>
      <trkpt lat="45.92709" lon="4.72849">
        <ele>169</ele>
        <time>2017-09-27T09:04:52Z</time>
      </trkpt>
      <trkpt lat="45.92714" lon="4.72845">
        <ele>169</ele>
        <time>2017-09-27T09:04:53Z</time>
      </trkpt>
      <trkpt lat="45.92719" lon="4.72841">
        <ele>169</ele>
        <time>2017-09-27T09:04:54Z</time>
      </trkpt>
      <trkpt lat="45.92723" lon="4.72838">
        <ele>169</ele>
        <time>2017-09-27T09:04:55Z</time>
      </trkpt>
      <trkpt lat="45.92728" lon="4.72835">
        <ele>169</ele>
        <time>2017-09-27T09:04:56Z</time>
      </trkpt>
      <trkpt lat="45.92733" lon="4.72832">
        <ele>169</ele>
        <time>2017-09-27T09:04:57Z</time>
      </trkpt>
      <trkpt lat="45.92737" lon="4.72829">
        <ele>169</ele>
        <time>2017-09-27T09:04:58Z</time>
      </trkpt>
      <trkpt lat="45.92742" lon="4.72826">
        <ele>169</ele>
        <time>2017-09-27T09:04:59Z</time>
      </trkpt>
      <trkpt lat="45.92747" lon="4.72822">
        <ele>169</ele>
        <time>2017-09-27T09:05:00Z</time>
      </trkpt>
      <trkpt lat="45.92751" lon="4.72818">
        <ele>170</ele>
        <time>2017-09-27T09:05:01Z</time>
      </trkpt>
      <trkpt lat="45.92756" lon="4.72814">
        <ele>170</ele>
        <time>2017-09-27T09:05:02Z</time>
      </trkpt>
      <trkpt lat="45.9276" lon="4.7281">
        <ele>170</ele>
        <time>2017-09-27T09:05:03Z</time>
      </trkpt>
      <trkpt lat="45.92765" lon="4.72805">
        <ele>170</ele>
        <time>2017-09-27T09:05:04Z</time>
      </trkpt>
      <trkpt lat="45.92769" lon="4.72801">
        <ele>170</ele>
        <time>2017-09-27T09:05:05Z</time>
      </trkpt>
      <trkpt lat="45.92773" lon="4.72797">
        <ele>170</ele>
        <time>2017-09-27T09:05:06Z</time>
      </trkpt>
      <trkpt lat="45.92778" lon="4.72795">
        <ele>170</ele>
        <time>2017-09-27T09:05:07Z</time>
      </trkpt>
      <trkpt lat="45.92782" lon="4.72791">
        <ele>170</ele>
        <time>2017-09-27T09:05:08Z</time>
      </trkpt>
      <trkpt lat="45.92786" lon="4.72787">
        <ele>171</ele>
        <time>2017-09-27T09:05:09Z</time>
      </trkpt>
      <trkpt lat="45.92794" lon="4.72783">
        <ele>171</ele>
        <time>2017-09-27T09:05:11Z</time>
      </trkpt>
      <trkpt lat="45.92799" lon="4.72783">
        <ele>171</ele>
        <time>2017-09-27T09:05:12Z</time>
      </trkpt>
      <trkpt lat="45.92804" lon="4.72792">
        <ele>171</ele>
        <time>2017-09-27T09:05:14Z</time>
      </trkpt>
      <trkpt lat="45.92805" lon="4.72798">
        <ele>171</ele>
        <time>2017-09-27T09:05:15Z</time>
      </trkpt>
      <trkpt lat="45.92806" lon="4.72805">
        <ele>171</ele>
        <time>2017-09-27T09:05:16Z</time>
      </trkpt>
      <trkpt lat="45.92807" lon="4.72812">
        <ele>171</ele>
        <time>2017-09-27T09:05:17Z</time>
      </trkpt>
      <trkpt lat="45.92807" lon="4.7282">
        <ele>171</ele>
        <time>2017-09-27T09:05:18Z</time>
      </trkpt>
      <trkpt lat="45.92809" lon="4.72829">
        <ele>171</ele>
        <time>2017-09-27T09:05:19Z</time>
      </trkpt>
      <trkpt lat="45.9281" lon="4.72836">
        <ele>170</ele>
        <time>2017-09-27T09:05:20Z</time>
      </trkpt>
      <trkpt lat="45.92812" lon="4.72844">
        <ele>170</ele>
        <time>2017-09-27T09:05:21Z</time>
      </trkpt>
      <trkpt lat="45.92813" lon="4.72853">
        <ele>170</ele>
        <time>2017-09-27T09:05:22Z</time>
      </trkpt>
      <trkpt lat="45.92815" lon="4.72861">
        <ele>170</ele>
        <time>2017-09-27T09:05:23Z</time>
      </trkpt>
      <trkpt lat="45.92817" lon="4.72868">
        <ele>170</ele>
        <time>2017-09-27T09:05:24Z</time>
      </trkpt>
      <trkpt lat="45.92819" lon="4.72876">
        <ele>170</ele>
        <time>2017-09-27T09:05:25Z</time>
      </trkpt>
      <trkpt lat="45.9282" lon="4.72883">
        <ele>170</ele>
        <time>2017-09-27T09:05:26Z</time>
      </trkpt>
      <trkpt lat="45.92821" lon="4.7289">
        <ele>170</ele>
        <time>2017-09-27T09:05:27Z</time>
      </trkpt>
      <trkpt lat="45.92822" lon="4.72896">
        <ele>170</ele>
        <time>2017-09-27T09:05:28Z</time>
      </trkpt>
      <trkpt lat="45.92823" lon="4.72903">
        <ele>170</ele>
        <time>2017-09-27T09:05:29Z</time>
      </trkpt>
      <trkpt lat="45.92823" lon="4.72911">
        <ele>170</ele>
        <time>2017-09-27T09:05:30Z</time>
      </trkpt>
      <trkpt lat="45.92824" lon="4.72918">
        <ele>170</ele>
        <time>2017-09-27T09:05:31Z</time>
      </trkpt>
      <trkpt lat="45.92826" lon="4.72926">
        <ele>170</ele>
        <time>2017-09-27T09:05:32Z</time>
      </trkpt>
      <trkpt lat="45.92826" lon="4.72935">
        <ele>170</ele>
        <time>2017-09-27T09:05:33Z</time>
      </trkpt>
      <trkpt lat="45.92827" lon="4.72942">
        <ele>170</ele>
        <time>2017-09-27T09:05:34Z</time>
      </trkpt>
      <trkpt lat="45.92827" lon="4.7295">
        <ele>170</ele>
        <time>2017-09-27T09:05:35Z</time>
      </trkpt>
      <trkpt lat="45.92828" lon="4.72957">
        <ele>170</ele>
        <time>2017-09-27T09:05:36Z</time>
      </trkpt>
      <trkpt lat="45.92829" lon="4.72964">
        <ele>170</ele>
        <time>2017-09-27T09:05:37Z</time>
      </trkpt>
      <trkpt lat="45.92829" lon="4.72972">
        <ele>170</ele>
        <time>2017-09-27T09:05:38Z</time>
      </trkpt>
      <trkpt lat="45.9283" lon="4.72979">
        <ele>170</ele>
        <time>2017-09-27T09:05:39Z</time>
      </trkpt>
      <trkpt lat="45.9283" lon="4.72986">
        <ele>170</ele>
        <time>2017-09-27T09:05:40Z</time>
      </trkpt>
      <trkpt lat="45.92831" lon="4.72994">
        <ele>170</ele>
        <time>2017-09-27T09:05:41Z</time>
      </trkpt>
      <trkpt lat="45.92833" lon="4.73002">
        <ele>170</ele>
        <time>2017-09-27T09:05:42Z</time>
      </trkpt>
      <trkpt lat="45.92834" lon="4.73009">
        <ele>170</ele>
        <time>2017-09-27T09:05:43Z</time>
      </trkpt>
      <trkpt lat="45.92835" lon="4.73017">
        <ele>171</ele>
        <time>2017-09-27T09:05:44Z</time>
      </trkpt>
      <trkpt lat="45.92837" lon="4.73025">
        <ele>171</ele>
        <time>2017-09-27T09:05:45Z</time>
      </trkpt>
      <trkpt lat="45.92838" lon="4.73033">
        <ele>171</ele>
        <time>2017-09-27T09:05:46Z</time>
      </trkpt>
      <trkpt lat="45.9284" lon="4.73041">
        <ele>171</ele>
        <time>2017-09-27T09:05:47Z</time>
      </trkpt>
      <trkpt lat="45.92841" lon="4.73048">
        <ele>171</ele>
        <time>2017-09-27T09:05:48Z</time>
      </trkpt>
      <trkpt lat="45.92842" lon="4.73056">
        <ele>171</ele>
        <time>2017-09-27T09:05:49Z</time>
      </trkpt>
      <trkpt lat="45.92844" lon="4.73062">
        <ele>171</ele>
        <time>2017-09-27T09:05:50Z</time>
      </trkpt>
      <trkpt lat="45.92846" lon="4.73069">
        <ele>171</ele>
        <time>2017-09-27T09:05:51Z</time>
      </trkpt>
      <trkpt lat="45.92847" lon="4.73082">
        <ele>171</ele>
        <time>2017-09-27T09:05:53Z</time>
      </trkpt>
      <trkpt lat="45.92847" lon="4.73089">
        <ele>171</ele>
        <time>2017-09-27T09:05:54Z</time>
      </trkpt>
      <trkpt lat="45.9285" lon="4.73096">
        <ele>171</ele>
        <time>2017-09-27T09:05:56Z</time>
      </trkpt>
      <trkpt lat="45.92852" lon="4.731">
        <ele>171</ele>
        <time>2017-09-27T09:05:57Z</time>
      </trkpt>
      <trkpt lat="45.92858" lon="4.73102">
        <ele>171</ele>
        <time>2017-09-27T09:05:59Z</time>
      </trkpt>
      <trkpt lat="45.92862" lon="4.73096">
        <ele>171</ele>
        <time>2017-09-27T09:06:00Z</time>
      </trkpt>
      <trkpt lat="45.92867" lon="4.73089">
        <ele>172</ele>
        <time>2017-09-27T09:06:02Z</time>
      </trkpt>
      <trkpt lat="45.9287" lon="4.73086">
        <ele>172</ele>
        <time>2017-09-27T09:06:03Z</time>
      </trkpt>
      <trkpt lat="45.92875" lon="4.7308">
        <ele>172</ele>
        <time>2017-09-27T09:06:05Z</time>
      </trkpt>
      <trkpt lat="45.92879" lon="4.73079">
        <ele>172</ele>
        <time>2017-09-27T09:06:06Z</time>
      </trkpt>
      <trkpt lat="45.92887" lon="4.73075">
        <ele>172</ele>
        <time>2017-09-27T09:06:08Z</time>
      </trkpt>
      <trkpt lat="45.92891" lon="4.7307">
        <ele>172</ele>
        <time>2017-09-27T09:06:09Z</time>
      </trkpt>
      <trkpt lat="45.92894" lon="4.73064">
        <ele>172</ele>
        <time>2017-09-27T09:06:10Z</time>
      </trkpt>
      <trkpt lat="45.92897" lon="4.73059">
        <ele>172</ele>
        <time>2017-09-27T09:06:11Z</time>
      </trkpt>
      <trkpt lat="45.92901" lon="4.73052">
        <ele>172</ele>
        <time>2017-09-27T09:06:12Z</time>
      </trkpt>
      <trkpt lat="45.92904" lon="4.73046">
        <ele>172</ele>
        <time>2017-09-27T09:06:13Z</time>
      </trkpt>
      <trkpt lat="45.92908" lon="4.73042">
        <ele>172</ele>
        <time>2017-09-27T09:06:14Z</time>
      </trkpt>
      <trkpt lat="45.92911" lon="4.73037">
        <ele>172</ele>
        <time>2017-09-27T09:06:15Z</time>
      </trkpt>
      <trkpt lat="45.92914" lon="4.73032">
        <ele>172</ele>
        <time>2017-09-27T09:06:16Z</time>
      </trkpt>
      <trkpt lat="45.92918" lon="4.73027">
        <ele>172</ele>
        <time>2017-09-27T09:06:17Z</time>
      </trkpt>
      <trkpt lat="45.92922" lon="4.73023">
        <ele>172</ele>
        <time>2017-09-27T09:06:18Z</time>
      </trkpt>
      <trkpt lat="45.92926" lon="4.73018">
        <ele>171</ele>
        <time>2017-09-27T09:06:19Z</time>
      </trkpt>
      <trkpt lat="45.9293" lon="4.73012">
        <ele>171</ele>
        <time>2017-09-27T09:06:20Z</time>
      </trkpt>
      <trkpt lat="45.92935" lon="4.73006">
        <ele>171</ele>
        <time>2017-09-27T09:06:21Z</time>
      </trkpt>
      <trkpt lat="45.92938" lon="4.73">
        <ele>171</ele>
        <time>2017-09-27T09:06:22Z</time>
      </trkpt>
      <trkpt lat="45.92942" lon="4.72996">
        <ele>171</ele>
        <time>2017-09-27T09:06:23Z</time>
      </trkpt>
      <trkpt lat="45.92946" lon="4.72991">
        <ele>171</ele>
        <time>2017-09-27T09:06:24Z</time>
      </trkpt>
      <trkpt lat="45.9295" lon="4.72986">
        <ele>171</ele>
        <time>2017-09-27T09:06:25Z</time>
      </trkpt>
      <trkpt lat="45.92954" lon="4.72981">
        <ele>171</ele>
        <time>2017-09-27T09:06:26Z</time>
      </trkpt>
      <trkpt lat="45.92959" lon="4.72976">
        <ele>171</ele>
        <time>2017-09-27T09:06:27Z</time>
      </trkpt>
      <trkpt lat="45.92964" lon="4.72971">
        <ele>171</ele>
        <time>2017-09-27T09:06:28Z</time>
      </trkpt>
      <trkpt lat="45.92968" lon="4.72966">
        <ele>171</ele>
        <time>2017-09-27T09:06:29Z</time>
      </trkpt>
      <trkpt lat="45.92973" lon="4.72961">
        <ele>171</ele>
        <time>2017-09-27T09:06:30Z</time>
      </trkpt>
      <trkpt lat="45.92977" lon="4.72956">
        <ele>171</ele>
        <time>2017-09-27T09:06:31Z</time>
      </trkpt>
      <trkpt lat="45.92981" lon="4.72951">
        <ele>171</ele>
        <time>2017-09-27T09:06:32Z</time>
      </trkpt>
      <trkpt lat="45.92985" lon="4.72946">
        <ele>171</ele>
        <time>2017-09-27T09:06:33Z</time>
      </trkpt>
      <trkpt lat="45.92989" lon="4.72941">
        <ele>171</ele>
        <time>2017-09-27T09:06:34Z</time>
      </trkpt>
      <trkpt lat="45.92993" lon="4.72936">
        <ele>171</ele>
        <time>2017-09-27T09:06:35Z</time>
      </trkpt>
      <trkpt lat="45.92998" lon="4.72932">
        <ele>171</ele>
        <time>2017-09-27T09:06:36Z</time>
      </trkpt>
      <trkpt lat="45.93001" lon="4.72927">
        <ele>170</ele>
        <time>2017-09-27T09:06:37Z</time>
      </trkpt>
      <trkpt lat="45.93004" lon="4.72923">
        <ele>171</ele>
        <time>2017-09-27T09:06:38Z</time>
      </trkpt>
      <trkpt lat="45.93008" lon="4.72918">
        <ele>170</ele>
        <time>2017-09-27T09:06:39Z</time>
      </trkpt>
      <trkpt lat="45.93012" lon="4.72913">
        <ele>171</ele>
        <time>2017-09-27T09:06:40Z</time>
      </trkpt>
      <trkpt lat="45.93016" lon="4.72909">
        <ele>171</ele>
        <time>2017-09-27T09:06:41Z</time>
      </trkpt>
      <trkpt lat="45.9302" lon="4.72902">
        <ele>172</ele>
        <time>2017-09-27T09:06:42Z</time>
      </trkpt>
      <trkpt lat="45.93024" lon="4.72897">
        <ele>172</ele>
        <time>2017-09-27T09:06:43Z</time>
      </trkpt>
      <trkpt lat="45.93029" lon="4.72892">
        <ele>172</ele>
        <time>2017-09-27T09:06:44Z</time>
      </trkpt>
      <trkpt lat="45.93033" lon="4.72887">
        <ele>172</ele>
        <time>2017-09-27T09:06:45Z</time>
      </trkpt>
      <trkpt lat="45.93038" lon="4.72881">
        <ele>172</ele>
        <time>2017-09-27T09:06:46Z</time>
      </trkpt>
      <trkpt lat="45.93043" lon="4.72876">
        <ele>172</ele>
        <time>2017-09-27T09:06:47Z</time>
      </trkpt>
      <trkpt lat="45.93046" lon="4.72871">
        <ele>172</ele>
        <time>2017-09-27T09:06:48Z</time>
      </trkpt>
      <trkpt lat="45.93051" lon="4.72865">
        <ele>172</ele>
        <time>2017-09-27T09:06:49Z</time>
      </trkpt>
      <trkpt lat="45.93054" lon="4.72861">
        <ele>172</ele>
        <time>2017-09-27T09:06:50Z</time>
      </trkpt>
      <trkpt lat="45.93058" lon="4.72857">
        <ele>172</ele>
        <time>2017-09-27T09:06:51Z</time>
      </trkpt>
      <trkpt lat="45.93062" lon="4.72852">
        <ele>172</ele>
        <time>2017-09-27T09:06:52Z</time>
      </trkpt>
      <trkpt lat="45.93065" lon="4.72847">
        <ele>172</ele>
        <time>2017-09-27T09:06:53Z</time>
      </trkpt>
      <trkpt lat="45.93073" lon="4.72842">
        <ele>173</ele>
        <time>2017-09-27T09:06:55Z</time>
      </trkpt>
      <trkpt lat="45.93076" lon="4.72839">
        <ele>173</ele>
        <time>2017-09-27T09:06:56Z</time>
      </trkpt>
      <trkpt lat="45.93081" lon="4.72833">
        <ele>173</ele>
        <time>2017-09-27T09:06:57Z</time>
      </trkpt>
      <trkpt lat="45.93085" lon="4.72828">
        <ele>173</ele>
        <time>2017-09-27T09:06:58Z</time>
      </trkpt>
      <trkpt lat="45.9309" lon="4.72822">
        <ele>172</ele>
        <time>2017-09-27T09:06:59Z</time>
      </trkpt>
      <trkpt lat="45.93095" lon="4.72818">
        <ele>172</ele>
        <time>2017-09-27T09:07:00Z</time>
      </trkpt>
      <trkpt lat="45.93098" lon="4.72807">
        <ele>172</ele>
        <time>2017-09-27T09:07:01Z</time>
      </trkpt>
      <trkpt lat="45.93105" lon="4.72805">
        <ele>171</ele>
        <time>2017-09-27T09:07:02Z</time>
      </trkpt>
      <trkpt lat="45.9311" lon="4.72801">
        <ele>171</ele>
        <time>2017-09-27T09:07:03Z</time>
      </trkpt>
      <trkpt lat="45.93113" lon="4.72796">
        <ele>171</ele>
        <time>2017-09-27T09:07:04Z</time>
      </trkpt>
      <trkpt lat="45.93117" lon="4.72792">
        <ele>171</ele>
        <time>2017-09-27T09:07:05Z</time>
      </trkpt>
      <trkpt lat="45.93122" lon="4.72788">
        <ele>171</ele>
        <time>2017-09-27T09:07:06Z</time>
      </trkpt>
      <trkpt lat="45.93126" lon="4.72782">
        <ele>171</ele>
        <time>2017-09-27T09:07:07Z</time>
      </trkpt>
      <trkpt lat="45.93129" lon="4.72778">
        <ele>171</ele>
        <time>2017-09-27T09:07:08Z</time>
      </trkpt>
      <trkpt lat="45.93134" lon="4.72772">
        <ele>171</ele>
        <time>2017-09-27T09:07:09Z</time>
      </trkpt>
      <trkpt lat="45.93138" lon="4.72768">
        <ele>171</ele>
        <time>2017-09-27T09:07:10Z</time>
      </trkpt>
      <trkpt lat="45.93142" lon="4.72763">
        <ele>171</ele>
        <time>2017-09-27T09:07:11Z</time>
      </trkpt>
      <trkpt lat="45.93147" lon="4.72759">
        <ele>171</ele>
        <time>2017-09-27T09:07:12Z</time>
      </trkpt>
      <trkpt lat="45.9315" lon="4.72753">
        <ele>170</ele>
        <time>2017-09-27T09:07:13Z</time>
      </trkpt>
      <trkpt lat="45.93155" lon="4.72748">
        <ele>170</ele>
        <time>2017-09-27T09:07:14Z</time>
      </trkpt>
      <trkpt lat="45.93159" lon="4.72743">
        <ele>170</ele>
        <time>2017-09-27T09:07:15Z</time>
      </trkpt>
      <trkpt lat="45.93163" lon="4.72738">
        <ele>170</ele>
        <time>2017-09-27T09:07:16Z</time>
      </trkpt>
      <trkpt lat="45.93167" lon="4.72734">
        <ele>170</ele>
        <time>2017-09-27T09:07:17Z</time>
      </trkpt>
      <trkpt lat="45.9317" lon="4.72729">
        <ele>170</ele>
        <time>2017-09-27T09:07:18Z</time>
      </trkpt>
      <trkpt lat="45.93173" lon="4.72723">
        <ele>170</ele>
        <time>2017-09-27T09:07:19Z</time>
      </trkpt>
      <trkpt lat="45.93177" lon="4.72719">
        <ele>169</ele>
        <time>2017-09-27T09:07:20Z</time>
      </trkpt>
      <trkpt lat="45.93182" lon="4.72714">
        <ele>169</ele>
        <time>2017-09-27T09:07:21Z</time>
      </trkpt>
      <trkpt lat="45.93186" lon="4.72709">
        <ele>169</ele>
        <time>2017-09-27T09:07:22Z</time>
      </trkpt>
      <trkpt lat="45.93191" lon="4.72705">
        <ele>169</ele>
        <time>2017-09-27T09:07:23Z</time>
      </trkpt>
      <trkpt lat="45.93196" lon="4.72699">
        <ele>169</ele>
        <time>2017-09-27T09:07:24Z</time>
      </trkpt>
      <trkpt lat="45.932" lon="4.72694">
        <ele>169</ele>
        <time>2017-09-27T09:07:25Z</time>
      </trkpt>
      <trkpt lat="45.93204" lon="4.72689">
        <ele>169</ele>
        <time>2017-09-27T09:07:26Z</time>
      </trkpt>
      <trkpt lat="45.93208" lon="4.72685">
        <ele>169</ele>
        <time>2017-09-27T09:07:27Z</time>
      </trkpt>
      <trkpt lat="45.93212" lon="4.72682">
        <ele>169</ele>
        <time>2017-09-27T09:07:28Z</time>
      </trkpt>
      <trkpt lat="45.93216" lon="4.72677">
        <ele>169</ele>
        <time>2017-09-27T09:07:29Z</time>
      </trkpt>
      <trkpt lat="45.9322" lon="4.72672">
        <ele>169</ele>
        <time>2017-09-27T09:07:30Z</time>
      </trkpt>
      <trkpt lat="45.93224" lon="4.72667">
        <ele>170</ele>
        <time>2017-09-27T09:07:31Z</time>
      </trkpt>
      <trkpt lat="45.93228" lon="4.72662">
        <ele>169</ele>
        <time>2017-09-27T09:07:32Z</time>
      </trkpt>
      <trkpt lat="45.93232" lon="4.72658">
        <ele>169</ele>
        <time>2017-09-27T09:07:33Z</time>
      </trkpt>
      <trkpt lat="45.93236" lon="4.72654">
        <ele>169</ele>
        <time>2017-09-27T09:07:34Z</time>
      </trkpt>
      <trkpt lat="45.9324" lon="4.72649">
        <ele>169</ele>
        <time>2017-09-27T09:07:35Z</time>
      </trkpt>
      <trkpt lat="45.93245" lon="4.72643">
        <ele>170</ele>
        <time>2017-09-27T09:07:36Z</time>
      </trkpt>
      <trkpt lat="45.9325" lon="4.72637">
        <ele>170</ele>
        <time>2017-09-27T09:07:37Z</time>
      </trkpt>
      <trkpt lat="45.93254" lon="4.72632">
        <ele>170</ele>
        <time>2017-09-27T09:07:38Z</time>
      </trkpt>
      <trkpt lat="45.93259" lon="4.72627">
        <ele>170</ele>
        <time>2017-09-27T09:07:39Z</time>
      </trkpt>
      <trkpt lat="45.93263" lon="4.72622">
        <ele>170</ele>
        <time>2017-09-27T09:07:40Z</time>
      </trkpt>
      <trkpt lat="45.93267" lon="4.72617">
        <ele>170</ele>
        <time>2017-09-27T09:07:41Z</time>
      </trkpt>
      <trkpt lat="45.93271" lon="4.72611">
        <ele>170</ele>
        <time>2017-09-27T09:07:42Z</time>
      </trkpt>
      <trkpt lat="45.93275" lon="4.72607">
        <ele>170</ele>
        <time>2017-09-27T09:07:43Z</time>
      </trkpt>
      <trkpt lat="45.93279" lon="4.72602">
        <ele>170</ele>
        <time>2017-09-27T09:07:44Z</time>
      </trkpt>
      <trkpt lat="45.93283" lon="4.72598">
        <ele>170</ele>
        <time>2017-09-27T09:07:45Z</time>
      </trkpt>
      <trkpt lat="45.93287" lon="4.72594">
        <ele>170</ele>
        <time>2017-09-27T09:07:46Z</time>
      </trkpt>
      <trkpt lat="45.9329" lon="4.72589">
        <ele>170</ele>
        <time>2017-09-27T09:07:47Z</time>
      </trkpt>
      <trkpt lat="45.93295" lon="4.72584">
        <ele>170</ele>
        <time>2017-09-27T09:07:48Z</time>
      </trkpt>
      <trkpt lat="45.933" lon="4.7258">
        <ele>171</ele>
        <time>2017-09-27T09:07:49Z</time>
      </trkpt>
      <trkpt lat="45.93304" lon="4.72574">
        <ele>171</ele>
        <time>2017-09-27T09:07:50Z</time>
      </trkpt>
      <trkpt lat="45.93308" lon="4.72569">
        <ele>171</ele>
        <time>2017-09-27T09:07:51Z</time>
      </trkpt>
      <trkpt lat="45.93313" lon="4.72564">
        <ele>171</ele>
        <time>2017-09-27T09:07:52Z</time>
      </trkpt>
      <trkpt lat="45.93317" lon="4.72556">
        <ele>171</ele>
        <time>2017-09-27T09:07:53Z</time>
      </trkpt>
      <trkpt lat="45.93322" lon="4.72552">
        <ele>172</ele>
        <time>2017-09-27T09:07:54Z</time>
      </trkpt>
      <trkpt lat="45.93325" lon="4.72547">
        <ele>172</ele>
        <time>2017-09-27T09:07:55Z</time>
      </trkpt>
      <trkpt lat="45.93329" lon="4.72543">
        <ele>172</ele>
        <time>2017-09-27T09:07:56Z</time>
      </trkpt>
      <trkpt lat="45.93333" lon="4.72538">
        <ele>172</ele>
        <time>2017-09-27T09:07:57Z</time>
      </trkpt>
      <trkpt lat="45.93337" lon="4.72534">
        <ele>172</ele>
        <time>2017-09-27T09:07:58Z</time>
      </trkpt>
      <trkpt lat="45.93341" lon="4.72531">
        <ele>172</ele>
        <time>2017-09-27T09:07:59Z</time>
      </trkpt>
      <trkpt lat="45.93345" lon="4.72526">
        <ele>172</ele>
        <time>2017-09-27T09:08:00Z</time>
      </trkpt>
      <trkpt lat="45.93349" lon="4.72522">
        <ele>172</ele>
        <time>2017-09-27T09:08:01Z</time>
      </trkpt>
      <trkpt lat="45.93355" lon="4.72514">
        <ele>172</ele>
        <time>2017-09-27T09:08:02Z</time>
      </trkpt>
      <trkpt lat="45.93359" lon="4.72509">
        <ele>172</ele>
        <time>2017-09-27T09:08:03Z</time>
      </trkpt>
      <trkpt lat="45.93363" lon="4.72504">
        <ele>172</ele>
        <time>2017-09-27T09:08:04Z</time>
      </trkpt>
      <trkpt lat="45.93368" lon="4.72499">
        <ele>173</ele>
        <time>2017-09-27T09:08:05Z</time>
      </trkpt>
      <trkpt lat="45.93371" lon="4.72495">
        <ele>173</ele>
        <time>2017-09-27T09:08:06Z</time>
      </trkpt>
      <trkpt lat="45.93375" lon="4.7249">
        <ele>173</ele>
        <time>2017-09-27T09:08:07Z</time>
      </trkpt>
      <trkpt lat="45.93379" lon="4.72486">
        <ele>173</ele>
        <time>2017-09-27T09:08:08Z</time>
      </trkpt>
      <trkpt lat="45.93384" lon="4.72481">
        <ele>173</ele>
        <time>2017-09-27T09:08:09Z</time>
      </trkpt>
      <trkpt lat="45.93387" lon="4.72477">
        <ele>173</ele>
        <time>2017-09-27T09:08:10Z</time>
      </trkpt>
      <trkpt lat="45.93391" lon="4.72472">
        <ele>173</ele>
        <time>2017-09-27T09:08:11Z</time>
      </trkpt>
      <trkpt lat="45.93394" lon="4.72467">
        <ele>173</ele>
        <time>2017-09-27T09:08:12Z</time>
      </trkpt>
      <trkpt lat="45.93399" lon="4.72457">
        <ele>173</ele>
        <time>2017-09-27T09:08:14Z</time>
      </trkpt>
      <trkpt lat="45.934" lon="4.72453">
        <ele>173</ele>
        <time>2017-09-27T09:08:15Z</time>
      </trkpt>
      <trkpt lat="45.93401" lon="4.72443">
        <ele>173</ele>
        <time>2017-09-27T09:08:17Z</time>
      </trkpt>
      <trkpt lat="45.93404" lon="4.7244">
        <ele>173</ele>
        <time>2017-09-27T09:08:18Z</time>
      </trkpt>
      <trkpt lat="45.93409" lon="4.72432">
        <ele>173</ele>
        <time>2017-09-27T09:08:20Z</time>
      </trkpt>
      <trkpt lat="45.93411" lon="4.72428">
        <ele>174</ele>
        <time>2017-09-27T09:08:21Z</time>
      </trkpt>
      <trkpt lat="45.93417" lon="4.72419">
        <ele>174</ele>
        <time>2017-09-27T09:08:23Z</time>
      </trkpt>
      <trkpt lat="45.9342" lon="4.72415">
        <ele>174</ele>
        <time>2017-09-27T09:08:24Z</time>
      </trkpt>
      <trkpt lat="45.93424" lon="4.72412">
        <ele>174</ele>
        <time>2017-09-27T09:08:25Z</time>
      </trkpt>
      <trkpt lat="45.93429" lon="4.7241">
        <ele>174</ele>
        <time>2017-09-27T09:08:26Z</time>
      </trkpt>
      <trkpt lat="45.93434" lon="4.72408">
        <ele>174</ele>
        <time>2017-09-27T09:08:27Z</time>
      </trkpt>
      <trkpt lat="45.93439" lon="4.72405">
        <ele>174</ele>
        <time>2017-09-27T09:08:28Z</time>
      </trkpt>
      <trkpt lat="45.93444" lon="4.72401">
        <ele>173</ele>
        <time>2017-09-27T09:08:29Z</time>
      </trkpt>
      <trkpt lat="45.93449" lon="4.72398">
        <ele>173</ele>
        <time>2017-09-27T09:08:30Z</time>
      </trkpt>
      <trkpt lat="45.93454" lon="4.72394">
        <ele>173</ele>
        <time>2017-09-27T09:08:31Z</time>
      </trkpt>
      <trkpt lat="45.93459" lon="4.72389">
        <ele>173</ele>
        <time>2017-09-27T09:08:32Z</time>
      </trkpt>
      <trkpt lat="45.93463" lon="4.72385">
        <ele>173</ele>
        <time>2017-09-27T09:08:33Z</time>
      </trkpt>
      <trkpt lat="45.93468" lon="4.7238">
        <ele>173</ele>
        <time>2017-09-27T09:08:34Z</time>
      </trkpt>
      <trkpt lat="45.93472" lon="4.72375">
        <ele>173</ele>
        <time>2017-09-27T09:08:35Z</time>
      </trkpt>
      <trkpt lat="45.93475" lon="4.7237">
        <ele>173</ele>
        <time>2017-09-27T09:08:36Z</time>
      </trkpt>
      <trkpt lat="45.93479" lon="4.72364">
        <ele>173</ele>
        <time>2017-09-27T09:08:37Z</time>
      </trkpt>
      <trkpt lat="45.93483" lon="4.72359">
        <ele>173</ele>
        <time>2017-09-27T09:08:38Z</time>
      </trkpt>
      <trkpt lat="45.93486" lon="4.72354">
        <ele>173</ele>
        <time>2017-09-27T09:08:39Z</time>
      </trkpt>
      <trkpt lat="45.9349" lon="4.72349">
        <ele>173</ele>
        <time>2017-09-27T09:08:40Z</time>
      </trkpt>
      <trkpt lat="45.93494" lon="4.72343">
        <ele>173</ele>
        <time>2017-09-27T09:08:41Z</time>
      </trkpt>
      <trkpt lat="45.93498" lon="4.72337">
        <ele>173</ele>
        <time>2017-09-27T09:08:42Z</time>
      </trkpt>
      <trkpt lat="45.93503" lon="4.72331">
        <ele>173</ele>
        <time>2017-09-27T09:08:43Z</time>
      </trkpt>
      <trkpt lat="45.93507" lon="4.72326">
        <ele>173</ele>
        <time>2017-09-27T09:08:44Z</time>
      </trkpt>
      <trkpt lat="45.93511" lon="4.7232">
        <ele>173</ele>
        <time>2017-09-27T09:08:45Z</time>
      </trkpt>
      <trkpt lat="45.93514" lon="4.72315">
        <ele>173</ele>
        <time>2017-09-27T09:08:46Z</time>
      </trkpt>
      <trkpt lat="45.93518" lon="4.7231">
        <ele>173</ele>
        <time>2017-09-27T09:08:47Z</time>
      </trkpt>
      <trkpt lat="45.93521" lon="4.72305">
        <ele>173</ele>
        <time>2017-09-27T09:08:48Z</time>
      </trkpt>
      <trkpt lat="45.93524" lon="4.723">
        <ele>172</ele>
        <time>2017-09-27T09:08:49Z</time>
      </trkpt>
      <trkpt lat="45.93526" lon="4.72293">
        <ele>172</ele>
        <time>2017-09-27T09:08:50Z</time>
      </trkpt>
      <trkpt lat="45.9353" lon="4.72287">
        <ele>172</ele>
        <time>2017-09-27T09:08:51Z</time>
      </trkpt>
      <trkpt lat="45.93532" lon="4.72282">
        <ele>172</ele>
        <time>2017-09-27T09:08:52Z</time>
      </trkpt>
      <trkpt lat="45.93536" lon="4.72273">
        <ele>172</ele>
        <time>2017-09-27T09:08:54Z</time>
      </trkpt>
      <trkpt lat="45.93538" lon="4.72267">
        <ele>172</ele>
        <time>2017-09-27T09:08:55Z</time>
      </trkpt>
      <trkpt lat="45.93542" lon="4.72257">
        <ele>172</ele>
        <time>2017-09-27T09:08:57Z</time>
      </trkpt>
      <trkpt lat="45.93544" lon="4.72251">
        <ele>172</ele>
        <time>2017-09-27T09:08:58Z</time>
      </trkpt>
      <trkpt lat="45.93546" lon="4.72246">
        <ele>172</ele>
        <time>2017-09-27T09:08:59Z</time>
      </trkpt>
      <trkpt lat="45.93549" lon="4.7224">
        <ele>172</ele>
        <time>2017-09-27T09:09:00Z</time>
      </trkpt>
      <trkpt lat="45.93551" lon="4.72234">
        <ele>172</ele>
        <time>2017-09-27T09:09:01Z</time>
      </trkpt>
      <trkpt lat="45.93554" lon="4.72229">
        <ele>173</ele>
        <time>2017-09-27T09:09:02Z</time>
      </trkpt>
      <trkpt lat="45.93559" lon="4.72225">
        <ele>173</ele>
        <time>2017-09-27T09:09:03Z</time>
      </trkpt>
      <trkpt lat="45.93565" lon="4.72225">
        <ele>173</ele>
        <time>2017-09-27T09:09:04Z</time>
      </trkpt>
      <trkpt lat="45.9357" lon="4.72227">
        <ele>173</ele>
        <time>2017-09-27T09:09:05Z</time>
      </trkpt>
      <trkpt lat="45.93575" lon="4.72231">
        <ele>173</ele>
        <time>2017-09-27T09:09:06Z</time>
      </trkpt>
      <trkpt lat="45.93579" lon="4.72237">
        <ele>173</ele>
        <time>2017-09-27T09:09:07Z</time>
      </trkpt>
      <trkpt lat="45.93582" lon="4.72242">
        <ele>173</ele>
        <time>2017-09-27T09:09:08Z</time>
      </trkpt>
      <trkpt lat="45.93586" lon="4.72249">
        <ele>173</ele>
        <time>2017-09-27T09:09:09Z</time>
      </trkpt>
      <trkpt lat="45.93589" lon="4.72252">
        <ele>173</ele>
        <time>2017-09-27T09:09:10Z</time>
      </trkpt>
      <trkpt lat="45.93593" lon="4.72255">
        <ele>173</ele>
        <time>2017-09-27T09:09:11Z</time>
      </trkpt>
      <trkpt lat="45.93598" lon="4.72257">
        <ele>173</ele>
        <time>2017-09-27T09:09:12Z</time>
      </trkpt>
      <trkpt lat="45.93601" lon="4.72262">
        <ele>173</ele>
        <time>2017-09-27T09:09:13Z</time>
      </trkpt>
      <trkpt lat="45.93606" lon="4.72267">
        <ele>172</ele>
        <time>2017-09-27T09:09:14Z</time>
      </trkpt>
      <trkpt lat="45.9361" lon="4.72273">
        <ele>172</ele>
        <time>2017-09-27T09:09:15Z</time>
      </trkpt>
      <trkpt lat="45.93615" lon="4.72275">
        <ele>172</ele>
        <time>2017-09-27T09:09:16Z</time>
      </trkpt>
      <trkpt lat="45.93618" lon="4.7228">
        <ele>172</ele>
        <time>2017-09-27T09:09:17Z</time>
      </trkpt>
      <trkpt lat="45.93621" lon="4.72285">
        <ele>172</ele>
        <time>2017-09-27T09:09:18Z</time>
      </trkpt>
      <trkpt lat="45.93626" lon="4.72291">
        <ele>172</ele>
        <time>2017-09-27T09:09:19Z</time>
      </trkpt>
      <trkpt lat="45.9363" lon="4.72295">
        <ele>172</ele>
        <time>2017-09-27T09:09:20Z</time>
      </trkpt>
      <trkpt lat="45.93635" lon="4.72295">
        <ele>172</ele>
        <time>2017-09-27T09:09:21Z</time>
      </trkpt>
      <trkpt lat="45.93639" lon="4.723">
        <ele>172</ele>
        <time>2017-09-27T09:09:22Z</time>
      </trkpt>
      <trkpt lat="45.93645" lon="4.72304">
        <ele>172</ele>
        <time>2017-09-27T09:09:23Z</time>
      </trkpt>
      <trkpt lat="45.93648" lon="4.72308">
        <ele>172</ele>
        <time>2017-09-27T09:09:24Z</time>
      </trkpt>
      <trkpt lat="45.93653" lon="4.72311">
        <ele>172</ele>
        <time>2017-09-27T09:09:25Z</time>
      </trkpt>
      <trkpt lat="45.93657" lon="4.72315">
        <ele>172</ele>
        <time>2017-09-27T09:09:26Z</time>
      </trkpt>
      <trkpt lat="45.93661" lon="4.72319">
        <ele>172</ele>
        <time>2017-09-27T09:09:27Z</time>
      </trkpt>
      <trkpt lat="45.93665" lon="4.72323">
        <ele>171</ele>
        <time>2017-09-27T09:09:28Z</time>
      </trkpt>
      <trkpt lat="45.93669" lon="4.72325">
        <ele>171</ele>
        <time>2017-09-27T09:09:29Z</time>
      </trkpt>
      <trkpt lat="45.93675" lon="4.7233">
        <ele>171</ele>
        <time>2017-09-27T09:09:30Z</time>
      </trkpt>
      <trkpt lat="45.9368" lon="4.72334">
        <ele>171</ele>
        <time>2017-09-27T09:09:31Z</time>
      </trkpt>
      <trkpt lat="45.93684" lon="4.72338">
        <ele>171</ele>
        <time>2017-09-27T09:09:32Z</time>
      </trkpt>
      <trkpt lat="45.93688" lon="4.72343">
        <ele>171</ele>
        <time>2017-09-27T09:09:33Z</time>
      </trkpt>
      <trkpt lat="45.93693" lon="4.72346">
        <ele>171</ele>
        <time>2017-09-27T09:09:34Z</time>
      </trkpt>
      <trkpt lat="45.93698" lon="4.7235">
        <ele>171</ele>
        <time>2017-09-27T09:09:35Z</time>
      </trkpt>
      <trkpt lat="45.93702" lon="4.72355">
        <ele>171</ele>
        <time>2017-09-27T09:09:36Z</time>
      </trkpt>
      <trkpt lat="45.93706" lon="4.7236">
        <ele>171</ele>
        <time>2017-09-27T09:09:37Z</time>
      </trkpt>
      <trkpt lat="45.9371" lon="4.72366">
        <ele>172</ele>
        <time>2017-09-27T09:09:38Z</time>
      </trkpt>
      <trkpt lat="45.93716" lon="4.72373">
        <ele>172</ele>
        <time>2017-09-27T09:09:39Z</time>
      </trkpt>
      <trkpt lat="45.9372" lon="4.72376">
        <ele>171</ele>
        <time>2017-09-27T09:09:40Z</time>
      </trkpt>
      <trkpt lat="45.93724" lon="4.72379">
        <ele>171</ele>
        <time>2017-09-27T09:09:41Z</time>
      </trkpt>
      <trkpt lat="45.93728" lon="4.72384">
        <ele>171</ele>
        <time>2017-09-27T09:09:42Z</time>
      </trkpt>
      <trkpt lat="45.93732" lon="4.72389">
        <ele>171</ele>
        <time>2017-09-27T09:09:43Z</time>
      </trkpt>
      <trkpt lat="45.93737" lon="4.72392">
        <ele>171</ele>
        <time>2017-09-27T09:09:44Z</time>
      </trkpt>
      <trkpt lat="45.93741" lon="4.72395">
        <ele>171</ele>
        <time>2017-09-27T09:09:45Z</time>
      </trkpt>
      <trkpt lat="45.93745" lon="4.72399">
        <ele>171</ele>
        <time>2017-09-27T09:09:46Z</time>
      </trkpt>
      <trkpt lat="45.9375" lon="4.72402">
        <ele>171</ele>
        <time>2017-09-27T09:09:47Z</time>
      </trkpt>
      <trkpt lat="45.93754" lon="4.72407">
        <ele>171</ele>
        <time>2017-09-27T09:09:48Z</time>
      </trkpt>
      <trkpt lat="45.9376" lon="4.72412">
        <ele>171</ele>
        <time>2017-09-27T09:09:49Z</time>
      </trkpt>
      <trkpt lat="45.93764" lon="4.72417">
        <ele>171</ele>
        <time>2017-09-27T09:09:50Z</time>
      </trkpt>
      <trkpt lat="45.93768" lon="4.72421">
        <ele>171</ele>
        <time>2017-09-27T09:09:51Z</time>
      </trkpt>
      <trkpt lat="45.93772" lon="4.72425">
        <ele>171</ele>
        <time>2017-09-27T09:09:52Z</time>
      </trkpt>
      <trkpt lat="45.93776" lon="4.72429">
        <ele>171</ele>
        <time>2017-09-27T09:09:53Z</time>
      </trkpt>
      <trkpt lat="45.9378" lon="4.72433">
        <ele>172</ele>
        <time>2017-09-27T09:09:54Z</time>
      </trkpt>
      <trkpt lat="45.93784" lon="4.72437">
        <ele>172</ele>
        <time>2017-09-27T09:09:55Z</time>
      </trkpt>
      <trkpt lat="45.93789" lon="4.72442">
        <ele>172</ele>
        <time>2017-09-27T09:09:56Z</time>
      </trkpt>
      <trkpt lat="45.93792" lon="4.72446">
        <ele>172</ele>
        <time>2017-09-27T09:09:57Z</time>
      </trkpt>
      <trkpt lat="45.93797" lon="4.72449">
        <ele>172</ele>
        <time>2017-09-27T09:09:58Z</time>
      </trkpt>
      <trkpt lat="45.938" lon="4.72454">
        <ele>172</ele>
        <time>2017-09-27T09:09:59Z</time>
      </trkpt>
      <trkpt lat="45.93804" lon="4.72458">
        <ele>172</ele>
        <time>2017-09-27T09:10:00Z</time>
      </trkpt>
      <trkpt lat="45.93808" lon="4.72462">
        <ele>172</ele>
        <time>2017-09-27T09:10:01Z</time>
      </trkpt>
      <trkpt lat="45.93813" lon="4.72469">
        <ele>172</ele>
        <time>2017-09-27T09:10:02Z</time>
      </trkpt>
      <trkpt lat="45.93817" lon="4.7247">
        <ele>172</ele>
        <time>2017-09-27T09:10:03Z</time>
      </trkpt>
      <trkpt lat="45.93822" lon="4.72473">
        <ele>172</ele>
        <time>2017-09-27T09:10:04Z</time>
      </trkpt>
      <trkpt lat="45.93826" lon="4.72478">
        <ele>173</ele>
        <time>2017-09-27T09:10:05Z</time>
      </trkpt>
      <trkpt lat="45.9383" lon="4.72482">
        <ele>173</ele>
        <time>2017-09-27T09:10:06Z</time>
      </trkpt>
      <trkpt lat="45.93834" lon="4.72484">
        <ele>173</ele>
        <time>2017-09-27T09:10:07Z</time>
      </trkpt>
      <trkpt lat="45.93855" lon="4.72527">
        <ele>173</ele>
        <time>2017-09-27T09:10:13Z</time>
      </trkpt>
      <trkpt lat="45.93864" lon="4.72528">
        <ele>173</ele>
        <time>2017-09-27T09:10:14Z</time>
      </trkpt>
      <trkpt lat="45.93869" lon="4.7252">
        <ele>173</ele>
        <time>2017-09-27T09:10:15Z</time>
      </trkpt>
      <trkpt lat="45.93874" lon="4.7252">
        <ele>173</ele>
        <time>2017-09-27T09:10:16Z</time>
      </trkpt>
      <trkpt lat="45.93878" lon="4.72518">
        <ele>173</ele>
        <time>2017-09-27T09:10:17Z</time>
      </trkpt>
      <trkpt lat="45.93883" lon="4.72513">
        <ele>173</ele>
        <time>2017-09-27T09:10:18Z</time>
      </trkpt>
      <trkpt lat="45.93887" lon="4.72509">
        <ele>173</ele>
        <time>2017-09-27T09:10:19Z</time>
      </trkpt>
      <trkpt lat="45.93891" lon="4.72504">
        <ele>173</ele>
        <time>2017-09-27T09:10:20Z</time>
      </trkpt>
      <trkpt lat="45.93895" lon="4.725">
        <ele>172</ele>
        <time>2017-09-27T09:10:21Z</time>
      </trkpt>
      <trkpt lat="45.93899" lon="4.72495">
        <ele>172</ele>
        <time>2017-09-27T09:10:22Z</time>
      </trkpt>
      <trkpt lat="45.93902" lon="4.72489">
        <ele>172</ele>
        <time>2017-09-27T09:10:23Z</time>
      </trkpt>
      <trkpt lat="45.93907" lon="4.72484">
        <ele>172</ele>
        <time>2017-09-27T09:10:24Z</time>
      </trkpt>
      <trkpt lat="45.93911" lon="4.72477">
        <ele>172</ele>
        <time>2017-09-27T09:10:25Z</time>
      </trkpt>
      <trkpt lat="45.93915" lon="4.72472">
        <ele>172</ele>
        <time>2017-09-27T09:10:26Z</time>
      </trkpt>
      <trkpt lat="45.93919" lon="4.72466">
        <ele>171</ele>
        <time>2017-09-27T09:10:27Z</time>
      </trkpt>
      <trkpt lat="45.93923" lon="4.72461">
        <ele>171</ele>
        <time>2017-09-27T09:10:28Z</time>
      </trkpt>
      <trkpt lat="45.93928" lon="4.72456">
        <ele>171</ele>
        <time>2017-09-27T09:10:29Z</time>
      </trkpt>
      <trkpt lat="45.93932" lon="4.72451">
        <ele>171</ele>
        <time>2017-09-27T09:10:30Z</time>
      </trkpt>
      <trkpt lat="45.93936" lon="4.72445">
        <ele>171</ele>
        <time>2017-09-27T09:10:31Z</time>
      </trkpt>
      <trkpt lat="45.93941" lon="4.7244">
        <ele>171</ele>
        <time>2017-09-27T09:10:32Z</time>
      </trkpt>
      <trkpt lat="45.93946" lon="4.72435">
        <ele>171</ele>
        <time>2017-09-27T09:10:33Z</time>
      </trkpt>
      <trkpt lat="45.9395" lon="4.7243">
        <ele>171</ele>
        <time>2017-09-27T09:10:34Z</time>
      </trkpt>
      <trkpt lat="45.93954" lon="4.72424">
        <ele>171</ele>
        <time>2017-09-27T09:10:35Z</time>
      </trkpt>
      <trkpt lat="45.93959" lon="4.72419">
        <ele>171</ele>
        <time>2017-09-27T09:10:36Z</time>
      </trkpt>
      <trkpt lat="45.93963" lon="4.72413">
        <ele>171</ele>
        <time>2017-09-27T09:10:37Z</time>
      </trkpt>
      <trkpt lat="45.93967" lon="4.72408">
        <ele>171</ele>
        <time>2017-09-27T09:10:38Z</time>
      </trkpt>
      <trkpt lat="45.93971" lon="4.72403">
        <ele>171</ele>
        <time>2017-09-27T09:10:39Z</time>
      </trkpt>
      <trkpt lat="45.93976" lon="4.72398">
        <ele>171</ele>
        <time>2017-09-27T09:10:40Z</time>
      </trkpt>
      <trkpt lat="45.9398" lon="4.72394">
        <ele>171</ele>
        <time>2017-09-27T09:10:41Z</time>
      </trkpt>
      <trkpt lat="45.93984" lon="4.72389">
        <ele>171</ele>
        <time>2017-09-27T09:10:42Z</time>
      </trkpt>
      <trkpt lat="45.93989" lon="4.72384">
        <ele>171</ele>
        <time>2017-09-27T09:10:43Z</time>
      </trkpt>
      <trkpt lat="45.93994" lon="4.72378">
        <ele>171</ele>
        <time>2017-09-27T09:10:44Z</time>
      </trkpt>
      <trkpt lat="45.93998" lon="4.72372">
        <ele>171</ele>
        <time>2017-09-27T09:10:45Z</time>
      </trkpt>
      <trkpt lat="45.94002" lon="4.72367">
        <ele>171</ele>
        <time>2017-09-27T09:10:46Z</time>
      </trkpt>
      <trkpt lat="45.94006" lon="4.72362">
        <ele>171</ele>
        <time>2017-09-27T09:10:47Z</time>
      </trkpt>
      <trkpt lat="45.9401" lon="4.72357">
        <ele>171</ele>
        <time>2017-09-27T09:10:48Z</time>
      </trkpt>
      <trkpt lat="45.94015" lon="4.72352">
        <ele>171</ele>
        <time>2017-09-27T09:10:49Z</time>
      </trkpt>
      <trkpt lat="45.94019" lon="4.72348">
        <ele>171</ele>
        <time>2017-09-27T09:10:50Z</time>
      </trkpt>
      <trkpt lat="45.94026" lon="4.72339">
        <ele>171</ele>
        <time>2017-09-27T09:10:52Z</time>
      </trkpt>
      <trkpt lat="45.94029" lon="4.72335">
        <ele>171</ele>
        <time>2017-09-27T09:10:53Z</time>
      </trkpt>
      <trkpt lat="45.94032" lon="4.7233">
        <ele>171</ele>
        <time>2017-09-27T09:10:54Z</time>
      </trkpt>
      <trkpt lat="45.94036" lon="4.72325">
        <ele>171</ele>
        <time>2017-09-27T09:10:55Z</time>
      </trkpt>
      <trkpt lat="45.9404" lon="4.72318">
        <ele>171</ele>
        <time>2017-09-27T09:10:56Z</time>
      </trkpt>
      <trkpt lat="45.94044" lon="4.72312">
        <ele>171</ele>
        <time>2017-09-27T09:10:57Z</time>
      </trkpt>
      <trkpt lat="45.94047" lon="4.72307">
        <ele>171</ele>
        <time>2017-09-27T09:10:58Z</time>
      </trkpt>
      <trkpt lat="45.94051" lon="4.72303">
        <ele>171</ele>
        <time>2017-09-27T09:10:59Z</time>
      </trkpt>
      <trkpt lat="45.94058" lon="4.72295">
        <ele>171</ele>
        <time>2017-09-27T09:11:01Z</time>
      </trkpt>
      <trkpt lat="45.94061" lon="4.72291">
        <ele>171</ele>
        <time>2017-09-27T09:11:02Z</time>
      </trkpt>
      <trkpt lat="45.94066" lon="4.72287">
        <ele>171</ele>
        <time>2017-09-27T09:11:03Z</time>
      </trkpt>
      <trkpt lat="45.9407" lon="4.72282">
        <ele>171</ele>
        <time>2017-09-27T09:11:04Z</time>
      </trkpt>
      <trkpt lat="45.94074" lon="4.72277">
        <ele>171</ele>
        <time>2017-09-27T09:11:05Z</time>
      </trkpt>
      <trkpt lat="45.94078" lon="4.72273">
        <ele>171</ele>
        <time>2017-09-27T09:11:06Z</time>
      </trkpt>
      <trkpt lat="45.94083" lon="4.7227">
        <ele>171</ele>
        <time>2017-09-27T09:11:07Z</time>
      </trkpt>
      <trkpt lat="45.94088" lon="4.72267">
        <ele>171</ele>
        <time>2017-09-27T09:11:08Z</time>
      </trkpt>
      <trkpt lat="45.94093" lon="4.72265">
        <ele>171</ele>
        <time>2017-09-27T09:11:09Z</time>
      </trkpt>
      <trkpt lat="45.94098" lon="4.72265">
        <ele>171</ele>
        <time>2017-09-27T09:11:10Z</time>
      </trkpt>
      <trkpt lat="45.94103" lon="4.72266">
        <ele>171</ele>
        <time>2017-09-27T09:11:11Z</time>
      </trkpt>
      <trkpt lat="45.94108" lon="4.72265">
        <ele>171</ele>
        <time>2017-09-27T09:11:12Z</time>
      </trkpt>
      <trkpt lat="45.94113" lon="4.72267">
        <ele>171</ele>
        <time>2017-09-27T09:11:13Z</time>
      </trkpt>
      <trkpt lat="45.94117" lon="4.72267">
        <ele>171</ele>
        <time>2017-09-27T09:11:14Z</time>
      </trkpt>
      <trkpt lat="45.94121" lon="4.7227">
        <ele>171</ele>
        <time>2017-09-27T09:11:15Z</time>
      </trkpt>
      <trkpt lat="45.94125" lon="4.72273">
        <ele>171</ele>
        <time>2017-09-27T09:11:16Z</time>
      </trkpt>
      <trkpt lat="45.9413" lon="4.72276">
        <ele>171</ele>
        <time>2017-09-27T09:11:17Z</time>
      </trkpt>
      <trkpt lat="45.94134" lon="4.72279">
        <ele>171</ele>
        <time>2017-09-27T09:11:18Z</time>
      </trkpt>
      <trkpt lat="45.94139" lon="4.72281">
        <ele>171</ele>
        <time>2017-09-27T09:11:19Z</time>
      </trkpt>
      <trkpt lat="45.94145" lon="4.72282">
        <ele>171</ele>
        <time>2017-09-27T09:11:20Z</time>
      </trkpt>
      <trkpt lat="45.9415" lon="4.72285">
        <ele>171</ele>
        <time>2017-09-27T09:11:21Z</time>
      </trkpt>
      <trkpt lat="45.94155" lon="4.72286">
        <ele>171</ele>
        <time>2017-09-27T09:11:22Z</time>
      </trkpt>
      <trkpt lat="45.94161" lon="4.72287">
        <ele>171</ele>
        <time>2017-09-27T09:11:23Z</time>
      </trkpt>
      <trkpt lat="45.94166" lon="4.72288">
        <ele>171</ele>
        <time>2017-09-27T09:11:24Z</time>
      </trkpt>
      <trkpt lat="45.94171" lon="4.72289">
        <ele>171</ele>
        <time>2017-09-27T09:11:25Z</time>
      </trkpt>
      <trkpt lat="45.94176" lon="4.72289">
        <ele>171</ele>
        <time>2017-09-27T09:11:26Z</time>
      </trkpt>
      <trkpt lat="45.9418" lon="4.72289">
        <ele>171</ele>
        <time>2017-09-27T09:11:27Z</time>
      </trkpt>
      <trkpt lat="45.94185" lon="4.72289">
        <ele>171</ele>
        <time>2017-09-27T09:11:28Z</time>
      </trkpt>
      <trkpt lat="45.94191" lon="4.7229">
        <ele>171</ele>
        <time>2017-09-27T09:11:29Z</time>
      </trkpt>
      <trkpt lat="45.94196" lon="4.7229">
        <ele>171</ele>
        <time>2017-09-27T09:11:30Z</time>
      </trkpt>
      <trkpt lat="45.94201" lon="4.7229">
        <ele>171</ele>
        <time>2017-09-27T09:11:31Z</time>
      </trkpt>
      <trkpt lat="45.94206" lon="4.7229">
        <ele>171</ele>
        <time>2017-09-27T09:11:32Z</time>
      </trkpt>
      <trkpt lat="45.94211" lon="4.7229">
        <ele>171</ele>
        <time>2017-09-27T09:11:33Z</time>
      </trkpt>
      <trkpt lat="45.94215" lon="4.72289">
        <ele>171</ele>
        <time>2017-09-27T09:11:34Z</time>
      </trkpt>
      <trkpt lat="45.94224" lon="4.72287">
        <ele>171</ele>
        <time>2017-09-27T09:11:36Z</time>
      </trkpt>
      <trkpt lat="45.94228" lon="4.72287">
        <ele>171</ele>
        <time>2017-09-27T09:11:37Z</time>
      </trkpt>
      <trkpt lat="45.94237" lon="4.72285">
        <ele>171</ele>
        <time>2017-09-27T09:11:39Z</time>
      </trkpt>
      <trkpt lat="45.94241" lon="4.72283">
        <ele>171</ele>
        <time>2017-09-27T09:11:40Z</time>
      </trkpt>
      <trkpt lat="45.94246" lon="4.72281">
        <ele>171</ele>
        <time>2017-09-27T09:11:41Z</time>
      </trkpt>
      <trkpt lat="45.9425" lon="4.72279">
        <ele>171</ele>
        <time>2017-09-27T09:11:42Z</time>
      </trkpt>
      <trkpt lat="45.94258" lon="4.72274">
        <ele>171</ele>
        <time>2017-09-27T09:11:44Z</time>
      </trkpt>
      <trkpt lat="45.94262" lon="4.72273">
        <ele>171</ele>
        <time>2017-09-27T09:11:45Z</time>
      </trkpt>
      <trkpt lat="45.94269" lon="4.72272">
        <ele>171</ele>
        <time>2017-09-27T09:11:47Z</time>
      </trkpt>
      <trkpt lat="45.94273" lon="4.72273">
        <ele>171</ele>
        <time>2017-09-27T09:11:48Z</time>
      </trkpt>
      <trkpt lat="45.94278" lon="4.72279">
        <ele>171</ele>
        <time>2017-09-27T09:11:50Z</time>
      </trkpt>
      <trkpt lat="45.9428" lon="4.72283">
        <ele>171</ele>
        <time>2017-09-27T09:11:51Z</time>
      </trkpt>
      <trkpt lat="45.94283" lon="4.72289">
        <ele>171</ele>
        <time>2017-09-27T09:11:52Z</time>
      </trkpt>
      <trkpt lat="45.94286" lon="4.72295">
        <ele>171</ele>
        <time>2017-09-27T09:11:53Z</time>
      </trkpt>
      <trkpt lat="45.94289" lon="4.72302">
        <ele>171</ele>
        <time>2017-09-27T09:11:54Z</time>
      </trkpt>
      <trkpt lat="45.94292" lon="4.72307">
        <ele>171</ele>
        <time>2017-09-27T09:11:55Z</time>
      </trkpt>
      <trkpt lat="45.94295" lon="4.72314">
        <ele>171</ele>
        <time>2017-09-27T09:11:56Z</time>
      </trkpt>
      <trkpt lat="45.94298" lon="4.7232">
        <ele>171</ele>
        <time>2017-09-27T09:11:57Z</time>
      </trkpt>
      <trkpt lat="45.94301" lon="4.72326">
        <ele>171</ele>
        <time>2017-09-27T09:11:58Z</time>
      </trkpt>
      <trkpt lat="45.94304" lon="4.72332">
        <ele>171</ele>
        <time>2017-09-27T09:11:59Z</time>
      </trkpt>
      <trkpt lat="45.94307" lon="4.72339">
        <ele>172</ele>
        <time>2017-09-27T09:12:00Z</time>
      </trkpt>
      <trkpt lat="45.94311" lon="4.72345">
        <ele>172</ele>
        <time>2017-09-27T09:12:01Z</time>
      </trkpt>
      <trkpt lat="45.94314" lon="4.72352">
        <ele>172</ele>
        <time>2017-09-27T09:12:02Z</time>
      </trkpt>
      <trkpt lat="45.94317" lon="4.72358">
        <ele>172</ele>
        <time>2017-09-27T09:12:03Z</time>
      </trkpt>
      <trkpt lat="45.94319" lon="4.72364">
        <ele>172</ele>
        <time>2017-09-27T09:12:04Z</time>
      </trkpt>
      <trkpt lat="45.94322" lon="4.72371">
        <ele>172</ele>
        <time>2017-09-27T09:12:05Z</time>
      </trkpt>
      <trkpt lat="45.94326" lon="4.72381">
        <ele>172</ele>
        <time>2017-09-27T09:12:07Z</time>
      </trkpt>
      <trkpt lat="45.94329" lon="4.72386">
        <ele>172</ele>
        <time>2017-09-27T09:12:08Z</time>
      </trkpt>
      <trkpt lat="45.94332" lon="4.72392">
        <ele>172</ele>
        <time>2017-09-27T09:12:09Z</time>
      </trkpt>
      <trkpt lat="45.94335" lon="4.72398">
        <ele>172</ele>
        <time>2017-09-27T09:12:10Z</time>
      </trkpt>
      <trkpt lat="45.94337" lon="4.72404">
        <ele>173</ele>
        <time>2017-09-27T09:12:11Z</time>
      </trkpt>
      <trkpt lat="45.9434" lon="4.72411">
        <ele>173</ele>
        <time>2017-09-27T09:12:12Z</time>
      </trkpt>
      <trkpt lat="45.94342" lon="4.72417">
        <ele>173</ele>
        <time>2017-09-27T09:12:13Z</time>
      </trkpt>
      <trkpt lat="45.94345" lon="4.72423">
        <ele>173</ele>
        <time>2017-09-27T09:12:14Z</time>
      </trkpt>
      <trkpt lat="45.94348" lon="4.72428">
        <ele>173</ele>
        <time>2017-09-27T09:12:15Z</time>
      </trkpt>
      <trkpt lat="45.94351" lon="4.72434">
        <ele>173</ele>
        <time>2017-09-27T09:12:16Z</time>
      </trkpt>
      <trkpt lat="45.94353" lon="4.72441">
        <ele>173</ele>
        <time>2017-09-27T09:12:17Z</time>
      </trkpt>
      <trkpt lat="45.94355" lon="4.72446">
        <ele>173</ele>
        <time>2017-09-27T09:12:18Z</time>
      </trkpt>
      <trkpt lat="45.94359" lon="4.72451">
        <ele>173</ele>
        <time>2017-09-27T09:12:19Z</time>
      </trkpt>
      <trkpt lat="45.94362" lon="4.72458">
        <ele>173</ele>
        <time>2017-09-27T09:12:20Z</time>
      </trkpt>
      <trkpt lat="45.94366" lon="4.72463">
        <ele>173</ele>
        <time>2017-09-27T09:12:21Z</time>
      </trkpt>
      <trkpt lat="45.94368" lon="4.7247">
        <ele>173</ele>
        <time>2017-09-27T09:12:22Z</time>
      </trkpt>
      <trkpt lat="45.94371" lon="4.72478">
        <ele>173</ele>
        <time>2017-09-27T09:12:23Z</time>
      </trkpt>
      <trkpt lat="45.94374" lon="4.72486">
        <ele>173</ele>
        <time>2017-09-27T09:12:24Z</time>
      </trkpt>
      <trkpt lat="45.94377" lon="4.72493">
        <ele>173</ele>
        <time>2017-09-27T09:12:25Z</time>
      </trkpt>
      <trkpt lat="45.94379" lon="4.72502">
        <ele>174</ele>
        <time>2017-09-27T09:12:26Z</time>
      </trkpt>
      <trkpt lat="45.94382" lon="4.72511">
        <ele>174</ele>
        <time>2017-09-27T09:12:27Z</time>
      </trkpt>
      <trkpt lat="45.94384" lon="4.72521">
        <ele>174</ele>
        <time>2017-09-27T09:12:28Z</time>
      </trkpt>
      <trkpt lat="45.94386" lon="4.72529">
        <ele>174</ele>
        <time>2017-09-27T09:12:29Z</time>
      </trkpt>
      <trkpt lat="45.94388" lon="4.72536">
        <ele>174</ele>
        <time>2017-09-27T09:12:30Z</time>
      </trkpt>
      <trkpt lat="45.94391" lon="4.72544">
        <ele>173</ele>
        <time>2017-09-27T09:12:31Z</time>
      </trkpt>
      <trkpt lat="45.94392" lon="4.72551">
        <ele>173</ele>
        <time>2017-09-27T09:12:32Z</time>
      </trkpt>
      <trkpt lat="45.94393" lon="4.72559">
        <ele>173</ele>
        <time>2017-09-27T09:12:33Z</time>
      </trkpt>
      <trkpt lat="45.94395" lon="4.72566">
        <ele>173</ele>
        <time>2017-09-27T09:12:34Z</time>
      </trkpt>
      <trkpt lat="45.94396" lon="4.72573">
        <ele>173</ele>
        <time>2017-09-27T09:12:35Z</time>
      </trkpt>
      <trkpt lat="45.94397" lon="4.7258">
        <ele>173</ele>
        <time>2017-09-27T09:12:36Z</time>
      </trkpt>
      <trkpt lat="45.94398" lon="4.72587">
        <ele>173</ele>
        <time>2017-09-27T09:12:37Z</time>
      </trkpt>
      <trkpt lat="45.94398" lon="4.72594">
        <ele>173</ele>
        <time>2017-09-27T09:12:38Z</time>
      </trkpt>
      <trkpt lat="45.944" lon="4.726">
        <ele>173</ele>
        <time>2017-09-27T09:12:39Z</time>
      </trkpt>
      <trkpt lat="45.944" lon="4.72607">
        <ele>173</ele>
        <time>2017-09-27T09:12:40Z</time>
      </trkpt>
      <trkpt lat="45.94402" lon="4.72616">
        <ele>173</ele>
        <time>2017-09-27T09:12:41Z</time>
      </trkpt>
      <trkpt lat="45.94403" lon="4.72624">
        <ele>173</ele>
        <time>2017-09-27T09:12:42Z</time>
      </trkpt>
      <trkpt lat="45.94403" lon="4.72632">
        <ele>174</ele>
        <time>2017-09-27T09:12:43Z</time>
      </trkpt>
      <trkpt lat="45.94405" lon="4.72639">
        <ele>174</ele>
        <time>2017-09-27T09:12:44Z</time>
      </trkpt>
      <trkpt lat="45.94406" lon="4.72648">
        <ele>174</ele>
        <time>2017-09-27T09:12:45Z</time>
      </trkpt>
      <trkpt lat="45.94407" lon="4.72656">
        <ele>174</ele>
        <time>2017-09-27T09:12:46Z</time>
      </trkpt>
      <trkpt lat="45.94407" lon="4.72665">
        <ele>174</ele>
        <time>2017-09-27T09:12:47Z</time>
      </trkpt>
      <trkpt lat="45.94408" lon="4.72673">
        <ele>173</ele>
        <time>2017-09-27T09:12:48Z</time>
      </trkpt>
      <trkpt lat="45.94409" lon="4.72679">
        <ele>173</ele>
        <time>2017-09-27T09:12:49Z</time>
      </trkpt>
      <trkpt lat="45.94411" lon="4.72686">
        <ele>173</ele>
        <time>2017-09-27T09:12:50Z</time>
      </trkpt>
      <trkpt lat="45.94412" lon="4.72692">
        <ele>173</ele>
        <time>2017-09-27T09:12:51Z</time>
      </trkpt>
      <trkpt lat="45.94412" lon="4.72698">
        <ele>172</ele>
        <time>2017-09-27T09:12:52Z</time>
      </trkpt>
      <trkpt lat="45.94413" lon="4.72706">
        <ele>172</ele>
        <time>2017-09-27T09:12:53Z</time>
      </trkpt>
      <trkpt lat="45.94414" lon="4.72713">
        <ele>172</ele>
        <time>2017-09-27T09:12:54Z</time>
      </trkpt>
      <trkpt lat="45.94415" lon="4.7272">
        <ele>172</ele>
        <time>2017-09-27T09:12:55Z</time>
      </trkpt>
      <trkpt lat="45.94416" lon="4.72727">
        <ele>172</ele>
        <time>2017-09-27T09:12:56Z</time>
      </trkpt>
      <trkpt lat="45.94417" lon="4.72735">
        <ele>171</ele>
        <time>2017-09-27T09:12:57Z</time>
      </trkpt>
      <trkpt lat="45.94418" lon="4.72742">
        <ele>171</ele>
        <time>2017-09-27T09:12:58Z</time>
      </trkpt>
      <trkpt lat="45.94419" lon="4.72749">
        <ele>171</ele>
        <time>2017-09-27T09:12:59Z</time>
      </trkpt>
      <trkpt lat="45.9442" lon="4.72756">
        <ele>170</ele>
        <time>2017-09-27T09:13:00Z</time>
      </trkpt>
      <trkpt lat="45.94421" lon="4.72762">
        <ele>169</ele>
        <time>2017-09-27T09:13:01Z</time>
      </trkpt>
      <trkpt lat="45.94422" lon="4.72769">
        <ele>169</ele>
        <time>2017-09-27T09:13:02Z</time>
      </trkpt>
      <trkpt lat="45.94422" lon="4.72775">
        <ele>168</ele>
        <time>2017-09-27T09:13:03Z</time>
      </trkpt>
      <trkpt lat="45.94423" lon="4.72782">
        <ele>168</ele>
        <time>2017-09-27T09:13:04Z</time>
      </trkpt>
      <trkpt lat="45.94425" lon="4.72794">
        <ele>168</ele>
        <time>2017-09-27T09:13:06Z</time>
      </trkpt>
      <trkpt lat="45.94425" lon="4.728">
        <ele>167</ele>
        <time>2017-09-27T09:13:07Z</time>
      </trkpt>
      <trkpt lat="45.94425" lon="4.72807">
        <ele>167</ele>
        <time>2017-09-27T09:13:08Z</time>
      </trkpt>
      <trkpt lat="45.94427" lon="4.72814">
        <ele>167</ele>
        <time>2017-09-27T09:13:09Z</time>
      </trkpt>
      <trkpt lat="45.94429" lon="4.72821">
        <ele>167</ele>
        <time>2017-09-27T09:13:10Z</time>
      </trkpt>
      <trkpt lat="45.94429" lon="4.72828">
        <ele>167</ele>
        <time>2017-09-27T09:13:11Z</time>
      </trkpt>
      <trkpt lat="45.94429" lon="4.72835">
        <ele>166</ele>
        <time>2017-09-27T09:13:12Z</time>
      </trkpt>
      <trkpt lat="45.9443" lon="4.72843">
        <ele>166</ele>
        <time>2017-09-27T09:13:13Z</time>
      </trkpt>
      <trkpt lat="45.94431" lon="4.7285">
        <ele>166</ele>
        <time>2017-09-27T09:13:14Z</time>
      </trkpt>
      <trkpt lat="45.94432" lon="4.72857">
        <ele>166</ele>
        <time>2017-09-27T09:13:15Z</time>
      </trkpt>
      <trkpt lat="45.94432" lon="4.72864">
        <ele>166</ele>
        <time>2017-09-27T09:13:16Z</time>
      </trkpt>
      <trkpt lat="45.94433" lon="4.72871">
        <ele>166</ele>
        <time>2017-09-27T09:13:17Z</time>
      </trkpt>
      <trkpt lat="45.94434" lon="4.72883">
        <ele>166</ele>
        <time>2017-09-27T09:13:19Z</time>
      </trkpt>
      <trkpt lat="45.94434" lon="4.72889">
        <ele>166</ele>
        <time>2017-09-27T09:13:20Z</time>
      </trkpt>
      <trkpt lat="45.94437" lon="4.729">
        <ele>166</ele>
        <time>2017-09-27T09:13:22Z</time>
      </trkpt>
      <trkpt lat="45.94437" lon="4.72907">
        <ele>166</ele>
        <time>2017-09-27T09:13:23Z</time>
      </trkpt>
      <trkpt lat="45.94439" lon="4.72919">
        <ele>167</ele>
        <time>2017-09-27T09:13:25Z</time>
      </trkpt>
      <trkpt lat="45.94439" lon="4.72925">
        <ele>167</ele>
        <time>2017-09-27T09:13:26Z</time>
      </trkpt>
      <trkpt lat="45.94441" lon="4.72937">
        <ele>167</ele>
        <time>2017-09-27T09:13:28Z</time>
      </trkpt>
      <trkpt lat="45.94442" lon="4.72945">
        <ele>167</ele>
        <time>2017-09-27T09:13:29Z</time>
      </trkpt>
      <trkpt lat="45.94442" lon="4.72952">
        <ele>167</ele>
        <time>2017-09-27T09:13:30Z</time>
      </trkpt>
      <trkpt lat="45.94443" lon="4.7296">
        <ele>167</ele>
        <time>2017-09-27T09:13:31Z</time>
      </trkpt>
      <trkpt lat="45.94444" lon="4.72967">
        <ele>167</ele>
        <time>2017-09-27T09:13:32Z</time>
      </trkpt>
      <trkpt lat="45.94445" lon="4.72976">
        <ele>167</ele>
        <time>2017-09-27T09:13:33Z</time>
      </trkpt>
      <trkpt lat="45.94447" lon="4.72985">
        <ele>167</ele>
        <time>2017-09-27T09:13:34Z</time>
      </trkpt>
      <trkpt lat="45.94448" lon="4.72994">
        <ele>167</ele>
        <time>2017-09-27T09:13:35Z</time>
      </trkpt>
      <trkpt lat="45.94449" lon="4.73003">
        <ele>169</ele>
        <time>2017-09-27T09:13:36Z</time>
      </trkpt>
      <trkpt lat="45.94451" lon="4.73013">
        <ele>169</ele>
        <time>2017-09-27T09:13:37Z</time>
      </trkpt>
      <trkpt lat="45.94452" lon="4.73022">
        <ele>169</ele>
        <time>2017-09-27T09:13:38Z</time>
      </trkpt>
      <trkpt lat="45.94453" lon="4.73032">
        <ele>169</ele>
        <time>2017-09-27T09:13:39Z</time>
      </trkpt>
      <trkpt lat="45.94454" lon="4.73042">
        <ele>169</ele>
        <time>2017-09-27T09:13:40Z</time>
      </trkpt>
      <trkpt lat="45.94455" lon="4.73052">
        <ele>170</ele>
        <time>2017-09-27T09:13:41Z</time>
      </trkpt>
      <trkpt lat="45.94456" lon="4.73062">
        <ele>170</ele>
        <time>2017-09-27T09:13:42Z</time>
      </trkpt>
      <trkpt lat="45.94457" lon="4.73072">
        <ele>170</ele>
        <time>2017-09-27T09:13:43Z</time>
      </trkpt>
      <trkpt lat="45.94459" lon="4.73084">
        <ele>171</ele>
        <time>2017-09-27T09:13:44Z</time>
      </trkpt>
      <trkpt lat="45.9446" lon="4.73094">
        <ele>171</ele>
        <time>2017-09-27T09:13:45Z</time>
      </trkpt>
      <trkpt lat="45.94462" lon="4.73103">
        <ele>172</ele>
        <time>2017-09-27T09:13:46Z</time>
      </trkpt>
      <trkpt lat="45.94462" lon="4.73113">
        <ele>172</ele>
        <time>2017-09-27T09:13:47Z</time>
      </trkpt>
      <trkpt lat="45.94464" lon="4.73123">
        <ele>172</ele>
        <time>2017-09-27T09:13:48Z</time>
      </trkpt>
      <trkpt lat="45.94465" lon="4.73132">
        <ele>172</ele>
        <time>2017-09-27T09:13:49Z</time>
      </trkpt>
      <trkpt lat="45.94466" lon="4.7314">
        <ele>172</ele>
        <time>2017-09-27T09:13:50Z</time>
      </trkpt>
      <trkpt lat="45.94468" lon="4.73148">
        <ele>172</ele>
        <time>2017-09-27T09:13:51Z</time>
      </trkpt>
      <trkpt lat="45.94469" lon="4.73156">
        <ele>172</ele>
        <time>2017-09-27T09:13:52Z</time>
      </trkpt>
      <trkpt lat="45.9447" lon="4.73163">
        <ele>172</ele>
        <time>2017-09-27T09:13:53Z</time>
      </trkpt>
      <trkpt lat="45.94471" lon="4.73171">
        <ele>174</ele>
        <time>2017-09-27T09:13:54Z</time>
      </trkpt>
      <trkpt lat="45.94472" lon="4.73178">
        <ele>174</ele>
        <time>2017-09-27T09:13:55Z</time>
      </trkpt>
      <trkpt lat="45.94472" lon="4.73185">
        <ele>174</ele>
        <time>2017-09-27T09:13:56Z</time>
      </trkpt>
      <trkpt lat="45.94474" lon="4.73192">
        <ele>174</ele>
        <time>2017-09-27T09:13:57Z</time>
      </trkpt>
      <trkpt lat="45.94474" lon="4.73199">
        <ele>174</ele>
        <time>2017-09-27T09:13:58Z</time>
      </trkpt>
      <trkpt lat="45.94476" lon="4.73206">
        <ele>175</ele>
        <time>2017-09-27T09:13:59Z</time>
      </trkpt>
      <trkpt lat="45.94478" lon="4.73214">
        <ele>175</ele>
        <time>2017-09-27T09:14:00Z</time>
      </trkpt>
      <trkpt lat="45.94479" lon="4.7322">
        <ele>175</ele>
        <time>2017-09-27T09:14:01Z</time>
      </trkpt>
      <trkpt lat="45.9448" lon="4.73227">
        <ele>175</ele>
        <time>2017-09-27T09:14:02Z</time>
      </trkpt>
      <trkpt lat="45.94481" lon="4.73234">
        <ele>175</ele>
        <time>2017-09-27T09:14:03Z</time>
      </trkpt>
      <trkpt lat="45.94482" lon="4.73239">
        <ele>175</ele>
        <time>2017-09-27T09:14:04Z</time>
      </trkpt>
      <trkpt lat="45.94483" lon="4.73246">
        <ele>175</ele>
        <time>2017-09-27T09:14:05Z</time>
      </trkpt>
      <trkpt lat="45.94484" lon="4.73258">
        <ele>176</ele>
        <time>2017-09-27T09:14:07Z</time>
      </trkpt>
      <trkpt lat="45.94485" lon="4.73265">
        <ele>177</ele>
        <time>2017-09-27T09:14:08Z</time>
      </trkpt>
      <trkpt lat="45.94487" lon="4.73276">
        <ele>177</ele>
        <time>2017-09-27T09:14:10Z</time>
      </trkpt>
      <trkpt lat="45.94487" lon="4.73282">
        <ele>177</ele>
        <time>2017-09-27T09:14:11Z</time>
      </trkpt>
      <trkpt lat="45.94488" lon="4.73289">
        <ele>177</ele>
        <time>2017-09-27T09:14:12Z</time>
      </trkpt>
      <trkpt lat="45.94488" lon="4.73296">
        <ele>177</ele>
        <time>2017-09-27T09:14:13Z</time>
      </trkpt>
      <trkpt lat="45.94491" lon="4.73304">
        <ele>177</ele>
        <time>2017-09-27T09:14:14Z</time>
      </trkpt>
      <trkpt lat="45.94492" lon="4.7331">
        <ele>177</ele>
        <time>2017-09-27T09:14:15Z</time>
      </trkpt>
      <trkpt lat="45.94494" lon="4.73322">
        <ele>177</ele>
        <time>2017-09-27T09:14:17Z</time>
      </trkpt>
      <trkpt lat="45.94495" lon="4.73327">
        <ele>177</ele>
        <time>2017-09-27T09:14:18Z</time>
      </trkpt>
      <trkpt lat="45.94495" lon="4.73338">
        <ele>178</ele>
        <time>2017-09-27T09:14:20Z</time>
      </trkpt>
      <trkpt lat="45.94496" lon="4.73345">
        <ele>178</ele>
        <time>2017-09-27T09:14:21Z</time>
      </trkpt>
      <trkpt lat="45.94497" lon="4.73352">
        <ele>178</ele>
        <time>2017-09-27T09:14:22Z</time>
      </trkpt>
      <trkpt lat="45.94498" lon="4.73358">
        <ele>178</ele>
        <time>2017-09-27T09:14:23Z</time>
      </trkpt>
      <trkpt lat="45.94499" lon="4.73364">
        <ele>179</ele>
        <time>2017-09-27T09:14:24Z</time>
      </trkpt>
      <trkpt lat="45.94499" lon="4.73371">
        <ele>179</ele>
        <time>2017-09-27T09:14:25Z</time>
      </trkpt>
      <trkpt lat="45.94499" lon="4.73378">
        <ele>179</ele>
        <time>2017-09-27T09:14:26Z</time>
      </trkpt>
      <trkpt lat="45.94499" lon="4.73385">
        <ele>179</ele>
        <time>2017-09-27T09:14:27Z</time>
      </trkpt>
      <trkpt lat="45.945" lon="4.73396">
        <ele>179</ele>
        <time>2017-09-27T09:14:29Z</time>
      </trkpt>
      <trkpt lat="45.945" lon="4.73402">
        <ele>179</ele>
        <time>2017-09-27T09:14:30Z</time>
      </trkpt>
      <trkpt lat="45.94501" lon="4.73414">
        <ele>180</ele>
        <time>2017-09-27T09:14:32Z</time>
      </trkpt>
      <trkpt lat="45.945" lon="4.7342">
        <ele>180</ele>
        <time>2017-09-27T09:14:33Z</time>
      </trkpt>
      <trkpt lat="45.94501" lon="4.73431">
        <ele>180</ele>
        <time>2017-09-27T09:14:35Z</time>
      </trkpt>
      <trkpt lat="45.94501" lon="4.73437">
        <ele>181</ele>
        <time>2017-09-27T09:14:36Z</time>
      </trkpt>
      <trkpt lat="45.94502" lon="4.73449">
        <ele>181</ele>
        <time>2017-09-27T09:14:38Z</time>
      </trkpt>
      <trkpt lat="45.94502" lon="4.73455">
        <ele>181</ele>
        <time>2017-09-27T09:14:39Z</time>
      </trkpt>
      <trkpt lat="45.94502" lon="4.73467">
        <ele>181</ele>
        <time>2017-09-27T09:14:41Z</time>
      </trkpt>
      <trkpt lat="45.94503" lon="4.73473">
        <ele>182</ele>
        <time>2017-09-27T09:14:42Z</time>
      </trkpt>
      <trkpt lat="45.94503" lon="4.73485">
        <ele>182</ele>
        <time>2017-09-27T09:14:44Z</time>
      </trkpt>
      <trkpt lat="45.94504" lon="4.73491">
        <ele>182</ele>
        <time>2017-09-27T09:14:45Z</time>
      </trkpt>
      <trkpt lat="45.94504" lon="4.73504">
        <ele>183</ele>
        <time>2017-09-27T09:14:47Z</time>
      </trkpt>
      <trkpt lat="45.94504" lon="4.7351">
        <ele>183</ele>
        <time>2017-09-27T09:14:48Z</time>
      </trkpt>
      <trkpt lat="45.94504" lon="4.73521">
        <ele>183</ele>
        <time>2017-09-27T09:14:50Z</time>
      </trkpt>
      <trkpt lat="45.94504" lon="4.73527">
        <ele>183</ele>
        <time>2017-09-27T09:14:51Z</time>
      </trkpt>
      <trkpt lat="45.94504" lon="4.73537">
        <ele>183</ele>
        <time>2017-09-27T09:14:53Z</time>
      </trkpt>
      <trkpt lat="45.94505" lon="4.73543">
        <ele>183</ele>
        <time>2017-09-27T09:14:54Z</time>
      </trkpt>
      <trkpt lat="45.94504" lon="4.73548">
        <ele>183</ele>
        <time>2017-09-27T09:14:55Z</time>
      </trkpt>
      <trkpt lat="45.94504" lon="4.73556">
        <ele>184</ele>
        <time>2017-09-27T09:14:56Z</time>
      </trkpt>
      <trkpt lat="45.94503" lon="4.73569">
        <ele>184</ele>
        <time>2017-09-27T09:14:58Z</time>
      </trkpt>
      <trkpt lat="45.94502" lon="4.73576">
        <ele>184</ele>
        <time>2017-09-27T09:14:59Z</time>
      </trkpt>
      <trkpt lat="45.94502" lon="4.73581">
        <ele>185</ele>
        <time>2017-09-27T09:15:00Z</time>
      </trkpt>
      <trkpt lat="45.94501" lon="4.73589">
        <ele>185</ele>
        <time>2017-09-27T09:15:01Z</time>
      </trkpt>
      <trkpt lat="45.94501" lon="4.73596">
        <ele>184</ele>
        <time>2017-09-27T09:15:02Z</time>
      </trkpt>
      <trkpt lat="45.945" lon="4.73602">
        <ele>184</ele>
        <time>2017-09-27T09:15:03Z</time>
      </trkpt>
      <trkpt lat="45.94499" lon="4.73608">
        <ele>186</ele>
        <time>2017-09-27T09:15:04Z</time>
      </trkpt>
      <trkpt lat="45.94499" lon="4.73616">
        <ele>186</ele>
        <time>2017-09-27T09:15:05Z</time>
      </trkpt>
      <trkpt lat="45.94498" lon="4.73622">
        <ele>186</ele>
        <time>2017-09-27T09:15:06Z</time>
      </trkpt>
      <trkpt lat="45.94498" lon="4.7363">
        <ele>186</ele>
        <time>2017-09-27T09:15:07Z</time>
      </trkpt>
      <trkpt lat="45.94497" lon="4.73636">
        <ele>186</ele>
        <time>2017-09-27T09:15:08Z</time>
      </trkpt>
      <trkpt lat="45.94495" lon="4.73642">
        <ele>186</ele>
        <time>2017-09-27T09:15:09Z</time>
      </trkpt>
      <trkpt lat="45.94493" lon="4.73649">
        <ele>186</ele>
        <time>2017-09-27T09:15:10Z</time>
      </trkpt>
      <trkpt lat="45.94493" lon="4.73656">
        <ele>185</ele>
        <time>2017-09-27T09:15:11Z</time>
      </trkpt>
      <trkpt lat="45.94491" lon="4.73667">
        <ele>185</ele>
        <time>2017-09-27T09:15:13Z</time>
      </trkpt>
      <trkpt lat="45.9449" lon="4.73674">
        <ele>185</ele>
        <time>2017-09-27T09:15:14Z</time>
      </trkpt>
      <trkpt lat="45.94488" lon="4.73685">
        <ele>186</ele>
        <time>2017-09-27T09:15:16Z</time>
      </trkpt>
      <trkpt lat="45.94488" lon="4.73693">
        <ele>186</ele>
        <time>2017-09-27T09:15:17Z</time>
      </trkpt>
      <trkpt lat="45.94486" lon="4.737">
        <ele>186</ele>
        <time>2017-09-27T09:15:18Z</time>
      </trkpt>
      <trkpt lat="45.94486" lon="4.73706">
        <ele>186</ele>
        <time>2017-09-27T09:15:19Z</time>
      </trkpt>
      <trkpt lat="45.94485" lon="4.73713">
        <ele>186</ele>
        <time>2017-09-27T09:15:20Z</time>
      </trkpt>
      <trkpt lat="45.94483" lon="4.73721">
        <ele>186</ele>
        <time>2017-09-27T09:15:21Z</time>
      </trkpt>
      <trkpt lat="45.94482" lon="4.73727">
        <ele>186</ele>
        <time>2017-09-27T09:15:22Z</time>
      </trkpt>
      <trkpt lat="45.94481" lon="4.73734">
        <ele>186</ele>
        <time>2017-09-27T09:15:23Z</time>
      </trkpt>
      <trkpt lat="45.9448" lon="4.73745">
        <ele>186</ele>
        <time>2017-09-27T09:15:25Z</time>
      </trkpt>
      <trkpt lat="45.94478" lon="4.7375">
        <ele>186</ele>
        <time>2017-09-27T09:15:26Z</time>
      </trkpt>
      <trkpt lat="45.94474" lon="4.7376">
        <ele>186</ele>
        <time>2017-09-27T09:15:28Z</time>
      </trkpt>
      <trkpt lat="45.94471" lon="4.73764">
        <ele>186</ele>
        <time>2017-09-27T09:15:29Z</time>
      </trkpt>
      <trkpt lat="45.94468" lon="4.73769">
        <ele>186</ele>
        <time>2017-09-27T09:15:30Z</time>
      </trkpt>
      <trkpt lat="45.94465" lon="4.73775">
        <ele>186</ele>
        <time>2017-09-27T09:15:31Z</time>
      </trkpt>
      <trkpt lat="45.94463" lon="4.7378">
        <ele>186</ele>
        <time>2017-09-27T09:15:32Z</time>
      </trkpt>
      <trkpt lat="45.9446" lon="4.73787">
        <ele>186</ele>
        <time>2017-09-27T09:15:33Z</time>
      </trkpt>
      <trkpt lat="45.94458" lon="4.73793">
        <ele>185</ele>
        <time>2017-09-27T09:15:34Z</time>
      </trkpt>
      <trkpt lat="45.94458" lon="4.73799">
        <ele>185</ele>
        <time>2017-09-27T09:15:35Z</time>
      </trkpt>
      <trkpt lat="45.94458" lon="4.73807">
        <ele>185</ele>
        <time>2017-09-27T09:15:36Z</time>
      </trkpt>
      <trkpt lat="45.94459" lon="4.73815">
        <ele>185</ele>
        <time>2017-09-27T09:15:37Z</time>
      </trkpt>
      <trkpt lat="45.9446" lon="4.73823">
        <ele>185</ele>
        <time>2017-09-27T09:15:38Z</time>
      </trkpt>
      <trkpt lat="45.9446" lon="4.7383">
        <ele>185</ele>
        <time>2017-09-27T09:15:39Z</time>
      </trkpt>
      <trkpt lat="45.9446" lon="4.73838">
        <ele>184</ele>
        <time>2017-09-27T09:15:40Z</time>
      </trkpt>
      <trkpt lat="45.94459" lon="4.73846">
        <ele>184</ele>
        <time>2017-09-27T09:15:41Z</time>
      </trkpt>
      <trkpt lat="45.94457" lon="4.73854">
        <ele>184</ele>
        <time>2017-09-27T09:15:42Z</time>
      </trkpt>
      <trkpt lat="45.94456" lon="4.73862">
        <ele>184</ele>
        <time>2017-09-27T09:15:43Z</time>
      </trkpt>
      <trkpt lat="45.94454" lon="4.7387">
        <ele>184</ele>
        <time>2017-09-27T09:15:44Z</time>
      </trkpt>
      <trkpt lat="45.94452" lon="4.73879">
        <ele>183</ele>
        <time>2017-09-27T09:15:45Z</time>
      </trkpt>
      <trkpt lat="45.9445" lon="4.73888">
        <ele>183</ele>
        <time>2017-09-27T09:15:46Z</time>
      </trkpt>
      <trkpt lat="45.94448" lon="4.73896">
        <ele>183</ele>
        <time>2017-09-27T09:15:47Z</time>
      </trkpt>
      <trkpt lat="45.94448" lon="4.73906">
        <ele>183</ele>
        <time>2017-09-27T09:15:48Z</time>
      </trkpt>
      <trkpt lat="45.94446" lon="4.73915">
        <ele>183</ele>
        <time>2017-09-27T09:15:49Z</time>
      </trkpt>
      <trkpt lat="45.94443" lon="4.73925">
        <ele>181</ele>
        <time>2017-09-27T09:15:50Z</time>
      </trkpt>
      <trkpt lat="45.94441" lon="4.73934">
        <ele>181</ele>
        <time>2017-09-27T09:15:51Z</time>
      </trkpt>
      <trkpt lat="45.9444" lon="4.73944">
        <ele>181</ele>
        <time>2017-09-27T09:15:52Z</time>
      </trkpt>
      <trkpt lat="45.94438" lon="4.73953">
        <ele>181</ele>
        <time>2017-09-27T09:15:53Z</time>
      </trkpt>
      <trkpt lat="45.94436" lon="4.73964">
        <ele>181</ele>
        <time>2017-09-27T09:15:54Z</time>
      </trkpt>
      <trkpt lat="45.94434" lon="4.73976">
        <ele>180</ele>
        <time>2017-09-27T09:15:55Z</time>
      </trkpt>
      <trkpt lat="45.94432" lon="4.73986">
        <ele>180</ele>
        <time>2017-09-27T09:15:56Z</time>
      </trkpt>
      <trkpt lat="45.94429" lon="4.73996">
        <ele>179</ele>
        <time>2017-09-27T09:15:57Z</time>
      </trkpt>
      <trkpt lat="45.94427" lon="4.74005">
        <ele>179</ele>
        <time>2017-09-27T09:15:58Z</time>
      </trkpt>
      <trkpt lat="45.94426" lon="4.74014">
        <ele>179</ele>
        <time>2017-09-27T09:15:59Z</time>
      </trkpt>
      <trkpt lat="45.94424" lon="4.74023">
        <ele>179</ele>
        <time>2017-09-27T09:16:00Z</time>
      </trkpt>
      <trkpt lat="45.94423" lon="4.74032">
        <ele>179</ele>
        <time>2017-09-27T09:16:01Z</time>
      </trkpt>
      <trkpt lat="45.94422" lon="4.74041">
        <ele>179</ele>
        <time>2017-09-27T09:16:02Z</time>
      </trkpt>
      <trkpt lat="45.9442" lon="4.7405">
        <ele>179</ele>
        <time>2017-09-27T09:16:03Z</time>
      </trkpt>
      <trkpt lat="45.94418" lon="4.74058">
        <ele>178</ele>
        <time>2017-09-27T09:16:04Z</time>
      </trkpt>
      <trkpt lat="45.94416" lon="4.74067">
        <ele>177</ele>
        <time>2017-09-27T09:16:05Z</time>
      </trkpt>
      <trkpt lat="45.94414" lon="4.74076">
        <ele>177</ele>
        <time>2017-09-27T09:16:06Z</time>
      </trkpt>
      <trkpt lat="45.94413" lon="4.74087">
        <ele>176</ele>
        <time>2017-09-27T09:16:07Z</time>
      </trkpt>
      <trkpt lat="45.94411" lon="4.74097">
        <ele>175</ele>
        <time>2017-09-27T09:16:08Z</time>
      </trkpt>
      <trkpt lat="45.9441" lon="4.74107">
        <ele>175</ele>
        <time>2017-09-27T09:16:09Z</time>
      </trkpt>
      <trkpt lat="45.94407" lon="4.74117">
        <ele>174</ele>
        <time>2017-09-27T09:16:10Z</time>
      </trkpt>
      <trkpt lat="45.94405" lon="4.74128">
        <ele>174</ele>
        <time>2017-09-27T09:16:11Z</time>
      </trkpt>
      <trkpt lat="45.94403" lon="4.74138">
        <ele>174</ele>
        <time>2017-09-27T09:16:12Z</time>
      </trkpt>
      <trkpt lat="45.94401" lon="4.74148">
        <ele>174</ele>
        <time>2017-09-27T09:16:13Z</time>
      </trkpt>
      <trkpt lat="45.944" lon="4.74159">
        <ele>173</ele>
        <time>2017-09-27T09:16:14Z</time>
      </trkpt>
      <trkpt lat="45.94398" lon="4.74169">
        <ele>172</ele>
        <time>2017-09-27T09:16:15Z</time>
      </trkpt>
      <trkpt lat="45.94396" lon="4.7418">
        <ele>172</ele>
        <time>2017-09-27T09:16:16Z</time>
      </trkpt>
      <trkpt lat="45.94394" lon="4.74191">
        <ele>172</ele>
        <time>2017-09-27T09:16:17Z</time>
      </trkpt>
      <trkpt lat="45.94393" lon="4.74202">
        <ele>171</ele>
        <time>2017-09-27T09:16:18Z</time>
      </trkpt>
      <trkpt lat="45.94391" lon="4.74212">
        <ele>171</ele>
        <time>2017-09-27T09:16:19Z</time>
      </trkpt>
      <trkpt lat="45.94389" lon="4.74223">
        <ele>171</ele>
        <time>2017-09-27T09:16:20Z</time>
      </trkpt>
      <trkpt lat="45.94388" lon="4.74234">
        <ele>171</ele>
        <time>2017-09-27T09:16:21Z</time>
      </trkpt>
      <trkpt lat="45.94386" lon="4.74244">
        <ele>171</ele>
        <time>2017-09-27T09:16:22Z</time>
      </trkpt>
      <trkpt lat="45.94385" lon="4.74254">
        <ele>170</ele>
        <time>2017-09-27T09:16:23Z</time>
      </trkpt>
      <trkpt lat="45.94384" lon="4.74265">
        <ele>170</ele>
        <time>2017-09-27T09:16:24Z</time>
      </trkpt>
      <trkpt lat="45.94382" lon="4.74274">
        <ele>170</ele>
        <time>2017-09-27T09:16:25Z</time>
      </trkpt>
      <trkpt lat="45.94381" lon="4.74284">
        <ele>170</ele>
        <time>2017-09-27T09:16:26Z</time>
      </trkpt>
      <trkpt lat="45.9438" lon="4.74293">
        <ele>170</ele>
        <time>2017-09-27T09:16:27Z</time>
      </trkpt>
      <trkpt lat="45.94378" lon="4.74301">
        <ele>170</ele>
        <time>2017-09-27T09:16:28Z</time>
      </trkpt>
      <trkpt lat="45.94377" lon="4.74309">
        <ele>170</ele>
        <time>2017-09-27T09:16:29Z</time>
      </trkpt>
      <trkpt lat="45.94376" lon="4.74317">
        <ele>170</ele>
        <time>2017-09-27T09:16:30Z</time>
      </trkpt>
      <trkpt lat="45.94375" lon="4.74325">
        <ele>170</ele>
        <time>2017-09-27T09:16:31Z</time>
      </trkpt>
      <trkpt lat="45.94374" lon="4.74333">
        <ele>170</ele>
        <time>2017-09-27T09:16:32Z</time>
      </trkpt>
      <trkpt lat="45.94373" lon="4.74341">
        <ele>170</ele>
        <time>2017-09-27T09:16:33Z</time>
      </trkpt>
      <trkpt lat="45.94372" lon="4.74348">
        <ele>170</ele>
        <time>2017-09-27T09:16:34Z</time>
      </trkpt>
      <trkpt lat="45.94371" lon="4.74355">
        <ele>170</ele>
        <time>2017-09-27T09:16:35Z</time>
      </trkpt>
      <trkpt lat="45.9437" lon="4.74363">
        <ele>170</ele>
        <time>2017-09-27T09:16:36Z</time>
      </trkpt>
      <trkpt lat="45.94369" lon="4.74371">
        <ele>170</ele>
        <time>2017-09-27T09:16:37Z</time>
      </trkpt>
      <trkpt lat="45.94368" lon="4.74379">
        <ele>170</ele>
        <time>2017-09-27T09:16:38Z</time>
      </trkpt>
      <trkpt lat="45.94367" lon="4.74386">
        <ele>170</ele>
        <time>2017-09-27T09:16:39Z</time>
      </trkpt>
      <trkpt lat="45.94366" lon="4.74394">
        <ele>170</ele>
        <time>2017-09-27T09:16:40Z</time>
      </trkpt>
      <trkpt lat="45.94365" lon="4.744">
        <ele>170</ele>
        <time>2017-09-27T09:16:41Z</time>
      </trkpt>
      <trkpt lat="45.94365" lon="4.74407">
        <ele>170</ele>
        <time>2017-09-27T09:16:42Z</time>
      </trkpt>
      <trkpt lat="45.94364" lon="4.74414">
        <ele>170</ele>
        <time>2017-09-27T09:16:43Z</time>
      </trkpt>
      <trkpt lat="45.94362" lon="4.74421">
        <ele>170</ele>
        <time>2017-09-27T09:16:44Z</time>
      </trkpt>
      <trkpt lat="45.94361" lon="4.74428">
        <ele>170</ele>
        <time>2017-09-27T09:16:45Z</time>
      </trkpt>
      <trkpt lat="45.9436" lon="4.74434">
        <ele>170</ele>
        <time>2017-09-27T09:16:46Z</time>
      </trkpt>
      <trkpt lat="45.94359" lon="4.74442">
        <ele>170</ele>
        <time>2017-09-27T09:16:47Z</time>
      </trkpt>
      <trkpt lat="45.94358" lon="4.7445">
        <ele>170</ele>
        <time>2017-09-27T09:16:48Z</time>
      </trkpt>
      <trkpt lat="45.94357" lon="4.74459">
        <ele>170</ele>
        <time>2017-09-27T09:16:49Z</time>
      </trkpt>
      <trkpt lat="45.94357" lon="4.74468">
        <ele>170</ele>
        <time>2017-09-27T09:16:50Z</time>
      </trkpt>
      <trkpt lat="45.94356" lon="4.74476">
        <ele>170</ele>
        <time>2017-09-27T09:16:51Z</time>
      </trkpt>
      <trkpt lat="45.94355" lon="4.74484">
        <ele>170</ele>
        <time>2017-09-27T09:16:52Z</time>
      </trkpt>
      <trkpt lat="45.94354" lon="4.74491">
        <ele>170</ele>
        <time>2017-09-27T09:16:53Z</time>
      </trkpt>
      <trkpt lat="45.94354" lon="4.74499">
        <ele>170</ele>
        <time>2017-09-27T09:16:54Z</time>
      </trkpt>
      <trkpt lat="45.94354" lon="4.74506">
        <ele>170</ele>
        <time>2017-09-27T09:16:55Z</time>
      </trkpt>
      <trkpt lat="45.94353" lon="4.74512">
        <ele>170</ele>
        <time>2017-09-27T09:16:56Z</time>
      </trkpt>
      <trkpt lat="45.94353" lon="4.74519">
        <ele>171</ele>
        <time>2017-09-27T09:16:57Z</time>
      </trkpt>
      <trkpt lat="45.94352" lon="4.74532">
        <ele>171</ele>
        <time>2017-09-27T09:16:59Z</time>
      </trkpt>
      <trkpt lat="45.94351" lon="4.74538">
        <ele>171</ele>
        <time>2017-09-27T09:17:00Z</time>
      </trkpt>
      <trkpt lat="45.94351" lon="4.74545">
        <ele>171</ele>
        <time>2017-09-27T09:17:01Z</time>
      </trkpt>
      <trkpt lat="45.94351" lon="4.74552">
        <ele>171</ele>
        <time>2017-09-27T09:17:02Z</time>
      </trkpt>
      <trkpt lat="45.9435" lon="4.74559">
        <ele>171</ele>
        <time>2017-09-27T09:17:03Z</time>
      </trkpt>
      <trkpt lat="45.9435" lon="4.74566">
        <ele>171</ele>
        <time>2017-09-27T09:17:04Z</time>
      </trkpt>
      <trkpt lat="45.94349" lon="4.74578">
        <ele>171</ele>
        <time>2017-09-27T09:17:06Z</time>
      </trkpt>
      <trkpt lat="45.94349" lon="4.74586">
        <ele>171</ele>
        <time>2017-09-27T09:17:07Z</time>
      </trkpt>
      <trkpt lat="45.94349" lon="4.74593">
        <ele>171</ele>
        <time>2017-09-27T09:17:08Z</time>
      </trkpt>
      <trkpt lat="45.94348" lon="4.74601">
        <ele>171</ele>
        <time>2017-09-27T09:17:09Z</time>
      </trkpt>
      <trkpt lat="45.94346" lon="4.74609">
        <ele>171</ele>
        <time>2017-09-27T09:17:10Z</time>
      </trkpt>
      <trkpt lat="45.94346" lon="4.74615">
        <ele>171</ele>
        <time>2017-09-27T09:17:11Z</time>
      </trkpt>
      <trkpt lat="45.94346" lon="4.74622">
        <ele>171</ele>
        <time>2017-09-27T09:17:12Z</time>
      </trkpt>
      <trkpt lat="45.94346" lon="4.74628">
        <ele>171</ele>
        <time>2017-09-27T09:17:13Z</time>
      </trkpt>
      <trkpt lat="45.94346" lon="4.74636">
        <ele>171</ele>
        <time>2017-09-27T09:17:14Z</time>
      </trkpt>
      <trkpt lat="45.94345" lon="4.74642">
        <ele>171</ele>
        <time>2017-09-27T09:17:15Z</time>
      </trkpt>
      <trkpt lat="45.94345" lon="4.74649">
        <ele>172</ele>
        <time>2017-09-27T09:17:16Z</time>
      </trkpt>
      <trkpt lat="45.94344" lon="4.74656">
        <ele>172</ele>
        <time>2017-09-27T09:17:17Z</time>
      </trkpt>
      <trkpt lat="45.94343" lon="4.74663">
        <ele>172</ele>
        <time>2017-09-27T09:17:18Z</time>
      </trkpt>
      <trkpt lat="45.94342" lon="4.7467">
        <ele>172</ele>
        <time>2017-09-27T09:17:19Z</time>
      </trkpt>
      <trkpt lat="45.94342" lon="4.74676">
        <ele>172</ele>
        <time>2017-09-27T09:17:20Z</time>
      </trkpt>
      <trkpt lat="45.94341" lon="4.74684">
        <ele>172</ele>
        <time>2017-09-27T09:17:21Z</time>
      </trkpt>
      <trkpt lat="45.9434" lon="4.74693">
        <ele>172</ele>
        <time>2017-09-27T09:17:22Z</time>
      </trkpt>
      <trkpt lat="45.94339" lon="4.74701">
        <ele>172</ele>
        <time>2017-09-27T09:17:23Z</time>
      </trkpt>
      <trkpt lat="45.94337" lon="4.74709">
        <ele>171</ele>
        <time>2017-09-27T09:17:24Z</time>
      </trkpt>
      <trkpt lat="45.94336" lon="4.74716">
        <ele>171</ele>
        <time>2017-09-27T09:17:25Z</time>
      </trkpt>
      <trkpt lat="45.94335" lon="4.74723">
        <ele>171</ele>
        <time>2017-09-27T09:17:26Z</time>
      </trkpt>
      <trkpt lat="45.94333" lon="4.7473">
        <ele>171</ele>
        <time>2017-09-27T09:17:27Z</time>
      </trkpt>
      <trkpt lat="45.94333" lon="4.74737">
        <ele>171</ele>
        <time>2017-09-27T09:17:28Z</time>
      </trkpt>
      <trkpt lat="45.94332" lon="4.74745">
        <ele>171</ele>
        <time>2017-09-27T09:17:29Z</time>
      </trkpt>
      <trkpt lat="45.9433" lon="4.74751">
        <ele>171</ele>
        <time>2017-09-27T09:17:30Z</time>
      </trkpt>
      <trkpt lat="45.94328" lon="4.74758">
        <ele>171</ele>
        <time>2017-09-27T09:17:31Z</time>
      </trkpt>
      <trkpt lat="45.94326" lon="4.74766">
        <ele>171</ele>
        <time>2017-09-27T09:17:32Z</time>
      </trkpt>
      <trkpt lat="45.94325" lon="4.74773">
        <ele>171</ele>
        <time>2017-09-27T09:17:33Z</time>
      </trkpt>
      <trkpt lat="45.94324" lon="4.74781">
        <ele>171</ele>
        <time>2017-09-27T09:17:34Z</time>
      </trkpt>
      <trkpt lat="45.94322" lon="4.74789">
        <ele>172</ele>
        <time>2017-09-27T09:17:35Z</time>
      </trkpt>
      <trkpt lat="45.94319" lon="4.74797">
        <ele>172</ele>
        <time>2017-09-27T09:17:36Z</time>
      </trkpt>
      <trkpt lat="45.94318" lon="4.74804">
        <ele>172</ele>
        <time>2017-09-27T09:17:37Z</time>
      </trkpt>
      <trkpt lat="45.94315" lon="4.74812">
        <ele>172</ele>
        <time>2017-09-27T09:17:38Z</time>
      </trkpt>
      <trkpt lat="45.94314" lon="4.74819">
        <ele>172</ele>
        <time>2017-09-27T09:17:39Z</time>
      </trkpt>
      <trkpt lat="45.94313" lon="4.74825">
        <ele>172</ele>
        <time>2017-09-27T09:17:40Z</time>
      </trkpt>
      <trkpt lat="45.9431" lon="4.74832">
        <ele>172</ele>
        <time>2017-09-27T09:17:41Z</time>
      </trkpt>
      <trkpt lat="45.94309" lon="4.74839">
        <ele>173</ele>
        <time>2017-09-27T09:17:42Z</time>
      </trkpt>
      <trkpt lat="45.94307" lon="4.74844">
        <ele>173</ele>
        <time>2017-09-27T09:17:43Z</time>
      </trkpt>
      <trkpt lat="45.94305" lon="4.74852">
        <ele>173</ele>
        <time>2017-09-27T09:17:44Z</time>
      </trkpt>
      <trkpt lat="45.94303" lon="4.7486">
        <ele>174</ele>
        <time>2017-09-27T09:17:45Z</time>
      </trkpt>
      <trkpt lat="45.94301" lon="4.74868">
        <ele>174</ele>
        <time>2017-09-27T09:17:46Z</time>
      </trkpt>
      <trkpt lat="45.94299" lon="4.74876">
        <ele>174</ele>
        <time>2017-09-27T09:17:47Z</time>
      </trkpt>
      <trkpt lat="45.94297" lon="4.74884">
        <ele>174</ele>
        <time>2017-09-27T09:17:48Z</time>
      </trkpt>
      <trkpt lat="45.94295" lon="4.74891">
        <ele>174</ele>
        <time>2017-09-27T09:17:49Z</time>
      </trkpt>
      <trkpt lat="45.94293" lon="4.74897">
        <ele>174</ele>
        <time>2017-09-27T09:17:50Z</time>
      </trkpt>
      <trkpt lat="45.9429" lon="4.74904">
        <ele>174</ele>
        <time>2017-09-27T09:17:51Z</time>
      </trkpt>
      <trkpt lat="45.94288" lon="4.7491">
        <ele>174</ele>
        <time>2017-09-27T09:17:52Z</time>
      </trkpt>
      <trkpt lat="45.94286" lon="4.74919">
        <ele>175</ele>
        <time>2017-09-27T09:17:53Z</time>
      </trkpt>
      <trkpt lat="45.94284" lon="4.74925">
        <ele>175</ele>
        <time>2017-09-27T09:17:54Z</time>
      </trkpt>
      <trkpt lat="45.94282" lon="4.74932">
        <ele>175</ele>
        <time>2017-09-27T09:17:55Z</time>
      </trkpt>
      <trkpt lat="45.94281" lon="4.74939">
        <ele>175</ele>
        <time>2017-09-27T09:17:56Z</time>
      </trkpt>
      <trkpt lat="45.94278" lon="4.74945">
        <ele>175</ele>
        <time>2017-09-27T09:17:57Z</time>
      </trkpt>
      <trkpt lat="45.94276" lon="4.74953">
        <ele>175</ele>
        <time>2017-09-27T09:17:58Z</time>
      </trkpt>
      <trkpt lat="45.94274" lon="4.7496">
        <ele>175</ele>
        <time>2017-09-27T09:17:59Z</time>
      </trkpt>
      <trkpt lat="45.94273" lon="4.74967">
        <ele>175</ele>
        <time>2017-09-27T09:18:00Z</time>
      </trkpt>
      <trkpt lat="45.94271" lon="4.74974">
        <ele>175</ele>
        <time>2017-09-27T09:18:01Z</time>
      </trkpt>
      <trkpt lat="45.94269" lon="4.74982">
        <ele>175</ele>
        <time>2017-09-27T09:18:02Z</time>
      </trkpt>
      <trkpt lat="45.94266" lon="4.74989">
        <ele>175</ele>
        <time>2017-09-27T09:18:03Z</time>
      </trkpt>
      <trkpt lat="45.94264" lon="4.74996">
        <ele>174</ele>
        <time>2017-09-27T09:18:04Z</time>
      </trkpt>
      <trkpt lat="45.94262" lon="4.75003">
        <ele>174</ele>
        <time>2017-09-27T09:18:05Z</time>
      </trkpt>
      <trkpt lat="45.9426" lon="4.7501">
        <ele>174</ele>
        <time>2017-09-27T09:18:06Z</time>
      </trkpt>
      <trkpt lat="45.94259" lon="4.75017">
        <ele>174</ele>
        <time>2017-09-27T09:18:07Z</time>
      </trkpt>
      <trkpt lat="45.94257" lon="4.75023">
        <ele>174</ele>
        <time>2017-09-27T09:18:08Z</time>
      </trkpt>
      <trkpt lat="45.94255" lon="4.75029">
        <ele>174</ele>
        <time>2017-09-27T09:18:09Z</time>
      </trkpt>
      <trkpt lat="45.94253" lon="4.75036">
        <ele>174</ele>
        <time>2017-09-27T09:18:10Z</time>
      </trkpt>
      <trkpt lat="45.94252" lon="4.75042">
        <ele>174</ele>
        <time>2017-09-27T09:18:11Z</time>
      </trkpt>
      <trkpt lat="45.94249" lon="4.75048">
        <ele>172</ele>
        <time>2017-09-27T09:18:12Z</time>
      </trkpt>
      <trkpt lat="45.94249" lon="4.75058">
        <ele>172</ele>
        <time>2017-09-27T09:18:13Z</time>
      </trkpt>
      <trkpt lat="45.94247" lon="4.75064">
        <ele>172</ele>
        <time>2017-09-27T09:18:14Z</time>
      </trkpt>
      <trkpt lat="45.94245" lon="4.75071">
        <ele>173</ele>
        <time>2017-09-27T09:18:15Z</time>
      </trkpt>
      <trkpt lat="45.94245" lon="4.7508">
        <ele>173</ele>
        <time>2017-09-27T09:18:16Z</time>
      </trkpt>
      <trkpt lat="45.94243" lon="4.75087">
        <ele>172</ele>
        <time>2017-09-27T09:18:17Z</time>
      </trkpt>
      <trkpt lat="45.94241" lon="4.75094">
        <ele>172</ele>
        <time>2017-09-27T09:18:18Z</time>
      </trkpt>
      <trkpt lat="45.94238" lon="4.75102">
        <ele>172</ele>
        <time>2017-09-27T09:18:19Z</time>
      </trkpt>
      <trkpt lat="45.94236" lon="4.7511">
        <ele>172</ele>
        <time>2017-09-27T09:18:20Z</time>
      </trkpt>
      <trkpt lat="45.94233" lon="4.75116">
        <ele>171</ele>
        <time>2017-09-27T09:18:21Z</time>
      </trkpt>
      <trkpt lat="45.94232" lon="4.75123">
        <ele>171</ele>
        <time>2017-09-27T09:18:22Z</time>
      </trkpt>
      <trkpt lat="45.9423" lon="4.75131">
        <ele>171</ele>
        <time>2017-09-27T09:18:23Z</time>
      </trkpt>
      <trkpt lat="45.94228" lon="4.75138">
        <ele>171</ele>
        <time>2017-09-27T09:18:24Z</time>
      </trkpt>
      <trkpt lat="45.94226" lon="4.75145">
        <ele>171</ele>
        <time>2017-09-27T09:18:25Z</time>
      </trkpt>
      <trkpt lat="45.94225" lon="4.75152">
        <ele>171</ele>
        <time>2017-09-27T09:18:26Z</time>
      </trkpt>
      <trkpt lat="45.94223" lon="4.75158">
        <ele>171</ele>
        <time>2017-09-27T09:18:27Z</time>
      </trkpt>
      <trkpt lat="45.9422" lon="4.7517">
        <ele>171</ele>
        <time>2017-09-27T09:18:29Z</time>
      </trkpt>
      <trkpt lat="45.94218" lon="4.75176">
        <ele>171</ele>
        <time>2017-09-27T09:18:30Z</time>
      </trkpt>
      <trkpt lat="45.94216" lon="4.75182">
        <ele>171</ele>
        <time>2017-09-27T09:18:31Z</time>
      </trkpt>
      <trkpt lat="45.94214" lon="4.75189">
        <ele>171</ele>
        <time>2017-09-27T09:18:32Z</time>
      </trkpt>
      <trkpt lat="45.94212" lon="4.75196">
        <ele>171</ele>
        <time>2017-09-27T09:18:33Z</time>
      </trkpt>
      <trkpt lat="45.94211" lon="4.75204">
        <ele>171</ele>
        <time>2017-09-27T09:18:34Z</time>
      </trkpt>
      <trkpt lat="45.9421" lon="4.75212">
        <ele>171</ele>
        <time>2017-09-27T09:18:35Z</time>
      </trkpt>
      <trkpt lat="45.94208" lon="4.75221">
        <ele>171</ele>
        <time>2017-09-27T09:18:36Z</time>
      </trkpt>
      <trkpt lat="45.94206" lon="4.75229">
        <ele>171</ele>
        <time>2017-09-27T09:18:37Z</time>
      </trkpt>
      <trkpt lat="45.94205" lon="4.75237">
        <ele>171</ele>
        <time>2017-09-27T09:18:38Z</time>
      </trkpt>
      <trkpt lat="45.94204" lon="4.75244">
        <ele>171</ele>
        <time>2017-09-27T09:18:39Z</time>
      </trkpt>
      <trkpt lat="45.94203" lon="4.75251">
        <ele>171</ele>
        <time>2017-09-27T09:18:40Z</time>
      </trkpt>
      <trkpt lat="45.94201" lon="4.75258">
        <ele>171</ele>
        <time>2017-09-27T09:18:41Z</time>
      </trkpt>
      <trkpt lat="45.942" lon="4.75266">
        <ele>171</ele>
        <time>2017-09-27T09:18:42Z</time>
      </trkpt>
      <trkpt lat="45.94199" lon="4.75273">
        <ele>171</ele>
        <time>2017-09-27T09:18:43Z</time>
      </trkpt>
      <trkpt lat="45.94198" lon="4.7528">
        <ele>171</ele>
        <time>2017-09-27T09:18:44Z</time>
      </trkpt>
      <trkpt lat="45.94198" lon="4.75288">
        <ele>171</ele>
        <time>2017-09-27T09:18:45Z</time>
      </trkpt>
      <trkpt lat="45.94197" lon="4.75296">
        <ele>171</ele>
        <time>2017-09-27T09:18:46Z</time>
      </trkpt>
      <trkpt lat="45.94196" lon="4.75304">
        <ele>171</ele>
        <time>2017-09-27T09:18:47Z</time>
      </trkpt>
      <trkpt lat="45.94194" lon="4.75311">
        <ele>171</ele>
        <time>2017-09-27T09:18:48Z</time>
      </trkpt>
      <trkpt lat="45.94193" lon="4.75319">
        <ele>171</ele>
        <time>2017-09-27T09:18:49Z</time>
      </trkpt>
      <trkpt lat="45.94192" lon="4.75327">
        <ele>171</ele>
        <time>2017-09-27T09:18:50Z</time>
      </trkpt>
      <trkpt lat="45.9419" lon="4.75334">
        <ele>171</ele>
        <time>2017-09-27T09:18:51Z</time>
      </trkpt>
      <trkpt lat="45.94189" lon="4.75341">
        <ele>171</ele>
        <time>2017-09-27T09:18:52Z</time>
      </trkpt>
      <trkpt lat="45.94188" lon="4.75349">
        <ele>171</ele>
        <time>2017-09-27T09:18:53Z</time>
      </trkpt>
      <trkpt lat="45.94187" lon="4.75356">
        <ele>171</ele>
        <time>2017-09-27T09:18:54Z</time>
      </trkpt>
      <trkpt lat="45.94186" lon="4.75362">
        <ele>171</ele>
        <time>2017-09-27T09:18:55Z</time>
      </trkpt>
      <trkpt lat="45.94185" lon="4.75369">
        <ele>171</ele>
        <time>2017-09-27T09:18:56Z</time>
      </trkpt>
      <trkpt lat="45.94184" lon="4.75375">
        <ele>171</ele>
        <time>2017-09-27T09:18:57Z</time>
      </trkpt>
      <trkpt lat="45.94182" lon="4.75381">
        <ele>171</ele>
        <time>2017-09-27T09:18:58Z</time>
      </trkpt>
      <trkpt lat="45.94181" lon="4.75388">
        <ele>171</ele>
        <time>2017-09-27T09:18:59Z</time>
      </trkpt>
      <trkpt lat="45.94179" lon="4.75396">
        <ele>171</ele>
        <time>2017-09-27T09:19:00Z</time>
      </trkpt>
      <trkpt lat="45.94178" lon="4.75403">
        <ele>170</ele>
        <time>2017-09-27T09:19:01Z</time>
      </trkpt>
      <trkpt lat="45.94176" lon="4.75409">
        <ele>170</ele>
        <time>2017-09-27T09:19:02Z</time>
      </trkpt>
      <trkpt lat="45.94174" lon="4.75415">
        <ele>170</ele>
        <time>2017-09-27T09:19:03Z</time>
      </trkpt>
      <trkpt lat="45.94171" lon="4.7542">
        <ele>170</ele>
        <time>2017-09-27T09:19:04Z</time>
      </trkpt>
      <trkpt lat="45.94163" lon="4.75426">
        <ele>170</ele>
        <time>2017-09-27T09:19:06Z</time>
      </trkpt>
      <trkpt lat="45.94161" lon="4.75432">
        <ele>171</ele>
        <time>2017-09-27T09:19:07Z</time>
      </trkpt>
      <trkpt lat="45.94163" lon="4.75444">
        <ele>171</ele>
        <time>2017-09-27T09:19:10Z</time>
      </trkpt>
      <trkpt lat="45.94166" lon="4.75448">
        <ele>171</ele>
        <time>2017-09-27T09:19:11Z</time>
      </trkpt>
      <trkpt lat="45.9417" lon="4.75458">
        <ele>172</ele>
        <time>2017-09-27T09:19:13Z</time>
      </trkpt>
      <trkpt lat="45.94171" lon="4.75464">
        <ele>172</ele>
        <time>2017-09-27T09:19:14Z</time>
      </trkpt>
      <trkpt lat="45.94169" lon="4.75477">
        <ele>172</ele>
        <time>2017-09-27T09:19:16Z</time>
      </trkpt>
      <trkpt lat="45.94169" lon="4.75485">
        <ele>172</ele>
        <time>2017-09-27T09:19:17Z</time>
      </trkpt>
      <trkpt lat="45.94169" lon="4.75492">
        <ele>173</ele>
        <time>2017-09-27T09:19:18Z</time>
      </trkpt>
      <trkpt lat="45.94169" lon="4.755">
        <ele>173</ele>
        <time>2017-09-27T09:19:19Z</time>
      </trkpt>
      <trkpt lat="45.94169" lon="4.75508">
        <ele>173</ele>
        <time>2017-09-27T09:19:20Z</time>
      </trkpt>
      <trkpt lat="45.94168" lon="4.75516">
        <ele>173</ele>
        <time>2017-09-27T09:19:21Z</time>
      </trkpt>
      <trkpt lat="45.94168" lon="4.75524">
        <ele>173</ele>
        <time>2017-09-27T09:19:22Z</time>
      </trkpt>
      <trkpt lat="45.94168" lon="4.75531">
        <ele>173</ele>
        <time>2017-09-27T09:19:23Z</time>
      </trkpt>
      <trkpt lat="45.94167" lon="4.75538">
        <ele>173</ele>
        <time>2017-09-27T09:19:24Z</time>
      </trkpt>
      <trkpt lat="45.94167" lon="4.75545">
        <ele>173</ele>
        <time>2017-09-27T09:19:25Z</time>
      </trkpt>
      <trkpt lat="45.94167" lon="4.75553">
        <ele>173</ele>
        <time>2017-09-27T09:19:26Z</time>
      </trkpt>
      <trkpt lat="45.94167" lon="4.75559">
        <ele>173</ele>
        <time>2017-09-27T09:19:27Z</time>
      </trkpt>
      <trkpt lat="45.94166" lon="4.75566">
        <ele>173</ele>
        <time>2017-09-27T09:19:28Z</time>
      </trkpt>
      <trkpt lat="45.94166" lon="4.75573">
        <ele>173</ele>
        <time>2017-09-27T09:19:29Z</time>
      </trkpt>
      <trkpt lat="45.94166" lon="4.75581">
        <ele>173</ele>
        <time>2017-09-27T09:19:30Z</time>
      </trkpt>
      <trkpt lat="45.94165" lon="4.75588">
        <ele>173</ele>
        <time>2017-09-27T09:19:31Z</time>
      </trkpt>
      <trkpt lat="45.94165" lon="4.75595">
        <ele>173</ele>
        <time>2017-09-27T09:19:32Z</time>
      </trkpt>
      <trkpt lat="45.94164" lon="4.75603">
        <ele>173</ele>
        <time>2017-09-27T09:19:33Z</time>
      </trkpt>
      <trkpt lat="45.94164" lon="4.75611">
        <ele>172</ele>
        <time>2017-09-27T09:19:34Z</time>
      </trkpt>
      <trkpt lat="45.94164" lon="4.75618">
        <ele>172</ele>
        <time>2017-09-27T09:19:35Z</time>
      </trkpt>
      <trkpt lat="45.94164" lon="4.75626">
        <ele>172</ele>
        <time>2017-09-27T09:19:36Z</time>
      </trkpt>
      <trkpt lat="45.94163" lon="4.75634">
        <ele>172</ele>
        <time>2017-09-27T09:19:37Z</time>
      </trkpt>
      <trkpt lat="45.94163" lon="4.7564">
        <ele>172</ele>
        <time>2017-09-27T09:19:38Z</time>
      </trkpt>
      <trkpt lat="45.94162" lon="4.75647">
        <ele>172</ele>
        <time>2017-09-27T09:19:39Z</time>
      </trkpt>
      <trkpt lat="45.94162" lon="4.75659">
        <ele>173</ele>
        <time>2017-09-27T09:19:41Z</time>
      </trkpt>
      <trkpt lat="45.94163" lon="4.75666">
        <ele>173</ele>
        <time>2017-09-27T09:19:42Z</time>
      </trkpt>
      <trkpt lat="45.94164" lon="4.75678">
        <ele>173</ele>
        <time>2017-09-27T09:19:44Z</time>
      </trkpt>
      <trkpt lat="45.94164" lon="4.75685">
        <ele>173</ele>
        <time>2017-09-27T09:19:45Z</time>
      </trkpt>
      <trkpt lat="45.94164" lon="4.75692">
        <ele>173</ele>
        <time>2017-09-27T09:19:46Z</time>
      </trkpt>
      <trkpt lat="45.94164" lon="4.757">
        <ele>173</ele>
        <time>2017-09-27T09:19:47Z</time>
      </trkpt>
      <trkpt lat="45.94163" lon="4.75708">
        <ele>173</ele>
        <time>2017-09-27T09:19:48Z</time>
      </trkpt>
      <trkpt lat="45.94163" lon="4.75716">
        <ele>173</ele>
        <time>2017-09-27T09:19:49Z</time>
      </trkpt>
      <trkpt lat="45.94163" lon="4.75724">
        <ele>173</ele>
        <time>2017-09-27T09:19:50Z</time>
      </trkpt>
      <trkpt lat="45.94163" lon="4.75731">
        <ele>173</ele>
        <time>2017-09-27T09:19:51Z</time>
      </trkpt>
      <trkpt lat="45.94163" lon="4.75738">
        <ele>173</ele>
        <time>2017-09-27T09:19:52Z</time>
      </trkpt>
      <trkpt lat="45.94164" lon="4.75744">
        <ele>174</ele>
        <time>2017-09-27T09:19:53Z</time>
      </trkpt>
      <trkpt lat="45.94164" lon="4.75751">
        <ele>174</ele>
        <time>2017-09-27T09:19:54Z</time>
      </trkpt>
      <trkpt lat="45.94164" lon="4.75758">
        <ele>174</ele>
        <time>2017-09-27T09:19:55Z</time>
      </trkpt>
      <trkpt lat="45.94165" lon="4.75771">
        <ele>173</ele>
        <time>2017-09-27T09:19:57Z</time>
      </trkpt>
      <trkpt lat="45.94165" lon="4.75777">
        <ele>173</ele>
        <time>2017-09-27T09:19:58Z</time>
      </trkpt>
      <trkpt lat="45.94165" lon="4.75785">
        <ele>173</ele>
        <time>2017-09-27T09:19:59Z</time>
      </trkpt>
      <trkpt lat="45.94166" lon="4.75794">
        <ele>173</ele>
        <time>2017-09-27T09:20:00Z</time>
      </trkpt>
      <trkpt lat="45.94166" lon="4.75802">
        <ele>173</ele>
        <time>2017-09-27T09:20:01Z</time>
      </trkpt>
      <trkpt lat="45.94167" lon="4.75809">
        <ele>174</ele>
        <time>2017-09-27T09:20:02Z</time>
      </trkpt>
      <trkpt lat="45.94168" lon="4.75816">
        <ele>174</ele>
        <time>2017-09-27T09:20:03Z</time>
      </trkpt>
      <trkpt lat="45.94168" lon="4.75823">
        <ele>174</ele>
        <time>2017-09-27T09:20:04Z</time>
      </trkpt>
      <trkpt lat="45.94168" lon="4.7583">
        <ele>174</ele>
        <time>2017-09-27T09:20:05Z</time>
      </trkpt>
      <trkpt lat="45.94168" lon="4.75837">
        <ele>174</ele>
        <time>2017-09-27T09:20:06Z</time>
      </trkpt>
      <trkpt lat="45.94169" lon="4.75843">
        <ele>174</ele>
        <time>2017-09-27T09:20:07Z</time>
      </trkpt>
      <trkpt lat="45.9417" lon="4.7585">
        <ele>174</ele>
        <time>2017-09-27T09:20:08Z</time>
      </trkpt>
      <trkpt lat="45.94169" lon="4.75857">
        <ele>174</ele>
        <time>2017-09-27T09:20:09Z</time>
      </trkpt>
      <trkpt lat="45.94169" lon="4.75865">
        <ele>175</ele>
        <time>2017-09-27T09:20:10Z</time>
      </trkpt>
      <trkpt lat="45.94169" lon="4.75872">
        <ele>175</ele>
        <time>2017-09-27T09:20:11Z</time>
      </trkpt>
      <trkpt lat="45.9417" lon="4.7588">
        <ele>175</ele>
        <time>2017-09-27T09:20:12Z</time>
      </trkpt>
      <trkpt lat="45.94171" lon="4.75888">
        <ele>175</ele>
        <time>2017-09-27T09:20:13Z</time>
      </trkpt>
      <trkpt lat="45.94171" lon="4.75894">
        <ele>175</ele>
        <time>2017-09-27T09:20:14Z</time>
      </trkpt>
      <trkpt lat="45.94171" lon="4.75901">
        <ele>175</ele>
        <time>2017-09-27T09:20:15Z</time>
      </trkpt>
      <trkpt lat="45.94171" lon="4.75908">
        <ele>175</ele>
        <time>2017-09-27T09:20:16Z</time>
      </trkpt>
      <trkpt lat="45.94171" lon="4.75914">
        <ele>175</ele>
        <time>2017-09-27T09:20:17Z</time>
      </trkpt>
      <trkpt lat="45.94172" lon="4.75921">
        <ele>175</ele>
        <time>2017-09-27T09:20:18Z</time>
      </trkpt>
      <trkpt lat="45.94172" lon="4.75928">
        <ele>176</ele>
        <time>2017-09-27T09:20:19Z</time>
      </trkpt>
      <trkpt lat="45.94171" lon="4.75934">
        <ele>176</ele>
        <time>2017-09-27T09:20:20Z</time>
      </trkpt>
      <trkpt lat="45.94171" lon="4.7594">
        <ele>176</ele>
        <time>2017-09-27T09:20:21Z</time>
      </trkpt>
      <trkpt lat="45.94171" lon="4.75948">
        <ele>177</ele>
        <time>2017-09-27T09:20:22Z</time>
      </trkpt>
      <trkpt lat="45.94172" lon="4.75955">
        <ele>177</ele>
        <time>2017-09-27T09:20:23Z</time>
      </trkpt>
      <trkpt lat="45.94172" lon="4.75962">
        <ele>177</ele>
        <time>2017-09-27T09:20:24Z</time>
      </trkpt>
      <trkpt lat="45.94173" lon="4.7597">
        <ele>177</ele>
        <time>2017-09-27T09:20:25Z</time>
      </trkpt>
      <trkpt lat="45.94173" lon="4.75976">
        <ele>177</ele>
        <time>2017-09-27T09:20:26Z</time>
      </trkpt>
      <trkpt lat="45.94174" lon="4.75984">
        <ele>178</ele>
        <time>2017-09-27T09:20:27Z</time>
      </trkpt>
      <trkpt lat="45.94174" lon="4.7599">
        <ele>178</ele>
        <time>2017-09-27T09:20:28Z</time>
      </trkpt>
      <trkpt lat="45.94173" lon="4.76002">
        <ele>178</ele>
        <time>2017-09-27T09:20:30Z</time>
      </trkpt>
      <trkpt lat="45.94173" lon="4.76007">
        <ele>178</ele>
        <time>2017-09-27T09:20:31Z</time>
      </trkpt>
      <trkpt lat="45.94174" lon="4.76017">
        <ele>179</ele>
        <time>2017-09-27T09:20:33Z</time>
      </trkpt>
      <trkpt lat="45.94174" lon="4.76022">
        <ele>179</ele>
        <time>2017-09-27T09:20:34Z</time>
      </trkpt>
      <trkpt lat="45.94173" lon="4.76034">
        <ele>179</ele>
        <time>2017-09-27T09:20:36Z</time>
      </trkpt>
      <trkpt lat="45.94173" lon="4.76041">
        <ele>179</ele>
        <time>2017-09-27T09:20:37Z</time>
      </trkpt>
      <trkpt lat="45.94174" lon="4.7605">
        <ele>179</ele>
        <time>2017-09-27T09:20:38Z</time>
      </trkpt>
      <trkpt lat="45.94175" lon="4.76057">
        <ele>179</ele>
        <time>2017-09-27T09:20:39Z</time>
      </trkpt>
      <trkpt lat="45.94176" lon="4.76065">
        <ele>179</ele>
        <time>2017-09-27T09:20:40Z</time>
      </trkpt>
      <trkpt lat="45.94176" lon="4.76073">
        <ele>179</ele>
        <time>2017-09-27T09:20:41Z</time>
      </trkpt>
      <trkpt lat="45.94176" lon="4.7608">
        <ele>179</ele>
        <time>2017-09-27T09:20:42Z</time>
      </trkpt>
      <trkpt lat="45.94176" lon="4.76088">
        <ele>179</ele>
        <time>2017-09-27T09:20:43Z</time>
      </trkpt>
      <trkpt lat="45.94176" lon="4.76097">
        <ele>179</ele>
        <time>2017-09-27T09:20:44Z</time>
      </trkpt>
      <trkpt lat="45.94177" lon="4.76104">
        <ele>180</ele>
        <time>2017-09-27T09:20:45Z</time>
      </trkpt>
      <trkpt lat="45.94177" lon="4.76111">
        <ele>180</ele>
        <time>2017-09-27T09:20:46Z</time>
      </trkpt>
      <trkpt lat="45.94179" lon="4.76119">
        <ele>180</ele>
        <time>2017-09-27T09:20:47Z</time>
      </trkpt>
      <trkpt lat="45.9418" lon="4.76131">
        <ele>180</ele>
        <time>2017-09-27T09:20:49Z</time>
      </trkpt>
      <trkpt lat="45.9418" lon="4.76136">
        <ele>181</ele>
        <time>2017-09-27T09:20:50Z</time>
      </trkpt>
      <trkpt lat="45.94178" lon="4.76146">
        <ele>181</ele>
        <time>2017-09-27T09:20:52Z</time>
      </trkpt>
      <trkpt lat="45.94178" lon="4.76153">
        <ele>180</ele>
        <time>2017-09-27T09:20:53Z</time>
      </trkpt>
      <trkpt lat="45.94178" lon="4.76164">
        <ele>180</ele>
        <time>2017-09-27T09:20:55Z</time>
      </trkpt>
      <trkpt lat="45.94177" lon="4.7617">
        <ele>181</ele>
        <time>2017-09-27T09:20:56Z</time>
      </trkpt>
      <trkpt lat="45.94176" lon="4.76182">
        <ele>181</ele>
        <time>2017-09-27T09:20:58Z</time>
      </trkpt>
      <trkpt lat="45.94175" lon="4.76187">
        <ele>182</ele>
        <time>2017-09-27T09:20:59Z</time>
      </trkpt>
      <trkpt lat="45.94174" lon="4.76193">
        <ele>182</ele>
        <time>2017-09-27T09:21:00Z</time>
      </trkpt>
      <trkpt lat="45.94173" lon="4.762">
        <ele>182</ele>
        <time>2017-09-27T09:21:01Z</time>
      </trkpt>
      <trkpt lat="45.94172" lon="4.76207">
        <ele>182</ele>
        <time>2017-09-27T09:21:02Z</time>
      </trkpt>
      <trkpt lat="45.94172" lon="4.76216">
        <ele>182</ele>
        <time>2017-09-27T09:21:03Z</time>
      </trkpt>
      <trkpt lat="45.94171" lon="4.76223">
        <ele>182</ele>
        <time>2017-09-27T09:21:04Z</time>
      </trkpt>
      <trkpt lat="45.94171" lon="4.76231">
        <ele>182</ele>
        <time>2017-09-27T09:21:05Z</time>
      </trkpt>
      <trkpt lat="45.9417" lon="4.76243">
        <ele>182</ele>
        <time>2017-09-27T09:21:07Z</time>
      </trkpt>
      <trkpt lat="45.94166" lon="4.76244">
        <ele>180</ele>
        <time>2017-09-27T09:21:08Z</time>
      </trkpt>
      <trkpt lat="45.94159" lon="4.76251">
        <ele>180</ele>
        <time>2017-09-27T09:21:10Z</time>
      </trkpt>
      <trkpt lat="45.94155" lon="4.76252">
        <ele>179</ele>
        <time>2017-09-27T09:21:11Z</time>
      </trkpt>
      <trkpt lat="45.94146" lon="4.76251">
        <ele>179</ele>
        <time>2017-09-27T09:21:13Z</time>
      </trkpt>
      <trkpt lat="45.9414" lon="4.76252">
        <ele>178</ele>
        <time>2017-09-27T09:21:14Z</time>
      </trkpt>
      <trkpt lat="45.94135" lon="4.76253">
        <ele>178</ele>
        <time>2017-09-27T09:21:15Z</time>
      </trkpt>
      <trkpt lat="45.9413" lon="4.76254">
        <ele>178</ele>
        <time>2017-09-27T09:21:16Z</time>
      </trkpt>
      <trkpt lat="45.94124" lon="4.76253">
        <ele>177</ele>
        <time>2017-09-27T09:21:17Z</time>
      </trkpt>
      <trkpt lat="45.94118" lon="4.76253">
        <ele>177</ele>
        <time>2017-09-27T09:21:18Z</time>
      </trkpt>
      <trkpt lat="45.94112" lon="4.76255">
        <ele>177</ele>
        <time>2017-09-27T09:21:19Z</time>
      </trkpt>
      <trkpt lat="45.94105" lon="4.76256">
        <ele>176</ele>
        <time>2017-09-27T09:21:20Z</time>
      </trkpt>
      <trkpt lat="45.94098" lon="4.76257">
        <ele>176</ele>
        <time>2017-09-27T09:21:21Z</time>
      </trkpt>
      <trkpt lat="45.94092" lon="4.76258">
        <ele>176</ele>
        <time>2017-09-27T09:21:22Z</time>
      </trkpt>
      <trkpt lat="45.94085" lon="4.7626">
        <ele>176</ele>
        <time>2017-09-27T09:21:23Z</time>
      </trkpt>
      <trkpt lat="45.94079" lon="4.76265">
        <ele>173</ele>
        <time>2017-09-27T09:21:24Z</time>
      </trkpt>
      <trkpt lat="45.94075" lon="4.76271">
        <ele>172</ele>
        <time>2017-09-27T09:21:25Z</time>
      </trkpt>
      <trkpt lat="45.94069" lon="4.76278">
        <ele>172</ele>
        <time>2017-09-27T09:21:26Z</time>
      </trkpt>
      <trkpt lat="45.94064" lon="4.76285">
        <ele>172</ele>
        <time>2017-09-27T09:21:27Z</time>
      </trkpt>
      <trkpt lat="45.94059" lon="4.76291">
        <ele>171</ele>
        <time>2017-09-27T09:21:28Z</time>
      </trkpt>
      <trkpt lat="45.94055" lon="4.763">
        <ele>171</ele>
        <time>2017-09-27T09:21:29Z</time>
      </trkpt>
      <trkpt lat="45.94051" lon="4.76309">
        <ele>171</ele>
        <time>2017-09-27T09:21:30Z</time>
      </trkpt>
      <trkpt lat="45.94048" lon="4.76319">
        <ele>171</ele>
        <time>2017-09-27T09:21:31Z</time>
      </trkpt>
      <trkpt lat="45.94044" lon="4.76329">
        <ele>170</ele>
        <time>2017-09-27T09:21:32Z</time>
      </trkpt>
      <trkpt lat="45.94041" lon="4.76338">
        <ele>170</ele>
        <time>2017-09-27T09:21:33Z</time>
      </trkpt>
      <trkpt lat="45.94037" lon="4.76348">
        <ele>170</ele>
        <time>2017-09-27T09:21:34Z</time>
      </trkpt>
      <trkpt lat="45.94033" lon="4.76358">
        <ele>170</ele>
        <time>2017-09-27T09:21:35Z</time>
      </trkpt>
      <trkpt lat="45.94029" lon="4.76365">
        <ele>170</ele>
        <time>2017-09-27T09:21:36Z</time>
      </trkpt>
      <trkpt lat="45.94024" lon="4.76371">
        <ele>170</ele>
        <time>2017-09-27T09:21:37Z</time>
      </trkpt>
      <trkpt lat="45.9402" lon="4.76376">
        <ele>170</ele>
        <time>2017-09-27T09:21:38Z</time>
      </trkpt>
      <trkpt lat="45.94016" lon="4.76381">
        <ele>169</ele>
        <time>2017-09-27T09:21:39Z</time>
      </trkpt>
      <trkpt lat="45.94013" lon="4.76385">
        <ele>169</ele>
        <time>2017-09-27T09:21:40Z</time>
      </trkpt>
      <trkpt lat="45.94009" lon="4.7639">
        <ele>169</ele>
        <time>2017-09-27T09:21:41Z</time>
      </trkpt>
      <trkpt lat="45.94006" lon="4.76396">
        <ele>169</ele>
        <time>2017-09-27T09:21:42Z</time>
      </trkpt>
      <trkpt lat="45.94" lon="4.76405">
        <ele>168</ele>
        <time>2017-09-27T09:21:44Z</time>
      </trkpt>
      <trkpt lat="45.93997" lon="4.76411">
        <ele>168</ele>
        <time>2017-09-27T09:21:45Z</time>
      </trkpt>
      <trkpt lat="45.93994" lon="4.76417">
        <ele>168</ele>
        <time>2017-09-27T09:21:46Z</time>
      </trkpt>
      <trkpt lat="45.93993" lon="4.76423">
        <ele>169</ele>
        <time>2017-09-27T09:21:47Z</time>
      </trkpt>
      <trkpt lat="45.93991" lon="4.7643">
        <ele>169</ele>
        <time>2017-09-27T09:21:48Z</time>
      </trkpt>
      <trkpt lat="45.9399" lon="4.76438">
        <ele>169</ele>
        <time>2017-09-27T09:21:49Z</time>
      </trkpt>
      <trkpt lat="45.93989" lon="4.76444">
        <ele>169</ele>
        <time>2017-09-27T09:21:50Z</time>
      </trkpt>
      <trkpt lat="45.93989" lon="4.76451">
        <ele>170</ele>
        <time>2017-09-27T09:21:51Z</time>
      </trkpt>
      <trkpt lat="45.93987" lon="4.76458">
        <ele>170</ele>
        <time>2017-09-27T09:21:52Z</time>
      </trkpt>
      <trkpt lat="45.93987" lon="4.76466">
        <ele>170</ele>
        <time>2017-09-27T09:21:53Z</time>
      </trkpt>
      <trkpt lat="45.93987" lon="4.76474">
        <ele>170</ele>
        <time>2017-09-27T09:21:54Z</time>
      </trkpt>
      <trkpt lat="45.93988" lon="4.76482">
        <ele>170</ele>
        <time>2017-09-27T09:21:55Z</time>
      </trkpt>
      <trkpt lat="45.93988" lon="4.76489">
        <ele>171</ele>
        <time>2017-09-27T09:21:56Z</time>
      </trkpt>
      <trkpt lat="45.93988" lon="4.76497">
        <ele>171</ele>
        <time>2017-09-27T09:21:57Z</time>
      </trkpt>
      <trkpt lat="45.93988" lon="4.76504">
        <ele>171</ele>
        <time>2017-09-27T09:21:58Z</time>
      </trkpt>
      <trkpt lat="45.93988" lon="4.7651">
        <ele>171</ele>
        <time>2017-09-27T09:21:59Z</time>
      </trkpt>
      <trkpt lat="45.93988" lon="4.76516">
        <ele>171</ele>
        <time>2017-09-27T09:22:00Z</time>
      </trkpt>
      <trkpt lat="45.93988" lon="4.76524">
        <ele>171</ele>
        <time>2017-09-27T09:22:01Z</time>
      </trkpt>
      <trkpt lat="45.93989" lon="4.76531">
        <ele>171</ele>
        <time>2017-09-27T09:22:02Z</time>
      </trkpt>
      <trkpt lat="45.93989" lon="4.76537">
        <ele>171</ele>
        <time>2017-09-27T09:22:03Z</time>
      </trkpt>
      <trkpt lat="45.93991" lon="4.76547">
        <ele>172</ele>
        <time>2017-09-27T09:22:05Z</time>
      </trkpt>
      <trkpt lat="45.93991" lon="4.76552">
        <ele>172</ele>
        <time>2017-09-27T09:22:06Z</time>
      </trkpt>
      <trkpt lat="45.93993" lon="4.76562">
        <ele>172</ele>
        <time>2017-09-27T09:22:08Z</time>
      </trkpt>
      <trkpt lat="45.93994" lon="4.76567">
        <ele>172</ele>
        <time>2017-09-27T09:22:09Z</time>
      </trkpt>
      <trkpt lat="45.93994" lon="4.76574">
        <ele>172</ele>
        <time>2017-09-27T09:22:10Z</time>
      </trkpt>
      <trkpt lat="45.93995" lon="4.7658">
        <ele>172</ele>
        <time>2017-09-27T09:22:11Z</time>
      </trkpt>
      <trkpt lat="45.93998" lon="4.76588">
        <ele>172</ele>
        <time>2017-09-27T09:22:12Z</time>
      </trkpt>
      <trkpt lat="45.93999" lon="4.76595">
        <ele>172</ele>
        <time>2017-09-27T09:22:13Z</time>
      </trkpt>
      <trkpt lat="45.94001" lon="4.76601">
        <ele>172</ele>
        <time>2017-09-27T09:22:14Z</time>
      </trkpt>
      <trkpt lat="45.94003" lon="4.76608">
        <ele>172</ele>
        <time>2017-09-27T09:22:15Z</time>
      </trkpt>
      <trkpt lat="45.94005" lon="4.76615">
        <ele>172</ele>
        <time>2017-09-27T09:22:16Z</time>
      </trkpt>
      <trkpt lat="45.94007" lon="4.76621">
        <ele>172</ele>
        <time>2017-09-27T09:22:17Z</time>
      </trkpt>
      <trkpt lat="45.94009" lon="4.76628">
        <ele>172</ele>
        <time>2017-09-27T09:22:18Z</time>
      </trkpt>
      <trkpt lat="45.94011" lon="4.76635">
        <ele>172</ele>
        <time>2017-09-27T09:22:19Z</time>
      </trkpt>
      <trkpt lat="45.94014" lon="4.76641">
        <ele>172</ele>
        <time>2017-09-27T09:22:20Z</time>
      </trkpt>
      <trkpt lat="45.94015" lon="4.76647">
        <ele>172</ele>
        <time>2017-09-27T09:22:21Z</time>
      </trkpt>
      <trkpt lat="45.94018" lon="4.76659">
        <ele>172</ele>
        <time>2017-09-27T09:22:23Z</time>
      </trkpt>
      <trkpt lat="45.9402" lon="4.76667">
        <ele>173</ele>
        <time>2017-09-27T09:22:24Z</time>
      </trkpt>
      <trkpt lat="45.94019" lon="4.76679">
        <ele>173</ele>
        <time>2017-09-27T09:22:26Z</time>
      </trkpt>
      <trkpt lat="45.94018" lon="4.76686">
        <ele>173</ele>
        <time>2017-09-27T09:22:27Z</time>
      </trkpt>
      <trkpt lat="45.94016" lon="4.76694">
        <ele>173</ele>
        <time>2017-09-27T09:22:28Z</time>
      </trkpt>
      <trkpt lat="45.94015" lon="4.76702">
        <ele>173</ele>
        <time>2017-09-27T09:22:29Z</time>
      </trkpt>
      <trkpt lat="45.94013" lon="4.7671">
        <ele>173</ele>
        <time>2017-09-27T09:22:30Z</time>
      </trkpt>
      <trkpt lat="45.9401" lon="4.76716">
        <ele>173</ele>
        <time>2017-09-27T09:22:31Z</time>
      </trkpt>
      <trkpt lat="45.94007" lon="4.76724">
        <ele>173</ele>
        <time>2017-09-27T09:22:32Z</time>
      </trkpt>
      <trkpt lat="45.94005" lon="4.76731">
        <ele>173</ele>
        <time>2017-09-27T09:22:33Z</time>
      </trkpt>
      <trkpt lat="45.94003" lon="4.76738">
        <ele>173</ele>
        <time>2017-09-27T09:22:34Z</time>
      </trkpt>
      <trkpt lat="45.94" lon="4.76745">
        <ele>173</ele>
        <time>2017-09-27T09:22:35Z</time>
      </trkpt>
      <trkpt lat="45.94" lon="4.76751">
        <ele>173</ele>
        <time>2017-09-27T09:22:36Z</time>
      </trkpt>
      <trkpt lat="45.93998" lon="4.76758">
        <ele>173</ele>
        <time>2017-09-27T09:22:37Z</time>
      </trkpt>
      <trkpt lat="45.93997" lon="4.76766">
        <ele>173</ele>
        <time>2017-09-27T09:22:38Z</time>
      </trkpt>
      <trkpt lat="45.93997" lon="4.76775">
        <ele>172</ele>
        <time>2017-09-27T09:22:39Z</time>
      </trkpt>
      <trkpt lat="45.93996" lon="4.76782">
        <ele>172</ele>
        <time>2017-09-27T09:22:40Z</time>
      </trkpt>
      <trkpt lat="45.93996" lon="4.76789">
        <ele>172</ele>
        <time>2017-09-27T09:22:41Z</time>
      </trkpt>
      <trkpt lat="45.93997" lon="4.76797">
        <ele>172</ele>
        <time>2017-09-27T09:22:42Z</time>
      </trkpt>
      <trkpt lat="45.93997" lon="4.76804">
        <ele>172</ele>
        <time>2017-09-27T09:22:43Z</time>
      </trkpt>
      <trkpt lat="45.94" lon="4.76813">
        <ele>172</ele>
        <time>2017-09-27T09:22:44Z</time>
      </trkpt>
      <trkpt lat="45.94002" lon="4.76819">
        <ele>172</ele>
        <time>2017-09-27T09:22:45Z</time>
      </trkpt>
      <trkpt lat="45.94003" lon="4.76827">
        <ele>172</ele>
        <time>2017-09-27T09:22:46Z</time>
      </trkpt>
      <trkpt lat="45.94005" lon="4.76833">
        <ele>171</ele>
        <time>2017-09-27T09:22:47Z</time>
      </trkpt>
      <trkpt lat="45.94007" lon="4.76841">
        <ele>172</ele>
        <time>2017-09-27T09:22:48Z</time>
      </trkpt>
      <trkpt lat="45.94009" lon="4.76848">
        <ele>172</ele>
        <time>2017-09-27T09:22:49Z</time>
      </trkpt>
      <trkpt lat="45.94011" lon="4.76855">
        <ele>172</ele>
        <time>2017-09-27T09:22:50Z</time>
      </trkpt>
      <trkpt lat="45.94014" lon="4.76861">
        <ele>172</ele>
        <time>2017-09-27T09:22:51Z</time>
      </trkpt>
      <trkpt lat="45.94015" lon="4.76868">
        <ele>172</ele>
        <time>2017-09-27T09:22:52Z</time>
      </trkpt>
      <trkpt lat="45.94018" lon="4.76873">
        <ele>173</ele>
        <time>2017-09-27T09:22:53Z</time>
      </trkpt>
      <trkpt lat="45.9402" lon="4.76879">
        <ele>173</ele>
        <time>2017-09-27T09:22:54Z</time>
      </trkpt>
      <trkpt lat="45.94023" lon="4.76885">
        <ele>173</ele>
        <time>2017-09-27T09:22:55Z</time>
      </trkpt>
      <trkpt lat="45.94028" lon="4.76892">
        <ele>173</ele>
        <time>2017-09-27T09:22:57Z</time>
      </trkpt>
      <trkpt lat="45.9403" lon="4.76898">
        <ele>173</ele>
        <time>2017-09-27T09:22:58Z</time>
      </trkpt>
      <trkpt lat="45.94032" lon="4.76904">
        <ele>173</ele>
        <time>2017-09-27T09:22:59Z</time>
      </trkpt>
      <trkpt lat="45.94033" lon="4.76912">
        <ele>173</ele>
        <time>2017-09-27T09:23:00Z</time>
      </trkpt>
      <trkpt lat="45.94035" lon="4.76919">
        <ele>173</ele>
        <time>2017-09-27T09:23:01Z</time>
      </trkpt>
      <trkpt lat="45.94037" lon="4.76926">
        <ele>174</ele>
        <time>2017-09-27T09:23:02Z</time>
      </trkpt>
      <trkpt lat="45.94038" lon="4.76933">
        <ele>174</ele>
        <time>2017-09-27T09:23:03Z</time>
      </trkpt>
      <trkpt lat="45.9404" lon="4.76941">
        <ele>174</ele>
        <time>2017-09-27T09:23:04Z</time>
      </trkpt>
      <trkpt lat="45.94041" lon="4.76947">
        <ele>174</ele>
        <time>2017-09-27T09:23:05Z</time>
      </trkpt>
      <trkpt lat="45.94043" lon="4.76953">
        <ele>174</ele>
        <time>2017-09-27T09:23:06Z</time>
      </trkpt>
      <trkpt lat="45.94044" lon="4.76965">
        <ele>174</ele>
        <time>2017-09-27T09:23:08Z</time>
      </trkpt>
      <trkpt lat="45.94044" lon="4.7697">
        <ele>174</ele>
        <time>2017-09-27T09:23:09Z</time>
      </trkpt>
      <trkpt lat="45.94043" lon="4.7698">
        <ele>174</ele>
        <time>2017-09-27T09:23:11Z</time>
      </trkpt>
      <trkpt lat="45.94044" lon="4.76984">
        <ele>174</ele>
        <time>2017-09-27T09:23:12Z</time>
      </trkpt>
      <trkpt lat="45.94048" lon="4.76994">
        <ele>174</ele>
        <time>2017-09-27T09:23:14Z</time>
      </trkpt>
      <trkpt lat="45.94048" lon="4.77001">
        <ele>175</ele>
        <time>2017-09-27T09:23:15Z</time>
      </trkpt>
      <trkpt lat="45.94048" lon="4.77007">
        <ele>174</ele>
        <time>2017-09-27T09:23:16Z</time>
      </trkpt>
      <trkpt lat="45.94047" lon="4.77013">
        <ele>174</ele>
        <time>2017-09-27T09:23:17Z</time>
      </trkpt>
      <trkpt lat="45.94044" lon="4.77026">
        <ele>174</ele>
        <time>2017-09-27T09:23:19Z</time>
      </trkpt>
      <trkpt lat="45.94043" lon="4.77032">
        <ele>174</ele>
        <time>2017-09-27T09:23:20Z</time>
      </trkpt>
      <trkpt lat="45.94042" lon="4.77043">
        <ele>174</ele>
        <time>2017-09-27T09:23:22Z</time>
      </trkpt>
      <trkpt lat="45.94042" lon="4.77049">
        <ele>174</ele>
        <time>2017-09-27T09:23:23Z</time>
      </trkpt>
      <trkpt lat="45.9404" lon="4.77061">
        <ele>174</ele>
        <time>2017-09-27T09:23:25Z</time>
      </trkpt>
      <trkpt lat="45.94039" lon="4.77069">
        <ele>174</ele>
        <time>2017-09-27T09:23:26Z</time>
      </trkpt>
      <trkpt lat="45.94038" lon="4.77077">
        <ele>174</ele>
        <time>2017-09-27T09:23:27Z</time>
      </trkpt>
      <trkpt lat="45.94037" lon="4.77084">
        <ele>174</ele>
        <time>2017-09-27T09:23:28Z</time>
      </trkpt>
      <trkpt lat="45.94036" lon="4.77091">
        <ele>174</ele>
        <time>2017-09-27T09:23:29Z</time>
      </trkpt>
      <trkpt lat="45.94035" lon="4.77096">
        <ele>174</ele>
        <time>2017-09-27T09:23:30Z</time>
      </trkpt>
      <trkpt lat="45.94034" lon="4.77104">
        <ele>174</ele>
        <time>2017-09-27T09:23:31Z</time>
      </trkpt>
      <trkpt lat="45.94034" lon="4.77111">
        <ele>174</ele>
        <time>2017-09-27T09:23:32Z</time>
      </trkpt>
      <trkpt lat="45.94032" lon="4.77122">
        <ele>174</ele>
        <time>2017-09-27T09:23:34Z</time>
      </trkpt>
      <trkpt lat="45.94032" lon="4.77131">
        <ele>174</ele>
        <time>2017-09-27T09:23:35Z</time>
      </trkpt>
      <trkpt lat="45.94031" lon="4.77138">
        <ele>174</ele>
        <time>2017-09-27T09:23:36Z</time>
      </trkpt>
      <trkpt lat="45.94031" lon="4.77146">
        <ele>174</ele>
        <time>2017-09-27T09:23:37Z</time>
      </trkpt>
      <trkpt lat="45.9403" lon="4.77152">
        <ele>174</ele>
        <time>2017-09-27T09:23:38Z</time>
      </trkpt>
      <trkpt lat="45.94029" lon="4.77161">
        <ele>174</ele>
        <time>2017-09-27T09:23:39Z</time>
      </trkpt>
      <trkpt lat="45.94028" lon="4.77169">
        <ele>174</ele>
        <time>2017-09-27T09:23:40Z</time>
      </trkpt>
      <trkpt lat="45.94028" lon="4.77176">
        <ele>174</ele>
        <time>2017-09-27T09:23:41Z</time>
      </trkpt>
      <trkpt lat="45.94027" lon="4.77182">
        <ele>174</ele>
        <time>2017-09-27T09:23:42Z</time>
      </trkpt>
      <trkpt lat="45.94027" lon="4.77192">
        <ele>175</ele>
        <time>2017-09-27T09:23:43Z</time>
      </trkpt>
      <trkpt lat="45.94026" lon="4.772">
        <ele>174</ele>
        <time>2017-09-27T09:23:44Z</time>
      </trkpt>
      <trkpt lat="45.94025" lon="4.77205">
        <ele>174</ele>
        <time>2017-09-27T09:23:45Z</time>
      </trkpt>
      <trkpt lat="45.94023" lon="4.77212">
        <ele>174</ele>
        <time>2017-09-27T09:23:46Z</time>
      </trkpt>
      <trkpt lat="45.94022" lon="4.77218">
        <ele>174</ele>
        <time>2017-09-27T09:23:47Z</time>
      </trkpt>
      <trkpt lat="45.94021" lon="4.77225">
        <ele>174</ele>
        <time>2017-09-27T09:23:48Z</time>
      </trkpt>
      <trkpt lat="45.9402" lon="4.77231">
        <ele>174</ele>
        <time>2017-09-27T09:23:49Z</time>
      </trkpt>
      <trkpt lat="45.94019" lon="4.77239">
        <ele>173</ele>
        <time>2017-09-27T09:23:50Z</time>
      </trkpt>
      <trkpt lat="45.94018" lon="4.77246">
        <ele>173</ele>
        <time>2017-09-27T09:23:51Z</time>
      </trkpt>
      <trkpt lat="45.94018" lon="4.77253">
        <ele>174</ele>
        <time>2017-09-27T09:23:52Z</time>
      </trkpt>
      <trkpt lat="45.94017" lon="4.7726">
        <ele>174</ele>
        <time>2017-09-27T09:23:53Z</time>
      </trkpt>
      <trkpt lat="45.94016" lon="4.77267">
        <ele>174</ele>
        <time>2017-09-27T09:23:54Z</time>
      </trkpt>
      <trkpt lat="45.94015" lon="4.77275">
        <ele>175</ele>
        <time>2017-09-27T09:23:55Z</time>
      </trkpt>
      <trkpt lat="45.94014" lon="4.77284">
        <ele>175</ele>
        <time>2017-09-27T09:23:56Z</time>
      </trkpt>
      <trkpt lat="45.94013" lon="4.77292">
        <ele>175</ele>
        <time>2017-09-27T09:23:57Z</time>
      </trkpt>
      <trkpt lat="45.94014" lon="4.77301">
        <ele>175</ele>
        <time>2017-09-27T09:23:58Z</time>
      </trkpt>
      <trkpt lat="45.94014" lon="4.77309">
        <ele>175</ele>
        <time>2017-09-27T09:23:59Z</time>
      </trkpt>
      <trkpt lat="45.94013" lon="4.77317">
        <ele>175</ele>
        <time>2017-09-27T09:24:00Z</time>
      </trkpt>
      <trkpt lat="45.94013" lon="4.77326">
        <ele>175</ele>
        <time>2017-09-27T09:24:01Z</time>
      </trkpt>
      <trkpt lat="45.94012" lon="4.77334">
        <ele>176</ele>
        <time>2017-09-27T09:24:02Z</time>
      </trkpt>
      <trkpt lat="45.94012" lon="4.77342">
        <ele>176</ele>
        <time>2017-09-27T09:24:03Z</time>
      </trkpt>
      <trkpt lat="45.94011" lon="4.77351">
        <ele>177</ele>
        <time>2017-09-27T09:24:04Z</time>
      </trkpt>
      <trkpt lat="45.94011" lon="4.77361">
        <ele>178</ele>
        <time>2017-09-27T09:24:05Z</time>
      </trkpt>
      <trkpt lat="45.94011" lon="4.77369">
        <ele>179</ele>
        <time>2017-09-27T09:24:06Z</time>
      </trkpt>
      <trkpt lat="45.9401" lon="4.77377">
        <ele>179</ele>
        <time>2017-09-27T09:24:07Z</time>
      </trkpt>
      <trkpt lat="45.94009" lon="4.77386">
        <ele>179</ele>
        <time>2017-09-27T09:24:08Z</time>
      </trkpt>
      <trkpt lat="45.94008" lon="4.77393">
        <ele>179</ele>
        <time>2017-09-27T09:24:09Z</time>
      </trkpt>
      <trkpt lat="45.94008" lon="4.774">
        <ele>179</ele>
        <time>2017-09-27T09:24:10Z</time>
      </trkpt>
      <trkpt lat="45.94007" lon="4.77408">
        <ele>178</ele>
        <time>2017-09-27T09:24:11Z</time>
      </trkpt>
      <trkpt lat="45.94005" lon="4.77416">
        <ele>177</ele>
        <time>2017-09-27T09:24:12Z</time>
      </trkpt>
      <trkpt lat="45.94005" lon="4.77423">
        <ele>179</ele>
        <time>2017-09-27T09:24:13Z</time>
      </trkpt>
      <trkpt lat="45.94004" lon="4.7743">
        <ele>181</ele>
        <time>2017-09-27T09:24:14Z</time>
      </trkpt>
      <trkpt lat="45.94003" lon="4.77439">
        <ele>183</ele>
        <time>2017-09-27T09:24:15Z</time>
      </trkpt>
      <trkpt lat="45.94002" lon="4.77447">
        <ele>184</ele>
        <time>2017-09-27T09:24:16Z</time>
      </trkpt>
      <trkpt lat="45.94001" lon="4.77454">
        <ele>184</ele>
        <time>2017-09-27T09:24:17Z</time>
      </trkpt>
      <trkpt lat="45.94" lon="4.77462">
        <ele>185</ele>
        <time>2017-09-27T09:24:18Z</time>
      </trkpt>
      <trkpt lat="45.93998" lon="4.7747">
        <ele>176</ele>
        <time>2017-09-27T09:24:19Z</time>
      </trkpt>
      <trkpt lat="45.93997" lon="4.77479">
        <ele>177</ele>
        <time>2017-09-27T09:24:20Z</time>
      </trkpt>
      <trkpt lat="45.93995" lon="4.7749">
        <ele>179</ele>
        <time>2017-09-27T09:24:21Z</time>
      </trkpt>
      <trkpt lat="45.93994" lon="4.77499">
        <ele>181</ele>
        <time>2017-09-27T09:24:22Z</time>
      </trkpt>
      <trkpt lat="45.93992" lon="4.77508">
        <ele>180</ele>
        <time>2017-09-27T09:24:23Z</time>
      </trkpt>
      <trkpt lat="45.93991" lon="4.77516">
        <ele>179</ele>
        <time>2017-09-27T09:24:24Z</time>
      </trkpt>
      <trkpt lat="45.93989" lon="4.77524">
        <ele>179</ele>
        <time>2017-09-27T09:24:25Z</time>
      </trkpt>
      <trkpt lat="45.93988" lon="4.77532">
        <ele>178</ele>
        <time>2017-09-27T09:24:26Z</time>
      </trkpt>
      <trkpt lat="45.93987" lon="4.77542">
        <ele>178</ele>
        <time>2017-09-27T09:24:27Z</time>
      </trkpt>
      <trkpt lat="45.93987" lon="4.77548">
        <ele>179</ele>
        <time>2017-09-27T09:24:28Z</time>
      </trkpt>
      <trkpt lat="45.93986" lon="4.77556">
        <ele>179</ele>
        <time>2017-09-27T09:24:29Z</time>
      </trkpt>
      <trkpt lat="45.93985" lon="4.77565">
        <ele>180</ele>
        <time>2017-09-27T09:24:30Z</time>
      </trkpt>
      <trkpt lat="45.93985" lon="4.77573">
        <ele>181</ele>
        <time>2017-09-27T09:24:31Z</time>
      </trkpt>
      <trkpt lat="45.93984" lon="4.7758">
        <ele>181</ele>
        <time>2017-09-27T09:24:32Z</time>
      </trkpt>
      <trkpt lat="45.93983" lon="4.77587">
        <ele>182</ele>
        <time>2017-09-27T09:24:33Z</time>
      </trkpt>
      <trkpt lat="45.9398" lon="4.77598">
        <ele>181</ele>
        <time>2017-09-27T09:24:35Z</time>
      </trkpt>
      <trkpt lat="45.93978" lon="4.77606">
        <ele>180</ele>
        <time>2017-09-27T09:24:36Z</time>
      </trkpt>
      <trkpt lat="45.93977" lon="4.77613">
        <ele>179</ele>
        <time>2017-09-27T09:24:37Z</time>
      </trkpt>
      <trkpt lat="45.93976" lon="4.7762">
        <ele>179</ele>
        <time>2017-09-27T09:24:38Z</time>
      </trkpt>
      <trkpt lat="45.93975" lon="4.77627">
        <ele>179</ele>
        <time>2017-09-27T09:24:39Z</time>
      </trkpt>
      <trkpt lat="45.93973" lon="4.77634">
        <ele>179</ele>
        <time>2017-09-27T09:24:40Z</time>
      </trkpt>
      <trkpt lat="45.93971" lon="4.77639">
        <ele>179</ele>
        <time>2017-09-27T09:24:41Z</time>
      </trkpt>
      <trkpt lat="45.93971" lon="4.77647">
        <ele>179</ele>
        <time>2017-09-27T09:24:42Z</time>
      </trkpt>
      <trkpt lat="45.93969" lon="4.77654">
        <ele>179</ele>
        <time>2017-09-27T09:24:43Z</time>
      </trkpt>
      <trkpt lat="45.93967" lon="4.77662">
        <ele>179</ele>
        <time>2017-09-27T09:24:44Z</time>
      </trkpt>
      <trkpt lat="45.93965" lon="4.77671">
        <ele>179</ele>
        <time>2017-09-27T09:24:45Z</time>
      </trkpt>
      <trkpt lat="45.93963" lon="4.77678">
        <ele>179</ele>
        <time>2017-09-27T09:24:46Z</time>
      </trkpt>
      <trkpt lat="45.9396" lon="4.77686">
        <ele>178</ele>
        <time>2017-09-27T09:24:47Z</time>
      </trkpt>
      <trkpt lat="45.93957" lon="4.77694">
        <ele>178</ele>
        <time>2017-09-27T09:24:48Z</time>
      </trkpt>
      <trkpt lat="45.93954" lon="4.77702">
        <ele>177</ele>
        <time>2017-09-27T09:24:49Z</time>
      </trkpt>
      <trkpt lat="45.93951" lon="4.77709">
        <ele>177</ele>
        <time>2017-09-27T09:24:50Z</time>
      </trkpt>
      <trkpt lat="45.93948" lon="4.77717">
        <ele>177</ele>
        <time>2017-09-27T09:24:51Z</time>
      </trkpt>
      <trkpt lat="45.93945" lon="4.77724">
        <ele>176</ele>
        <time>2017-09-27T09:24:52Z</time>
      </trkpt>
      <trkpt lat="45.93942" lon="4.7773">
        <ele>175</ele>
        <time>2017-09-27T09:24:53Z</time>
      </trkpt>
      <trkpt lat="45.9394" lon="4.77736">
        <ele>174</ele>
        <time>2017-09-27T09:24:54Z</time>
      </trkpt>
      <trkpt lat="45.93937" lon="4.77742">
        <ele>173</ele>
        <time>2017-09-27T09:24:55Z</time>
      </trkpt>
      <trkpt lat="45.93933" lon="4.77748">
        <ele>172</ele>
        <time>2017-09-27T09:24:56Z</time>
      </trkpt>
      <trkpt lat="45.9393" lon="4.77755">
        <ele>173</ele>
        <time>2017-09-27T09:24:57Z</time>
      </trkpt>
      <trkpt lat="45.93927" lon="4.77762">
        <ele>174</ele>
        <time>2017-09-27T09:24:58Z</time>
      </trkpt>
      <trkpt lat="45.93924" lon="4.77771">
        <ele>176</ele>
        <time>2017-09-27T09:24:59Z</time>
      </trkpt>
      <trkpt lat="45.93921" lon="4.77779">
        <ele>177</ele>
        <time>2017-09-27T09:25:00Z</time>
      </trkpt>
      <trkpt lat="45.93918" lon="4.77787">
        <ele>178</ele>
        <time>2017-09-27T09:25:01Z</time>
      </trkpt>
      <trkpt lat="45.93915" lon="4.77793">
        <ele>170</ele>
        <time>2017-09-27T09:25:02Z</time>
      </trkpt>
      <trkpt lat="45.93913" lon="4.778">
        <ele>171</ele>
        <time>2017-09-27T09:25:03Z</time>
      </trkpt>
      <trkpt lat="45.9391" lon="4.77806">
        <ele>172</ele>
        <time>2017-09-27T09:25:04Z</time>
      </trkpt>
      <trkpt lat="45.93908" lon="4.77813">
        <ele>172</ele>
        <time>2017-09-27T09:25:05Z</time>
      </trkpt>
      <trkpt lat="45.93906" lon="4.77819">
        <ele>173</ele>
        <time>2017-09-27T09:25:06Z</time>
      </trkpt>
      <trkpt lat="45.93904" lon="4.77827">
        <ele>174</ele>
        <time>2017-09-27T09:25:07Z</time>
      </trkpt>
      <trkpt lat="45.93902" lon="4.77835">
        <ele>176</ele>
        <time>2017-09-27T09:25:08Z</time>
      </trkpt>
      <trkpt lat="45.93899" lon="4.77842">
        <ele>176</ele>
        <time>2017-09-27T09:25:09Z</time>
      </trkpt>
      <trkpt lat="45.93897" lon="4.7785">
        <ele>175</ele>
        <time>2017-09-27T09:25:10Z</time>
      </trkpt>
      <trkpt lat="45.93894" lon="4.77858">
        <ele>175</ele>
        <time>2017-09-27T09:25:11Z</time>
      </trkpt>
      <trkpt lat="45.93892" lon="4.77865">
        <ele>175</ele>
        <time>2017-09-27T09:25:12Z</time>
      </trkpt>
      <trkpt lat="45.9389" lon="4.77873">
        <ele>175</ele>
        <time>2017-09-27T09:25:13Z</time>
      </trkpt>
      <trkpt lat="45.93888" lon="4.77881">
        <ele>175</ele>
        <time>2017-09-27T09:25:14Z</time>
      </trkpt>
      <trkpt lat="45.93884" lon="4.77892">
        <ele>175</ele>
        <time>2017-09-27T09:25:16Z</time>
      </trkpt>
      <trkpt lat="45.93882" lon="4.77899">
        <ele>175</ele>
        <time>2017-09-27T09:25:17Z</time>
      </trkpt>
      <trkpt lat="45.9388" lon="4.77905">
        <ele>175</ele>
        <time>2017-09-27T09:25:18Z</time>
      </trkpt>
      <trkpt lat="45.93879" lon="4.77911">
        <ele>175</ele>
        <time>2017-09-27T09:25:19Z</time>
      </trkpt>
      <trkpt lat="45.93877" lon="4.77918">
        <ele>178</ele>
        <time>2017-09-27T09:25:20Z</time>
      </trkpt>
      <trkpt lat="45.93876" lon="4.77924">
        <ele>178</ele>
        <time>2017-09-27T09:25:21Z</time>
      </trkpt>
      <trkpt lat="45.93875" lon="4.77931">
        <ele>178</ele>
        <time>2017-09-27T09:25:22Z</time>
      </trkpt>
      <trkpt lat="45.93873" lon="4.77937">
        <ele>178</ele>
        <time>2017-09-27T09:25:23Z</time>
      </trkpt>
      <trkpt lat="45.93871" lon="4.77944">
        <ele>178</ele>
        <time>2017-09-27T09:25:24Z</time>
      </trkpt>
      <trkpt lat="45.93869" lon="4.7795">
        <ele>178</ele>
        <time>2017-09-27T09:25:25Z</time>
      </trkpt>
      <trkpt lat="45.93867" lon="4.77957">
        <ele>178</ele>
        <time>2017-09-27T09:25:26Z</time>
      </trkpt>
      <trkpt lat="45.93865" lon="4.77963">
        <ele>178</ele>
        <time>2017-09-27T09:25:27Z</time>
      </trkpt>
      <trkpt lat="45.93864" lon="4.7797">
        <ele>179</ele>
        <time>2017-09-27T09:25:28Z</time>
      </trkpt>
      <trkpt lat="45.93862" lon="4.77976">
        <ele>179</ele>
        <time>2017-09-27T09:25:29Z</time>
      </trkpt>
      <trkpt lat="45.93857" lon="4.77986">
        <ele>179</ele>
        <time>2017-09-27T09:25:31Z</time>
      </trkpt>
      <trkpt lat="45.93854" lon="4.77991">
        <ele>179</ele>
        <time>2017-09-27T09:25:32Z</time>
      </trkpt>
      <trkpt lat="45.93847" lon="4.77998">
        <ele>179</ele>
        <time>2017-09-27T09:25:34Z</time>
      </trkpt>
      <trkpt lat="45.93843" lon="4.78003">
        <ele>181</ele>
        <time>2017-09-27T09:25:35Z</time>
      </trkpt>
      <trkpt lat="45.9384" lon="4.78009">
        <ele>181</ele>
        <time>2017-09-27T09:25:36Z</time>
      </trkpt>
      <trkpt lat="45.9384" lon="4.78015">
        <ele>181</ele>
        <time>2017-09-27T09:25:37Z</time>
      </trkpt>
      <trkpt lat="45.9384" lon="4.78021">
        <ele>182</ele>
        <time>2017-09-27T09:25:38Z</time>
      </trkpt>
      <trkpt lat="45.93842" lon="4.78028">
        <ele>182</ele>
        <time>2017-09-27T09:25:39Z</time>
      </trkpt>
      <trkpt lat="45.93844" lon="4.78039">
        <ele>182</ele>
        <time>2017-09-27T09:25:41Z</time>
      </trkpt>
      <trkpt lat="45.93846" lon="4.78047">
        <ele>182</ele>
        <time>2017-09-27T09:25:42Z</time>
      </trkpt>
      <trkpt lat="45.93844" lon="4.78057">
        <ele>182</ele>
        <time>2017-09-27T09:25:44Z</time>
      </trkpt>
      <trkpt lat="45.93843" lon="4.78063">
        <ele>182</ele>
        <time>2017-09-27T09:25:45Z</time>
      </trkpt>
      <trkpt lat="45.93843" lon="4.7807">
        <ele>182</ele>
        <time>2017-09-27T09:25:46Z</time>
      </trkpt>
      <trkpt lat="45.93841" lon="4.78078">
        <ele>181</ele>
        <time>2017-09-27T09:25:47Z</time>
      </trkpt>
      <trkpt lat="45.93841" lon="4.78088">
        <ele>182</ele>
        <time>2017-09-27T09:25:49Z</time>
      </trkpt>
      <trkpt lat="45.93841" lon="4.78093">
        <ele>182</ele>
        <time>2017-09-27T09:25:50Z</time>
      </trkpt>
      <trkpt lat="45.9384" lon="4.781">
        <ele>183</ele>
        <time>2017-09-27T09:25:51Z</time>
      </trkpt>
      <trkpt lat="45.93838" lon="4.78106">
        <ele>184</ele>
        <time>2017-09-27T09:25:52Z</time>
      </trkpt>
      <trkpt lat="45.93837" lon="4.78113">
        <ele>184</ele>
        <time>2017-09-27T09:25:53Z</time>
      </trkpt>
      <trkpt lat="45.93836" lon="4.7812">
        <ele>184</ele>
        <time>2017-09-27T09:25:54Z</time>
      </trkpt>
      <trkpt lat="45.93834" lon="4.78127">
        <ele>184</ele>
        <time>2017-09-27T09:25:55Z</time>
      </trkpt>
      <trkpt lat="45.93832" lon="4.78135">
        <ele>180</ele>
        <time>2017-09-27T09:25:56Z</time>
      </trkpt>
      <trkpt lat="45.9383" lon="4.78142">
        <ele>180</ele>
        <time>2017-09-27T09:25:57Z</time>
      </trkpt>
      <trkpt lat="45.93828" lon="4.78148">
        <ele>180</ele>
        <time>2017-09-27T09:25:58Z</time>
      </trkpt>
      <trkpt lat="45.93826" lon="4.78155">
        <ele>181</ele>
        <time>2017-09-27T09:25:59Z</time>
      </trkpt>
      <trkpt lat="45.93824" lon="4.78161">
        <ele>181</ele>
        <time>2017-09-27T09:26:00Z</time>
      </trkpt>
      <trkpt lat="45.9382" lon="4.78171">
        <ele>182</ele>
        <time>2017-09-27T09:26:02Z</time>
      </trkpt>
      <trkpt lat="45.93819" lon="4.78177">
        <ele>182</ele>
        <time>2017-09-27T09:26:03Z</time>
      </trkpt>
      <trkpt lat="45.93817" lon="4.78185">
        <ele>182</ele>
        <time>2017-09-27T09:26:04Z</time>
      </trkpt>
      <trkpt lat="45.93816" lon="4.78192">
        <ele>182</ele>
        <time>2017-09-27T09:26:05Z</time>
      </trkpt>
      <trkpt lat="45.93812" lon="4.78204">
        <ele>182</ele>
        <time>2017-09-27T09:26:07Z</time>
      </trkpt>
      <trkpt lat="45.9381" lon="4.7821">
        <ele>182</ele>
        <time>2017-09-27T09:26:08Z</time>
      </trkpt>
      <trkpt lat="45.93809" lon="4.78216">
        <ele>182</ele>
        <time>2017-09-27T09:26:09Z</time>
      </trkpt>
      <trkpt lat="45.93807" lon="4.78222">
        <ele>182</ele>
        <time>2017-09-27T09:26:10Z</time>
      </trkpt>
      <trkpt lat="45.93804" lon="4.78232">
        <ele>182</ele>
        <time>2017-09-27T09:26:12Z</time>
      </trkpt>
      <trkpt lat="45.93802" lon="4.78235">
        <ele>182</ele>
        <time>2017-09-27T09:26:13Z</time>
      </trkpt>
      <trkpt lat="45.93797" lon="4.78244">
        <ele>182</ele>
        <time>2017-09-27T09:26:15Z</time>
      </trkpt>
      <trkpt lat="45.93796" lon="4.7825">
        <ele>183</ele>
        <time>2017-09-27T09:26:16Z</time>
      </trkpt>
      <trkpt lat="45.93795" lon="4.78257">
        <ele>183</ele>
        <time>2017-09-27T09:26:17Z</time>
      </trkpt>
      <trkpt lat="45.93794" lon="4.78264">
        <ele>183</ele>
        <time>2017-09-27T09:26:18Z</time>
      </trkpt>
      <trkpt lat="45.93791" lon="4.78275">
        <ele>183</ele>
        <time>2017-09-27T09:26:20Z</time>
      </trkpt>
      <trkpt lat="45.9379" lon="4.78281">
        <ele>183</ele>
        <time>2017-09-27T09:26:21Z</time>
      </trkpt>
      <trkpt lat="45.93789" lon="4.78289">
        <ele>183</ele>
        <time>2017-09-27T09:26:22Z</time>
      </trkpt>
      <trkpt lat="45.93787" lon="4.78296">
        <ele>183</ele>
        <time>2017-09-27T09:26:23Z</time>
      </trkpt>
      <trkpt lat="45.93785" lon="4.783">
        <ele>183</ele>
        <time>2017-09-27T09:26:24Z</time>
      </trkpt>
      <trkpt lat="45.93783" lon="4.78307">
        <ele>183</ele>
        <time>2017-09-27T09:26:25Z</time>
      </trkpt>
      <trkpt lat="45.9378" lon="4.78313">
        <ele>183</ele>
        <time>2017-09-27T09:26:26Z</time>
      </trkpt>
      <trkpt lat="45.93778" lon="4.78321">
        <ele>183</ele>
        <time>2017-09-27T09:26:27Z</time>
      </trkpt>
      <trkpt lat="45.93775" lon="4.78327">
        <ele>183</ele>
        <time>2017-09-27T09:26:28Z</time>
      </trkpt>
      <trkpt lat="45.93774" lon="4.78333">
        <ele>183</ele>
        <time>2017-09-27T09:26:29Z</time>
      </trkpt>
      <trkpt lat="45.93771" lon="4.78345">
        <ele>183</ele>
        <time>2017-09-27T09:26:31Z</time>
      </trkpt>
      <trkpt lat="45.93769" lon="4.78351">
        <ele>183</ele>
        <time>2017-09-27T09:26:32Z</time>
      </trkpt>
      <trkpt lat="45.93767" lon="4.78357">
        <ele>183</ele>
        <time>2017-09-27T09:26:33Z</time>
      </trkpt>
      <trkpt lat="45.93765" lon="4.78363">
        <ele>183</ele>
        <time>2017-09-27T09:26:34Z</time>
      </trkpt>
      <trkpt lat="45.93763" lon="4.78369">
        <ele>183</ele>
        <time>2017-09-27T09:26:35Z</time>
      </trkpt>
      <trkpt lat="45.93761" lon="4.78375">
        <ele>183</ele>
        <time>2017-09-27T09:26:36Z</time>
      </trkpt>
      <trkpt lat="45.93759" lon="4.78383">
        <ele>183</ele>
        <time>2017-09-27T09:26:37Z</time>
      </trkpt>
      <trkpt lat="45.93757" lon="4.78391">
        <ele>183</ele>
        <time>2017-09-27T09:26:38Z</time>
      </trkpt>
      <trkpt lat="45.93756" lon="4.78398">
        <ele>183</ele>
        <time>2017-09-27T09:26:39Z</time>
      </trkpt>
      <trkpt lat="45.93754" lon="4.78406">
        <ele>182</ele>
        <time>2017-09-27T09:26:40Z</time>
      </trkpt>
      <trkpt lat="45.93752" lon="4.78413">
        <ele>181</ele>
        <time>2017-09-27T09:26:41Z</time>
      </trkpt>
      <trkpt lat="45.93751" lon="4.7842">
        <ele>182</ele>
        <time>2017-09-27T09:26:42Z</time>
      </trkpt>
      <trkpt lat="45.9375" lon="4.78429">
        <ele>180</ele>
        <time>2017-09-27T09:26:43Z</time>
      </trkpt>
      <trkpt lat="45.93748" lon="4.78439">
        <ele>180</ele>
        <time>2017-09-27T09:26:44Z</time>
      </trkpt>
      <trkpt lat="45.93747" lon="4.78446">
        <ele>180</ele>
        <time>2017-09-27T09:26:45Z</time>
      </trkpt>
      <trkpt lat="45.93746" lon="4.78453">
        <ele>180</ele>
        <time>2017-09-27T09:26:46Z</time>
      </trkpt>
      <trkpt lat="45.93744" lon="4.7846">
        <ele>180</ele>
        <time>2017-09-27T09:26:47Z</time>
      </trkpt>
      <trkpt lat="45.93741" lon="4.78468">
        <ele>180</ele>
        <time>2017-09-27T09:26:48Z</time>
      </trkpt>
      <trkpt lat="45.93739" lon="4.78475">
        <ele>180</ele>
        <time>2017-09-27T09:26:49Z</time>
      </trkpt>
      <trkpt lat="45.93736" lon="4.78483">
        <ele>180</ele>
        <time>2017-09-27T09:26:50Z</time>
      </trkpt>
      <trkpt lat="45.93734" lon="4.78492">
        <ele>180</ele>
        <time>2017-09-27T09:26:51Z</time>
      </trkpt>
      <trkpt lat="45.93732" lon="4.785">
        <ele>179</ele>
        <time>2017-09-27T09:26:52Z</time>
      </trkpt>
      <trkpt lat="45.93729" lon="4.78508">
        <ele>179</ele>
        <time>2017-09-27T09:26:53Z</time>
      </trkpt>
      <trkpt lat="45.93727" lon="4.78517">
        <ele>179</ele>
        <time>2017-09-27T09:26:54Z</time>
      </trkpt>
      <trkpt lat="45.93725" lon="4.78525">
        <ele>178</ele>
        <time>2017-09-27T09:26:55Z</time>
      </trkpt>
      <trkpt lat="45.93723" lon="4.78534">
        <ele>178</ele>
        <time>2017-09-27T09:26:56Z</time>
      </trkpt>
      <trkpt lat="45.93721" lon="4.78543">
        <ele>178</ele>
        <time>2017-09-27T09:26:57Z</time>
      </trkpt>
      <trkpt lat="45.9372" lon="4.78551">
        <ele>178</ele>
        <time>2017-09-27T09:26:58Z</time>
      </trkpt>
      <trkpt lat="45.93717" lon="4.7856">
        <ele>178</ele>
        <time>2017-09-27T09:26:59Z</time>
      </trkpt>
      <trkpt lat="45.93716" lon="4.78568">
        <ele>178</ele>
        <time>2017-09-27T09:27:00Z</time>
      </trkpt>
      <trkpt lat="45.93714" lon="4.78576">
        <ele>178</ele>
        <time>2017-09-27T09:27:01Z</time>
      </trkpt>
      <trkpt lat="45.93712" lon="4.78585">
        <ele>176</ele>
        <time>2017-09-27T09:27:02Z</time>
      </trkpt>
      <trkpt lat="45.9371" lon="4.78594">
        <ele>176</ele>
        <time>2017-09-27T09:27:03Z</time>
      </trkpt>
      <trkpt lat="45.93707" lon="4.78602">
        <ele>176</ele>
        <time>2017-09-27T09:27:04Z</time>
      </trkpt>
      <trkpt lat="45.93704" lon="4.7861">
        <ele>176</ele>
        <time>2017-09-27T09:27:05Z</time>
      </trkpt>
      <trkpt lat="45.93701" lon="4.78619">
        <ele>176</ele>
        <time>2017-09-27T09:27:06Z</time>
      </trkpt>
      <trkpt lat="45.93698" lon="4.78626">
        <ele>176</ele>
        <time>2017-09-27T09:27:07Z</time>
      </trkpt>
      <trkpt lat="45.93695" lon="4.78635">
        <ele>176</ele>
        <time>2017-09-27T09:27:08Z</time>
      </trkpt>
      <trkpt lat="45.93692" lon="4.78642">
        <ele>176</ele>
        <time>2017-09-27T09:27:09Z</time>
      </trkpt>
      <trkpt lat="45.93688" lon="4.7865">
        <ele>176</ele>
        <time>2017-09-27T09:27:10Z</time>
      </trkpt>
      <trkpt lat="45.93684" lon="4.78657">
        <ele>175</ele>
        <time>2017-09-27T09:27:11Z</time>
      </trkpt>
      <trkpt lat="45.9368" lon="4.78663">
        <ele>175</ele>
        <time>2017-09-27T09:27:12Z</time>
      </trkpt>
      <trkpt lat="45.93676" lon="4.78671">
        <ele>175</ele>
        <time>2017-09-27T09:27:13Z</time>
      </trkpt>
      <trkpt lat="45.93673" lon="4.78679">
        <ele>175</ele>
        <time>2017-09-27T09:27:14Z</time>
      </trkpt>
      <trkpt lat="45.9367" lon="4.78687">
        <ele>175</ele>
        <time>2017-09-27T09:27:15Z</time>
      </trkpt>
      <trkpt lat="45.93666" lon="4.78696">
        <ele>173</ele>
        <time>2017-09-27T09:27:16Z</time>
      </trkpt>
      <trkpt lat="45.93663" lon="4.78706">
        <ele>173</ele>
        <time>2017-09-27T09:27:17Z</time>
      </trkpt>
      <trkpt lat="45.9366" lon="4.78714">
        <ele>173</ele>
        <time>2017-09-27T09:27:18Z</time>
      </trkpt>
      <trkpt lat="45.93657" lon="4.78721">
        <ele>173</ele>
        <time>2017-09-27T09:27:19Z</time>
      </trkpt>
      <trkpt lat="45.93653" lon="4.7873">
        <ele>174</ele>
        <time>2017-09-27T09:27:20Z</time>
      </trkpt>
      <trkpt lat="45.9365" lon="4.78739">
        <ele>174</ele>
        <time>2017-09-27T09:27:21Z</time>
      </trkpt>
      <trkpt lat="45.93647" lon="4.78747">
        <ele>174</ele>
        <time>2017-09-27T09:27:22Z</time>
      </trkpt>
      <trkpt lat="45.93644" lon="4.78754">
        <ele>174</ele>
        <time>2017-09-27T09:27:23Z</time>
      </trkpt>
      <trkpt lat="45.93641" lon="4.78762">
        <ele>174</ele>
        <time>2017-09-27T09:27:24Z</time>
      </trkpt>
      <trkpt lat="45.93638" lon="4.7877">
        <ele>174</ele>
        <time>2017-09-27T09:27:25Z</time>
      </trkpt>
      <trkpt lat="45.93635" lon="4.78778">
        <ele>174</ele>
        <time>2017-09-27T09:27:26Z</time>
      </trkpt>
      <trkpt lat="45.93632" lon="4.78785">
        <ele>174</ele>
        <time>2017-09-27T09:27:27Z</time>
      </trkpt>
      <trkpt lat="45.9363" lon="4.78793">
        <ele>174</ele>
        <time>2017-09-27T09:27:28Z</time>
      </trkpt>
      <trkpt lat="45.93627" lon="4.78799">
        <ele>174</ele>
        <time>2017-09-27T09:27:29Z</time>
      </trkpt>
      <trkpt lat="45.93623" lon="4.78805">
        <ele>174</ele>
        <time>2017-09-27T09:27:30Z</time>
      </trkpt>
      <trkpt lat="45.93619" lon="4.78813">
        <ele>174</ele>
        <time>2017-09-27T09:27:31Z</time>
      </trkpt>
      <trkpt lat="45.93616" lon="4.7882">
        <ele>173</ele>
        <time>2017-09-27T09:27:32Z</time>
      </trkpt>
      <trkpt lat="45.93613" lon="4.78827">
        <ele>173</ele>
        <time>2017-09-27T09:27:33Z</time>
      </trkpt>
      <trkpt lat="45.93609" lon="4.78835">
        <ele>174</ele>
        <time>2017-09-27T09:27:34Z</time>
      </trkpt>
      <trkpt lat="45.93605" lon="4.78842">
        <ele>174</ele>
        <time>2017-09-27T09:27:35Z</time>
      </trkpt>
      <trkpt lat="45.93602" lon="4.7885">
        <ele>174</ele>
        <time>2017-09-27T09:27:36Z</time>
      </trkpt>
      <trkpt lat="45.93598" lon="4.78857">
        <ele>174</ele>
        <time>2017-09-27T09:27:37Z</time>
      </trkpt>
      <trkpt lat="45.93595" lon="4.78864">
        <ele>174</ele>
        <time>2017-09-27T09:27:38Z</time>
      </trkpt>
      <trkpt lat="45.93592" lon="4.78872">
        <ele>174</ele>
        <time>2017-09-27T09:27:39Z</time>
      </trkpt>
      <trkpt lat="45.93589" lon="4.78878">
        <ele>173</ele>
        <time>2017-09-27T09:27:40Z</time>
      </trkpt>
      <trkpt lat="45.93586" lon="4.78885">
        <ele>173</ele>
        <time>2017-09-27T09:27:41Z</time>
      </trkpt>
      <trkpt lat="45.93583" lon="4.78891">
        <ele>172</ele>
        <time>2017-09-27T09:27:42Z</time>
      </trkpt>
      <trkpt lat="45.93578" lon="4.78901">
        <ele>172</ele>
        <time>2017-09-27T09:27:44Z</time>
      </trkpt>
      <trkpt lat="45.93577" lon="4.78903">
        <ele>172</ele>
        <time>2017-09-27T09:27:45Z</time>
      </trkpt>
      <trkpt lat="45.93574" lon="4.78915">
        <ele>172</ele>
        <time>2017-09-27T09:27:49Z</time>
      </trkpt>
      <trkpt lat="45.93574" lon="4.78916">
        <ele>172</ele>
        <time>2017-09-27T09:27:50Z</time>
      </trkpt>
      <trkpt lat="45.93568" lon="4.78923">
        <ele>172</ele>
        <time>2017-09-27T09:27:56Z</time>
      </trkpt>
      <trkpt lat="45.93566" lon="4.78925">
        <ele>172</ele>
        <time>2017-09-27T09:27:57Z</time>
      </trkpt>
      <trkpt lat="45.93561" lon="4.78936">
        <ele>172</ele>
        <time>2017-09-27T09:28:02Z</time>
      </trkpt>
      <trkpt lat="45.9356" lon="4.78936">
        <ele>172</ele>
        <time>2017-09-27T09:28:03Z</time>
      </trkpt>
      <trkpt lat="45.93557" lon="4.78945">
        <ele>172</ele>
        <time>2017-09-27T09:28:18Z</time>
      </trkpt>
      <trkpt lat="45.93555" lon="4.78947">
        <ele>172</ele>
        <time>2017-09-27T09:28:19Z</time>
      </trkpt>
      <trkpt lat="45.93552" lon="4.78957">
        <ele>172</ele>
        <time>2017-09-27T09:28:22Z</time>
      </trkpt>
      <trkpt lat="45.93551" lon="4.7896">
        <ele>172</ele>
        <time>2017-09-27T09:28:23Z</time>
      </trkpt>
      <trkpt lat="45.93542" lon="4.78963">
        <ele>172</ele>
        <time>2017-09-27T09:28:27Z</time>
      </trkpt>
      <trkpt lat="45.9354" lon="4.78962">
        <ele>172</ele>
        <time>2017-09-27T09:28:28Z</time>
      </trkpt>
      <trkpt lat="45.93533" lon="4.78967">
        <ele>172</ele>
        <time>2017-09-27T09:28:32Z</time>
      </trkpt>
      <trkpt lat="45.93531" lon="4.78969">
        <ele>172</ele>
        <time>2017-09-27T09:28:33Z</time>
      </trkpt>
      <trkpt lat="45.93529" lon="4.78981">
        <ele>172</ele>
        <time>2017-09-27T09:28:36Z</time>
      </trkpt>
      <trkpt lat="45.93529" lon="4.78987">
        <ele>172</ele>
        <time>2017-09-27T09:28:37Z</time>
      </trkpt>
      <trkpt lat="45.93529" lon="4.78999">
        <ele>172</ele>
        <time>2017-09-27T09:28:39Z</time>
      </trkpt>
      <trkpt lat="45.93527" lon="4.79004">
        <ele>172</ele>
        <time>2017-09-27T09:28:40Z</time>
      </trkpt>
      <trkpt lat="45.93524" lon="4.79015">
        <ele>172</ele>
        <time>2017-09-27T09:28:42Z</time>
      </trkpt>
      <trkpt lat="45.93522" lon="4.79021">
        <ele>172</ele>
        <time>2017-09-27T09:28:43Z</time>
      </trkpt>
      <trkpt lat="45.93519" lon="4.79028">
        <ele>173</ele>
        <time>2017-09-27T09:28:44Z</time>
      </trkpt>
      <trkpt lat="45.93517" lon="4.79034">
        <ele>173</ele>
        <time>2017-09-27T09:28:45Z</time>
      </trkpt>
      <trkpt lat="45.93513" lon="4.79045">
        <ele>173</ele>
        <time>2017-09-27T09:28:47Z</time>
      </trkpt>
      <trkpt lat="45.9351" lon="4.79051">
        <ele>173</ele>
        <time>2017-09-27T09:28:48Z</time>
      </trkpt>
      <trkpt lat="45.93507" lon="4.79058">
        <ele>173</ele>
        <time>2017-09-27T09:28:49Z</time>
      </trkpt>
      <trkpt lat="45.93504" lon="4.79065">
        <ele>173</ele>
        <time>2017-09-27T09:28:50Z</time>
      </trkpt>
      <trkpt lat="45.93501" lon="4.79072">
        <ele>173</ele>
        <time>2017-09-27T09:28:51Z</time>
      </trkpt>
      <trkpt lat="45.93498" lon="4.79079">
        <ele>173</ele>
        <time>2017-09-27T09:28:52Z</time>
      </trkpt>
      <trkpt lat="45.93496" lon="4.79085">
        <ele>173</ele>
        <time>2017-09-27T09:28:53Z</time>
      </trkpt>
      <trkpt lat="45.93493" lon="4.79093">
        <ele>173</ele>
        <time>2017-09-27T09:28:54Z</time>
      </trkpt>
      <trkpt lat="45.9349" lon="4.79099">
        <ele>172</ele>
        <time>2017-09-27T09:28:55Z</time>
      </trkpt>
      <trkpt lat="45.93488" lon="4.79106">
        <ele>172</ele>
        <time>2017-09-27T09:28:56Z</time>
      </trkpt>
      <trkpt lat="45.93485" lon="4.79112">
        <ele>172</ele>
        <time>2017-09-27T09:28:57Z</time>
      </trkpt>
      <trkpt lat="45.93483" lon="4.79119">
        <ele>172</ele>
        <time>2017-09-27T09:28:58Z</time>
      </trkpt>
      <trkpt lat="45.9348" lon="4.79125">
        <ele>172</ele>
        <time>2017-09-27T09:28:59Z</time>
      </trkpt>
      <trkpt lat="45.93479" lon="4.79131">
        <ele>172</ele>
        <time>2017-09-27T09:29:00Z</time>
      </trkpt>
      <trkpt lat="45.93476" lon="4.79138">
        <ele>172</ele>
        <time>2017-09-27T09:29:01Z</time>
      </trkpt>
      <trkpt lat="45.93474" lon="4.79145">
        <ele>172</ele>
        <time>2017-09-27T09:29:02Z</time>
      </trkpt>
      <trkpt lat="45.93471" lon="4.79153">
        <ele>172</ele>
        <time>2017-09-27T09:29:03Z</time>
      </trkpt>
      <trkpt lat="45.93469" lon="4.7916">
        <ele>172</ele>
        <time>2017-09-27T09:29:04Z</time>
      </trkpt>
      <trkpt lat="45.93466" lon="4.79168">
        <ele>172</ele>
        <time>2017-09-27T09:29:05Z</time>
      </trkpt>
      <trkpt lat="45.93463" lon="4.79177">
        <ele>172</ele>
        <time>2017-09-27T09:29:06Z</time>
      </trkpt>
      <trkpt lat="45.93461" lon="4.79184">
        <ele>172</ele>
        <time>2017-09-27T09:29:07Z</time>
      </trkpt>
      <trkpt lat="45.93459" lon="4.7919">
        <ele>172</ele>
        <time>2017-09-27T09:29:08Z</time>
      </trkpt>
      <trkpt lat="45.93456" lon="4.79197">
        <ele>172</ele>
        <time>2017-09-27T09:29:09Z</time>
      </trkpt>
      <trkpt lat="45.93453" lon="4.79203">
        <ele>172</ele>
        <time>2017-09-27T09:29:10Z</time>
      </trkpt>
      <trkpt lat="45.93451" lon="4.7921">
        <ele>172</ele>
        <time>2017-09-27T09:29:11Z</time>
      </trkpt>
      <trkpt lat="45.93449" lon="4.79217">
        <ele>172</ele>
        <time>2017-09-27T09:29:12Z</time>
      </trkpt>
      <trkpt lat="45.93448" lon="4.79225">
        <ele>172</ele>
        <time>2017-09-27T09:29:13Z</time>
      </trkpt>
      <trkpt lat="45.93446" lon="4.79231">
        <ele>172</ele>
        <time>2017-09-27T09:29:14Z</time>
      </trkpt>
      <trkpt lat="45.93444" lon="4.79238">
        <ele>172</ele>
        <time>2017-09-27T09:29:15Z</time>
      </trkpt>
      <trkpt lat="45.93443" lon="4.79245">
        <ele>172</ele>
        <time>2017-09-27T09:29:16Z</time>
      </trkpt>
      <trkpt lat="45.9344" lon="4.7925">
        <ele>172</ele>
        <time>2017-09-27T09:29:17Z</time>
      </trkpt>
      <trkpt lat="45.93438" lon="4.79258">
        <ele>172</ele>
        <time>2017-09-27T09:29:18Z</time>
      </trkpt>
      <trkpt lat="45.93436" lon="4.79265">
        <ele>172</ele>
        <time>2017-09-27T09:29:19Z</time>
      </trkpt>
      <trkpt lat="45.93434" lon="4.79272">
        <ele>172</ele>
        <time>2017-09-27T09:29:20Z</time>
      </trkpt>
      <trkpt lat="45.93432" lon="4.7928">
        <ele>172</ele>
        <time>2017-09-27T09:29:21Z</time>
      </trkpt>
      <trkpt lat="45.93429" lon="4.79288">
        <ele>173</ele>
        <time>2017-09-27T09:29:22Z</time>
      </trkpt>
      <trkpt lat="45.93426" lon="4.79294">
        <ele>173</ele>
        <time>2017-09-27T09:29:23Z</time>
      </trkpt>
      <trkpt lat="45.93424" lon="4.79301">
        <ele>172</ele>
        <time>2017-09-27T09:29:24Z</time>
      </trkpt>
      <trkpt lat="45.93421" lon="4.79307">
        <ele>172</ele>
        <time>2017-09-27T09:29:25Z</time>
      </trkpt>
      <trkpt lat="45.93419" lon="4.79313">
        <ele>172</ele>
        <time>2017-09-27T09:29:26Z</time>
      </trkpt>
      <trkpt lat="45.93414" lon="4.79323">
        <ele>172</ele>
        <time>2017-09-27T09:29:28Z</time>
      </trkpt>
      <trkpt lat="45.93412" lon="4.79328">
        <ele>172</ele>
        <time>2017-09-27T09:29:29Z</time>
      </trkpt>
      <trkpt lat="45.93408" lon="4.79338">
        <ele>172</ele>
        <time>2017-09-27T09:29:31Z</time>
      </trkpt>
      <trkpt lat="45.93406" lon="4.79345">
        <ele>172</ele>
        <time>2017-09-27T09:29:32Z</time>
      </trkpt>
      <trkpt lat="45.93405" lon="4.79352">
        <ele>172</ele>
        <time>2017-09-27T09:29:33Z</time>
      </trkpt>
      <trkpt lat="45.93403" lon="4.79358">
        <ele>172</ele>
        <time>2017-09-27T09:29:34Z</time>
      </trkpt>
      <trkpt lat="45.934" lon="4.79365">
        <ele>172</ele>
        <time>2017-09-27T09:29:35Z</time>
      </trkpt>
      <trkpt lat="45.93398" lon="4.79372">
        <ele>172</ele>
        <time>2017-09-27T09:29:36Z</time>
      </trkpt>
      <trkpt lat="45.93395" lon="4.79378">
        <ele>172</ele>
        <time>2017-09-27T09:29:37Z</time>
      </trkpt>
      <trkpt lat="45.93391" lon="4.79383">
        <ele>172</ele>
        <time>2017-09-27T09:29:38Z</time>
      </trkpt>
      <trkpt lat="45.93387" lon="4.79393">
        <ele>172</ele>
        <time>2017-09-27T09:29:40Z</time>
      </trkpt>
      <trkpt lat="45.93385" lon="4.79399">
        <ele>172</ele>
        <time>2017-09-27T09:29:41Z</time>
      </trkpt>
      <trkpt lat="45.93384" lon="4.79406">
        <ele>172</ele>
        <time>2017-09-27T09:29:42Z</time>
      </trkpt>
      <trkpt lat="45.93381" lon="4.79412">
        <ele>172</ele>
        <time>2017-09-27T09:29:43Z</time>
      </trkpt>
      <trkpt lat="45.93379" lon="4.79419">
        <ele>174</ele>
        <time>2017-09-27T09:29:44Z</time>
      </trkpt>
      <trkpt lat="45.93377" lon="4.79426">
        <ele>174</ele>
        <time>2017-09-27T09:29:45Z</time>
      </trkpt>
      <trkpt lat="45.93374" lon="4.79433">
        <ele>174</ele>
        <time>2017-09-27T09:29:46Z</time>
      </trkpt>
      <trkpt lat="45.93372" lon="4.79441">
        <ele>175</ele>
        <time>2017-09-27T09:29:47Z</time>
      </trkpt>
      <trkpt lat="45.9337" lon="4.79448">
        <ele>175</ele>
        <time>2017-09-27T09:29:48Z</time>
      </trkpt>
      <trkpt lat="45.93367" lon="4.79453">
        <ele>175</ele>
        <time>2017-09-27T09:29:49Z</time>
      </trkpt>
      <trkpt lat="45.93366" lon="4.7946">
        <ele>175</ele>
        <time>2017-09-27T09:29:50Z</time>
      </trkpt>
      <trkpt lat="45.93364" lon="4.79466">
        <ele>175</ele>
        <time>2017-09-27T09:29:51Z</time>
      </trkpt>
      <trkpt lat="45.93361" lon="4.79472">
        <ele>175</ele>
        <time>2017-09-27T09:29:52Z</time>
      </trkpt>
      <trkpt lat="45.9336" lon="4.79479">
        <ele>175</ele>
        <time>2017-09-27T09:29:53Z</time>
      </trkpt>
      <trkpt lat="45.93358" lon="4.79485">
        <ele>175</ele>
        <time>2017-09-27T09:29:54Z</time>
      </trkpt>
      <trkpt lat="45.93355" lon="4.79491">
        <ele>176</ele>
        <time>2017-09-27T09:29:55Z</time>
      </trkpt>
      <trkpt lat="45.93354" lon="4.79499">
        <ele>176</ele>
        <time>2017-09-27T09:29:56Z</time>
      </trkpt>
      <trkpt lat="45.93351" lon="4.79505">
        <ele>177</ele>
        <time>2017-09-27T09:29:57Z</time>
      </trkpt>
      <trkpt lat="45.93348" lon="4.79512">
        <ele>177</ele>
        <time>2017-09-27T09:29:58Z</time>
      </trkpt>
      <trkpt lat="45.93346" lon="4.79519">
        <ele>177</ele>
        <time>2017-09-27T09:29:59Z</time>
      </trkpt>
      <trkpt lat="45.93344" lon="4.79525">
        <ele>177</ele>
        <time>2017-09-27T09:30:00Z</time>
      </trkpt>
      <trkpt lat="45.93341" lon="4.79532">
        <ele>177</ele>
        <time>2017-09-27T09:30:01Z</time>
      </trkpt>
      <trkpt lat="45.93339" lon="4.79538">
        <ele>177</ele>
        <time>2017-09-27T09:30:02Z</time>
      </trkpt>
      <trkpt lat="45.93338" lon="4.79546">
        <ele>177</ele>
        <time>2017-09-27T09:30:03Z</time>
      </trkpt>
      <trkpt lat="45.93335" lon="4.79551">
        <ele>177</ele>
        <time>2017-09-27T09:30:04Z</time>
      </trkpt>
      <trkpt lat="45.93333" lon="4.7956">
        <ele>176</ele>
        <time>2017-09-27T09:30:05Z</time>
      </trkpt>
      <trkpt lat="45.93332" lon="4.79567">
        <ele>176</ele>
        <time>2017-09-27T09:30:06Z</time>
      </trkpt>
      <trkpt lat="45.93329" lon="4.79574">
        <ele>176</ele>
        <time>2017-09-27T09:30:07Z</time>
      </trkpt>
      <trkpt lat="45.93325" lon="4.79585">
        <ele>177</ele>
        <time>2017-09-27T09:30:09Z</time>
      </trkpt>
      <trkpt lat="45.93323" lon="4.79589">
        <ele>177</ele>
        <time>2017-09-27T09:30:10Z</time>
      </trkpt>
      <trkpt lat="45.9332" lon="4.79596">
        <ele>177</ele>
        <time>2017-09-27T09:30:11Z</time>
      </trkpt>
      <trkpt lat="45.93318" lon="4.79602">
        <ele>177</ele>
        <time>2017-09-27T09:30:12Z</time>
      </trkpt>
      <trkpt lat="45.93316" lon="4.7961">
        <ele>177</ele>
        <time>2017-09-27T09:30:13Z</time>
      </trkpt>
      <trkpt lat="45.93314" lon="4.79616">
        <ele>177</ele>
        <time>2017-09-27T09:30:14Z</time>
      </trkpt>
      <trkpt lat="45.93312" lon="4.79623">
        <ele>177</ele>
        <time>2017-09-27T09:30:15Z</time>
      </trkpt>
      <trkpt lat="45.9331" lon="4.79629">
        <ele>177</ele>
        <time>2017-09-27T09:30:16Z</time>
      </trkpt>
      <trkpt lat="45.93307" lon="4.79635">
        <ele>177</ele>
        <time>2017-09-27T09:30:17Z</time>
      </trkpt>
      <trkpt lat="45.93304" lon="4.79641">
        <ele>177</ele>
        <time>2017-09-27T09:30:18Z</time>
      </trkpt>
      <trkpt lat="45.93301" lon="4.79646">
        <ele>177</ele>
        <time>2017-09-27T09:30:19Z</time>
      </trkpt>
      <trkpt lat="45.933" lon="4.79653">
        <ele>177</ele>
        <time>2017-09-27T09:30:20Z</time>
      </trkpt>
      <trkpt lat="45.93298" lon="4.79659">
        <ele>177</ele>
        <time>2017-09-27T09:30:21Z</time>
      </trkpt>
      <trkpt lat="45.93296" lon="4.79665">
        <ele>177</ele>
        <time>2017-09-27T09:30:22Z</time>
      </trkpt>
      <trkpt lat="45.93294" lon="4.79672">
        <ele>177</ele>
        <time>2017-09-27T09:30:23Z</time>
      </trkpt>
      <trkpt lat="45.93291" lon="4.79679">
        <ele>177</ele>
        <time>2017-09-27T09:30:24Z</time>
      </trkpt>
      <trkpt lat="45.93289" lon="4.79686">
        <ele>177</ele>
        <time>2017-09-27T09:30:25Z</time>
      </trkpt>
      <trkpt lat="45.93286" lon="4.79693">
        <ele>177</ele>
        <time>2017-09-27T09:30:26Z</time>
      </trkpt>
      <trkpt lat="45.93284" lon="4.797">
        <ele>177</ele>
        <time>2017-09-27T09:30:27Z</time>
      </trkpt>
      <trkpt lat="45.93282" lon="4.79707">
        <ele>177</ele>
        <time>2017-09-27T09:30:28Z</time>
      </trkpt>
      <trkpt lat="45.93281" lon="4.79715">
        <ele>177</ele>
        <time>2017-09-27T09:30:29Z</time>
      </trkpt>
      <trkpt lat="45.93278" lon="4.79721">
        <ele>177</ele>
        <time>2017-09-27T09:30:30Z</time>
      </trkpt>
      <trkpt lat="45.93278" lon="4.79733">
        <ele>177</ele>
        <time>2017-09-27T09:30:31Z</time>
      </trkpt>
      <trkpt lat="45.93275" lon="4.7974">
        <ele>177</ele>
        <time>2017-09-27T09:30:32Z</time>
      </trkpt>
      <trkpt lat="45.93273" lon="4.79746">
        <ele>177</ele>
        <time>2017-09-27T09:30:33Z</time>
      </trkpt>
      <trkpt lat="45.93271" lon="4.79753">
        <ele>176</ele>
        <time>2017-09-27T09:30:34Z</time>
      </trkpt>
      <trkpt lat="45.93269" lon="4.79761">
        <ele>176</ele>
        <time>2017-09-27T09:30:35Z</time>
      </trkpt>
      <trkpt lat="45.93267" lon="4.79768">
        <ele>175</ele>
        <time>2017-09-27T09:30:36Z</time>
      </trkpt>
      <trkpt lat="45.93265" lon="4.79774">
        <ele>175</ele>
        <time>2017-09-27T09:30:37Z</time>
      </trkpt>
      <trkpt lat="45.93262" lon="4.79783">
        <ele>175</ele>
        <time>2017-09-27T09:30:38Z</time>
      </trkpt>
      <trkpt lat="45.93259" lon="4.79789">
        <ele>175</ele>
        <time>2017-09-27T09:30:39Z</time>
      </trkpt>
      <trkpt lat="45.93256" lon="4.79797">
        <ele>175</ele>
        <time>2017-09-27T09:30:40Z</time>
      </trkpt>
      <trkpt lat="45.93253" lon="4.79805">
        <ele>175</ele>
        <time>2017-09-27T09:30:41Z</time>
      </trkpt>
      <trkpt lat="45.9325" lon="4.79813">
        <ele>174</ele>
        <time>2017-09-27T09:30:42Z</time>
      </trkpt>
      <trkpt lat="45.93247" lon="4.7982">
        <ele>174</ele>
        <time>2017-09-27T09:30:43Z</time>
      </trkpt>
      <trkpt lat="45.93245" lon="4.79828">
        <ele>174</ele>
        <time>2017-09-27T09:30:44Z</time>
      </trkpt>
      <trkpt lat="45.93241" lon="4.79836">
        <ele>173</ele>
        <time>2017-09-27T09:30:45Z</time>
      </trkpt>
      <trkpt lat="45.93239" lon="4.79843">
        <ele>173</ele>
        <time>2017-09-27T09:30:46Z</time>
      </trkpt>
      <trkpt lat="45.93236" lon="4.79851">
        <ele>173</ele>
        <time>2017-09-27T09:30:47Z</time>
      </trkpt>
      <trkpt lat="45.93232" lon="4.79859">
        <ele>172</ele>
        <time>2017-09-27T09:30:48Z</time>
      </trkpt>
      <trkpt lat="45.93228" lon="4.79866">
        <ele>172</ele>
        <time>2017-09-27T09:30:49Z</time>
      </trkpt>
      <trkpt lat="45.93225" lon="4.79873">
        <ele>172</ele>
        <time>2017-09-27T09:30:50Z</time>
      </trkpt>
      <trkpt lat="45.93221" lon="4.79879">
        <ele>172</ele>
        <time>2017-09-27T09:30:51Z</time>
      </trkpt>
      <trkpt lat="45.93217" lon="4.79886">
        <ele>172</ele>
        <time>2017-09-27T09:30:52Z</time>
      </trkpt>
      <trkpt lat="45.93215" lon="4.79892">
        <ele>172</ele>
        <time>2017-09-27T09:30:53Z</time>
      </trkpt>
      <trkpt lat="45.93211" lon="4.79898">
        <ele>172</ele>
        <time>2017-09-27T09:30:54Z</time>
      </trkpt>
      <trkpt lat="45.93208" lon="4.79904">
        <ele>171</ele>
        <time>2017-09-27T09:30:55Z</time>
      </trkpt>
      <trkpt lat="45.93204" lon="4.7991">
        <ele>171</ele>
        <time>2017-09-27T09:30:56Z</time>
      </trkpt>
      <trkpt lat="45.93201" lon="4.79916">
        <ele>171</ele>
        <time>2017-09-27T09:30:57Z</time>
      </trkpt>
      <trkpt lat="45.93197" lon="4.79923">
        <ele>170</ele>
        <time>2017-09-27T09:30:58Z</time>
      </trkpt>
      <trkpt lat="45.93194" lon="4.7993">
        <ele>170</ele>
        <time>2017-09-27T09:30:59Z</time>
      </trkpt>
      <trkpt lat="45.9319" lon="4.79934">
        <ele>170</ele>
        <time>2017-09-27T09:31:00Z</time>
      </trkpt>
      <trkpt lat="45.93188" lon="4.79941">
        <ele>170</ele>
        <time>2017-09-27T09:31:01Z</time>
      </trkpt>
      <trkpt lat="45.93185" lon="4.79947">
        <ele>170</ele>
        <time>2017-09-27T09:31:02Z</time>
      </trkpt>
      <trkpt lat="45.93183" lon="4.79953">
        <ele>170</ele>
        <time>2017-09-27T09:31:03Z</time>
      </trkpt>
      <trkpt lat="45.93181" lon="4.79961">
        <ele>170</ele>
        <time>2017-09-27T09:31:04Z</time>
      </trkpt>
      <trkpt lat="45.93179" lon="4.79968">
        <ele>170</ele>
        <time>2017-09-27T09:31:05Z</time>
      </trkpt>
      <trkpt lat="45.93178" lon="4.79976">
        <ele>170</ele>
        <time>2017-09-27T09:31:06Z</time>
      </trkpt>
      <trkpt lat="45.93176" lon="4.79984">
        <ele>170</ele>
        <time>2017-09-27T09:31:07Z</time>
      </trkpt>
      <trkpt lat="45.93174" lon="4.79991">
        <ele>170</ele>
        <time>2017-09-27T09:31:08Z</time>
      </trkpt>
      <trkpt lat="45.93173" lon="4.79998">
        <ele>169</ele>
        <time>2017-09-27T09:31:09Z</time>
      </trkpt>
      <trkpt lat="45.93173" lon="4.80004">
        <ele>169</ele>
        <time>2017-09-27T09:31:10Z</time>
      </trkpt>
      <trkpt lat="45.93172" lon="4.80011">
        <ele>170</ele>
        <time>2017-09-27T09:31:11Z</time>
      </trkpt>
      <trkpt lat="45.93169" lon="4.80016">
        <ele>170</ele>
        <time>2017-09-27T09:31:12Z</time>
      </trkpt>
      <trkpt lat="45.93167" lon="4.80023">
        <ele>170</ele>
        <time>2017-09-27T09:31:13Z</time>
      </trkpt>
      <trkpt lat="45.93166" lon="4.8003">
        <ele>169</ele>
        <time>2017-09-27T09:31:14Z</time>
      </trkpt>
      <trkpt lat="45.93164" lon="4.80038">
        <ele>169</ele>
        <time>2017-09-27T09:31:15Z</time>
      </trkpt>
      <trkpt lat="45.93163" lon="4.80045">
        <ele>169</ele>
        <time>2017-09-27T09:31:16Z</time>
      </trkpt>
      <trkpt lat="45.93162" lon="4.80053">
        <ele>169</ele>
        <time>2017-09-27T09:31:17Z</time>
      </trkpt>
      <trkpt lat="45.93161" lon="4.80061">
        <ele>170</ele>
        <time>2017-09-27T09:31:18Z</time>
      </trkpt>
      <trkpt lat="45.9316" lon="4.80069">
        <ele>170</ele>
        <time>2017-09-27T09:31:19Z</time>
      </trkpt>
      <trkpt lat="45.93157" lon="4.80075">
        <ele>170</ele>
        <time>2017-09-27T09:31:20Z</time>
      </trkpt>
      <trkpt lat="45.93155" lon="4.80083">
        <ele>170</ele>
        <time>2017-09-27T09:31:21Z</time>
      </trkpt>
      <trkpt lat="45.93153" lon="4.8009">
        <ele>170</ele>
        <time>2017-09-27T09:31:22Z</time>
      </trkpt>
      <trkpt lat="45.93151" lon="4.80098">
        <ele>170</ele>
        <time>2017-09-27T09:31:23Z</time>
      </trkpt>
      <trkpt lat="45.93149" lon="4.80106">
        <ele>169</ele>
        <time>2017-09-27T09:31:24Z</time>
      </trkpt>
      <trkpt lat="45.93147" lon="4.80114">
        <ele>169</ele>
        <time>2017-09-27T09:31:25Z</time>
      </trkpt>
      <trkpt lat="45.93145" lon="4.80121">
        <ele>169</ele>
        <time>2017-09-27T09:31:26Z</time>
      </trkpt>
      <trkpt lat="45.93142" lon="4.80129">
        <ele>169</ele>
        <time>2017-09-27T09:31:27Z</time>
      </trkpt>
      <trkpt lat="45.9314" lon="4.80137">
        <ele>169</ele>
        <time>2017-09-27T09:31:28Z</time>
      </trkpt>
      <trkpt lat="45.93138" lon="4.80144">
        <ele>169</ele>
        <time>2017-09-27T09:31:29Z</time>
      </trkpt>
      <trkpt lat="45.93135" lon="4.80151">
        <ele>169</ele>
        <time>2017-09-27T09:31:30Z</time>
      </trkpt>
      <trkpt lat="45.93134" lon="4.80157">
        <ele>169</ele>
        <time>2017-09-27T09:31:31Z</time>
      </trkpt>
      <trkpt lat="45.93131" lon="4.80165">
        <ele>169</ele>
        <time>2017-09-27T09:31:32Z</time>
      </trkpt>
      <trkpt lat="45.93129" lon="4.80174">
        <ele>169</ele>
        <time>2017-09-27T09:31:33Z</time>
      </trkpt>
      <trkpt lat="45.93126" lon="4.80181">
        <ele>169</ele>
        <time>2017-09-27T09:31:34Z</time>
      </trkpt>
      <trkpt lat="45.93124" lon="4.80188">
        <ele>169</ele>
        <time>2017-09-27T09:31:35Z</time>
      </trkpt>
      <trkpt lat="45.93121" lon="4.80195">
        <ele>169</ele>
        <time>2017-09-27T09:31:36Z</time>
      </trkpt>
      <trkpt lat="45.93119" lon="4.80203">
        <ele>169</ele>
        <time>2017-09-27T09:31:37Z</time>
      </trkpt>
      <trkpt lat="45.93117" lon="4.80211">
        <ele>169</ele>
        <time>2017-09-27T09:31:38Z</time>
      </trkpt>
      <trkpt lat="45.93114" lon="4.80219">
        <ele>169</ele>
        <time>2017-09-27T09:31:39Z</time>
      </trkpt>
      <trkpt lat="45.93112" lon="4.80226">
        <ele>169</ele>
        <time>2017-09-27T09:31:40Z</time>
      </trkpt>
      <trkpt lat="45.93109" lon="4.80232">
        <ele>169</ele>
        <time>2017-09-27T09:31:41Z</time>
      </trkpt>
      <trkpt lat="45.93107" lon="4.80239">
        <ele>169</ele>
        <time>2017-09-27T09:31:42Z</time>
      </trkpt>
      <trkpt lat="45.93105" lon="4.80245">
        <ele>169</ele>
        <time>2017-09-27T09:31:43Z</time>
      </trkpt>
      <trkpt lat="45.93103" lon="4.80252">
        <ele>169</ele>
        <time>2017-09-27T09:31:44Z</time>
      </trkpt>
      <trkpt lat="45.93101" lon="4.80259">
        <ele>169</ele>
        <time>2017-09-27T09:31:45Z</time>
      </trkpt>
      <trkpt lat="45.931" lon="4.80268">
        <ele>169</ele>
        <time>2017-09-27T09:31:46Z</time>
      </trkpt>
      <trkpt lat="45.93097" lon="4.80274">
        <ele>169</ele>
        <time>2017-09-27T09:31:47Z</time>
      </trkpt>
      <trkpt lat="45.93095" lon="4.80281">
        <ele>169</ele>
        <time>2017-09-27T09:31:48Z</time>
      </trkpt>
      <trkpt lat="45.93092" lon="4.80289">
        <ele>169</ele>
        <time>2017-09-27T09:31:49Z</time>
      </trkpt>
      <trkpt lat="45.9309" lon="4.80295">
        <ele>169</ele>
        <time>2017-09-27T09:31:50Z</time>
      </trkpt>
      <trkpt lat="45.93086" lon="4.803">
        <ele>169</ele>
        <time>2017-09-27T09:31:51Z</time>
      </trkpt>
      <trkpt lat="45.93084" lon="4.80308">
        <ele>169</ele>
        <time>2017-09-27T09:31:52Z</time>
      </trkpt>
      <trkpt lat="45.93081" lon="4.80316">
        <ele>169</ele>
        <time>2017-09-27T09:31:53Z</time>
      </trkpt>
      <trkpt lat="45.93079" lon="4.80324">
        <ele>169</ele>
        <time>2017-09-27T09:31:54Z</time>
      </trkpt>
      <trkpt lat="45.93076" lon="4.80332">
        <ele>169</ele>
        <time>2017-09-27T09:31:55Z</time>
      </trkpt>
      <trkpt lat="45.93074" lon="4.8034">
        <ele>169</ele>
        <time>2017-09-27T09:31:56Z</time>
      </trkpt>
      <trkpt lat="45.93071" lon="4.80347">
        <ele>169</ele>
        <time>2017-09-27T09:31:57Z</time>
      </trkpt>
      <trkpt lat="45.93069" lon="4.80354">
        <ele>170</ele>
        <time>2017-09-27T09:31:58Z</time>
      </trkpt>
      <trkpt lat="45.93066" lon="4.80361">
        <ele>170</ele>
        <time>2017-09-27T09:31:59Z</time>
      </trkpt>
      <trkpt lat="45.93064" lon="4.80368">
        <ele>170</ele>
        <time>2017-09-27T09:32:00Z</time>
      </trkpt>
      <trkpt lat="45.93062" lon="4.80376">
        <ele>170</ele>
        <time>2017-09-27T09:32:01Z</time>
      </trkpt>
      <trkpt lat="45.93059" lon="4.80382">
        <ele>170</ele>
        <time>2017-09-27T09:32:02Z</time>
      </trkpt>
      <trkpt lat="45.93057" lon="4.80389">
        <ele>170</ele>
        <time>2017-09-27T09:32:03Z</time>
      </trkpt>
      <trkpt lat="45.93056" lon="4.80395">
        <ele>170</ele>
        <time>2017-09-27T09:32:04Z</time>
      </trkpt>
      <trkpt lat="45.93054" lon="4.80402">
        <ele>170</ele>
        <time>2017-09-27T09:32:05Z</time>
      </trkpt>
      <trkpt lat="45.93052" lon="4.80408">
        <ele>170</ele>
        <time>2017-09-27T09:32:06Z</time>
      </trkpt>
      <trkpt lat="45.9305" lon="4.80415">
        <ele>170</ele>
        <time>2017-09-27T09:32:07Z</time>
      </trkpt>
      <trkpt lat="45.93048" lon="4.80421">
        <ele>171</ele>
        <time>2017-09-27T09:32:08Z</time>
      </trkpt>
      <trkpt lat="45.93046" lon="4.80428">
        <ele>171</ele>
        <time>2017-09-27T09:32:09Z</time>
      </trkpt>
      <trkpt lat="45.93043" lon="4.80434">
        <ele>171</ele>
        <time>2017-09-27T09:32:10Z</time>
      </trkpt>
      <trkpt lat="45.93041" lon="4.8044">
        <ele>171</ele>
        <time>2017-09-27T09:32:11Z</time>
      </trkpt>
      <trkpt lat="45.93039" lon="4.80446">
        <ele>171</ele>
        <time>2017-09-27T09:32:12Z</time>
      </trkpt>
      <trkpt lat="45.93037" lon="4.80452">
        <ele>171</ele>
        <time>2017-09-27T09:32:13Z</time>
      </trkpt>
      <trkpt lat="45.93034" lon="4.8046">
        <ele>171</ele>
        <time>2017-09-27T09:32:14Z</time>
      </trkpt>
      <trkpt lat="45.93032" lon="4.80467">
        <ele>171</ele>
        <time>2017-09-27T09:32:15Z</time>
      </trkpt>
      <trkpt lat="45.93029" lon="4.80475">
        <ele>171</ele>
        <time>2017-09-27T09:32:16Z</time>
      </trkpt>
      <trkpt lat="45.93026" lon="4.80482">
        <ele>171</ele>
        <time>2017-09-27T09:32:17Z</time>
      </trkpt>
      <trkpt lat="45.93023" lon="4.8049">
        <ele>171</ele>
        <time>2017-09-27T09:32:18Z</time>
      </trkpt>
      <trkpt lat="45.93021" lon="4.80496">
        <ele>171</ele>
        <time>2017-09-27T09:32:19Z</time>
      </trkpt>
      <trkpt lat="45.93019" lon="4.80502">
        <ele>171</ele>
        <time>2017-09-27T09:32:20Z</time>
      </trkpt>
      <trkpt lat="45.93017" lon="4.80509">
        <ele>171</ele>
        <time>2017-09-27T09:32:21Z</time>
      </trkpt>
      <trkpt lat="45.93015" lon="4.80515">
        <ele>171</ele>
        <time>2017-09-27T09:32:22Z</time>
      </trkpt>
      <trkpt lat="45.93011" lon="4.80527">
        <ele>172</ele>
        <time>2017-09-27T09:32:24Z</time>
      </trkpt>
      <trkpt lat="45.93009" lon="4.80533">
        <ele>172</ele>
        <time>2017-09-27T09:32:25Z</time>
      </trkpt>
      <trkpt lat="45.93005" lon="4.80544">
        <ele>172</ele>
        <time>2017-09-27T09:32:27Z</time>
      </trkpt>
      <trkpt lat="45.93002" lon="4.80551">
        <ele>172</ele>
        <time>2017-09-27T09:32:28Z</time>
      </trkpt>
      <trkpt lat="45.93" lon="4.80557">
        <ele>171</ele>
        <time>2017-09-27T09:32:29Z</time>
      </trkpt>
      <trkpt lat="45.92998" lon="4.80565">
        <ele>171</ele>
        <time>2017-09-27T09:32:30Z</time>
      </trkpt>
      <trkpt lat="45.92996" lon="4.80572">
        <ele>172</ele>
        <time>2017-09-27T09:32:31Z</time>
      </trkpt>
      <trkpt lat="45.92993" lon="4.8058">
        <ele>172</ele>
        <time>2017-09-27T09:32:32Z</time>
      </trkpt>
      <trkpt lat="45.92991" lon="4.80586">
        <ele>172</ele>
        <time>2017-09-27T09:32:33Z</time>
      </trkpt>
      <trkpt lat="45.92989" lon="4.80592">
        <ele>172</ele>
        <time>2017-09-27T09:32:34Z</time>
      </trkpt>
      <trkpt lat="45.92987" lon="4.80599">
        <ele>172</ele>
        <time>2017-09-27T09:32:35Z</time>
      </trkpt>
      <trkpt lat="45.92985" lon="4.80605">
        <ele>172</ele>
        <time>2017-09-27T09:32:36Z</time>
      </trkpt>
      <trkpt lat="45.92983" lon="4.80612">
        <ele>172</ele>
        <time>2017-09-27T09:32:37Z</time>
      </trkpt>
      <trkpt lat="45.92981" lon="4.8062">
        <ele>172</ele>
        <time>2017-09-27T09:32:38Z</time>
      </trkpt>
      <trkpt lat="45.92979" lon="4.80628">
        <ele>172</ele>
        <time>2017-09-27T09:32:39Z</time>
      </trkpt>
      <trkpt lat="45.92977" lon="4.80636">
        <ele>172</ele>
        <time>2017-09-27T09:32:40Z</time>
      </trkpt>
      <trkpt lat="45.92974" lon="4.80642">
        <ele>172</ele>
        <time>2017-09-27T09:32:41Z</time>
      </trkpt>
      <trkpt lat="45.92971" lon="4.8065">
        <ele>172</ele>
        <time>2017-09-27T09:32:42Z</time>
      </trkpt>
      <trkpt lat="45.92969" lon="4.80658">
        <ele>172</ele>
        <time>2017-09-27T09:32:43Z</time>
      </trkpt>
      <trkpt lat="45.92966" lon="4.80665">
        <ele>172</ele>
        <time>2017-09-27T09:32:44Z</time>
      </trkpt>
      <trkpt lat="45.92964" lon="4.80673">
        <ele>172</ele>
        <time>2017-09-27T09:32:45Z</time>
      </trkpt>
      <trkpt lat="45.92961" lon="4.80681">
        <ele>172</ele>
        <time>2017-09-27T09:32:46Z</time>
      </trkpt>
      <trkpt lat="45.92959" lon="4.80688">
        <ele>172</ele>
        <time>2017-09-27T09:32:47Z</time>
      </trkpt>
      <trkpt lat="45.92957" lon="4.80695">
        <ele>172</ele>
        <time>2017-09-27T09:32:48Z</time>
      </trkpt>
      <trkpt lat="45.92954" lon="4.80701">
        <ele>172</ele>
        <time>2017-09-27T09:32:49Z</time>
      </trkpt>
      <trkpt lat="45.92952" lon="4.80708">
        <ele>172</ele>
        <time>2017-09-27T09:32:50Z</time>
      </trkpt>
      <trkpt lat="45.9295" lon="4.80715">
        <ele>172</ele>
        <time>2017-09-27T09:32:51Z</time>
      </trkpt>
      <trkpt lat="45.92948" lon="4.80721">
        <ele>172</ele>
        <time>2017-09-27T09:32:52Z</time>
      </trkpt>
      <trkpt lat="45.92946" lon="4.80728">
        <ele>172</ele>
        <time>2017-09-27T09:32:53Z</time>
      </trkpt>
      <trkpt lat="45.92944" lon="4.80735">
        <ele>172</ele>
        <time>2017-09-27T09:32:54Z</time>
      </trkpt>
      <trkpt lat="45.92942" lon="4.80743">
        <ele>172</ele>
        <time>2017-09-27T09:32:55Z</time>
      </trkpt>
      <trkpt lat="45.92939" lon="4.8075">
        <ele>172</ele>
        <time>2017-09-27T09:32:56Z</time>
      </trkpt>
      <trkpt lat="45.92937" lon="4.80758">
        <ele>172</ele>
        <time>2017-09-27T09:32:57Z</time>
      </trkpt>
      <trkpt lat="45.92934" lon="4.80765">
        <ele>172</ele>
        <time>2017-09-27T09:32:58Z</time>
      </trkpt>
      <trkpt lat="45.92932" lon="4.80772">
        <ele>172</ele>
        <time>2017-09-27T09:32:59Z</time>
      </trkpt>
      <trkpt lat="45.92929" lon="4.80779">
        <ele>172</ele>
        <time>2017-09-27T09:33:00Z</time>
      </trkpt>
      <trkpt lat="45.92926" lon="4.80786">
        <ele>172</ele>
        <time>2017-09-27T09:33:01Z</time>
      </trkpt>
      <trkpt lat="45.92924" lon="4.80792">
        <ele>172</ele>
        <time>2017-09-27T09:33:02Z</time>
      </trkpt>
      <trkpt lat="45.92922" lon="4.80799">
        <ele>172</ele>
        <time>2017-09-27T09:33:03Z</time>
      </trkpt>
      <trkpt lat="45.9292" lon="4.80806">
        <ele>172</ele>
        <time>2017-09-27T09:33:04Z</time>
      </trkpt>
      <trkpt lat="45.92917" lon="4.80812">
        <ele>172</ele>
        <time>2017-09-27T09:33:05Z</time>
      </trkpt>
      <trkpt lat="45.92916" lon="4.80819">
        <ele>172</ele>
        <time>2017-09-27T09:33:06Z</time>
      </trkpt>
      <trkpt lat="45.92913" lon="4.80826">
        <ele>172</ele>
        <time>2017-09-27T09:33:07Z</time>
      </trkpt>
      <trkpt lat="45.9291" lon="4.80833">
        <ele>172</ele>
        <time>2017-09-27T09:33:08Z</time>
      </trkpt>
      <trkpt lat="45.92907" lon="4.80839">
        <ele>171</ele>
        <time>2017-09-27T09:33:09Z</time>
      </trkpt>
      <trkpt lat="45.92905" lon="4.80847">
        <ele>171</ele>
        <time>2017-09-27T09:33:10Z</time>
      </trkpt>
      <trkpt lat="45.92902" lon="4.80854">
        <ele>171</ele>
        <time>2017-09-27T09:33:11Z</time>
      </trkpt>
      <trkpt lat="45.929" lon="4.80862">
        <ele>171</ele>
        <time>2017-09-27T09:33:12Z</time>
      </trkpt>
      <trkpt lat="45.92898" lon="4.80869">
        <ele>171</ele>
        <time>2017-09-27T09:33:13Z</time>
      </trkpt>
      <trkpt lat="45.92896" lon="4.80876">
        <ele>171</ele>
        <time>2017-09-27T09:33:14Z</time>
      </trkpt>
      <trkpt lat="45.92893" lon="4.80883">
        <ele>171</ele>
        <time>2017-09-27T09:33:15Z</time>
      </trkpt>
      <trkpt lat="45.92891" lon="4.8089">
        <ele>170</ele>
        <time>2017-09-27T09:33:16Z</time>
      </trkpt>
      <trkpt lat="45.92889" lon="4.80898">
        <ele>170</ele>
        <time>2017-09-27T09:33:17Z</time>
      </trkpt>
      <trkpt lat="45.92887" lon="4.80905">
        <ele>170</ele>
        <time>2017-09-27T09:33:18Z</time>
      </trkpt>
      <trkpt lat="45.92885" lon="4.80911">
        <ele>170</ele>
        <time>2017-09-27T09:33:19Z</time>
      </trkpt>
      <trkpt lat="45.92884" lon="4.80922">
        <ele>170</ele>
        <time>2017-09-27T09:33:20Z</time>
      </trkpt>
      <trkpt lat="45.92881" lon="4.80929">
        <ele>170</ele>
        <time>2017-09-27T09:33:21Z</time>
      </trkpt>
      <trkpt lat="45.92879" lon="4.80938">
        <ele>170</ele>
        <time>2017-09-27T09:33:22Z</time>
      </trkpt>
      <trkpt lat="45.92875" lon="4.80946">
        <ele>170</ele>
        <time>2017-09-27T09:33:23Z</time>
      </trkpt>
      <trkpt lat="45.92873" lon="4.80954">
        <ele>170</ele>
        <time>2017-09-27T09:33:24Z</time>
      </trkpt>
      <trkpt lat="45.9287" lon="4.80961">
        <ele>169</ele>
        <time>2017-09-27T09:33:25Z</time>
      </trkpt>
      <trkpt lat="45.92867" lon="4.80969">
        <ele>169</ele>
        <time>2017-09-27T09:33:26Z</time>
      </trkpt>
      <trkpt lat="45.92865" lon="4.80976">
        <ele>169</ele>
        <time>2017-09-27T09:33:27Z</time>
      </trkpt>
      <trkpt lat="45.92862" lon="4.80984">
        <ele>169</ele>
        <time>2017-09-27T09:33:28Z</time>
      </trkpt>
      <trkpt lat="45.92859" lon="4.80989">
        <ele>169</ele>
        <time>2017-09-27T09:33:29Z</time>
      </trkpt>
      <trkpt lat="45.92856" lon="4.80995">
        <ele>169</ele>
        <time>2017-09-27T09:33:30Z</time>
      </trkpt>
      <trkpt lat="45.92853" lon="4.81002">
        <ele>169</ele>
        <time>2017-09-27T09:33:31Z</time>
      </trkpt>
      <trkpt lat="45.92851" lon="4.81009">
        <ele>169</ele>
        <time>2017-09-27T09:33:32Z</time>
      </trkpt>
      <trkpt lat="45.92847" lon="4.81015">
        <ele>169</ele>
        <time>2017-09-27T09:33:33Z</time>
      </trkpt>
      <trkpt lat="45.92844" lon="4.81021">
        <ele>169</ele>
        <time>2017-09-27T09:33:34Z</time>
      </trkpt>
      <trkpt lat="45.92841" lon="4.81027">
        <ele>169</ele>
        <time>2017-09-27T09:33:35Z</time>
      </trkpt>
      <trkpt lat="45.92838" lon="4.81035">
        <ele>169</ele>
        <time>2017-09-27T09:33:36Z</time>
      </trkpt>
      <trkpt lat="45.92835" lon="4.81042">
        <ele>169</ele>
        <time>2017-09-27T09:33:37Z</time>
      </trkpt>
      <trkpt lat="45.92831" lon="4.81048">
        <ele>169</ele>
        <time>2017-09-27T09:33:38Z</time>
      </trkpt>
      <trkpt lat="45.92827" lon="4.81054">
        <ele>169</ele>
        <time>2017-09-27T09:33:39Z</time>
      </trkpt>
      <trkpt lat="45.92823" lon="4.8106">
        <ele>169</ele>
        <time>2017-09-27T09:33:40Z</time>
      </trkpt>
      <trkpt lat="45.92819" lon="4.81066">
        <ele>169</ele>
        <time>2017-09-27T09:33:41Z</time>
      </trkpt>
      <trkpt lat="45.92815" lon="4.81072">
        <ele>169</ele>
        <time>2017-09-27T09:33:42Z</time>
      </trkpt>
      <trkpt lat="45.92811" lon="4.81078">
        <ele>169</ele>
        <time>2017-09-27T09:33:43Z</time>
      </trkpt>
      <trkpt lat="45.92807" lon="4.81083">
        <ele>169</ele>
        <time>2017-09-27T09:33:44Z</time>
      </trkpt>
      <trkpt lat="45.92804" lon="4.81089">
        <ele>170</ele>
        <time>2017-09-27T09:33:45Z</time>
      </trkpt>
      <trkpt lat="45.928" lon="4.81094">
        <ele>170</ele>
        <time>2017-09-27T09:33:46Z</time>
      </trkpt>
      <trkpt lat="45.92797" lon="4.81098">
        <ele>170</ele>
        <time>2017-09-27T09:33:47Z</time>
      </trkpt>
      <trkpt lat="45.92794" lon="4.81104">
        <ele>170</ele>
        <time>2017-09-27T09:33:48Z</time>
      </trkpt>
      <trkpt lat="45.92791" lon="4.8111">
        <ele>170</ele>
        <time>2017-09-27T09:33:49Z</time>
      </trkpt>
      <trkpt lat="45.92787" lon="4.81115">
        <ele>170</ele>
        <time>2017-09-27T09:33:50Z</time>
      </trkpt>
      <trkpt lat="45.92783" lon="4.81119">
        <ele>170</ele>
        <time>2017-09-27T09:33:51Z</time>
      </trkpt>
      <trkpt lat="45.9278" lon="4.81123">
        <ele>170</ele>
        <time>2017-09-27T09:33:52Z</time>
      </trkpt>
      <trkpt lat="45.92772" lon="4.81128">
        <ele>170</ele>
        <time>2017-09-27T09:33:54Z</time>
      </trkpt>
      <trkpt lat="45.92768" lon="4.81129">
        <ele>170</ele>
        <time>2017-09-27T09:33:55Z</time>
      </trkpt>
      <trkpt lat="45.92761" lon="4.81133">
        <ele>170</ele>
        <time>2017-09-27T09:33:57Z</time>
      </trkpt>
      <trkpt lat="45.92757" lon="4.81136">
        <ele>170</ele>
        <time>2017-09-27T09:33:58Z</time>
      </trkpt>
      <trkpt lat="45.92749" lon="4.81142">
        <ele>170</ele>
        <time>2017-09-27T09:34:00Z</time>
      </trkpt>
      <trkpt lat="45.92745" lon="4.81147">
        <ele>170</ele>
        <time>2017-09-27T09:34:01Z</time>
      </trkpt>
      <trkpt lat="45.9274" lon="4.81151">
        <ele>170</ele>
        <time>2017-09-27T09:34:02Z</time>
      </trkpt>
      <trkpt lat="45.92736" lon="4.81153">
        <ele>170</ele>
        <time>2017-09-27T09:34:03Z</time>
      </trkpt>
      <trkpt lat="45.9273" lon="4.81155">
        <ele>170</ele>
        <time>2017-09-27T09:34:04Z</time>
      </trkpt>
      <trkpt lat="45.92725" lon="4.81157">
        <ele>170</ele>
        <time>2017-09-27T09:34:05Z</time>
      </trkpt>
      <trkpt lat="45.9272" lon="4.81159">
        <ele>170</ele>
        <time>2017-09-27T09:34:06Z</time>
      </trkpt>
      <trkpt lat="45.92714" lon="4.81161">
        <ele>170</ele>
        <time>2017-09-27T09:34:07Z</time>
      </trkpt>
      <trkpt lat="45.92708" lon="4.81162">
        <ele>171</ele>
        <time>2017-09-27T09:34:08Z</time>
      </trkpt>
      <trkpt lat="45.92702" lon="4.81163">
        <ele>171</ele>
        <time>2017-09-27T09:34:09Z</time>
      </trkpt>
      <trkpt lat="45.92696" lon="4.81165">
        <ele>171</ele>
        <time>2017-09-27T09:34:10Z</time>
      </trkpt>
      <trkpt lat="45.9269" lon="4.81166">
        <ele>171</ele>
        <time>2017-09-27T09:34:11Z</time>
      </trkpt>
      <trkpt lat="45.92684" lon="4.81167">
        <ele>171</ele>
        <time>2017-09-27T09:34:12Z</time>
      </trkpt>
      <trkpt lat="45.92678" lon="4.81167">
        <ele>171</ele>
        <time>2017-09-27T09:34:13Z</time>
      </trkpt>
      <trkpt lat="45.92673" lon="4.81169">
        <ele>171</ele>
        <time>2017-09-27T09:34:14Z</time>
      </trkpt>
      <trkpt lat="45.92668" lon="4.81169">
        <ele>171</ele>
        <time>2017-09-27T09:34:15Z</time>
      </trkpt>
      <trkpt lat="45.92662" lon="4.8117">
        <ele>171</ele>
        <time>2017-09-27T09:34:16Z</time>
      </trkpt>
      <trkpt lat="45.92658" lon="4.81171">
        <ele>171</ele>
        <time>2017-09-27T09:34:17Z</time>
      </trkpt>
      <trkpt lat="45.92652" lon="4.81172">
        <ele>171</ele>
        <time>2017-09-27T09:34:18Z</time>
      </trkpt>
      <trkpt lat="45.92647" lon="4.81173">
        <ele>171</ele>
        <time>2017-09-27T09:34:19Z</time>
      </trkpt>
      <trkpt lat="45.92642" lon="4.81173">
        <ele>171</ele>
        <time>2017-09-27T09:34:20Z</time>
      </trkpt>
      <trkpt lat="45.92637" lon="4.81174">
        <ele>171</ele>
        <time>2017-09-27T09:34:21Z</time>
      </trkpt>
      <trkpt lat="45.92631" lon="4.81174">
        <ele>171</ele>
        <time>2017-09-27T09:34:22Z</time>
      </trkpt>
      <trkpt lat="45.92625" lon="4.81175">
        <ele>170</ele>
        <time>2017-09-27T09:34:23Z</time>
      </trkpt>
      <trkpt lat="45.92619" lon="4.81176">
        <ele>170</ele>
        <time>2017-09-27T09:34:24Z</time>
      </trkpt>
      <trkpt lat="45.92612" lon="4.81176">
        <ele>170</ele>
        <time>2017-09-27T09:34:25Z</time>
      </trkpt>
      <trkpt lat="45.92606" lon="4.81177">
        <ele>170</ele>
        <time>2017-09-27T09:34:26Z</time>
      </trkpt>
      <trkpt lat="45.926" lon="4.81177">
        <ele>170</ele>
        <time>2017-09-27T09:34:27Z</time>
      </trkpt>
      <trkpt lat="45.92594" lon="4.81177">
        <ele>170</ele>
        <time>2017-09-27T09:34:28Z</time>
      </trkpt>
      <trkpt lat="45.92588" lon="4.81177">
        <ele>170</ele>
        <time>2017-09-27T09:34:29Z</time>
      </trkpt>
      <trkpt lat="45.92581" lon="4.81178">
        <ele>170</ele>
        <time>2017-09-27T09:34:30Z</time>
      </trkpt>
      <trkpt lat="45.92575" lon="4.81179">
        <ele>170</ele>
        <time>2017-09-27T09:34:31Z</time>
      </trkpt>
      <trkpt lat="45.92569" lon="4.81179">
        <ele>170</ele>
        <time>2017-09-27T09:34:32Z</time>
      </trkpt>
      <trkpt lat="45.92563" lon="4.81179">
        <ele>170</ele>
        <time>2017-09-27T09:34:33Z</time>
      </trkpt>
      <trkpt lat="45.92557" lon="4.8118">
        <ele>170</ele>
        <time>2017-09-27T09:34:34Z</time>
      </trkpt>
      <trkpt lat="45.92552" lon="4.81181">
        <ele>170</ele>
        <time>2017-09-27T09:34:35Z</time>
      </trkpt>
      <trkpt lat="45.92547" lon="4.81182">
        <ele>170</ele>
        <time>2017-09-27T09:34:36Z</time>
      </trkpt>
      <trkpt lat="45.92541" lon="4.81182">
        <ele>171</ele>
        <time>2017-09-27T09:34:37Z</time>
      </trkpt>
      <trkpt lat="45.92534" lon="4.81183">
        <ele>171</ele>
        <time>2017-09-27T09:34:38Z</time>
      </trkpt>
      <trkpt lat="45.92529" lon="4.81184">
        <ele>171</ele>
        <time>2017-09-27T09:34:39Z</time>
      </trkpt>
      <trkpt lat="45.92523" lon="4.81183">
        <ele>171</ele>
        <time>2017-09-27T09:34:40Z</time>
      </trkpt>
      <trkpt lat="45.92518" lon="4.81183">
        <ele>171</ele>
        <time>2017-09-27T09:34:41Z</time>
      </trkpt>
      <trkpt lat="45.92512" lon="4.81183">
        <ele>171</ele>
        <time>2017-09-27T09:34:42Z</time>
      </trkpt>
      <trkpt lat="45.92507" lon="4.81182">
        <ele>171</ele>
        <time>2017-09-27T09:34:43Z</time>
      </trkpt>
      <trkpt lat="45.92502" lon="4.81183">
        <ele>171</ele>
        <time>2017-09-27T09:34:44Z</time>
      </trkpt>
      <trkpt lat="45.92496" lon="4.81184">
        <ele>171</ele>
        <time>2017-09-27T09:34:45Z</time>
      </trkpt>
      <trkpt lat="45.9249" lon="4.81184">
        <ele>171</ele>
        <time>2017-09-27T09:34:46Z</time>
      </trkpt>
      <trkpt lat="45.92484" lon="4.81184">
        <ele>171</ele>
        <time>2017-09-27T09:34:47Z</time>
      </trkpt>
      <trkpt lat="45.92477" lon="4.81185">
        <ele>171</ele>
        <time>2017-09-27T09:34:48Z</time>
      </trkpt>
      <trkpt lat="45.92472" lon="4.81185">
        <ele>171</ele>
        <time>2017-09-27T09:34:49Z</time>
      </trkpt>
      <trkpt lat="45.92466" lon="4.81186">
        <ele>171</ele>
        <time>2017-09-27T09:34:50Z</time>
      </trkpt>
      <trkpt lat="45.9246" lon="4.81187">
        <ele>171</ele>
        <time>2017-09-27T09:34:51Z</time>
      </trkpt>
      <trkpt lat="45.92455" lon="4.81187">
        <ele>171</ele>
        <time>2017-09-27T09:34:52Z</time>
      </trkpt>
      <trkpt lat="45.9245" lon="4.81188">
        <ele>171</ele>
        <time>2017-09-27T09:34:53Z</time>
      </trkpt>
      <trkpt lat="45.92445" lon="4.81189">
        <ele>171</ele>
        <time>2017-09-27T09:34:54Z</time>
      </trkpt>
      <trkpt lat="45.92441" lon="4.81189">
        <ele>171</ele>
        <time>2017-09-27T09:34:55Z</time>
      </trkpt>
      <trkpt lat="45.92432" lon="4.81189">
        <ele>171</ele>
        <time>2017-09-27T09:34:57Z</time>
      </trkpt>
      <trkpt lat="45.92428" lon="4.8119">
        <ele>171</ele>
        <time>2017-09-27T09:34:58Z</time>
      </trkpt>
      <trkpt lat="45.92423" lon="4.8119">
        <ele>171</ele>
        <time>2017-09-27T09:34:59Z</time>
      </trkpt>
      <trkpt lat="45.92419" lon="4.81191">
        <ele>171</ele>
        <time>2017-09-27T09:35:00Z</time>
      </trkpt>
      <trkpt lat="45.92414" lon="4.81193">
        <ele>170</ele>
        <time>2017-09-27T09:35:01Z</time>
      </trkpt>
      <trkpt lat="45.92409" lon="4.81195">
        <ele>170</ele>
        <time>2017-09-27T09:35:02Z</time>
      </trkpt>
      <trkpt lat="45.92404" lon="4.81197">
        <ele>170</ele>
        <time>2017-09-27T09:35:03Z</time>
      </trkpt>
      <trkpt lat="45.924" lon="4.812">
        <ele>170</ele>
        <time>2017-09-27T09:35:04Z</time>
      </trkpt>
      <trkpt lat="45.92394" lon="4.81202">
        <ele>170</ele>
        <time>2017-09-27T09:35:05Z</time>
      </trkpt>
      <trkpt lat="45.92389" lon="4.81205">
        <ele>170</ele>
        <time>2017-09-27T09:35:06Z</time>
      </trkpt>
      <trkpt lat="45.92384" lon="4.81207">
        <ele>170</ele>
        <time>2017-09-27T09:35:07Z</time>
      </trkpt>
      <trkpt lat="45.9238" lon="4.81211">
        <ele>170</ele>
        <time>2017-09-27T09:35:08Z</time>
      </trkpt>
      <trkpt lat="45.92374" lon="4.81214">
        <ele>170</ele>
        <time>2017-09-27T09:35:09Z</time>
      </trkpt>
      <trkpt lat="45.92369" lon="4.81218">
        <ele>170</ele>
        <time>2017-09-27T09:35:10Z</time>
      </trkpt>
      <trkpt lat="45.92364" lon="4.81221">
        <ele>170</ele>
        <time>2017-09-27T09:35:11Z</time>
      </trkpt>
      <trkpt lat="45.92358" lon="4.81224">
        <ele>170</ele>
        <time>2017-09-27T09:35:12Z</time>
      </trkpt>
      <trkpt lat="45.92353" lon="4.81228">
        <ele>169</ele>
        <time>2017-09-27T09:35:13Z</time>
      </trkpt>
      <trkpt lat="45.92348" lon="4.81231">
        <ele>169</ele>
        <time>2017-09-27T09:35:14Z</time>
      </trkpt>
      <trkpt lat="45.92343" lon="4.81233">
        <ele>169</ele>
        <time>2017-09-27T09:35:15Z</time>
      </trkpt>
      <trkpt lat="45.92339" lon="4.81236">
        <ele>169</ele>
        <time>2017-09-27T09:35:16Z</time>
      </trkpt>
      <trkpt lat="45.92335" lon="4.81239">
        <ele>169</ele>
        <time>2017-09-27T09:35:17Z</time>
      </trkpt>
      <trkpt lat="45.9233" lon="4.81242">
        <ele>169</ele>
        <time>2017-09-27T09:35:18Z</time>
      </trkpt>
      <trkpt lat="45.92326" lon="4.81245">
        <ele>169</ele>
        <time>2017-09-27T09:35:19Z</time>
      </trkpt>
      <trkpt lat="45.92321" lon="4.81248">
        <ele>169</ele>
        <time>2017-09-27T09:35:20Z</time>
      </trkpt>
      <trkpt lat="45.92317" lon="4.81251">
        <ele>170</ele>
        <time>2017-09-27T09:35:21Z</time>
      </trkpt>
      <trkpt lat="45.92312" lon="4.81254">
        <ele>170</ele>
        <time>2017-09-27T09:35:22Z</time>
      </trkpt>
      <trkpt lat="45.92307" lon="4.81257">
        <ele>170</ele>
        <time>2017-09-27T09:35:23Z</time>
      </trkpt>
      <trkpt lat="45.92302" lon="4.8126">
        <ele>170</ele>
        <time>2017-09-27T09:35:24Z</time>
      </trkpt>
      <trkpt lat="45.92296" lon="4.81265">
        <ele>170</ele>
        <time>2017-09-27T09:35:25Z</time>
      </trkpt>
      <trkpt lat="45.92291" lon="4.81268">
        <ele>170</ele>
        <time>2017-09-27T09:35:26Z</time>
      </trkpt>
      <trkpt lat="45.92286" lon="4.81271">
        <ele>170</ele>
        <time>2017-09-27T09:35:27Z</time>
      </trkpt>
      <trkpt lat="45.92281" lon="4.81275">
        <ele>170</ele>
        <time>2017-09-27T09:35:28Z</time>
      </trkpt>
      <trkpt lat="45.92277" lon="4.81278">
        <ele>170</ele>
        <time>2017-09-27T09:35:29Z</time>
      </trkpt>
      <trkpt lat="45.92273" lon="4.81281">
        <ele>170</ele>
        <time>2017-09-27T09:35:30Z</time>
      </trkpt>
      <trkpt lat="45.92268" lon="4.81284">
        <ele>170</ele>
        <time>2017-09-27T09:35:31Z</time>
      </trkpt>
      <trkpt lat="45.92264" lon="4.81286">
        <ele>170</ele>
        <time>2017-09-27T09:35:32Z</time>
      </trkpt>
      <trkpt lat="45.9226" lon="4.81289">
        <ele>170</ele>
        <time>2017-09-27T09:35:33Z</time>
      </trkpt>
      <trkpt lat="45.92256" lon="4.81291">
        <ele>171</ele>
        <time>2017-09-27T09:35:34Z</time>
      </trkpt>
      <trkpt lat="45.92251" lon="4.81294">
        <ele>171</ele>
        <time>2017-09-27T09:35:35Z</time>
      </trkpt>
      <trkpt lat="45.92247" lon="4.81297">
        <ele>171</ele>
        <time>2017-09-27T09:35:36Z</time>
      </trkpt>
      <trkpt lat="45.92242" lon="4.81301">
        <ele>171</ele>
        <time>2017-09-27T09:35:37Z</time>
      </trkpt>
      <trkpt lat="45.92238" lon="4.81305">
        <ele>171</ele>
        <time>2017-09-27T09:35:38Z</time>
      </trkpt>
      <trkpt lat="45.92233" lon="4.81308">
        <ele>171</ele>
        <time>2017-09-27T09:35:39Z</time>
      </trkpt>
      <trkpt lat="45.92228" lon="4.81313">
        <ele>171</ele>
        <time>2017-09-27T09:35:40Z</time>
      </trkpt>
      <trkpt lat="45.92223" lon="4.81317">
        <ele>171</ele>
        <time>2017-09-27T09:35:41Z</time>
      </trkpt>
      <trkpt lat="45.92218" lon="4.81319">
        <ele>171</ele>
        <time>2017-09-27T09:35:42Z</time>
      </trkpt>
      <trkpt lat="45.92214" lon="4.81322">
        <ele>171</ele>
        <time>2017-09-27T09:35:43Z</time>
      </trkpt>
      <trkpt lat="45.92209" lon="4.81326">
        <ele>171</ele>
        <time>2017-09-27T09:35:44Z</time>
      </trkpt>
      <trkpt lat="45.92205" lon="4.81329">
        <ele>170</ele>
        <time>2017-09-27T09:35:45Z</time>
      </trkpt>
      <trkpt lat="45.92201" lon="4.81332">
        <ele>170</ele>
        <time>2017-09-27T09:35:46Z</time>
      </trkpt>
      <trkpt lat="45.92193" lon="4.81337">
        <ele>170</ele>
        <time>2017-09-27T09:35:48Z</time>
      </trkpt>
      <trkpt lat="45.92189" lon="4.81339">
        <ele>170</ele>
        <time>2017-09-27T09:35:49Z</time>
      </trkpt>
      <trkpt lat="45.92181" lon="4.81342">
        <ele>170</ele>
        <time>2017-09-27T09:35:51Z</time>
      </trkpt>
      <trkpt lat="45.92176" lon="4.81343">
        <ele>170</ele>
        <time>2017-09-27T09:35:52Z</time>
      </trkpt>
      <trkpt lat="45.92172" lon="4.81346">
        <ele>170</ele>
        <time>2017-09-27T09:35:53Z</time>
      </trkpt>
      <trkpt lat="45.92168" lon="4.81351">
        <ele>170</ele>
        <time>2017-09-27T09:35:54Z</time>
      </trkpt>
      <trkpt lat="45.92165" lon="4.81355">
        <ele>170</ele>
        <time>2017-09-27T09:35:55Z</time>
      </trkpt>
      <trkpt lat="45.92162" lon="4.81361">
        <ele>170</ele>
        <time>2017-09-27T09:35:56Z</time>
      </trkpt>
      <trkpt lat="45.92158" lon="4.81364">
        <ele>170</ele>
        <time>2017-09-27T09:35:57Z</time>
      </trkpt>
      <trkpt lat="45.92153" lon="4.81367">
        <ele>170</ele>
        <time>2017-09-27T09:35:58Z</time>
      </trkpt>
      <trkpt lat="45.92149" lon="4.81368">
        <ele>170</ele>
        <time>2017-09-27T09:35:59Z</time>
      </trkpt>
      <trkpt lat="45.92144" lon="4.81369">
        <ele>170</ele>
        <time>2017-09-27T09:36:00Z</time>
      </trkpt>
      <trkpt lat="45.92139" lon="4.81371">
        <ele>170</ele>
        <time>2017-09-27T09:36:01Z</time>
      </trkpt>
      <trkpt lat="45.92133" lon="4.81372">
        <ele>170</ele>
        <time>2017-09-27T09:36:02Z</time>
      </trkpt>
      <trkpt lat="45.92128" lon="4.81373">
        <ele>170</ele>
        <time>2017-09-27T09:36:03Z</time>
      </trkpt>
      <trkpt lat="45.92122" lon="4.81375">
        <ele>170</ele>
        <time>2017-09-27T09:36:04Z</time>
      </trkpt>
      <trkpt lat="45.92117" lon="4.81377">
        <ele>170</ele>
        <time>2017-09-27T09:36:05Z</time>
      </trkpt>
      <trkpt lat="45.92112" lon="4.81379">
        <ele>170</ele>
        <time>2017-09-27T09:36:06Z</time>
      </trkpt>
      <trkpt lat="45.92107" lon="4.81382">
        <ele>170</ele>
        <time>2017-09-27T09:36:07Z</time>
      </trkpt>
      <trkpt lat="45.92103" lon="4.81384">
        <ele>170</ele>
        <time>2017-09-27T09:36:08Z</time>
      </trkpt>
      <trkpt lat="45.92098" lon="4.81386">
        <ele>170</ele>
        <time>2017-09-27T09:36:09Z</time>
      </trkpt>
      <trkpt lat="45.92094" lon="4.81389">
        <ele>170</ele>
        <time>2017-09-27T09:36:10Z</time>
      </trkpt>
      <trkpt lat="45.92089" lon="4.81392">
        <ele>170</ele>
        <time>2017-09-27T09:36:11Z</time>
      </trkpt>
      <trkpt lat="45.92083" lon="4.81395">
        <ele>169</ele>
        <time>2017-09-27T09:36:12Z</time>
      </trkpt>
      <trkpt lat="45.92078" lon="4.81398">
        <ele>169</ele>
        <time>2017-09-27T09:36:13Z</time>
      </trkpt>
      <trkpt lat="45.92073" lon="4.81402">
        <ele>169</ele>
        <time>2017-09-27T09:36:14Z</time>
      </trkpt>
      <trkpt lat="45.92068" lon="4.81405">
        <ele>169</ele>
        <time>2017-09-27T09:36:15Z</time>
      </trkpt>
      <trkpt lat="45.92062" lon="4.81408">
        <ele>169</ele>
        <time>2017-09-27T09:36:16Z</time>
      </trkpt>
      <trkpt lat="45.92058" lon="4.8141">
        <ele>169</ele>
        <time>2017-09-27T09:36:17Z</time>
      </trkpt>
      <trkpt lat="45.92054" lon="4.81412">
        <ele>169</ele>
        <time>2017-09-27T09:36:18Z</time>
      </trkpt>
      <trkpt lat="45.92049" lon="4.81415">
        <ele>169</ele>
        <time>2017-09-27T09:36:19Z</time>
      </trkpt>
      <trkpt lat="45.92045" lon="4.81418">
        <ele>170</ele>
        <time>2017-09-27T09:36:20Z</time>
      </trkpt>
      <trkpt lat="45.92041" lon="4.81421">
        <ele>170</ele>
        <time>2017-09-27T09:36:21Z</time>
      </trkpt>
      <trkpt lat="45.92036" lon="4.81424">
        <ele>170</ele>
        <time>2017-09-27T09:36:22Z</time>
      </trkpt>
      <trkpt lat="45.92031" lon="4.81427">
        <ele>170</ele>
        <time>2017-09-27T09:36:23Z</time>
      </trkpt>
      <trkpt lat="45.92025" lon="4.81429">
        <ele>170</ele>
        <time>2017-09-27T09:36:24Z</time>
      </trkpt>
      <trkpt lat="45.92019" lon="4.81433">
        <ele>170</ele>
        <time>2017-09-27T09:36:25Z</time>
      </trkpt>
      <trkpt lat="45.92014" lon="4.81435">
        <ele>170</ele>
        <time>2017-09-27T09:36:26Z</time>
      </trkpt>
      <trkpt lat="45.92009" lon="4.81438">
        <ele>170</ele>
        <time>2017-09-27T09:36:27Z</time>
      </trkpt>
      <trkpt lat="45.92003" lon="4.8144">
        <ele>170</ele>
        <time>2017-09-27T09:36:28Z</time>
      </trkpt>
      <trkpt lat="45.91998" lon="4.81443">
        <ele>170</ele>
        <time>2017-09-27T09:36:29Z</time>
      </trkpt>
      <trkpt lat="45.91994" lon="4.81445">
        <ele>170</ele>
        <time>2017-09-27T09:36:30Z</time>
      </trkpt>
      <trkpt lat="45.91989" lon="4.81448">
        <ele>170</ele>
        <time>2017-09-27T09:36:31Z</time>
      </trkpt>
      <trkpt lat="45.91985" lon="4.81449">
        <ele>170</ele>
        <time>2017-09-27T09:36:32Z</time>
      </trkpt>
      <trkpt lat="45.91981" lon="4.81451">
        <ele>170</ele>
        <time>2017-09-27T09:36:33Z</time>
      </trkpt>
      <trkpt lat="45.91975" lon="4.81453">
        <ele>170</ele>
        <time>2017-09-27T09:36:34Z</time>
      </trkpt>
      <trkpt lat="45.91969" lon="4.81455">
        <ele>170</ele>
        <time>2017-09-27T09:36:35Z</time>
      </trkpt>
      <trkpt lat="45.91963" lon="4.81457">
        <ele>170</ele>
        <time>2017-09-27T09:36:36Z</time>
      </trkpt>
      <trkpt lat="45.91957" lon="4.81459">
        <ele>170</ele>
        <time>2017-09-27T09:36:37Z</time>
      </trkpt>
      <trkpt lat="45.91952" lon="4.81462">
        <ele>170</ele>
        <time>2017-09-27T09:36:38Z</time>
      </trkpt>
      <trkpt lat="45.91947" lon="4.81464">
        <ele>170</ele>
        <time>2017-09-27T09:36:39Z</time>
      </trkpt>
      <trkpt lat="45.91939" lon="4.81466">
        <ele>170</ele>
        <time>2017-09-27T09:36:40Z</time>
      </trkpt>
      <trkpt lat="45.91934" lon="4.81468">
        <ele>170</ele>
        <time>2017-09-27T09:36:41Z</time>
      </trkpt>
      <trkpt lat="45.91929" lon="4.8147">
        <ele>170</ele>
        <time>2017-09-27T09:36:42Z</time>
      </trkpt>
      <trkpt lat="45.91924" lon="4.81471">
        <ele>170</ele>
        <time>2017-09-27T09:36:43Z</time>
      </trkpt>
      <trkpt lat="45.91919" lon="4.81472">
        <ele>170</ele>
        <time>2017-09-27T09:36:44Z</time>
      </trkpt>
      <trkpt lat="45.91914" lon="4.81474">
        <ele>169</ele>
        <time>2017-09-27T09:36:45Z</time>
      </trkpt>
      <trkpt lat="45.91909" lon="4.81477">
        <ele>169</ele>
        <time>2017-09-27T09:36:46Z</time>
      </trkpt>
      <trkpt lat="45.91903" lon="4.81479">
        <ele>169</ele>
        <time>2017-09-27T09:36:47Z</time>
      </trkpt>
      <trkpt lat="45.91898" lon="4.81482">
        <ele>169</ele>
        <time>2017-09-27T09:36:48Z</time>
      </trkpt>
      <trkpt lat="45.91891" lon="4.81483">
        <ele>169</ele>
        <time>2017-09-27T09:36:49Z</time>
      </trkpt>
      <trkpt lat="45.91885" lon="4.81485">
        <ele>169</ele>
        <time>2017-09-27T09:36:50Z</time>
      </trkpt>
      <trkpt lat="45.91879" lon="4.81487">
        <ele>169</ele>
        <time>2017-09-27T09:36:51Z</time>
      </trkpt>
      <trkpt lat="45.91874" lon="4.8149">
        <ele>169</ele>
        <time>2017-09-27T09:36:52Z</time>
      </trkpt>
      <trkpt lat="45.91868" lon="4.81491">
        <ele>169</ele>
        <time>2017-09-27T09:36:53Z</time>
      </trkpt>
      <trkpt lat="45.91863" lon="4.81493">
        <ele>169</ele>
        <time>2017-09-27T09:36:54Z</time>
      </trkpt>
      <trkpt lat="45.91857" lon="4.81495">
        <ele>169</ele>
        <time>2017-09-27T09:36:55Z</time>
      </trkpt>
      <trkpt lat="45.91852" lon="4.81497">
        <ele>168</ele>
        <time>2017-09-27T09:36:56Z</time>
      </trkpt>
      <trkpt lat="45.91847" lon="4.81499">
        <ele>168</ele>
        <time>2017-09-27T09:36:57Z</time>
      </trkpt>
      <trkpt lat="45.91843" lon="4.81501">
        <ele>168</ele>
        <time>2017-09-27T09:36:58Z</time>
      </trkpt>
      <trkpt lat="45.91838" lon="4.81502">
        <ele>168</ele>
        <time>2017-09-27T09:36:59Z</time>
      </trkpt>
      <trkpt lat="45.91833" lon="4.81504">
        <ele>168</ele>
        <time>2017-09-27T09:37:00Z</time>
      </trkpt>
      <trkpt lat="45.91829" lon="4.81506">
        <ele>168</ele>
        <time>2017-09-27T09:37:01Z</time>
      </trkpt>
      <trkpt lat="45.91824" lon="4.81508">
        <ele>168</ele>
        <time>2017-09-27T09:37:02Z</time>
      </trkpt>
      <trkpt lat="45.91819" lon="4.8151">
        <ele>168</ele>
        <time>2017-09-27T09:37:03Z</time>
      </trkpt>
      <trkpt lat="45.91813" lon="4.81511">
        <ele>168</ele>
        <time>2017-09-27T09:37:04Z</time>
      </trkpt>
      <trkpt lat="45.91808" lon="4.81515">
        <ele>168</ele>
        <time>2017-09-27T09:37:05Z</time>
      </trkpt>
      <trkpt lat="45.91802" lon="4.81518">
        <ele>168</ele>
        <time>2017-09-27T09:37:06Z</time>
      </trkpt>
      <trkpt lat="45.91796" lon="4.81519">
        <ele>168</ele>
        <time>2017-09-27T09:37:07Z</time>
      </trkpt>
      <trkpt lat="45.9179" lon="4.81521">
        <ele>169</ele>
        <time>2017-09-27T09:37:08Z</time>
      </trkpt>
      <trkpt lat="45.91784" lon="4.81522">
        <ele>169</ele>
        <time>2017-09-27T09:37:09Z</time>
      </trkpt>
      <trkpt lat="45.91779" lon="4.81524">
        <ele>169</ele>
        <time>2017-09-27T09:37:10Z</time>
      </trkpt>
      <trkpt lat="45.91773" lon="4.81526">
        <ele>169</ele>
        <time>2017-09-27T09:37:11Z</time>
      </trkpt>
      <trkpt lat="45.91768" lon="4.81528">
        <ele>169</ele>
        <time>2017-09-27T09:37:12Z</time>
      </trkpt>
      <trkpt lat="45.91762" lon="4.8153">
        <ele>169</ele>
        <time>2017-09-27T09:37:13Z</time>
      </trkpt>
      <trkpt lat="45.91758" lon="4.81532">
        <ele>169</ele>
        <time>2017-09-27T09:37:14Z</time>
      </trkpt>
      <trkpt lat="45.91753" lon="4.81535">
        <ele>169</ele>
        <time>2017-09-27T09:37:15Z</time>
      </trkpt>
      <trkpt lat="45.91748" lon="4.81537">
        <ele>169</ele>
        <time>2017-09-27T09:37:16Z</time>
      </trkpt>
      <trkpt lat="45.91742" lon="4.81537">
        <ele>169</ele>
        <time>2017-09-27T09:37:17Z</time>
      </trkpt>
      <trkpt lat="45.91738" lon="4.81537">
        <ele>169</ele>
        <time>2017-09-27T09:37:18Z</time>
      </trkpt>
      <trkpt lat="45.91733" lon="4.81539">
        <ele>169</ele>
        <time>2017-09-27T09:37:19Z</time>
      </trkpt>
      <trkpt lat="45.91728" lon="4.81541">
        <ele>169</ele>
        <time>2017-09-27T09:37:20Z</time>
      </trkpt>
      <trkpt lat="45.91722" lon="4.81543">
        <ele>169</ele>
        <time>2017-09-27T09:37:21Z</time>
      </trkpt>
      <trkpt lat="45.91716" lon="4.81546">
        <ele>169</ele>
        <time>2017-09-27T09:37:22Z</time>
      </trkpt>
      <trkpt lat="45.91709" lon="4.81549">
        <ele>169</ele>
        <time>2017-09-27T09:37:23Z</time>
      </trkpt>
      <trkpt lat="45.91702" lon="4.81551">
        <ele>169</ele>
        <time>2017-09-27T09:37:24Z</time>
      </trkpt>
      <trkpt lat="45.91696" lon="4.81551">
        <ele>169</ele>
        <time>2017-09-27T09:37:25Z</time>
      </trkpt>
      <trkpt lat="45.9169" lon="4.81553">
        <ele>169</ele>
        <time>2017-09-27T09:37:26Z</time>
      </trkpt>
      <trkpt lat="45.91684" lon="4.81555">
        <ele>169</ele>
        <time>2017-09-27T09:37:27Z</time>
      </trkpt>
      <trkpt lat="45.91678" lon="4.81557">
        <ele>170</ele>
        <time>2017-09-27T09:37:28Z</time>
      </trkpt>
      <trkpt lat="45.91673" lon="4.81559">
        <ele>170</ele>
        <time>2017-09-27T09:37:29Z</time>
      </trkpt>
      <trkpt lat="45.91667" lon="4.81559">
        <ele>170</ele>
        <time>2017-09-27T09:37:30Z</time>
      </trkpt>
      <trkpt lat="45.91661" lon="4.8156">
        <ele>170</ele>
        <time>2017-09-27T09:37:31Z</time>
      </trkpt>
      <trkpt lat="45.91656" lon="4.81562">
        <ele>170</ele>
        <time>2017-09-27T09:37:32Z</time>
      </trkpt>
      <trkpt lat="45.9165" lon="4.81562">
        <ele>170</ele>
        <time>2017-09-27T09:37:33Z</time>
      </trkpt>
      <trkpt lat="45.91644" lon="4.81564">
        <ele>170</ele>
        <time>2017-09-27T09:37:34Z</time>
      </trkpt>
      <trkpt lat="45.91638" lon="4.81565">
        <ele>170</ele>
        <time>2017-09-27T09:37:35Z</time>
      </trkpt>
      <trkpt lat="45.91632" lon="4.81566">
        <ele>170</ele>
        <time>2017-09-27T09:37:36Z</time>
      </trkpt>
      <trkpt lat="45.91626" lon="4.81567">
        <ele>170</ele>
        <time>2017-09-27T09:37:37Z</time>
      </trkpt>
      <trkpt lat="45.9162" lon="4.81569">
        <ele>170</ele>
        <time>2017-09-27T09:37:38Z</time>
      </trkpt>
      <trkpt lat="45.91615" lon="4.8157">
        <ele>170</ele>
        <time>2017-09-27T09:37:39Z</time>
      </trkpt>
      <trkpt lat="45.9161" lon="4.8157">
        <ele>170</ele>
        <time>2017-09-27T09:37:40Z</time>
      </trkpt>
      <trkpt lat="45.91604" lon="4.8157">
        <ele>170</ele>
        <time>2017-09-27T09:37:41Z</time>
      </trkpt>
      <trkpt lat="45.91599" lon="4.81572">
        <ele>170</ele>
        <time>2017-09-27T09:37:42Z</time>
      </trkpt>
      <trkpt lat="45.91595" lon="4.81573">
        <ele>170</ele>
        <time>2017-09-27T09:37:43Z</time>
      </trkpt>
      <trkpt lat="45.9159" lon="4.81575">
        <ele>170</ele>
        <time>2017-09-27T09:37:44Z</time>
      </trkpt>
      <trkpt lat="45.91585" lon="4.81575">
        <ele>170</ele>
        <time>2017-09-27T09:37:45Z</time>
      </trkpt>
      <trkpt lat="45.9158" lon="4.81575">
        <ele>170</ele>
        <time>2017-09-27T09:37:46Z</time>
      </trkpt>
      <trkpt lat="45.91575" lon="4.81576">
        <ele>170</ele>
        <time>2017-09-27T09:37:47Z</time>
      </trkpt>
      <trkpt lat="45.91569" lon="4.81578">
        <ele>170</ele>
        <time>2017-09-27T09:37:48Z</time>
      </trkpt>
      <trkpt lat="45.91564" lon="4.81579">
        <ele>170</ele>
        <time>2017-09-27T09:37:49Z</time>
      </trkpt>
      <trkpt lat="45.91558" lon="4.81579">
        <ele>170</ele>
        <time>2017-09-27T09:37:50Z</time>
      </trkpt>
      <trkpt lat="45.91552" lon="4.81581">
        <ele>169</ele>
        <time>2017-09-27T09:37:51Z</time>
      </trkpt>
      <trkpt lat="45.91546" lon="4.81582">
        <ele>169</ele>
        <time>2017-09-27T09:37:52Z</time>
      </trkpt>
      <trkpt lat="45.9154" lon="4.81583">
        <ele>169</ele>
        <time>2017-09-27T09:37:53Z</time>
      </trkpt>
      <trkpt lat="45.91534" lon="4.81584">
        <ele>170</ele>
        <time>2017-09-27T09:37:54Z</time>
      </trkpt>
      <trkpt lat="45.9153" lon="4.81584">
        <ele>170</ele>
        <time>2017-09-27T09:37:55Z</time>
      </trkpt>
      <trkpt lat="45.91524" lon="4.81585">
        <ele>170</ele>
        <time>2017-09-27T09:37:56Z</time>
      </trkpt>
      <trkpt lat="45.91519" lon="4.81586">
        <ele>170</ele>
        <time>2017-09-27T09:37:57Z</time>
      </trkpt>
      <trkpt lat="45.91514" lon="4.81587">
        <ele>169</ele>
        <time>2017-09-27T09:37:58Z</time>
      </trkpt>
      <trkpt lat="45.91509" lon="4.81589">
        <ele>169</ele>
        <time>2017-09-27T09:37:59Z</time>
      </trkpt>
      <trkpt lat="45.91504" lon="4.81589">
        <ele>169</ele>
        <time>2017-09-27T09:38:00Z</time>
      </trkpt>
      <trkpt lat="45.91499" lon="4.81591">
        <ele>169</ele>
        <time>2017-09-27T09:38:01Z</time>
      </trkpt>
      <trkpt lat="45.91493" lon="4.81592">
        <ele>169</ele>
        <time>2017-09-27T09:38:02Z</time>
      </trkpt>
      <trkpt lat="45.91487" lon="4.81593">
        <ele>169</ele>
        <time>2017-09-27T09:38:03Z</time>
      </trkpt>
      <trkpt lat="45.91481" lon="4.81594">
        <ele>169</ele>
        <time>2017-09-27T09:38:04Z</time>
      </trkpt>
      <trkpt lat="45.91475" lon="4.81595">
        <ele>169</ele>
        <time>2017-09-27T09:38:05Z</time>
      </trkpt>
      <trkpt lat="45.91469" lon="4.81595">
        <ele>170</ele>
        <time>2017-09-27T09:38:06Z</time>
      </trkpt>
      <trkpt lat="45.91464" lon="4.81597">
        <ele>170</ele>
        <time>2017-09-27T09:38:07Z</time>
      </trkpt>
      <trkpt lat="45.91458" lon="4.81596">
        <ele>170</ele>
        <time>2017-09-27T09:38:08Z</time>
      </trkpt>
      <trkpt lat="45.91453" lon="4.81598">
        <ele>170</ele>
        <time>2017-09-27T09:38:09Z</time>
      </trkpt>
      <trkpt lat="45.91447" lon="4.81598">
        <ele>170</ele>
        <time>2017-09-27T09:38:10Z</time>
      </trkpt>
      <trkpt lat="45.91442" lon="4.81598">
        <ele>169</ele>
        <time>2017-09-27T09:38:11Z</time>
      </trkpt>
      <trkpt lat="45.91437" lon="4.81598">
        <ele>169</ele>
        <time>2017-09-27T09:38:12Z</time>
      </trkpt>
      <trkpt lat="45.91432" lon="4.81599">
        <ele>169</ele>
        <time>2017-09-27T09:38:13Z</time>
      </trkpt>
      <trkpt lat="45.91427" lon="4.816">
        <ele>169</ele>
        <time>2017-09-27T09:38:14Z</time>
      </trkpt>
      <trkpt lat="45.91422" lon="4.816">
        <ele>169</ele>
        <time>2017-09-27T09:38:15Z</time>
      </trkpt>
      <trkpt lat="45.91418" lon="4.816">
        <ele>169</ele>
        <time>2017-09-27T09:38:16Z</time>
      </trkpt>
      <trkpt lat="45.91413" lon="4.81601">
        <ele>169</ele>
        <time>2017-09-27T09:38:17Z</time>
      </trkpt>
      <trkpt lat="45.91408" lon="4.81602">
        <ele>169</ele>
        <time>2017-09-27T09:38:18Z</time>
      </trkpt>
      <trkpt lat="45.91402" lon="4.81601">
        <ele>169</ele>
        <time>2017-09-27T09:38:19Z</time>
      </trkpt>
      <trkpt lat="45.91397" lon="4.81602">
        <ele>170</ele>
        <time>2017-09-27T09:38:20Z</time>
      </trkpt>
      <trkpt lat="45.91391" lon="4.81602">
        <ele>170</ele>
        <time>2017-09-27T09:38:21Z</time>
      </trkpt>
      <trkpt lat="45.91385" lon="4.81603">
        <ele>170</ele>
        <time>2017-09-27T09:38:22Z</time>
      </trkpt>
      <trkpt lat="45.91379" lon="4.81603">
        <ele>170</ele>
        <time>2017-09-27T09:38:23Z</time>
      </trkpt>
      <trkpt lat="45.91374" lon="4.81604">
        <ele>170</ele>
        <time>2017-09-27T09:38:24Z</time>
      </trkpt>
      <trkpt lat="45.91368" lon="4.81603">
        <ele>170</ele>
        <time>2017-09-27T09:38:25Z</time>
      </trkpt>
      <trkpt lat="45.91364" lon="4.81604">
        <ele>170</ele>
        <time>2017-09-27T09:38:26Z</time>
      </trkpt>
      <trkpt lat="45.91358" lon="4.81604">
        <ele>170</ele>
        <time>2017-09-27T09:38:27Z</time>
      </trkpt>
      <trkpt lat="45.91353" lon="4.81605">
        <ele>170</ele>
        <time>2017-09-27T09:38:28Z</time>
      </trkpt>
      <trkpt lat="45.91347" lon="4.81604">
        <ele>170</ele>
        <time>2017-09-27T09:38:29Z</time>
      </trkpt>
      <trkpt lat="45.91342" lon="4.81604">
        <ele>170</ele>
        <time>2017-09-27T09:38:30Z</time>
      </trkpt>
      <trkpt lat="45.91336" lon="4.81604">
        <ele>170</ele>
        <time>2017-09-27T09:38:31Z</time>
      </trkpt>
      <trkpt lat="45.9133" lon="4.81604">
        <ele>170</ele>
        <time>2017-09-27T09:38:32Z</time>
      </trkpt>
      <trkpt lat="45.91324" lon="4.81604">
        <ele>170</ele>
        <time>2017-09-27T09:38:33Z</time>
      </trkpt>
      <trkpt lat="45.91319" lon="4.81604">
        <ele>170</ele>
        <time>2017-09-27T09:38:34Z</time>
      </trkpt>
      <trkpt lat="45.91313" lon="4.81605">
        <ele>170</ele>
        <time>2017-09-27T09:38:35Z</time>
      </trkpt>
      <trkpt lat="45.91308" lon="4.81605">
        <ele>170</ele>
        <time>2017-09-27T09:38:36Z</time>
      </trkpt>
      <trkpt lat="45.91303" lon="4.81605">
        <ele>170</ele>
        <time>2017-09-27T09:38:37Z</time>
      </trkpt>
      <trkpt lat="45.91298" lon="4.81605">
        <ele>170</ele>
        <time>2017-09-27T09:38:38Z</time>
      </trkpt>
      <trkpt lat="45.91294" lon="4.81605">
        <ele>170</ele>
        <time>2017-09-27T09:38:39Z</time>
      </trkpt>
      <trkpt lat="45.91289" lon="4.81606">
        <ele>170</ele>
        <time>2017-09-27T09:38:40Z</time>
      </trkpt>
      <trkpt lat="45.91284" lon="4.81607">
        <ele>170</ele>
        <time>2017-09-27T09:38:41Z</time>
      </trkpt>
      <trkpt lat="45.91279" lon="4.81608">
        <ele>170</ele>
        <time>2017-09-27T09:38:42Z</time>
      </trkpt>
      <trkpt lat="45.91273" lon="4.81607">
        <ele>170</ele>
        <time>2017-09-27T09:38:43Z</time>
      </trkpt>
      <trkpt lat="45.91269" lon="4.81607">
        <ele>170</ele>
        <time>2017-09-27T09:38:44Z</time>
      </trkpt>
      <trkpt lat="45.91264" lon="4.81606">
        <ele>170</ele>
        <time>2017-09-27T09:38:45Z</time>
      </trkpt>
      <trkpt lat="45.91259" lon="4.81606">
        <ele>170</ele>
        <time>2017-09-27T09:38:46Z</time>
      </trkpt>
      <trkpt lat="45.91251" lon="4.81606">
        <ele>170</ele>
        <time>2017-09-27T09:38:48Z</time>
      </trkpt>
      <trkpt lat="45.91246" lon="4.81606">
        <ele>170</ele>
        <time>2017-09-27T09:38:49Z</time>
      </trkpt>
      <trkpt lat="45.91242" lon="4.81606">
        <ele>170</ele>
        <time>2017-09-27T09:38:50Z</time>
      </trkpt>
      <trkpt lat="45.91237" lon="4.81606">
        <ele>170</ele>
        <time>2017-09-27T09:38:51Z</time>
      </trkpt>
      <trkpt lat="45.91231" lon="4.81606">
        <ele>170</ele>
        <time>2017-09-27T09:38:52Z</time>
      </trkpt>
      <trkpt lat="45.91226" lon="4.81606">
        <ele>170</ele>
        <time>2017-09-27T09:38:53Z</time>
      </trkpt>
      <trkpt lat="45.91218" lon="4.81605">
        <ele>170</ele>
        <time>2017-09-27T09:38:55Z</time>
      </trkpt>
      <trkpt lat="45.91213" lon="4.81605">
        <ele>170</ele>
        <time>2017-09-27T09:38:56Z</time>
      </trkpt>
      <trkpt lat="45.91208" lon="4.81606">
        <ele>170</ele>
        <time>2017-09-27T09:38:57Z</time>
      </trkpt>
      <trkpt lat="45.91204" lon="4.81606">
        <ele>170</ele>
        <time>2017-09-27T09:38:58Z</time>
      </trkpt>
      <trkpt lat="45.91198" lon="4.81605">
        <ele>170</ele>
        <time>2017-09-27T09:38:59Z</time>
      </trkpt>
      <trkpt lat="45.91193" lon="4.81605">
        <ele>170</ele>
        <time>2017-09-27T09:39:00Z</time>
      </trkpt>
      <trkpt lat="45.91187" lon="4.81604">
        <ele>170</ele>
        <time>2017-09-27T09:39:01Z</time>
      </trkpt>
      <trkpt lat="45.91182" lon="4.81605">
        <ele>170</ele>
        <time>2017-09-27T09:39:02Z</time>
      </trkpt>
      <trkpt lat="45.91177" lon="4.81606">
        <ele>170</ele>
        <time>2017-09-27T09:39:03Z</time>
      </trkpt>
      <trkpt lat="45.91172" lon="4.81605">
        <ele>170</ele>
        <time>2017-09-27T09:39:04Z</time>
      </trkpt>
      <trkpt lat="45.91166" lon="4.81606">
        <ele>170</ele>
        <time>2017-09-27T09:39:05Z</time>
      </trkpt>
      <trkpt lat="45.91161" lon="4.81606">
        <ele>170</ele>
        <time>2017-09-27T09:39:06Z</time>
      </trkpt>
      <trkpt lat="45.91156" lon="4.81606">
        <ele>170</ele>
        <time>2017-09-27T09:39:07Z</time>
      </trkpt>
      <trkpt lat="45.91152" lon="4.81606">
        <ele>170</ele>
        <time>2017-09-27T09:39:08Z</time>
      </trkpt>
      <trkpt lat="45.91147" lon="4.81606">
        <ele>170</ele>
        <time>2017-09-27T09:39:09Z</time>
      </trkpt>
      <trkpt lat="45.91143" lon="4.81606">
        <ele>170</ele>
        <time>2017-09-27T09:39:10Z</time>
      </trkpt>
      <trkpt lat="45.91137" lon="4.81605">
        <ele>170</ele>
        <time>2017-09-27T09:39:11Z</time>
      </trkpt>
      <trkpt lat="45.91132" lon="4.81605">
        <ele>170</ele>
        <time>2017-09-27T09:39:12Z</time>
      </trkpt>
      <trkpt lat="45.91127" lon="4.81605">
        <ele>170</ele>
        <time>2017-09-27T09:39:13Z</time>
      </trkpt>
      <trkpt lat="45.91121" lon="4.81605">
        <ele>170</ele>
        <time>2017-09-27T09:39:14Z</time>
      </trkpt>
      <trkpt lat="45.91115" lon="4.81606">
        <ele>170</ele>
        <time>2017-09-27T09:39:15Z</time>
      </trkpt>
      <trkpt lat="45.91109" lon="4.81605">
        <ele>170</ele>
        <time>2017-09-27T09:39:16Z</time>
      </trkpt>
      <trkpt lat="45.91103" lon="4.81605">
        <ele>169</ele>
        <time>2017-09-27T09:39:17Z</time>
      </trkpt>
      <trkpt lat="45.91097" lon="4.81606">
        <ele>169</ele>
        <time>2017-09-27T09:39:18Z</time>
      </trkpt>
      <trkpt lat="45.91091" lon="4.81605">
        <ele>169</ele>
        <time>2017-09-27T09:39:19Z</time>
      </trkpt>
      <trkpt lat="45.91086" lon="4.81604">
        <ele>169</ele>
        <time>2017-09-27T09:39:20Z</time>
      </trkpt>
      <trkpt lat="45.91081" lon="4.81604">
        <ele>169</ele>
        <time>2017-09-27T09:39:21Z</time>
      </trkpt>
      <trkpt lat="45.91075" lon="4.81604">
        <ele>169</ele>
        <time>2017-09-27T09:39:22Z</time>
      </trkpt>
      <trkpt lat="45.91071" lon="4.81603">
        <ele>169</ele>
        <time>2017-09-27T09:39:23Z</time>
      </trkpt>
      <trkpt lat="45.91065" lon="4.81603">
        <ele>169</ele>
        <time>2017-09-27T09:39:24Z</time>
      </trkpt>
      <trkpt lat="45.91059" lon="4.81601">
        <ele>169</ele>
        <time>2017-09-27T09:39:25Z</time>
      </trkpt>
      <trkpt lat="45.91053" lon="4.81601">
        <ele>169</ele>
        <time>2017-09-27T09:39:26Z</time>
      </trkpt>
      <trkpt lat="45.91047" lon="4.816">
        <ele>169</ele>
        <time>2017-09-27T09:39:27Z</time>
      </trkpt>
      <trkpt lat="45.91042" lon="4.81599">
        <ele>169</ele>
        <time>2017-09-27T09:39:28Z</time>
      </trkpt>
      <trkpt lat="45.91036" lon="4.81598">
        <ele>169</ele>
        <time>2017-09-27T09:39:29Z</time>
      </trkpt>
      <trkpt lat="45.9103" lon="4.81597">
        <ele>169</ele>
        <time>2017-09-27T09:39:30Z</time>
      </trkpt>
      <trkpt lat="45.91025" lon="4.81596">
        <ele>169</ele>
        <time>2017-09-27T09:39:31Z</time>
      </trkpt>
      <trkpt lat="45.9102" lon="4.81595">
        <ele>169</ele>
        <time>2017-09-27T09:39:32Z</time>
      </trkpt>
      <trkpt lat="45.91014" lon="4.81593">
        <ele>169</ele>
        <time>2017-09-27T09:39:33Z</time>
      </trkpt>
      <trkpt lat="45.91008" lon="4.81593">
        <ele>169</ele>
        <time>2017-09-27T09:39:34Z</time>
      </trkpt>
      <trkpt lat="45.91002" lon="4.81593">
        <ele>169</ele>
        <time>2017-09-27T09:39:35Z</time>
      </trkpt>
      <trkpt lat="45.90996" lon="4.81592">
        <ele>169</ele>
        <time>2017-09-27T09:39:36Z</time>
      </trkpt>
      <trkpt lat="45.9099" lon="4.81591">
        <ele>169</ele>
        <time>2017-09-27T09:39:37Z</time>
      </trkpt>
      <trkpt lat="45.90985" lon="4.8159">
        <ele>169</ele>
        <time>2017-09-27T09:39:38Z</time>
      </trkpt>
      <trkpt lat="45.9098" lon="4.81589">
        <ele>169</ele>
        <time>2017-09-27T09:39:39Z</time>
      </trkpt>
      <trkpt lat="45.90975" lon="4.81588">
        <ele>169</ele>
        <time>2017-09-27T09:39:40Z</time>
      </trkpt>
      <trkpt lat="45.9097" lon="4.81587">
        <ele>169</ele>
        <time>2017-09-27T09:39:41Z</time>
      </trkpt>
      <trkpt lat="45.90965" lon="4.81586">
        <ele>169</ele>
        <time>2017-09-27T09:39:42Z</time>
      </trkpt>
      <trkpt lat="45.9096" lon="4.81585">
        <ele>169</ele>
        <time>2017-09-27T09:39:43Z</time>
      </trkpt>
      <trkpt lat="45.90955" lon="4.81584">
        <ele>169</ele>
        <time>2017-09-27T09:39:44Z</time>
      </trkpt>
      <trkpt lat="45.9095" lon="4.81582">
        <ele>169</ele>
        <time>2017-09-27T09:39:45Z</time>
      </trkpt>
      <trkpt lat="45.90946" lon="4.81582">
        <ele>169</ele>
        <time>2017-09-27T09:39:46Z</time>
      </trkpt>
      <trkpt lat="45.9094" lon="4.81582">
        <ele>170</ele>
        <time>2017-09-27T09:39:47Z</time>
      </trkpt>
      <trkpt lat="45.90935" lon="4.81581">
        <ele>170</ele>
        <time>2017-09-27T09:39:48Z</time>
      </trkpt>
      <trkpt lat="45.9093" lon="4.8158">
        <ele>170</ele>
        <time>2017-09-27T09:39:49Z</time>
      </trkpt>
      <trkpt lat="45.90924" lon="4.81579">
        <ele>170</ele>
        <time>2017-09-27T09:39:50Z</time>
      </trkpt>
      <trkpt lat="45.90918" lon="4.81579">
        <ele>170</ele>
        <time>2017-09-27T09:39:51Z</time>
      </trkpt>
      <trkpt lat="45.90911" lon="4.81578">
        <ele>170</ele>
        <time>2017-09-27T09:39:52Z</time>
      </trkpt>
      <trkpt lat="45.90905" lon="4.81577">
        <ele>170</ele>
        <time>2017-09-27T09:39:53Z</time>
      </trkpt>
      <trkpt lat="45.90899" lon="4.81576">
        <ele>170</ele>
        <time>2017-09-27T09:39:54Z</time>
      </trkpt>
      <trkpt lat="45.90894" lon="4.81575">
        <ele>170</ele>
        <time>2017-09-27T09:39:55Z</time>
      </trkpt>
      <trkpt lat="45.90888" lon="4.81575">
        <ele>170</ele>
        <time>2017-09-27T09:39:56Z</time>
      </trkpt>
      <trkpt lat="45.90881" lon="4.81575">
        <ele>171</ele>
        <time>2017-09-27T09:39:57Z</time>
      </trkpt>
      <trkpt lat="45.90876" lon="4.81575">
        <ele>171</ele>
        <time>2017-09-27T09:39:58Z</time>
      </trkpt>
      <trkpt lat="45.9087" lon="4.81575">
        <ele>171</ele>
        <time>2017-09-27T09:39:59Z</time>
      </trkpt>
      <trkpt lat="45.90865" lon="4.81575">
        <ele>171</ele>
        <time>2017-09-27T09:40:00Z</time>
      </trkpt>
      <trkpt lat="45.9086" lon="4.81575">
        <ele>171</ele>
        <time>2017-09-27T09:40:01Z</time>
      </trkpt>
      <trkpt lat="45.90854" lon="4.81575">
        <ele>171</ele>
        <time>2017-09-27T09:40:02Z</time>
      </trkpt>
      <trkpt lat="45.90849" lon="4.81575">
        <ele>172</ele>
        <time>2017-09-27T09:40:03Z</time>
      </trkpt>
      <trkpt lat="45.90845" lon="4.81576">
        <ele>172</ele>
        <time>2017-09-27T09:40:04Z</time>
      </trkpt>
      <trkpt lat="45.9084" lon="4.81576">
        <ele>172</ele>
        <time>2017-09-27T09:40:05Z</time>
      </trkpt>
      <trkpt lat="45.90835" lon="4.81576">
        <ele>172</ele>
        <time>2017-09-27T09:40:06Z</time>
      </trkpt>
      <trkpt lat="45.90829" lon="4.81576">
        <ele>173</ele>
        <time>2017-09-27T09:40:07Z</time>
      </trkpt>
      <trkpt lat="45.90823" lon="4.81576">
        <ele>173</ele>
        <time>2017-09-27T09:40:08Z</time>
      </trkpt>
      <trkpt lat="45.90818" lon="4.81576">
        <ele>173</ele>
        <time>2017-09-27T09:40:09Z</time>
      </trkpt>
      <trkpt lat="45.90812" lon="4.81575">
        <ele>172</ele>
        <time>2017-09-27T09:40:10Z</time>
      </trkpt>
      <trkpt lat="45.90807" lon="4.81575">
        <ele>172</ele>
        <time>2017-09-27T09:40:11Z</time>
      </trkpt>
      <trkpt lat="45.90802" lon="4.81575">
        <ele>172</ele>
        <time>2017-09-27T09:40:12Z</time>
      </trkpt>
      <trkpt lat="45.90797" lon="4.81576">
        <ele>172</ele>
        <time>2017-09-27T09:40:13Z</time>
      </trkpt>
      <trkpt lat="45.90792" lon="4.81577">
        <ele>173</ele>
        <time>2017-09-27T09:40:14Z</time>
      </trkpt>
      <trkpt lat="45.90784" lon="4.81578">
        <ele>173</ele>
        <time>2017-09-27T09:40:16Z</time>
      </trkpt>
      <trkpt lat="45.90779" lon="4.81577">
        <ele>173</ele>
        <time>2017-09-27T09:40:17Z</time>
      </trkpt>
      <trkpt lat="45.90774" lon="4.81577">
        <ele>173</ele>
        <time>2017-09-27T09:40:18Z</time>
      </trkpt>
      <trkpt lat="45.90769" lon="4.81577">
        <ele>173</ele>
        <time>2017-09-27T09:40:19Z</time>
      </trkpt>
      <trkpt lat="45.9076" lon="4.81577">
        <ele>173</ele>
        <time>2017-09-27T09:40:21Z</time>
      </trkpt>
      <trkpt lat="45.90757" lon="4.81577">
        <ele>173</ele>
        <time>2017-09-27T09:40:22Z</time>
      </trkpt>
      <trkpt lat="45.90749" lon="4.81576">
        <ele>174</ele>
        <time>2017-09-27T09:40:26Z</time>
      </trkpt>
      <trkpt lat="45.90747" lon="4.81576">
        <ele>174</ele>
        <time>2017-09-27T09:40:27Z</time>
      </trkpt>
      <trkpt lat="45.90741" lon="4.81573">
        <ele>174</ele>
        <time>2017-09-27T09:40:30Z</time>
      </trkpt>
      <trkpt lat="45.90738" lon="4.81574">
        <ele>175</ele>
        <time>2017-09-27T09:40:31Z</time>
      </trkpt>
      <trkpt lat="45.90732" lon="4.81575">
        <ele>175</ele>
        <time>2017-09-27T09:40:33Z</time>
      </trkpt>
      <trkpt lat="45.90728" lon="4.81575">
        <ele>175</ele>
        <time>2017-09-27T09:40:34Z</time>
      </trkpt>
      <trkpt lat="45.90722" lon="4.81576">
        <ele>175</ele>
        <time>2017-09-27T09:40:36Z</time>
      </trkpt>
      <trkpt lat="45.90718" lon="4.81576">
        <ele>175</ele>
        <time>2017-09-27T09:40:37Z</time>
      </trkpt>
      <trkpt lat="45.90711" lon="4.81578">
        <ele>175</ele>
        <time>2017-09-27T09:40:39Z</time>
      </trkpt>
      <trkpt lat="45.90708" lon="4.81578">
        <ele>176</ele>
        <time>2017-09-27T09:40:40Z</time>
      </trkpt>
      <trkpt lat="45.90699" lon="4.81579">
        <ele>176</ele>
        <time>2017-09-27T09:40:43Z</time>
      </trkpt>
      <trkpt lat="45.90696" lon="4.81579">
        <ele>176</ele>
        <time>2017-09-27T09:40:44Z</time>
      </trkpt>
      <trkpt lat="45.90688" lon="4.8158">
        <ele>177</ele>
        <time>2017-09-27T09:40:47Z</time>
      </trkpt>
      <trkpt lat="45.90685" lon="4.8158">
        <ele>177</ele>
        <time>2017-09-27T09:40:48Z</time>
      </trkpt>
      <trkpt lat="45.90676" lon="4.81581">
        <ele>178</ele>
        <time>2017-09-27T09:40:51Z</time>
      </trkpt>
      <trkpt lat="45.90673" lon="4.81581">
        <ele>178</ele>
        <time>2017-09-27T09:40:52Z</time>
      </trkpt>
      <trkpt lat="45.90666" lon="4.81581">
        <ele>179</ele>
        <time>2017-09-27T09:40:54Z</time>
      </trkpt>
      <trkpt lat="45.90663" lon="4.81581">
        <ele>179</ele>
        <time>2017-09-27T09:40:55Z</time>
      </trkpt>
      <trkpt lat="45.90657" lon="4.81581">
        <ele>179</ele>
        <time>2017-09-27T09:40:57Z</time>
      </trkpt>
      <trkpt lat="45.90654" lon="4.81582">
        <ele>179</ele>
        <time>2017-09-27T09:40:58Z</time>
      </trkpt>
      <trkpt lat="45.90648" lon="4.81581">
        <ele>179</ele>
        <time>2017-09-27T09:41:00Z</time>
      </trkpt>
      <trkpt lat="45.90645" lon="4.81581">
        <ele>179</ele>
        <time>2017-09-27T09:41:01Z</time>
      </trkpt>
      <trkpt lat="45.90637" lon="4.81582">
        <ele>179</ele>
        <time>2017-09-27T09:41:04Z</time>
      </trkpt>
      <trkpt lat="45.90634" lon="4.81582">
        <ele>179</ele>
        <time>2017-09-27T09:41:05Z</time>
      </trkpt>
      <trkpt lat="45.90626" lon="4.81582">
        <ele>180</ele>
        <time>2017-09-27T09:41:08Z</time>
      </trkpt>
      <trkpt lat="45.90623" lon="4.81583">
        <ele>180</ele>
        <time>2017-09-27T09:41:09Z</time>
      </trkpt>
      <trkpt lat="45.90614" lon="4.81583">
        <ele>180</ele>
        <time>2017-09-27T09:41:12Z</time>
      </trkpt>
      <trkpt lat="45.90612" lon="4.81583">
        <ele>180</ele>
        <time>2017-09-27T09:41:13Z</time>
      </trkpt>
      <trkpt lat="45.90603" lon="4.81582">
        <ele>180</ele>
        <time>2017-09-27T09:41:16Z</time>
      </trkpt>
      <trkpt lat="45.906" lon="4.81582">
        <ele>181</ele>
        <time>2017-09-27T09:41:17Z</time>
      </trkpt>
      <trkpt lat="45.90594" lon="4.81583">
        <ele>181</ele>
        <time>2017-09-27T09:41:19Z</time>
      </trkpt>
      <trkpt lat="45.90591" lon="4.81583">
        <ele>181</ele>
        <time>2017-09-27T09:41:20Z</time>
      </trkpt>
      <trkpt lat="45.90584" lon="4.81583">
        <ele>182</ele>
        <time>2017-09-27T09:41:22Z</time>
      </trkpt>
      <trkpt lat="45.90581" lon="4.81583">
        <ele>182</ele>
        <time>2017-09-27T09:41:23Z</time>
      </trkpt>
      <trkpt lat="45.90574" lon="4.81583">
        <ele>182</ele>
        <time>2017-09-27T09:41:25Z</time>
      </trkpt>
      <trkpt lat="45.90571" lon="4.81584">
        <ele>182</ele>
        <time>2017-09-27T09:41:26Z</time>
      </trkpt>
      <trkpt lat="45.90565" lon="4.81583">
        <ele>182</ele>
        <time>2017-09-27T09:41:28Z</time>
      </trkpt>
      <trkpt lat="45.90562" lon="4.81583">
        <ele>182</ele>
        <time>2017-09-27T09:41:29Z</time>
      </trkpt>
      <trkpt lat="45.90555" lon="4.81582">
        <ele>181</ele>
        <time>2017-09-27T09:41:31Z</time>
      </trkpt>
      <trkpt lat="45.90552" lon="4.81582">
        <ele>181</ele>
        <time>2017-09-27T09:41:32Z</time>
      </trkpt>
      <trkpt lat="45.90545" lon="4.81583">
        <ele>181</ele>
        <time>2017-09-27T09:41:34Z</time>
      </trkpt>
      <trkpt lat="45.90542" lon="4.81583">
        <ele>181</ele>
        <time>2017-09-27T09:41:35Z</time>
      </trkpt>
      <trkpt lat="45.90535" lon="4.81583">
        <ele>181</ele>
        <time>2017-09-27T09:41:37Z</time>
      </trkpt>
      <trkpt lat="45.90532" lon="4.81584">
        <ele>182</ele>
        <time>2017-09-27T09:41:38Z</time>
      </trkpt>
      <trkpt lat="45.90526" lon="4.81584">
        <ele>182</ele>
        <time>2017-09-27T09:41:40Z</time>
      </trkpt>
      <trkpt lat="45.90522" lon="4.81584">
        <ele>182</ele>
        <time>2017-09-27T09:41:41Z</time>
      </trkpt>
      <trkpt lat="45.90515" lon="4.81584">
        <ele>182</ele>
        <time>2017-09-27T09:41:43Z</time>
      </trkpt>
      <trkpt lat="45.90511" lon="4.81584">
        <ele>182</ele>
        <time>2017-09-27T09:41:44Z</time>
      </trkpt>
      <trkpt lat="45.90503" lon="4.81586">
        <ele>181</ele>
        <time>2017-09-27T09:41:46Z</time>
      </trkpt>
      <trkpt lat="45.905" lon="4.81586">
        <ele>181</ele>
        <time>2017-09-27T09:41:47Z</time>
      </trkpt>
      <trkpt lat="45.90492" lon="4.81587">
        <ele>181</ele>
        <time>2017-09-27T09:41:49Z</time>
      </trkpt>
      <trkpt lat="45.90487" lon="4.81587">
        <ele>182</ele>
        <time>2017-09-27T09:41:50Z</time>
      </trkpt>
      <trkpt lat="45.90479" lon="4.81587">
        <ele>182</ele>
        <time>2017-09-27T09:41:52Z</time>
      </trkpt>
      <trkpt lat="45.90476" lon="4.81588">
        <ele>182</ele>
        <time>2017-09-27T09:41:53Z</time>
      </trkpt>
      <trkpt lat="45.90468" lon="4.8159">
        <ele>182</ele>
        <time>2017-09-27T09:41:55Z</time>
      </trkpt>
      <trkpt lat="45.90464" lon="4.8159">
        <ele>182</ele>
        <time>2017-09-27T09:41:56Z</time>
      </trkpt>
      <trkpt lat="45.90458" lon="4.8159">
        <ele>182</ele>
        <time>2017-09-27T09:41:58Z</time>
      </trkpt>
      <trkpt lat="45.90454" lon="4.81589">
        <ele>182</ele>
        <time>2017-09-27T09:41:59Z</time>
      </trkpt>
      <trkpt lat="45.90445" lon="4.81587">
        <ele>182</ele>
        <time>2017-09-27T09:42:01Z</time>
      </trkpt>
      <trkpt lat="45.90441" lon="4.81588">
        <ele>182</ele>
        <time>2017-09-27T09:42:02Z</time>
      </trkpt>
      <trkpt lat="45.90433" lon="4.81591">
        <ele>182</ele>
        <time>2017-09-27T09:42:04Z</time>
      </trkpt>
      <trkpt lat="45.90428" lon="4.81592">
        <ele>182</ele>
        <time>2017-09-27T09:42:05Z</time>
      </trkpt>
      <trkpt lat="45.90422" lon="4.81592">
        <ele>182</ele>
        <time>2017-09-27T09:42:06Z</time>
      </trkpt>
      <trkpt lat="45.90418" lon="4.81592">
        <ele>182</ele>
        <time>2017-09-27T09:42:07Z</time>
      </trkpt>
      <trkpt lat="45.90413" lon="4.81593">
        <ele>182</ele>
        <time>2017-09-27T09:42:08Z</time>
      </trkpt>
      <trkpt lat="45.90408" lon="4.81594">
        <ele>182</ele>
        <time>2017-09-27T09:42:09Z</time>
      </trkpt>
      <trkpt lat="45.90403" lon="4.81596">
        <ele>182</ele>
        <time>2017-09-27T09:42:10Z</time>
      </trkpt>
      <trkpt lat="45.90397" lon="4.81597">
        <ele>182</ele>
        <time>2017-09-27T09:42:11Z</time>
      </trkpt>
      <trkpt lat="45.90392" lon="4.81599">
        <ele>182</ele>
        <time>2017-09-27T09:42:12Z</time>
      </trkpt>
      <trkpt lat="45.90389" lon="4.81601">
        <ele>182</ele>
        <time>2017-09-27T09:42:13Z</time>
      </trkpt>
      <trkpt lat="45.90384" lon="4.81602">
        <ele>182</ele>
        <time>2017-09-27T09:42:14Z</time>
      </trkpt>
      <trkpt lat="45.90379" lon="4.81603">
        <ele>182</ele>
        <time>2017-09-27T09:42:15Z</time>
      </trkpt>
      <trkpt lat="45.90375" lon="4.81604">
        <ele>182</ele>
        <time>2017-09-27T09:42:16Z</time>
      </trkpt>
      <trkpt lat="45.90371" lon="4.81606">
        <ele>182</ele>
        <time>2017-09-27T09:42:17Z</time>
      </trkpt>
      <trkpt lat="45.90363" lon="4.81611">
        <ele>182</ele>
        <time>2017-09-27T09:42:19Z</time>
      </trkpt>
      <trkpt lat="45.90359" lon="4.81611">
        <ele>182</ele>
        <time>2017-09-27T09:42:20Z</time>
      </trkpt>
      <trkpt lat="45.90351" lon="4.81612">
        <ele>182</ele>
        <time>2017-09-27T09:42:22Z</time>
      </trkpt>
      <trkpt lat="45.90348" lon="4.81613">
        <ele>182</ele>
        <time>2017-09-27T09:42:23Z</time>
      </trkpt>
      <trkpt lat="45.90339" lon="4.81613">
        <ele>182</ele>
        <time>2017-09-27T09:42:25Z</time>
      </trkpt>
      <trkpt lat="45.90335" lon="4.81613">
        <ele>182</ele>
        <time>2017-09-27T09:42:26Z</time>
      </trkpt>
      <trkpt lat="45.90327" lon="4.81613">
        <ele>182</ele>
        <time>2017-09-27T09:42:28Z</time>
      </trkpt>
      <trkpt lat="45.90323" lon="4.81614">
        <ele>182</ele>
        <time>2017-09-27T09:42:29Z</time>
      </trkpt>
      <trkpt lat="45.90316" lon="4.81615">
        <ele>182</ele>
        <time>2017-09-27T09:42:31Z</time>
      </trkpt>
      <trkpt lat="45.90312" lon="4.81616">
        <ele>182</ele>
        <time>2017-09-27T09:42:32Z</time>
      </trkpt>
      <trkpt lat="45.90303" lon="4.81616">
        <ele>182</ele>
        <time>2017-09-27T09:42:34Z</time>
      </trkpt>
      <trkpt lat="45.90298" lon="4.81614">
        <ele>182</ele>
        <time>2017-09-27T09:42:35Z</time>
      </trkpt>
      <trkpt lat="45.90293" lon="4.81612">
        <ele>182</ele>
        <time>2017-09-27T09:42:36Z</time>
      </trkpt>
      <trkpt lat="45.90288" lon="4.81612">
        <ele>182</ele>
        <time>2017-09-27T09:42:37Z</time>
      </trkpt>
      <trkpt lat="45.90283" lon="4.81612">
        <ele>182</ele>
        <time>2017-09-27T09:42:38Z</time>
      </trkpt>
      <trkpt lat="45.90277" lon="4.81615">
        <ele>182</ele>
        <time>2017-09-27T09:42:39Z</time>
      </trkpt>
      <trkpt lat="45.90272" lon="4.81617">
        <ele>181</ele>
        <time>2017-09-27T09:42:40Z</time>
      </trkpt>
      <trkpt lat="45.90267" lon="4.81619">
        <ele>181</ele>
        <time>2017-09-27T09:42:41Z</time>
      </trkpt>
      <trkpt lat="45.90262" lon="4.8162">
        <ele>181</ele>
        <time>2017-09-27T09:42:42Z</time>
      </trkpt>
      <trkpt lat="45.90257" lon="4.81622">
        <ele>181</ele>
        <time>2017-09-27T09:42:43Z</time>
      </trkpt>
      <trkpt lat="45.90253" lon="4.81623">
        <ele>181</ele>
        <time>2017-09-27T09:42:44Z</time>
      </trkpt>
      <trkpt lat="45.90247" lon="4.81625">
        <ele>180</ele>
        <time>2017-09-27T09:42:45Z</time>
      </trkpt>
      <trkpt lat="45.90242" lon="4.81625">
        <ele>180</ele>
        <time>2017-09-27T09:42:46Z</time>
      </trkpt>
      <trkpt lat="45.90237" lon="4.81626">
        <ele>180</ele>
        <time>2017-09-27T09:42:47Z</time>
      </trkpt>
      <trkpt lat="45.90232" lon="4.81626">
        <ele>180</ele>
        <time>2017-09-27T09:42:48Z</time>
      </trkpt>
      <trkpt lat="45.90226" lon="4.81627">
        <ele>180</ele>
        <time>2017-09-27T09:42:49Z</time>
      </trkpt>
      <trkpt lat="45.90221" lon="4.81628">
        <ele>180</ele>
        <time>2017-09-27T09:42:50Z</time>
      </trkpt>
      <trkpt lat="45.90216" lon="4.81629">
        <ele>180</ele>
        <time>2017-09-27T09:42:51Z</time>
      </trkpt>
      <trkpt lat="45.9021" lon="4.8163">
        <ele>180</ele>
        <time>2017-09-27T09:42:52Z</time>
      </trkpt>
      <trkpt lat="45.90205" lon="4.81631">
        <ele>180</ele>
        <time>2017-09-27T09:42:53Z</time>
      </trkpt>
      <trkpt lat="45.90199" lon="4.81631">
        <ele>180</ele>
        <time>2017-09-27T09:42:54Z</time>
      </trkpt>
      <trkpt lat="45.90194" lon="4.8163">
        <ele>180</ele>
        <time>2017-09-27T09:42:55Z</time>
      </trkpt>
      <trkpt lat="45.90189" lon="4.8163">
        <ele>180</ele>
        <time>2017-09-27T09:42:56Z</time>
      </trkpt>
      <trkpt lat="45.90182" lon="4.81626">
        <ele>180</ele>
        <time>2017-09-27T09:42:57Z</time>
      </trkpt>
      <trkpt lat="45.90173" lon="4.8163">
        <ele>180</ele>
        <time>2017-09-27T09:42:58Z</time>
      </trkpt>
      <trkpt lat="45.90167" lon="4.81632">
        <ele>180</ele>
        <time>2017-09-27T09:42:59Z</time>
      </trkpt>
      <trkpt lat="45.90161" lon="4.81634">
        <ele>179</ele>
        <time>2017-09-27T09:43:00Z</time>
      </trkpt>
      <trkpt lat="45.90154" lon="4.81635">
        <ele>179</ele>
        <time>2017-09-27T09:43:01Z</time>
      </trkpt>
      <trkpt lat="45.90148" lon="4.81636">
        <ele>179</ele>
        <time>2017-09-27T09:43:02Z</time>
      </trkpt>
      <trkpt lat="45.90142" lon="4.81637">
        <ele>179</ele>
        <time>2017-09-27T09:43:03Z</time>
      </trkpt>
      <trkpt lat="45.90136" lon="4.81638">
        <ele>179</ele>
        <time>2017-09-27T09:43:04Z</time>
      </trkpt>
      <trkpt lat="45.9013" lon="4.8164">
        <ele>179</ele>
        <time>2017-09-27T09:43:05Z</time>
      </trkpt>
      <trkpt lat="45.90124" lon="4.81641">
        <ele>179</ele>
        <time>2017-09-27T09:43:06Z</time>
      </trkpt>
      <trkpt lat="45.90119" lon="4.81641">
        <ele>179</ele>
        <time>2017-09-27T09:43:07Z</time>
      </trkpt>
      <trkpt lat="45.90112" lon="4.81641">
        <ele>179</ele>
        <time>2017-09-27T09:43:08Z</time>
      </trkpt>
      <trkpt lat="45.90107" lon="4.81643">
        <ele>179</ele>
        <time>2017-09-27T09:43:09Z</time>
      </trkpt>
      <trkpt lat="45.90102" lon="4.81645">
        <ele>179</ele>
        <time>2017-09-27T09:43:10Z</time>
      </trkpt>
      <trkpt lat="45.90096" lon="4.81647">
        <ele>179</ele>
        <time>2017-09-27T09:43:11Z</time>
      </trkpt>
      <trkpt lat="45.9009" lon="4.81648">
        <ele>179</ele>
        <time>2017-09-27T09:43:12Z</time>
      </trkpt>
      <trkpt lat="45.90084" lon="4.81651">
        <ele>179</ele>
        <time>2017-09-27T09:43:13Z</time>
      </trkpt>
      <trkpt lat="45.90079" lon="4.81654">
        <ele>178</ele>
        <time>2017-09-27T09:43:14Z</time>
      </trkpt>
      <trkpt lat="45.90073" lon="4.81656">
        <ele>178</ele>
        <time>2017-09-27T09:43:15Z</time>
      </trkpt>
      <trkpt lat="45.90068" lon="4.81657">
        <ele>178</ele>
        <time>2017-09-27T09:43:16Z</time>
      </trkpt>
      <trkpt lat="45.90062" lon="4.81659">
        <ele>178</ele>
        <time>2017-09-27T09:43:17Z</time>
      </trkpt>
      <trkpt lat="45.90057" lon="4.81661">
        <ele>177</ele>
        <time>2017-09-27T09:43:18Z</time>
      </trkpt>
      <trkpt lat="45.90051" lon="4.81663">
        <ele>177</ele>
        <time>2017-09-27T09:43:19Z</time>
      </trkpt>
      <trkpt lat="45.90046" lon="4.81665">
        <ele>177</ele>
        <time>2017-09-27T09:43:20Z</time>
      </trkpt>
      <trkpt lat="45.90041" lon="4.81666">
        <ele>177</ele>
        <time>2017-09-27T09:43:21Z</time>
      </trkpt>
      <trkpt lat="45.90036" lon="4.81668">
        <ele>178</ele>
        <time>2017-09-27T09:43:22Z</time>
      </trkpt>
      <trkpt lat="45.9003" lon="4.81669">
        <ele>177</ele>
        <time>2017-09-27T09:43:23Z</time>
      </trkpt>
      <trkpt lat="45.90025" lon="4.81672">
        <ele>177</ele>
        <time>2017-09-27T09:43:24Z</time>
      </trkpt>
      <trkpt lat="45.9002" lon="4.81674">
        <ele>177</ele>
        <time>2017-09-27T09:43:25Z</time>
      </trkpt>
      <trkpt lat="45.90015" lon="4.81676">
        <ele>177</ele>
        <time>2017-09-27T09:43:26Z</time>
      </trkpt>
      <trkpt lat="45.9001" lon="4.81679">
        <ele>177</ele>
        <time>2017-09-27T09:43:27Z</time>
      </trkpt>
      <trkpt lat="45.90005" lon="4.81681">
        <ele>177</ele>
        <time>2017-09-27T09:43:28Z</time>
      </trkpt>
      <trkpt lat="45.9" lon="4.81684">
        <ele>177</ele>
        <time>2017-09-27T09:43:29Z</time>
      </trkpt>
      <trkpt lat="45.89995" lon="4.81686">
        <ele>176</ele>
        <time>2017-09-27T09:43:30Z</time>
      </trkpt>
      <trkpt lat="45.8999" lon="4.81688">
        <ele>176</ele>
        <time>2017-09-27T09:43:31Z</time>
      </trkpt>
      <trkpt lat="45.89984" lon="4.81691">
        <ele>176</ele>
        <time>2017-09-27T09:43:32Z</time>
      </trkpt>
      <trkpt lat="45.8998" lon="4.81694">
        <ele>176</ele>
        <time>2017-09-27T09:43:33Z</time>
      </trkpt>
      <trkpt lat="45.89975" lon="4.81696">
        <ele>176</ele>
        <time>2017-09-27T09:43:34Z</time>
      </trkpt>
      <trkpt lat="45.8997" lon="4.81698">
        <ele>176</ele>
        <time>2017-09-27T09:43:35Z</time>
      </trkpt>
      <trkpt lat="45.89966" lon="4.81702">
        <ele>176</ele>
        <time>2017-09-27T09:43:36Z</time>
      </trkpt>
      <trkpt lat="45.89958" lon="4.81707">
        <ele>176</ele>
        <time>2017-09-27T09:43:38Z</time>
      </trkpt>
      <trkpt lat="45.89954" lon="4.81708">
        <ele>176</ele>
        <time>2017-09-27T09:43:39Z</time>
      </trkpt>
      <trkpt lat="45.89947" lon="4.81707">
        <ele>176</ele>
        <time>2017-09-27T09:43:41Z</time>
      </trkpt>
      <trkpt lat="45.89943" lon="4.81705">
        <ele>176</ele>
        <time>2017-09-27T09:43:42Z</time>
      </trkpt>
      <trkpt lat="45.89938" lon="4.81704">
        <ele>176</ele>
        <time>2017-09-27T09:43:43Z</time>
      </trkpt>
      <trkpt lat="45.89933" lon="4.81704">
        <ele>176</ele>
        <time>2017-09-27T09:43:44Z</time>
      </trkpt>
      <trkpt lat="45.89929" lon="4.81705">
        <ele>176</ele>
        <time>2017-09-27T09:43:45Z</time>
      </trkpt>
      <trkpt lat="45.89924" lon="4.81706">
        <ele>176</ele>
        <time>2017-09-27T09:43:46Z</time>
      </trkpt>
      <trkpt lat="45.8992" lon="4.8171">
        <ele>176</ele>
        <time>2017-09-27T09:43:47Z</time>
      </trkpt>
      <trkpt lat="45.89916" lon="4.81715">
        <ele>175</ele>
        <time>2017-09-27T09:43:48Z</time>
      </trkpt>
      <trkpt lat="45.89914" lon="4.8172">
        <ele>175</ele>
        <time>2017-09-27T09:43:49Z</time>
      </trkpt>
      <trkpt lat="45.89911" lon="4.81726">
        <ele>176</ele>
        <time>2017-09-27T09:43:50Z</time>
      </trkpt>
      <trkpt lat="45.89909" lon="4.81732">
        <ele>176</ele>
        <time>2017-09-27T09:43:51Z</time>
      </trkpt>
      <trkpt lat="45.89909" lon="4.81739">
        <ele>176</ele>
        <time>2017-09-27T09:43:52Z</time>
      </trkpt>
      <trkpt lat="45.89907" lon="4.81746">
        <ele>176</ele>
        <time>2017-09-27T09:43:53Z</time>
      </trkpt>
      <trkpt lat="45.89904" lon="4.81753">
        <ele>176</ele>
        <time>2017-09-27T09:43:54Z</time>
      </trkpt>
      <trkpt lat="45.89899" lon="4.81758">
        <ele>176</ele>
        <time>2017-09-27T09:43:55Z</time>
      </trkpt>
      <trkpt lat="45.89894" lon="4.81763">
        <ele>176</ele>
        <time>2017-09-27T09:43:56Z</time>
      </trkpt>
      <trkpt lat="45.89889" lon="4.81768">
        <ele>176</ele>
        <time>2017-09-27T09:43:57Z</time>
      </trkpt>
      <trkpt lat="45.89884" lon="4.81773">
        <ele>176</ele>
        <time>2017-09-27T09:43:58Z</time>
      </trkpt>
      <trkpt lat="45.8988" lon="4.81778">
        <ele>176</ele>
        <time>2017-09-27T09:43:59Z</time>
      </trkpt>
      <trkpt lat="45.89875" lon="4.81784">
        <ele>176</ele>
        <time>2017-09-27T09:44:00Z</time>
      </trkpt>
      <trkpt lat="45.89871" lon="4.81789">
        <ele>175</ele>
        <time>2017-09-27T09:44:01Z</time>
      </trkpt>
      <trkpt lat="45.89866" lon="4.81793">
        <ele>175</ele>
        <time>2017-09-27T09:44:02Z</time>
      </trkpt>
      <trkpt lat="45.89861" lon="4.81797">
        <ele>175</ele>
        <time>2017-09-27T09:44:03Z</time>
      </trkpt>
      <trkpt lat="45.89857" lon="4.81804">
        <ele>175</ele>
        <time>2017-09-27T09:44:04Z</time>
      </trkpt>
      <trkpt lat="45.89853" lon="4.81807">
        <ele>175</ele>
        <time>2017-09-27T09:44:05Z</time>
      </trkpt>
      <trkpt lat="45.89849" lon="4.81811">
        <ele>175</ele>
        <time>2017-09-27T09:44:06Z</time>
      </trkpt>
      <trkpt lat="45.89846" lon="4.81815">
        <ele>175</ele>
        <time>2017-09-27T09:44:07Z</time>
      </trkpt>
      <trkpt lat="45.89842" lon="4.81821">
        <ele>175</ele>
        <time>2017-09-27T09:44:08Z</time>
      </trkpt>
      <trkpt lat="45.89838" lon="4.81826">
        <ele>174</ele>
        <time>2017-09-27T09:44:09Z</time>
      </trkpt>
      <trkpt lat="45.89834" lon="4.8183">
        <ele>174</ele>
        <time>2017-09-27T09:44:10Z</time>
      </trkpt>
      <trkpt lat="45.89829" lon="4.81835">
        <ele>174</ele>
        <time>2017-09-27T09:44:11Z</time>
      </trkpt>
      <trkpt lat="45.89825" lon="4.81839">
        <ele>174</ele>
        <time>2017-09-27T09:44:12Z</time>
      </trkpt>
      <trkpt lat="45.89817" lon="4.81845">
        <ele>174</ele>
        <time>2017-09-27T09:44:14Z</time>
      </trkpt>
      <trkpt lat="45.89814" lon="4.81849">
        <ele>174</ele>
        <time>2017-09-27T09:44:15Z</time>
      </trkpt>
      <trkpt lat="45.89811" lon="4.81854">
        <ele>174</ele>
        <time>2017-09-27T09:44:16Z</time>
      </trkpt>
      <trkpt lat="45.89806" lon="4.81858">
        <ele>174</ele>
        <time>2017-09-27T09:44:17Z</time>
      </trkpt>
      <trkpt lat="45.89801" lon="4.81862">
        <ele>174</ele>
        <time>2017-09-27T09:44:18Z</time>
      </trkpt>
      <trkpt lat="45.89798" lon="4.81866">
        <ele>174</ele>
        <time>2017-09-27T09:44:19Z</time>
      </trkpt>
      <trkpt lat="45.89793" lon="4.81871">
        <ele>174</ele>
        <time>2017-09-27T09:44:20Z</time>
      </trkpt>
      <trkpt lat="45.89789" lon="4.81875">
        <ele>174</ele>
        <time>2017-09-27T09:44:21Z</time>
      </trkpt>
      <trkpt lat="45.89784" lon="4.81879">
        <ele>174</ele>
        <time>2017-09-27T09:44:22Z</time>
      </trkpt>
      <trkpt lat="45.8978" lon="4.81883">
        <ele>174</ele>
        <time>2017-09-27T09:44:23Z</time>
      </trkpt>
      <trkpt lat="45.89775" lon="4.81887">
        <ele>174</ele>
        <time>2017-09-27T09:44:24Z</time>
      </trkpt>
      <trkpt lat="45.8977" lon="4.81892">
        <ele>174</ele>
        <time>2017-09-27T09:44:25Z</time>
      </trkpt>
      <trkpt lat="45.89765" lon="4.81896">
        <ele>174</ele>
        <time>2017-09-27T09:44:26Z</time>
      </trkpt>
      <trkpt lat="45.89759" lon="4.81901">
        <ele>174</ele>
        <time>2017-09-27T09:44:27Z</time>
      </trkpt>
      <trkpt lat="45.89754" lon="4.81905">
        <ele>174</ele>
        <time>2017-09-27T09:44:28Z</time>
      </trkpt>
      <trkpt lat="45.89748" lon="4.81909">
        <ele>174</ele>
        <time>2017-09-27T09:44:29Z</time>
      </trkpt>
      <trkpt lat="45.89742" lon="4.81912">
        <ele>174</ele>
        <time>2017-09-27T09:44:30Z</time>
      </trkpt>
      <trkpt lat="45.89737" lon="4.81915">
        <ele>173</ele>
        <time>2017-09-27T09:44:31Z</time>
      </trkpt>
      <trkpt lat="45.89732" lon="4.8192">
        <ele>173</ele>
        <time>2017-09-27T09:44:32Z</time>
      </trkpt>
      <trkpt lat="45.89726" lon="4.81924">
        <ele>173</ele>
        <time>2017-09-27T09:44:33Z</time>
      </trkpt>
      <trkpt lat="45.89721" lon="4.81929">
        <ele>173</ele>
        <time>2017-09-27T09:44:34Z</time>
      </trkpt>
      <trkpt lat="45.89715" lon="4.81934">
        <ele>173</ele>
        <time>2017-09-27T09:44:35Z</time>
      </trkpt>
      <trkpt lat="45.8971" lon="4.81938">
        <ele>173</ele>
        <time>2017-09-27T09:44:36Z</time>
      </trkpt>
      <trkpt lat="45.89704" lon="4.81942">
        <ele>173</ele>
        <time>2017-09-27T09:44:37Z</time>
      </trkpt>
      <trkpt lat="45.89699" lon="4.81946">
        <ele>173</ele>
        <time>2017-09-27T09:44:38Z</time>
      </trkpt>
      <trkpt lat="45.89694" lon="4.8195">
        <ele>173</ele>
        <time>2017-09-27T09:44:39Z</time>
      </trkpt>
      <trkpt lat="45.89688" lon="4.81955">
        <ele>173</ele>
        <time>2017-09-27T09:44:40Z</time>
      </trkpt>
      <trkpt lat="45.89684" lon="4.8196">
        <ele>173</ele>
        <time>2017-09-27T09:44:41Z</time>
      </trkpt>
      <trkpt lat="45.89678" lon="4.81964">
        <ele>173</ele>
        <time>2017-09-27T09:44:42Z</time>
      </trkpt>
      <trkpt lat="45.89673" lon="4.81968">
        <ele>173</ele>
        <time>2017-09-27T09:44:43Z</time>
      </trkpt>
      <trkpt lat="45.89669" lon="4.81974">
        <ele>173</ele>
        <time>2017-09-27T09:44:44Z</time>
      </trkpt>
      <trkpt lat="45.89664" lon="4.81979">
        <ele>173</ele>
        <time>2017-09-27T09:44:45Z</time>
      </trkpt>
      <trkpt lat="45.89659" lon="4.81985">
        <ele>173</ele>
        <time>2017-09-27T09:44:46Z</time>
      </trkpt>
      <trkpt lat="45.89654" lon="4.8199">
        <ele>173</ele>
        <time>2017-09-27T09:44:47Z</time>
      </trkpt>
      <trkpt lat="45.89648" lon="4.81994">
        <ele>173</ele>
        <time>2017-09-27T09:44:48Z</time>
      </trkpt>
      <trkpt lat="45.89644" lon="4.81999">
        <ele>172</ele>
        <time>2017-09-27T09:44:49Z</time>
      </trkpt>
      <trkpt lat="45.89638" lon="4.82004">
        <ele>173</ele>
        <time>2017-09-27T09:44:50Z</time>
      </trkpt>
      <trkpt lat="45.89634" lon="4.82008">
        <ele>173</ele>
        <time>2017-09-27T09:44:51Z</time>
      </trkpt>
      <trkpt lat="45.89629" lon="4.82012">
        <ele>173</ele>
        <time>2017-09-27T09:44:52Z</time>
      </trkpt>
      <trkpt lat="45.89624" lon="4.82015">
        <ele>173</ele>
        <time>2017-09-27T09:44:53Z</time>
      </trkpt>
      <trkpt lat="45.89619" lon="4.82019">
        <ele>173</ele>
        <time>2017-09-27T09:44:54Z</time>
      </trkpt>
      <trkpt lat="45.89614" lon="4.82024">
        <ele>173</ele>
        <time>2017-09-27T09:44:55Z</time>
      </trkpt>
      <trkpt lat="45.89609" lon="4.82028">
        <ele>173</ele>
        <time>2017-09-27T09:44:56Z</time>
      </trkpt>
      <trkpt lat="45.89605" lon="4.8203">
        <ele>173</ele>
        <time>2017-09-27T09:44:57Z</time>
      </trkpt>
      <trkpt lat="45.89599" lon="4.82035">
        <ele>173</ele>
        <time>2017-09-27T09:44:58Z</time>
      </trkpt>
      <trkpt lat="45.89594" lon="4.82039">
        <ele>173</ele>
        <time>2017-09-27T09:44:59Z</time>
      </trkpt>
      <trkpt lat="45.89589" lon="4.82042">
        <ele>173</ele>
        <time>2017-09-27T09:45:00Z</time>
      </trkpt>
      <trkpt lat="45.89584" lon="4.82045">
        <ele>173</ele>
        <time>2017-09-27T09:45:01Z</time>
      </trkpt>
      <trkpt lat="45.89579" lon="4.82048">
        <ele>172</ele>
        <time>2017-09-27T09:45:02Z</time>
      </trkpt>
      <trkpt lat="45.89573" lon="4.82051">
        <ele>172</ele>
        <time>2017-09-27T09:45:03Z</time>
      </trkpt>
      <trkpt lat="45.89569" lon="4.82054">
        <ele>172</ele>
        <time>2017-09-27T09:45:04Z</time>
      </trkpt>
      <trkpt lat="45.89563" lon="4.82057">
        <ele>172</ele>
        <time>2017-09-27T09:45:05Z</time>
      </trkpt>
      <trkpt lat="45.89557" lon="4.82059">
        <ele>172</ele>
        <time>2017-09-27T09:45:06Z</time>
      </trkpt>
      <trkpt lat="45.89552" lon="4.82062">
        <ele>172</ele>
        <time>2017-09-27T09:45:07Z</time>
      </trkpt>
      <trkpt lat="45.89547" lon="4.82065">
        <ele>172</ele>
        <time>2017-09-27T09:45:08Z</time>
      </trkpt>
      <trkpt lat="45.89541" lon="4.82066">
        <ele>172</ele>
        <time>2017-09-27T09:45:09Z</time>
      </trkpt>
      <trkpt lat="45.89536" lon="4.82067">
        <ele>172</ele>
        <time>2017-09-27T09:45:10Z</time>
      </trkpt>
      <trkpt lat="45.8953" lon="4.82068">
        <ele>172</ele>
        <time>2017-09-27T09:45:11Z</time>
      </trkpt>
      <trkpt lat="45.89525" lon="4.8207">
        <ele>172</ele>
        <time>2017-09-27T09:45:12Z</time>
      </trkpt>
      <trkpt lat="45.8952" lon="4.82074">
        <ele>172</ele>
        <time>2017-09-27T09:45:13Z</time>
      </trkpt>
      <trkpt lat="45.89516" lon="4.82079">
        <ele>172</ele>
        <time>2017-09-27T09:45:14Z</time>
      </trkpt>
      <trkpt lat="45.89512" lon="4.82085">
        <ele>172</ele>
        <time>2017-09-27T09:45:15Z</time>
      </trkpt>
      <trkpt lat="45.8951" lon="4.82092">
        <ele>172</ele>
        <time>2017-09-27T09:45:16Z</time>
      </trkpt>
      <trkpt lat="45.8951" lon="4.821">
        <ele>172</ele>
        <time>2017-09-27T09:45:17Z</time>
      </trkpt>
      <trkpt lat="45.89507" lon="4.82111">
        <ele>172</ele>
        <time>2017-09-27T09:45:19Z</time>
      </trkpt>
      <trkpt lat="45.89504" lon="4.82117">
        <ele>172</ele>
        <time>2017-09-27T09:45:20Z</time>
      </trkpt>
      <trkpt lat="45.89501" lon="4.82121">
        <ele>172</ele>
        <time>2017-09-27T09:45:21Z</time>
      </trkpt>
      <trkpt lat="45.89498" lon="4.82127">
        <ele>172</ele>
        <time>2017-09-27T09:45:22Z</time>
      </trkpt>
      <trkpt lat="45.89494" lon="4.82132">
        <ele>172</ele>
        <time>2017-09-27T09:45:23Z</time>
      </trkpt>
      <trkpt lat="45.89489" lon="4.82137">
        <ele>172</ele>
        <time>2017-09-27T09:45:24Z</time>
      </trkpt>
      <trkpt lat="45.89485" lon="4.82143">
        <ele>172</ele>
        <time>2017-09-27T09:45:25Z</time>
      </trkpt>
      <trkpt lat="45.8948" lon="4.82147">
        <ele>171</ele>
        <time>2017-09-27T09:45:26Z</time>
      </trkpt>
      <trkpt lat="45.89475" lon="4.82152">
        <ele>171</ele>
        <time>2017-09-27T09:45:27Z</time>
      </trkpt>
      <trkpt lat="45.8947" lon="4.82157">
        <ele>171</ele>
        <time>2017-09-27T09:45:28Z</time>
      </trkpt>
      <trkpt lat="45.89466" lon="4.82162">
        <ele>171</ele>
        <time>2017-09-27T09:45:29Z</time>
      </trkpt>
      <trkpt lat="45.89462" lon="4.82167">
        <ele>171</ele>
        <time>2017-09-27T09:45:30Z</time>
      </trkpt>
      <trkpt lat="45.89458" lon="4.82171">
        <ele>171</ele>
        <time>2017-09-27T09:45:31Z</time>
      </trkpt>
      <trkpt lat="45.89454" lon="4.82176">
        <ele>171</ele>
        <time>2017-09-27T09:45:32Z</time>
      </trkpt>
      <trkpt lat="45.8945" lon="4.82181">
        <ele>171</ele>
        <time>2017-09-27T09:45:33Z</time>
      </trkpt>
      <trkpt lat="45.89446" lon="4.82186">
        <ele>171</ele>
        <time>2017-09-27T09:45:34Z</time>
      </trkpt>
      <trkpt lat="45.89442" lon="4.82191">
        <ele>171</ele>
        <time>2017-09-27T09:45:35Z</time>
      </trkpt>
      <trkpt lat="45.89438" lon="4.82195">
        <ele>171</ele>
        <time>2017-09-27T09:45:36Z</time>
      </trkpt>
      <trkpt lat="45.89433" lon="4.822">
        <ele>171</ele>
        <time>2017-09-27T09:45:37Z</time>
      </trkpt>
      <trkpt lat="45.89429" lon="4.82205">
        <ele>171</ele>
        <time>2017-09-27T09:45:38Z</time>
      </trkpt>
      <trkpt lat="45.89424" lon="4.82211">
        <ele>171</ele>
        <time>2017-09-27T09:45:39Z</time>
      </trkpt>
      <trkpt lat="45.8942" lon="4.82218">
        <ele>171</ele>
        <time>2017-09-27T09:45:40Z</time>
      </trkpt>
      <trkpt lat="45.89414" lon="4.82223">
        <ele>171</ele>
        <time>2017-09-27T09:45:41Z</time>
      </trkpt>
      <trkpt lat="45.89409" lon="4.82229">
        <ele>171</ele>
        <time>2017-09-27T09:45:42Z</time>
      </trkpt>
      <trkpt lat="45.89405" lon="4.82235">
        <ele>171</ele>
        <time>2017-09-27T09:45:43Z</time>
      </trkpt>
      <trkpt lat="45.894" lon="4.82241">
        <ele>171</ele>
        <time>2017-09-27T09:45:44Z</time>
      </trkpt>
      <trkpt lat="45.89395" lon="4.82246">
        <ele>171</ele>
        <time>2017-09-27T09:45:45Z</time>
      </trkpt>
      <trkpt lat="45.8939" lon="4.82251">
        <ele>172</ele>
        <time>2017-09-27T09:45:46Z</time>
      </trkpt>
      <trkpt lat="45.89386" lon="4.82256">
        <ele>172</ele>
        <time>2017-09-27T09:45:47Z</time>
      </trkpt>
      <trkpt lat="45.89382" lon="4.8226">
        <ele>172</ele>
        <time>2017-09-27T09:45:48Z</time>
      </trkpt>
      <trkpt lat="45.89377" lon="4.82265">
        <ele>172</ele>
        <time>2017-09-27T09:45:49Z</time>
      </trkpt>
      <trkpt lat="45.89374" lon="4.82271">
        <ele>172</ele>
        <time>2017-09-27T09:45:50Z</time>
      </trkpt>
      <trkpt lat="45.8937" lon="4.82276">
        <ele>172</ele>
        <time>2017-09-27T09:45:51Z</time>
      </trkpt>
      <trkpt lat="45.89367" lon="4.8228">
        <ele>172</ele>
        <time>2017-09-27T09:45:52Z</time>
      </trkpt>
      <trkpt lat="45.89363" lon="4.82285">
        <ele>172</ele>
        <time>2017-09-27T09:45:53Z</time>
      </trkpt>
      <trkpt lat="45.89359" lon="4.82289">
        <ele>172</ele>
        <time>2017-09-27T09:45:54Z</time>
      </trkpt>
      <trkpt lat="45.89356" lon="4.82294">
        <ele>172</ele>
        <time>2017-09-27T09:45:55Z</time>
      </trkpt>
      <trkpt lat="45.89352" lon="4.82298">
        <ele>172</ele>
        <time>2017-09-27T09:45:56Z</time>
      </trkpt>
      <trkpt lat="45.89349" lon="4.82302">
        <ele>172</ele>
        <time>2017-09-27T09:45:57Z</time>
      </trkpt>
      <trkpt lat="45.89345" lon="4.82306">
        <ele>172</ele>
        <time>2017-09-27T09:45:58Z</time>
      </trkpt>
      <trkpt lat="45.89341" lon="4.8231">
        <ele>172</ele>
        <time>2017-09-27T09:45:59Z</time>
      </trkpt>
      <trkpt lat="45.89337" lon="4.82314">
        <ele>172</ele>
        <time>2017-09-27T09:46:00Z</time>
      </trkpt>
      <trkpt lat="45.89333" lon="4.82318">
        <ele>172</ele>
        <time>2017-09-27T09:46:01Z</time>
      </trkpt>
      <trkpt lat="45.89328" lon="4.82325">
        <ele>172</ele>
        <time>2017-09-27T09:46:02Z</time>
      </trkpt>
      <trkpt lat="45.89324" lon="4.82331">
        <ele>172</ele>
        <time>2017-09-27T09:46:03Z</time>
      </trkpt>
      <trkpt lat="45.89319" lon="4.82336">
        <ele>172</ele>
        <time>2017-09-27T09:46:04Z</time>
      </trkpt>
      <trkpt lat="45.89315" lon="4.82342">
        <ele>173</ele>
        <time>2017-09-27T09:46:05Z</time>
      </trkpt>
      <trkpt lat="45.8931" lon="4.82348">
        <ele>173</ele>
        <time>2017-09-27T09:46:06Z</time>
      </trkpt>
      <trkpt lat="45.89306" lon="4.82353">
        <ele>173</ele>
        <time>2017-09-27T09:46:07Z</time>
      </trkpt>
      <trkpt lat="45.89301" lon="4.82359">
        <ele>173</ele>
        <time>2017-09-27T09:46:08Z</time>
      </trkpt>
      <trkpt lat="45.89298" lon="4.82365">
        <ele>173</ele>
        <time>2017-09-27T09:46:09Z</time>
      </trkpt>
      <trkpt lat="45.89293" lon="4.8237">
        <ele>173</ele>
        <time>2017-09-27T09:46:10Z</time>
      </trkpt>
      <trkpt lat="45.89286" lon="4.82378">
        <ele>173</ele>
        <time>2017-09-27T09:46:12Z</time>
      </trkpt>
      <trkpt lat="45.89283" lon="4.82382">
        <ele>173</ele>
        <time>2017-09-27T09:46:13Z</time>
      </trkpt>
      <trkpt lat="45.89279" lon="4.82385">
        <ele>173</ele>
        <time>2017-09-27T09:46:14Z</time>
      </trkpt>
      <trkpt lat="45.89274" lon="4.82389">
        <ele>173</ele>
        <time>2017-09-27T09:46:15Z</time>
      </trkpt>
      <trkpt lat="45.8927" lon="4.82393">
        <ele>173</ele>
        <time>2017-09-27T09:46:16Z</time>
      </trkpt>
      <trkpt lat="45.89266" lon="4.82396">
        <ele>173</ele>
        <time>2017-09-27T09:46:17Z</time>
      </trkpt>
      <trkpt lat="45.89261" lon="4.824">
        <ele>173</ele>
        <time>2017-09-27T09:46:18Z</time>
      </trkpt>
      <trkpt lat="45.89257" lon="4.82403">
        <ele>173</ele>
        <time>2017-09-27T09:46:19Z</time>
      </trkpt>
      <trkpt lat="45.89253" lon="4.82406">
        <ele>173</ele>
        <time>2017-09-27T09:46:20Z</time>
      </trkpt>
      <trkpt lat="45.89249" lon="4.8241">
        <ele>173</ele>
        <time>2017-09-27T09:46:21Z</time>
      </trkpt>
      <trkpt lat="45.89245" lon="4.82413">
        <ele>173</ele>
        <time>2017-09-27T09:46:22Z</time>
      </trkpt>
      <trkpt lat="45.89241" lon="4.82416">
        <ele>173</ele>
        <time>2017-09-27T09:46:23Z</time>
      </trkpt>
      <trkpt lat="45.89236" lon="4.8242">
        <ele>173</ele>
        <time>2017-09-27T09:46:24Z</time>
      </trkpt>
      <trkpt lat="45.89231" lon="4.82424">
        <ele>173</ele>
        <time>2017-09-27T09:46:25Z</time>
      </trkpt>
      <trkpt lat="45.89226" lon="4.8243">
        <ele>173</ele>
        <time>2017-09-27T09:46:26Z</time>
      </trkpt>
      <trkpt lat="45.8922" lon="4.82433">
        <ele>173</ele>
        <time>2017-09-27T09:46:27Z</time>
      </trkpt>
      <trkpt lat="45.89215" lon="4.82437">
        <ele>173</ele>
        <time>2017-09-27T09:46:28Z</time>
      </trkpt>
      <trkpt lat="45.8921" lon="4.82441">
        <ele>173</ele>
        <time>2017-09-27T09:46:29Z</time>
      </trkpt>
      <trkpt lat="45.89206" lon="4.82445">
        <ele>172</ele>
        <time>2017-09-27T09:46:30Z</time>
      </trkpt>
      <trkpt lat="45.89201" lon="4.82447">
        <ele>172</ele>
        <time>2017-09-27T09:46:31Z</time>
      </trkpt>
      <trkpt lat="45.89197" lon="4.8245">
        <ele>172</ele>
        <time>2017-09-27T09:46:32Z</time>
      </trkpt>
      <trkpt lat="45.89192" lon="4.82453">
        <ele>172</ele>
        <time>2017-09-27T09:46:33Z</time>
      </trkpt>
      <trkpt lat="45.89188" lon="4.82456">
        <ele>172</ele>
        <time>2017-09-27T09:46:34Z</time>
      </trkpt>
      <trkpt lat="45.89183" lon="4.82458">
        <ele>172</ele>
        <time>2017-09-27T09:46:35Z</time>
      </trkpt>
      <trkpt lat="45.89176" lon="4.82463">
        <ele>172</ele>
        <time>2017-09-27T09:46:37Z</time>
      </trkpt>
      <trkpt lat="45.89172" lon="4.82465">
        <ele>172</ele>
        <time>2017-09-27T09:46:38Z</time>
      </trkpt>
      <trkpt lat="45.89164" lon="4.82472">
        <ele>172</ele>
        <time>2017-09-27T09:46:40Z</time>
      </trkpt>
      <trkpt lat="45.8916" lon="4.82475">
        <ele>172</ele>
        <time>2017-09-27T09:46:41Z</time>
      </trkpt>
      <trkpt lat="45.89156" lon="4.82478">
        <ele>172</ele>
        <time>2017-09-27T09:46:42Z</time>
      </trkpt>
      <trkpt lat="45.89152" lon="4.82481">
        <ele>172</ele>
        <time>2017-09-27T09:46:43Z</time>
      </trkpt>
      <trkpt lat="45.89147" lon="4.82484">
        <ele>172</ele>
        <time>2017-09-27T09:46:44Z</time>
      </trkpt>
      <trkpt lat="45.89142" lon="4.82487">
        <ele>172</ele>
        <time>2017-09-27T09:46:45Z</time>
      </trkpt>
      <trkpt lat="45.89138" lon="4.82491">
        <ele>172</ele>
        <time>2017-09-27T09:46:46Z</time>
      </trkpt>
      <trkpt lat="45.89134" lon="4.82495">
        <ele>172</ele>
        <time>2017-09-27T09:46:47Z</time>
      </trkpt>
      <trkpt lat="45.8913" lon="4.82498">
        <ele>172</ele>
        <time>2017-09-27T09:46:48Z</time>
      </trkpt>
      <trkpt lat="45.89127" lon="4.82502">
        <ele>173</ele>
        <time>2017-09-27T09:46:49Z</time>
      </trkpt>
      <trkpt lat="45.8912" lon="4.82509">
        <ele>173</ele>
        <time>2017-09-27T09:46:51Z</time>
      </trkpt>
      <trkpt lat="45.89117" lon="4.82511">
        <ele>173</ele>
        <time>2017-09-27T09:46:52Z</time>
      </trkpt>
      <trkpt lat="45.89112" lon="4.82511">
        <ele>173</ele>
        <time>2017-09-27T09:46:53Z</time>
      </trkpt>
      <trkpt lat="45.89107" lon="4.82511">
        <ele>173</ele>
        <time>2017-09-27T09:46:54Z</time>
      </trkpt>
      <trkpt lat="45.89099" lon="4.82511">
        <ele>173</ele>
        <time>2017-09-27T09:46:56Z</time>
      </trkpt>
      <trkpt lat="45.89095" lon="4.82511">
        <ele>173</ele>
        <time>2017-09-27T09:46:57Z</time>
      </trkpt>
      <trkpt lat="45.89087" lon="4.82514">
        <ele>173</ele>
        <time>2017-09-27T09:46:59Z</time>
      </trkpt>
      <trkpt lat="45.89085" lon="4.82517">
        <ele>173</ele>
        <time>2017-09-27T09:47:00Z</time>
      </trkpt>
      <trkpt lat="45.89078" lon="4.82524">
        <ele>173</ele>
        <time>2017-09-27T09:47:03Z</time>
      </trkpt>
      <trkpt lat="45.89077" lon="4.82525">
        <ele>173</ele>
        <time>2017-09-27T09:47:04Z</time>
      </trkpt>
      <trkpt lat="45.89068" lon="4.82529">
        <ele>173</ele>
        <time>2017-09-27T09:47:08Z</time>
      </trkpt>
      <trkpt lat="45.89066" lon="4.82529">
        <ele>173</ele>
        <time>2017-09-27T09:47:09Z</time>
      </trkpt>
      <trkpt lat="45.8906" lon="4.82535">
        <ele>173</ele>
        <time>2017-09-27T09:47:12Z</time>
      </trkpt>
      <trkpt lat="45.8906" lon="4.82541">
        <ele>173</ele>
        <time>2017-09-27T09:47:13Z</time>
      </trkpt>
      <trkpt lat="45.89063" lon="4.8255">
        <ele>174</ele>
        <time>2017-09-27T09:47:14Z</time>
      </trkpt>
      <trkpt lat="45.89062" lon="4.82555">
        <ele>174</ele>
        <time>2017-09-27T09:47:15Z</time>
      </trkpt>
      <trkpt lat="45.8906" lon="4.82563">
        <ele>174</ele>
        <time>2017-09-27T09:47:16Z</time>
      </trkpt>
      <trkpt lat="45.89057" lon="4.82569">
        <ele>174</ele>
        <time>2017-09-27T09:47:17Z</time>
      </trkpt>
      <trkpt lat="45.89054" lon="4.82575">
        <ele>174</ele>
        <time>2017-09-27T09:47:18Z</time>
      </trkpt>
      <trkpt lat="45.89051" lon="4.82581">
        <ele>174</ele>
        <time>2017-09-27T09:47:19Z</time>
      </trkpt>
      <trkpt lat="45.89047" lon="4.82587">
        <ele>174</ele>
        <time>2017-09-27T09:47:20Z</time>
      </trkpt>
      <trkpt lat="45.89043" lon="4.82593">
        <ele>174</ele>
        <time>2017-09-27T09:47:21Z</time>
      </trkpt>
      <trkpt lat="45.8904" lon="4.82599">
        <ele>174</ele>
        <time>2017-09-27T09:47:22Z</time>
      </trkpt>
      <trkpt lat="45.89037" lon="4.82605">
        <ele>174</ele>
        <time>2017-09-27T09:47:23Z</time>
      </trkpt>
      <trkpt lat="45.89034" lon="4.82611">
        <ele>174</ele>
        <time>2017-09-27T09:47:24Z</time>
      </trkpt>
      <trkpt lat="45.8903" lon="4.82616">
        <ele>174</ele>
        <time>2017-09-27T09:47:25Z</time>
      </trkpt>
      <trkpt lat="45.89025" lon="4.82621">
        <ele>174</ele>
        <time>2017-09-27T09:47:26Z</time>
      </trkpt>
      <trkpt lat="45.89022" lon="4.82626">
        <ele>174</ele>
        <time>2017-09-27T09:47:27Z</time>
      </trkpt>
      <trkpt lat="45.89018" lon="4.82629">
        <ele>174</ele>
        <time>2017-09-27T09:47:28Z</time>
      </trkpt>
      <trkpt lat="45.89015" lon="4.82637">
        <ele>174</ele>
        <time>2017-09-27T09:47:29Z</time>
      </trkpt>
      <trkpt lat="45.89012" lon="4.82647">
        <ele>173</ele>
        <time>2017-09-27T09:47:31Z</time>
      </trkpt>
      <trkpt lat="45.89008" lon="4.82652">
        <ele>173</ele>
        <time>2017-09-27T09:47:32Z</time>
      </trkpt>
      <trkpt lat="45.89005" lon="4.82658">
        <ele>173</ele>
        <time>2017-09-27T09:47:33Z</time>
      </trkpt>
      <trkpt lat="45.89003" lon="4.82668">
        <ele>173</ele>
        <time>2017-09-27T09:47:34Z</time>
      </trkpt>
      <trkpt lat="45.89" lon="4.82674">
        <ele>173</ele>
        <time>2017-09-27T09:47:35Z</time>
      </trkpt>
      <trkpt lat="45.88997" lon="4.8268">
        <ele>173</ele>
        <time>2017-09-27T09:47:36Z</time>
      </trkpt>
      <trkpt lat="45.88991" lon="4.82687">
        <ele>173</ele>
        <time>2017-09-27T09:47:38Z</time>
      </trkpt>
      <trkpt lat="45.8899" lon="4.82695">
        <ele>173</ele>
        <time>2017-09-27T09:47:39Z</time>
      </trkpt>
      <trkpt lat="45.88986" lon="4.82701">
        <ele>173</ele>
        <time>2017-09-27T09:47:40Z</time>
      </trkpt>
      <trkpt lat="45.88983" lon="4.82706">
        <ele>173</ele>
        <time>2017-09-27T09:47:41Z</time>
      </trkpt>
      <trkpt lat="45.88981" lon="4.82715">
        <ele>173</ele>
        <time>2017-09-27T09:47:42Z</time>
      </trkpt>
      <trkpt lat="45.88979" lon="4.82719">
        <ele>173</ele>
        <time>2017-09-27T09:47:43Z</time>
      </trkpt>
      <trkpt lat="45.88976" lon="4.82726">
        <ele>173</ele>
        <time>2017-09-27T09:47:45Z</time>
      </trkpt>
      <trkpt lat="45.88972" lon="4.8273">
        <ele>173</ele>
        <time>2017-09-27T09:47:46Z</time>
      </trkpt>
      <trkpt lat="45.88967" lon="4.82739">
        <ele>172</ele>
        <time>2017-09-27T09:47:48Z</time>
      </trkpt>
      <trkpt lat="45.88964" lon="4.82746">
        <ele>172</ele>
        <time>2017-09-27T09:47:49Z</time>
      </trkpt>
      <trkpt lat="45.8896" lon="4.82752">
        <ele>172</ele>
        <time>2017-09-27T09:47:50Z</time>
      </trkpt>
      <trkpt lat="45.88956" lon="4.82759">
        <ele>172</ele>
        <time>2017-09-27T09:47:51Z</time>
      </trkpt>
      <trkpt lat="45.88951" lon="4.82765">
        <ele>172</ele>
        <time>2017-09-27T09:47:52Z</time>
      </trkpt>
      <trkpt lat="45.88948" lon="4.82772">
        <ele>172</ele>
        <time>2017-09-27T09:47:53Z</time>
      </trkpt>
      <trkpt lat="45.88944" lon="4.82778">
        <ele>172</ele>
        <time>2017-09-27T09:47:54Z</time>
      </trkpt>
      <trkpt lat="45.88939" lon="4.82783">
        <ele>172</ele>
        <time>2017-09-27T09:47:55Z</time>
      </trkpt>
      <trkpt lat="45.88935" lon="4.82788">
        <ele>172</ele>
        <time>2017-09-27T09:47:56Z</time>
      </trkpt>
      <trkpt lat="45.88931" lon="4.82793">
        <ele>172</ele>
        <time>2017-09-27T09:47:57Z</time>
      </trkpt>
      <trkpt lat="45.88926" lon="4.82798">
        <ele>172</ele>
        <time>2017-09-27T09:47:58Z</time>
      </trkpt>
      <trkpt lat="45.88922" lon="4.82802">
        <ele>172</ele>
        <time>2017-09-27T09:47:59Z</time>
      </trkpt>
      <trkpt lat="45.88917" lon="4.82807">
        <ele>172</ele>
        <time>2017-09-27T09:48:00Z</time>
      </trkpt>
      <trkpt lat="45.88913" lon="4.82811">
        <ele>172</ele>
        <time>2017-09-27T09:48:01Z</time>
      </trkpt>
      <trkpt lat="45.8891" lon="4.82816">
        <ele>172</ele>
        <time>2017-09-27T09:48:02Z</time>
      </trkpt>
      <trkpt lat="45.88906" lon="4.8282">
        <ele>172</ele>
        <time>2017-09-27T09:48:03Z</time>
      </trkpt>
      <trkpt lat="45.88903" lon="4.82824">
        <ele>172</ele>
        <time>2017-09-27T09:48:04Z</time>
      </trkpt>
      <trkpt lat="45.88899" lon="4.82829">
        <ele>172</ele>
        <time>2017-09-27T09:48:05Z</time>
      </trkpt>
      <trkpt lat="45.88895" lon="4.82835">
        <ele>172</ele>
        <time>2017-09-27T09:48:06Z</time>
      </trkpt>
      <trkpt lat="45.88892" lon="4.82841">
        <ele>172</ele>
        <time>2017-09-27T09:48:07Z</time>
      </trkpt>
      <trkpt lat="45.88886" lon="4.82847">
        <ele>172</ele>
        <time>2017-09-27T09:48:08Z</time>
      </trkpt>
      <trkpt lat="45.88882" lon="4.82853">
        <ele>172</ele>
        <time>2017-09-27T09:48:09Z</time>
      </trkpt>
      <trkpt lat="45.88878" lon="4.82859">
        <ele>172</ele>
        <time>2017-09-27T09:48:10Z</time>
      </trkpt>
      <trkpt lat="45.88873" lon="4.82864">
        <ele>172</ele>
        <time>2017-09-27T09:48:11Z</time>
      </trkpt>
      <trkpt lat="45.88868" lon="4.82869">
        <ele>172</ele>
        <time>2017-09-27T09:48:12Z</time>
      </trkpt>
      <trkpt lat="45.88864" lon="4.82874">
        <ele>172</ele>
        <time>2017-09-27T09:48:13Z</time>
      </trkpt>
      <trkpt lat="45.8886" lon="4.82878">
        <ele>172</ele>
        <time>2017-09-27T09:48:14Z</time>
      </trkpt>
      <trkpt lat="45.88856" lon="4.82882">
        <ele>172</ele>
        <time>2017-09-27T09:48:15Z</time>
      </trkpt>
      <trkpt lat="45.88852" lon="4.82887">
        <ele>172</ele>
        <time>2017-09-27T09:48:16Z</time>
      </trkpt>
      <trkpt lat="45.88848" lon="4.82892">
        <ele>172</ele>
        <time>2017-09-27T09:48:17Z</time>
      </trkpt>
      <trkpt lat="45.88841" lon="4.82898">
        <ele>172</ele>
        <time>2017-09-27T09:48:19Z</time>
      </trkpt>
      <trkpt lat="45.88838" lon="4.82903">
        <ele>172</ele>
        <time>2017-09-27T09:48:20Z</time>
      </trkpt>
      <trkpt lat="45.88834" lon="4.82907">
        <ele>172</ele>
        <time>2017-09-27T09:48:21Z</time>
      </trkpt>
      <trkpt lat="45.88831" lon="4.82911">
        <ele>172</ele>
        <time>2017-09-27T09:48:22Z</time>
      </trkpt>
      <trkpt lat="45.88828" lon="4.82916">
        <ele>172</ele>
        <time>2017-09-27T09:48:23Z</time>
      </trkpt>
      <trkpt lat="45.88823" lon="4.82921">
        <ele>172</ele>
        <time>2017-09-27T09:48:24Z</time>
      </trkpt>
      <trkpt lat="45.88819" lon="4.82925">
        <ele>172</ele>
        <time>2017-09-27T09:48:25Z</time>
      </trkpt>
      <trkpt lat="45.88815" lon="4.8293">
        <ele>172</ele>
        <time>2017-09-27T09:48:26Z</time>
      </trkpt>
      <trkpt lat="45.88811" lon="4.82935">
        <ele>172</ele>
        <time>2017-09-27T09:48:27Z</time>
      </trkpt>
      <trkpt lat="45.88807" lon="4.82941">
        <ele>172</ele>
        <time>2017-09-27T09:48:28Z</time>
      </trkpt>
      <trkpt lat="45.88803" lon="4.82946">
        <ele>172</ele>
        <time>2017-09-27T09:48:29Z</time>
      </trkpt>
      <trkpt lat="45.88799" lon="4.82951">
        <ele>172</ele>
        <time>2017-09-27T09:48:30Z</time>
      </trkpt>
      <trkpt lat="45.88795" lon="4.82956">
        <ele>172</ele>
        <time>2017-09-27T09:48:31Z</time>
      </trkpt>
      <trkpt lat="45.88791" lon="4.82961">
        <ele>172</ele>
        <time>2017-09-27T09:48:32Z</time>
      </trkpt>
      <trkpt lat="45.88787" lon="4.82965">
        <ele>172</ele>
        <time>2017-09-27T09:48:33Z</time>
      </trkpt>
      <trkpt lat="45.88781" lon="4.8297">
        <ele>172</ele>
        <time>2017-09-27T09:48:34Z</time>
      </trkpt>
      <trkpt lat="45.88777" lon="4.82976">
        <ele>172</ele>
        <time>2017-09-27T09:48:35Z</time>
      </trkpt>
      <trkpt lat="45.88773" lon="4.82982">
        <ele>172</ele>
        <time>2017-09-27T09:48:36Z</time>
      </trkpt>
      <trkpt lat="45.88768" lon="4.82987">
        <ele>172</ele>
        <time>2017-09-27T09:48:37Z</time>
      </trkpt>
      <trkpt lat="45.88764" lon="4.82991">
        <ele>172</ele>
        <time>2017-09-27T09:48:38Z</time>
      </trkpt>
      <trkpt lat="45.8876" lon="4.82995">
        <ele>172</ele>
        <time>2017-09-27T09:48:39Z</time>
      </trkpt>
      <trkpt lat="45.88757" lon="4.83">
        <ele>172</ele>
        <time>2017-09-27T09:48:40Z</time>
      </trkpt>
      <trkpt lat="45.88753" lon="4.83006">
        <ele>172</ele>
        <time>2017-09-27T09:48:41Z</time>
      </trkpt>
      <trkpt lat="45.8875" lon="4.83011">
        <ele>173</ele>
        <time>2017-09-27T09:48:42Z</time>
      </trkpt>
      <trkpt lat="45.88746" lon="4.83015">
        <ele>173</ele>
        <time>2017-09-27T09:48:43Z</time>
      </trkpt>
      <trkpt lat="45.88742" lon="4.83019">
        <ele>173</ele>
        <time>2017-09-27T09:48:44Z</time>
      </trkpt>
      <trkpt lat="45.88738" lon="4.83023">
        <ele>173</ele>
        <time>2017-09-27T09:48:45Z</time>
      </trkpt>
      <trkpt lat="45.88734" lon="4.83027">
        <ele>173</ele>
        <time>2017-09-27T09:48:46Z</time>
      </trkpt>
      <trkpt lat="45.8873" lon="4.83031">
        <ele>173</ele>
        <time>2017-09-27T09:48:47Z</time>
      </trkpt>
      <trkpt lat="45.88728" lon="4.83037">
        <ele>173</ele>
        <time>2017-09-27T09:48:48Z</time>
      </trkpt>
      <trkpt lat="45.88721" lon="4.83044">
        <ele>174</ele>
        <time>2017-09-27T09:48:50Z</time>
      </trkpt>
      <trkpt lat="45.88716" lon="4.83046">
        <ele>174</ele>
        <time>2017-09-27T09:48:51Z</time>
      </trkpt>
      <trkpt lat="45.88714" lon="4.83053">
        <ele>174</ele>
        <time>2017-09-27T09:48:52Z</time>
      </trkpt>
      <trkpt lat="45.88711" lon="4.83058">
        <ele>174</ele>
        <time>2017-09-27T09:48:53Z</time>
      </trkpt>
      <trkpt lat="45.88707" lon="4.83063">
        <ele>174</ele>
        <time>2017-09-27T09:48:54Z</time>
      </trkpt>
      <trkpt lat="45.88704" lon="4.83067">
        <ele>174</ele>
        <time>2017-09-27T09:48:55Z</time>
      </trkpt>
      <trkpt lat="45.88699" lon="4.83073">
        <ele>174</ele>
        <time>2017-09-27T09:48:56Z</time>
      </trkpt>
      <trkpt lat="45.88693" lon="4.83077">
        <ele>174</ele>
        <time>2017-09-27T09:48:57Z</time>
      </trkpt>
      <trkpt lat="45.88689" lon="4.83081">
        <ele>174</ele>
        <time>2017-09-27T09:48:58Z</time>
      </trkpt>
      <trkpt lat="45.88686" lon="4.83087">
        <ele>174</ele>
        <time>2017-09-27T09:48:59Z</time>
      </trkpt>
      <trkpt lat="45.88683" lon="4.83092">
        <ele>174</ele>
        <time>2017-09-27T09:49:00Z</time>
      </trkpt>
      <trkpt lat="45.88678" lon="4.83097">
        <ele>174</ele>
        <time>2017-09-27T09:49:01Z</time>
      </trkpt>
      <trkpt lat="45.88675" lon="4.831">
        <ele>174</ele>
        <time>2017-09-27T09:49:02Z</time>
      </trkpt>
      <trkpt lat="45.88669" lon="4.83105">
        <ele>174</ele>
        <time>2017-09-27T09:49:03Z</time>
      </trkpt>
      <trkpt lat="45.88665" lon="4.8311">
        <ele>174</ele>
        <time>2017-09-27T09:49:04Z</time>
      </trkpt>
      <trkpt lat="45.88661" lon="4.83115">
        <ele>173</ele>
        <time>2017-09-27T09:49:05Z</time>
      </trkpt>
      <trkpt lat="45.88657" lon="4.83121">
        <ele>173</ele>
        <time>2017-09-27T09:49:06Z</time>
      </trkpt>
      <trkpt lat="45.88653" lon="4.83127">
        <ele>173</ele>
        <time>2017-09-27T09:49:07Z</time>
      </trkpt>
      <trkpt lat="45.88649" lon="4.83133">
        <ele>173</ele>
        <time>2017-09-27T09:49:08Z</time>
      </trkpt>
      <trkpt lat="45.88644" lon="4.83136">
        <ele>173</ele>
        <time>2017-09-27T09:49:09Z</time>
      </trkpt>
      <trkpt lat="45.88641" lon="4.83141">
        <ele>173</ele>
        <time>2017-09-27T09:49:10Z</time>
      </trkpt>
      <trkpt lat="45.88636" lon="4.83146">
        <ele>173</ele>
        <time>2017-09-27T09:49:11Z</time>
      </trkpt>
      <trkpt lat="45.88631" lon="4.83151">
        <ele>173</ele>
        <time>2017-09-27T09:49:12Z</time>
      </trkpt>
      <trkpt lat="45.88627" lon="4.83155">
        <ele>173</ele>
        <time>2017-09-27T09:49:13Z</time>
      </trkpt>
      <trkpt lat="45.88623" lon="4.8316">
        <ele>172</ele>
        <time>2017-09-27T09:49:14Z</time>
      </trkpt>
      <trkpt lat="45.8862" lon="4.83164">
        <ele>172</ele>
        <time>2017-09-27T09:49:15Z</time>
      </trkpt>
      <trkpt lat="45.88616" lon="4.83168">
        <ele>172</ele>
        <time>2017-09-27T09:49:16Z</time>
      </trkpt>
      <trkpt lat="45.88612" lon="4.83172">
        <ele>172</ele>
        <time>2017-09-27T09:49:17Z</time>
      </trkpt>
      <trkpt lat="45.88607" lon="4.83176">
        <ele>172</ele>
        <time>2017-09-27T09:49:18Z</time>
      </trkpt>
      <trkpt lat="45.88603" lon="4.8318">
        <ele>172</ele>
        <time>2017-09-27T09:49:19Z</time>
      </trkpt>
      <trkpt lat="45.88599" lon="4.83183">
        <ele>172</ele>
        <time>2017-09-27T09:49:20Z</time>
      </trkpt>
      <trkpt lat="45.88597" lon="4.83189">
        <ele>172</ele>
        <time>2017-09-27T09:49:21Z</time>
      </trkpt>
      <trkpt lat="45.88593" lon="4.83195">
        <ele>172</ele>
        <time>2017-09-27T09:49:22Z</time>
      </trkpt>
      <trkpt lat="45.88589" lon="4.83201">
        <ele>172</ele>
        <time>2017-09-27T09:49:23Z</time>
      </trkpt>
      <trkpt lat="45.88585" lon="4.83206">
        <ele>172</ele>
        <time>2017-09-27T09:49:24Z</time>
      </trkpt>
      <trkpt lat="45.88581" lon="4.83211">
        <ele>172</ele>
        <time>2017-09-27T09:49:25Z</time>
      </trkpt>
      <trkpt lat="45.88577" lon="4.83216">
        <ele>172</ele>
        <time>2017-09-27T09:49:26Z</time>
      </trkpt>
      <trkpt lat="45.88573" lon="4.83221">
        <ele>172</ele>
        <time>2017-09-27T09:49:27Z</time>
      </trkpt>
      <trkpt lat="45.88569" lon="4.83226">
        <ele>172</ele>
        <time>2017-09-27T09:49:28Z</time>
      </trkpt>
      <trkpt lat="45.88565" lon="4.83231">
        <ele>172</ele>
        <time>2017-09-27T09:49:29Z</time>
      </trkpt>
      <trkpt lat="45.88561" lon="4.83236">
        <ele>172</ele>
        <time>2017-09-27T09:49:30Z</time>
      </trkpt>
      <trkpt lat="45.88558" lon="4.8324">
        <ele>172</ele>
        <time>2017-09-27T09:49:31Z</time>
      </trkpt>
      <trkpt lat="45.88552" lon="4.83249">
        <ele>172</ele>
        <time>2017-09-27T09:49:33Z</time>
      </trkpt>
      <trkpt lat="45.88548" lon="4.83254">
        <ele>172</ele>
        <time>2017-09-27T09:49:34Z</time>
      </trkpt>
      <trkpt lat="45.88541" lon="4.83262">
        <ele>172</ele>
        <time>2017-09-27T09:49:36Z</time>
      </trkpt>
      <trkpt lat="45.88536" lon="4.83265">
        <ele>172</ele>
        <time>2017-09-27T09:49:37Z</time>
      </trkpt>
      <trkpt lat="45.88531" lon="4.83269">
        <ele>172</ele>
        <time>2017-09-27T09:49:38Z</time>
      </trkpt>
      <trkpt lat="45.88527" lon="4.83274">
        <ele>172</ele>
        <time>2017-09-27T09:49:39Z</time>
      </trkpt>
      <trkpt lat="45.88522" lon="4.83278">
        <ele>172</ele>
        <time>2017-09-27T09:49:40Z</time>
      </trkpt>
      <trkpt lat="45.88517" lon="4.83282">
        <ele>172</ele>
        <time>2017-09-27T09:49:41Z</time>
      </trkpt>
      <trkpt lat="45.88513" lon="4.83284">
        <ele>172</ele>
        <time>2017-09-27T09:49:42Z</time>
      </trkpt>
      <trkpt lat="45.88506" lon="4.83286">
        <ele>172</ele>
        <time>2017-09-27T09:49:43Z</time>
      </trkpt>
      <trkpt lat="45.88502" lon="4.83288">
        <ele>172</ele>
        <time>2017-09-27T09:49:44Z</time>
      </trkpt>
      <trkpt lat="45.88498" lon="4.83291">
        <ele>172</ele>
        <time>2017-09-27T09:49:45Z</time>
      </trkpt>
      <trkpt lat="45.8849" lon="4.83296">
        <ele>172</ele>
        <time>2017-09-27T09:49:47Z</time>
      </trkpt>
      <trkpt lat="45.88485" lon="4.833">
        <ele>172</ele>
        <time>2017-09-27T09:49:48Z</time>
      </trkpt>
      <trkpt lat="45.88481" lon="4.83303">
        <ele>172</ele>
        <time>2017-09-27T09:49:49Z</time>
      </trkpt>
      <trkpt lat="45.88476" lon="4.83306">
        <ele>172</ele>
        <time>2017-09-27T09:49:50Z</time>
      </trkpt>
      <trkpt lat="45.8847" lon="4.83308">
        <ele>172</ele>
        <time>2017-09-27T09:49:51Z</time>
      </trkpt>
      <trkpt lat="45.88465" lon="4.83312">
        <ele>172</ele>
        <time>2017-09-27T09:49:52Z</time>
      </trkpt>
      <trkpt lat="45.88461" lon="4.83317">
        <ele>172</ele>
        <time>2017-09-27T09:49:53Z</time>
      </trkpt>
      <trkpt lat="45.88455" lon="4.83319">
        <ele>172</ele>
        <time>2017-09-27T09:49:54Z</time>
      </trkpt>
      <trkpt lat="45.8845" lon="4.83323">
        <ele>172</ele>
        <time>2017-09-27T09:49:55Z</time>
      </trkpt>
      <trkpt lat="45.88445" lon="4.83325">
        <ele>172</ele>
        <time>2017-09-27T09:49:56Z</time>
      </trkpt>
      <trkpt lat="45.88441" lon="4.83329">
        <ele>172</ele>
        <time>2017-09-27T09:49:57Z</time>
      </trkpt>
      <trkpt lat="45.88437" lon="4.83331">
        <ele>172</ele>
        <time>2017-09-27T09:49:58Z</time>
      </trkpt>
      <trkpt lat="45.88432" lon="4.83333">
        <ele>172</ele>
        <time>2017-09-27T09:49:59Z</time>
      </trkpt>
      <trkpt lat="45.88427" lon="4.83334">
        <ele>172</ele>
        <time>2017-09-27T09:50:00Z</time>
      </trkpt>
      <trkpt lat="45.88423" lon="4.83337">
        <ele>172</ele>
        <time>2017-09-27T09:50:01Z</time>
      </trkpt>
      <trkpt lat="45.88419" lon="4.83341">
        <ele>172</ele>
        <time>2017-09-27T09:50:02Z</time>
      </trkpt>
      <trkpt lat="45.88414" lon="4.83344">
        <ele>172</ele>
        <time>2017-09-27T09:50:03Z</time>
      </trkpt>
      <trkpt lat="45.8841" lon="4.83347">
        <ele>172</ele>
        <time>2017-09-27T09:50:04Z</time>
      </trkpt>
      <trkpt lat="45.88405" lon="4.83351">
        <ele>172</ele>
        <time>2017-09-27T09:50:05Z</time>
      </trkpt>
      <trkpt lat="45.884" lon="4.83353">
        <ele>172</ele>
        <time>2017-09-27T09:50:06Z</time>
      </trkpt>
      <trkpt lat="45.88395" lon="4.83355">
        <ele>172</ele>
        <time>2017-09-27T09:50:07Z</time>
      </trkpt>
      <trkpt lat="45.8839" lon="4.83358">
        <ele>172</ele>
        <time>2017-09-27T09:50:08Z</time>
      </trkpt>
      <trkpt lat="45.88386" lon="4.83361">
        <ele>172</ele>
        <time>2017-09-27T09:50:09Z</time>
      </trkpt>
      <trkpt lat="45.88382" lon="4.83364">
        <ele>172</ele>
        <time>2017-09-27T09:50:10Z</time>
      </trkpt>
      <trkpt lat="45.88377" lon="4.83366">
        <ele>172</ele>
        <time>2017-09-27T09:50:11Z</time>
      </trkpt>
      <trkpt lat="45.88372" lon="4.83366">
        <ele>172</ele>
        <time>2017-09-27T09:50:12Z</time>
      </trkpt>
      <trkpt lat="45.88366" lon="4.83367">
        <ele>172</ele>
        <time>2017-09-27T09:50:13Z</time>
      </trkpt>
      <trkpt lat="45.88361" lon="4.83368">
        <ele>172</ele>
        <time>2017-09-27T09:50:14Z</time>
      </trkpt>
      <trkpt lat="45.88356" lon="4.83371">
        <ele>172</ele>
        <time>2017-09-27T09:50:15Z</time>
      </trkpt>
      <trkpt lat="45.88351" lon="4.83371">
        <ele>172</ele>
        <time>2017-09-27T09:50:16Z</time>
      </trkpt>
      <trkpt lat="45.88346" lon="4.83373">
        <ele>172</ele>
        <time>2017-09-27T09:50:17Z</time>
      </trkpt>
      <trkpt lat="45.88342" lon="4.83376">
        <ele>172</ele>
        <time>2017-09-27T09:50:18Z</time>
      </trkpt>
      <trkpt lat="45.88337" lon="4.83379">
        <ele>172</ele>
        <time>2017-09-27T09:50:19Z</time>
      </trkpt>
      <trkpt lat="45.88332" lon="4.83381">
        <ele>172</ele>
        <time>2017-09-27T09:50:20Z</time>
      </trkpt>
      <trkpt lat="45.88328" lon="4.83386">
        <ele>172</ele>
        <time>2017-09-27T09:50:21Z</time>
      </trkpt>
      <trkpt lat="45.88323" lon="4.83388">
        <ele>172</ele>
        <time>2017-09-27T09:50:22Z</time>
      </trkpt>
      <trkpt lat="45.88317" lon="4.8339">
        <ele>172</ele>
        <time>2017-09-27T09:50:23Z</time>
      </trkpt>
      <trkpt lat="45.88314" lon="4.8339">
        <ele>172</ele>
        <time>2017-09-27T09:50:24Z</time>
      </trkpt>
      <trkpt lat="45.88306" lon="4.83393">
        <ele>172</ele>
        <time>2017-09-27T09:50:26Z</time>
      </trkpt>
      <trkpt lat="45.88302" lon="4.83395">
        <ele>172</ele>
        <time>2017-09-27T09:50:27Z</time>
      </trkpt>
      <trkpt lat="45.88297" lon="4.83396">
        <ele>172</ele>
        <time>2017-09-27T09:50:28Z</time>
      </trkpt>
      <trkpt lat="45.88289" lon="4.83396">
        <ele>172</ele>
        <time>2017-09-27T09:50:29Z</time>
      </trkpt>
      <trkpt lat="45.88282" lon="4.83397">
        <ele>172</ele>
        <time>2017-09-27T09:50:30Z</time>
      </trkpt>
      <trkpt lat="45.88278" lon="4.83398">
        <ele>172</ele>
        <time>2017-09-27T09:50:31Z</time>
      </trkpt>
      <trkpt lat="45.88273" lon="4.83401">
        <ele>172</ele>
        <time>2017-09-27T09:50:32Z</time>
      </trkpt>
      <trkpt lat="45.88267" lon="4.83402">
        <ele>172</ele>
        <time>2017-09-27T09:50:33Z</time>
      </trkpt>
      <trkpt lat="45.88263" lon="4.83404">
        <ele>172</ele>
        <time>2017-09-27T09:50:34Z</time>
      </trkpt>
      <trkpt lat="45.88257" lon="4.83405">
        <ele>172</ele>
        <time>2017-09-27T09:50:35Z</time>
      </trkpt>
      <trkpt lat="45.88253" lon="4.83407">
        <ele>172</ele>
        <time>2017-09-27T09:50:36Z</time>
      </trkpt>
      <trkpt lat="45.88248" lon="4.83408">
        <ele>172</ele>
        <time>2017-09-27T09:50:37Z</time>
      </trkpt>
      <trkpt lat="45.88244" lon="4.8341">
        <ele>172</ele>
        <time>2017-09-27T09:50:38Z</time>
      </trkpt>
      <trkpt lat="45.88238" lon="4.83411">
        <ele>172</ele>
        <time>2017-09-27T09:50:39Z</time>
      </trkpt>
      <trkpt lat="45.88232" lon="4.83412">
        <ele>171</ele>
        <time>2017-09-27T09:50:40Z</time>
      </trkpt>
      <trkpt lat="45.88228" lon="4.83414">
        <ele>171</ele>
        <time>2017-09-27T09:50:41Z</time>
      </trkpt>
      <trkpt lat="45.88223" lon="4.83416">
        <ele>171</ele>
        <time>2017-09-27T09:50:42Z</time>
      </trkpt>
      <trkpt lat="45.88218" lon="4.83418">
        <ele>172</ele>
        <time>2017-09-27T09:50:43Z</time>
      </trkpt>
      <trkpt lat="45.88214" lon="4.83421">
        <ele>172</ele>
        <time>2017-09-27T09:50:44Z</time>
      </trkpt>
      <trkpt lat="45.88209" lon="4.83423">
        <ele>171</ele>
        <time>2017-09-27T09:50:45Z</time>
      </trkpt>
      <trkpt lat="45.88201" lon="4.83425">
        <ele>171</ele>
        <time>2017-09-27T09:50:47Z</time>
      </trkpt>
      <trkpt lat="45.88198" lon="4.83426">
        <ele>171</ele>
        <time>2017-09-27T09:50:48Z</time>
      </trkpt>
      <trkpt lat="45.88192" lon="4.83429">
        <ele>171</ele>
        <time>2017-09-27T09:50:49Z</time>
      </trkpt>
      <trkpt lat="45.88187" lon="4.83432">
        <ele>171</ele>
        <time>2017-09-27T09:50:50Z</time>
      </trkpt>
      <trkpt lat="45.88181" lon="4.83435">
        <ele>171</ele>
        <time>2017-09-27T09:50:51Z</time>
      </trkpt>
      <trkpt lat="45.88176" lon="4.83438">
        <ele>171</ele>
        <time>2017-09-27T09:50:52Z</time>
      </trkpt>
      <trkpt lat="45.8817" lon="4.83439">
        <ele>171</ele>
        <time>2017-09-27T09:50:53Z</time>
      </trkpt>
      <trkpt lat="45.88165" lon="4.83442">
        <ele>171</ele>
        <time>2017-09-27T09:50:54Z</time>
      </trkpt>
      <trkpt lat="45.88162" lon="4.83446">
        <ele>171</ele>
        <time>2017-09-27T09:50:55Z</time>
      </trkpt>
      <trkpt lat="45.88157" lon="4.83452">
        <ele>171</ele>
        <time>2017-09-27T09:50:56Z</time>
      </trkpt>
      <trkpt lat="45.88153" lon="4.83454">
        <ele>171</ele>
        <time>2017-09-27T09:50:57Z</time>
      </trkpt>
      <trkpt lat="45.88148" lon="4.83458">
        <ele>171</ele>
        <time>2017-09-27T09:50:58Z</time>
      </trkpt>
      <trkpt lat="45.88142" lon="4.83461">
        <ele>171</ele>
        <time>2017-09-27T09:50:59Z</time>
      </trkpt>
      <trkpt lat="45.88138" lon="4.83464">
        <ele>171</ele>
        <time>2017-09-27T09:51:00Z</time>
      </trkpt>
      <trkpt lat="45.88131" lon="4.8347">
        <ele>172</ele>
        <time>2017-09-27T09:51:02Z</time>
      </trkpt>
      <trkpt lat="45.88127" lon="4.83474">
        <ele>172</ele>
        <time>2017-09-27T09:51:03Z</time>
      </trkpt>
      <trkpt lat="45.88123" lon="4.83476">
        <ele>172</ele>
        <time>2017-09-27T09:51:04Z</time>
      </trkpt>
      <trkpt lat="45.88118" lon="4.83479">
        <ele>172</ele>
        <time>2017-09-27T09:51:05Z</time>
      </trkpt>
      <trkpt lat="45.88111" lon="4.83485">
        <ele>172</ele>
        <time>2017-09-27T09:51:07Z</time>
      </trkpt>
      <trkpt lat="45.88109" lon="4.83487">
        <ele>172</ele>
        <time>2017-09-27T09:51:08Z</time>
      </trkpt>
      <trkpt lat="45.88101" lon="4.83482">
        <ele>172</ele>
        <time>2017-09-27T09:51:11Z</time>
      </trkpt>
      <trkpt lat="45.88098" lon="4.83479">
        <ele>172</ele>
        <time>2017-09-27T09:51:12Z</time>
      </trkpt>
      <trkpt lat="45.88092" lon="4.83473">
        <ele>172</ele>
        <time>2017-09-27T09:51:14Z</time>
      </trkpt>
      <trkpt lat="45.88087" lon="4.8347">
        <ele>172</ele>
        <time>2017-09-27T09:51:15Z</time>
      </trkpt>
      <trkpt lat="45.8808" lon="4.83464">
        <ele>172</ele>
        <time>2017-09-27T09:51:17Z</time>
      </trkpt>
      <trkpt lat="45.88076" lon="4.83462">
        <ele>172</ele>
        <time>2017-09-27T09:51:18Z</time>
      </trkpt>
      <trkpt lat="45.88073" lon="4.83459">
        <ele>172</ele>
        <time>2017-09-27T09:51:19Z</time>
      </trkpt>
      <trkpt lat="45.88068" lon="4.83454">
        <ele>172</ele>
        <time>2017-09-27T09:51:20Z</time>
      </trkpt>
      <trkpt lat="45.8806" lon="4.8345">
        <ele>172</ele>
        <time>2017-09-27T09:51:22Z</time>
      </trkpt>
      <trkpt lat="45.88056" lon="4.83447">
        <ele>172</ele>
        <time>2017-09-27T09:51:23Z</time>
      </trkpt>
      <trkpt lat="45.88051" lon="4.83444">
        <ele>172</ele>
        <time>2017-09-27T09:51:24Z</time>
      </trkpt>
      <trkpt lat="45.88047" lon="4.8344">
        <ele>172</ele>
        <time>2017-09-27T09:51:25Z</time>
      </trkpt>
      <trkpt lat="45.88039" lon="4.83436">
        <ele>172</ele>
        <time>2017-09-27T09:51:27Z</time>
      </trkpt>
      <trkpt lat="45.88036" lon="4.83434">
        <ele>172</ele>
        <time>2017-09-27T09:51:28Z</time>
      </trkpt>
      <trkpt lat="45.88029" lon="4.8343">
        <ele>172</ele>
        <time>2017-09-27T09:51:30Z</time>
      </trkpt>
      <trkpt lat="45.88025" lon="4.83428">
        <ele>172</ele>
        <time>2017-09-27T09:51:31Z</time>
      </trkpt>
      <trkpt lat="45.88018" lon="4.83423">
        <ele>171</ele>
        <time>2017-09-27T09:51:33Z</time>
      </trkpt>
      <trkpt lat="45.88015" lon="4.83422">
        <ele>171</ele>
        <time>2017-09-27T09:51:34Z</time>
      </trkpt>
      <trkpt lat="45.88008" lon="4.83418">
        <ele>171</ele>
        <time>2017-09-27T09:51:36Z</time>
      </trkpt>
      <trkpt lat="45.88006" lon="4.83417">
        <ele>171</ele>
        <time>2017-09-27T09:51:37Z</time>
      </trkpt>
      <trkpt lat="45.87997" lon="4.83417">
        <ele>171</ele>
        <time>2017-09-27T09:51:41Z</time>
      </trkpt>
      <trkpt lat="45.87995" lon="4.83419">
        <ele>171</ele>
        <time>2017-09-27T09:51:42Z</time>
      </trkpt>
      <trkpt lat="45.87992" lon="4.83431">
        <ele>170</ele>
        <time>2017-09-27T09:51:45Z</time>
      </trkpt>
      <trkpt lat="45.87991" lon="4.83435">
        <ele>170</ele>
        <time>2017-09-27T09:51:46Z</time>
      </trkpt>
      <trkpt lat="45.87989" lon="4.83443">
        <ele>170</ele>
        <time>2017-09-27T09:51:48Z</time>
      </trkpt>
      <trkpt lat="45.87989" lon="4.83451">
        <ele>170</ele>
        <time>2017-09-27T09:51:49Z</time>
      </trkpt>
      <trkpt lat="45.87986" lon="4.83462">
        <ele>170</ele>
        <time>2017-09-27T09:51:51Z</time>
      </trkpt>
      <trkpt lat="45.87985" lon="4.83468">
        <ele>170</ele>
        <time>2017-09-27T09:51:52Z</time>
      </trkpt>
      <trkpt lat="45.87981" lon="4.83479">
        <ele>170</ele>
        <time>2017-09-27T09:51:54Z</time>
      </trkpt>
      <trkpt lat="45.8798" lon="4.83485">
        <ele>170</ele>
        <time>2017-09-27T09:51:55Z</time>
      </trkpt>
      <trkpt lat="45.87979" lon="4.83497">
        <ele>170</ele>
        <time>2017-09-27T09:51:57Z</time>
      </trkpt>
      <trkpt lat="45.87977" lon="4.83502">
        <ele>171</ele>
        <time>2017-09-27T09:51:58Z</time>
      </trkpt>
      <trkpt lat="45.87976" lon="4.83508">
        <ele>171</ele>
        <time>2017-09-27T09:51:59Z</time>
      </trkpt>
      <trkpt lat="45.87974" lon="4.83514">
        <ele>171</ele>
        <time>2017-09-27T09:52:00Z</time>
      </trkpt>
      <trkpt lat="45.87973" lon="4.83521">
        <ele>170</ele>
        <time>2017-09-27T09:52:01Z</time>
      </trkpt>
      <trkpt lat="45.87971" lon="4.83528">
        <ele>170</ele>
        <time>2017-09-27T09:52:02Z</time>
      </trkpt>
      <trkpt lat="45.8797" lon="4.83536">
        <ele>170</ele>
        <time>2017-09-27T09:52:03Z</time>
      </trkpt>
      <trkpt lat="45.87968" lon="4.83542">
        <ele>170</ele>
        <time>2017-09-27T09:52:04Z</time>
      </trkpt>
      <trkpt lat="45.87965" lon="4.83548">
        <ele>170</ele>
        <time>2017-09-27T09:52:05Z</time>
      </trkpt>
      <trkpt lat="45.87962" lon="4.83553">
        <ele>170</ele>
        <time>2017-09-27T09:52:06Z</time>
      </trkpt>
      <trkpt lat="45.87962" lon="4.83561">
        <ele>170</ele>
        <time>2017-09-27T09:52:07Z</time>
      </trkpt>
      <trkpt lat="45.87959" lon="4.83566">
        <ele>170</ele>
        <time>2017-09-27T09:52:08Z</time>
      </trkpt>
      <trkpt lat="45.87956" lon="4.83577">
        <ele>170</ele>
        <time>2017-09-27T09:52:10Z</time>
      </trkpt>
      <trkpt lat="45.87954" lon="4.83582">
        <ele>170</ele>
        <time>2017-09-27T09:52:11Z</time>
      </trkpt>
      <trkpt lat="45.8795" lon="4.83592">
        <ele>171</ele>
        <time>2017-09-27T09:52:13Z</time>
      </trkpt>
      <trkpt lat="45.87948" lon="4.83597">
        <ele>171</ele>
        <time>2017-09-27T09:52:14Z</time>
      </trkpt>
      <trkpt lat="45.87945" lon="4.83606">
        <ele>171</ele>
        <time>2017-09-27T09:52:16Z</time>
      </trkpt>
      <trkpt lat="45.87944" lon="4.83611">
        <ele>171</ele>
        <time>2017-09-27T09:52:17Z</time>
      </trkpt>
      <trkpt lat="45.87942" lon="4.8362">
        <ele>171</ele>
        <time>2017-09-27T09:52:19Z</time>
      </trkpt>
      <trkpt lat="45.87941" lon="4.83624">
        <ele>171</ele>
        <time>2017-09-27T09:52:20Z</time>
      </trkpt>
      <trkpt lat="45.87938" lon="4.83634">
        <ele>171</ele>
        <time>2017-09-27T09:52:23Z</time>
      </trkpt>
      <trkpt lat="45.87937" lon="4.83637">
        <ele>171</ele>
        <time>2017-09-27T09:52:24Z</time>
      </trkpt>
      <trkpt lat="45.87931" lon="4.83643">
        <ele>171</ele>
        <time>2017-09-27T09:52:30Z</time>
      </trkpt>
      <trkpt lat="45.87929" lon="4.83643">
        <ele>171</ele>
        <time>2017-09-27T09:52:31Z</time>
      </trkpt>
      <trkpt lat="45.87922" lon="4.83646">
        <ele>171</ele>
        <time>2017-09-27T09:52:34Z</time>
      </trkpt>
      <trkpt lat="45.8792" lon="4.83647">
        <ele>171</ele>
        <time>2017-09-27T09:52:35Z</time>
      </trkpt>
      <trkpt lat="45.87914" lon="4.8365">
        <ele>170</ele>
        <time>2017-09-27T09:52:37Z</time>
      </trkpt>
      <trkpt lat="45.87911" lon="4.83653">
        <ele>170</ele>
        <time>2017-09-27T09:52:38Z</time>
      </trkpt>
      <trkpt lat="45.87906" lon="4.8366">
        <ele>170</ele>
        <time>2017-09-27T09:52:40Z</time>
      </trkpt>
      <trkpt lat="45.87903" lon="4.83663">
        <ele>170</ele>
        <time>2017-09-27T09:52:41Z</time>
      </trkpt>
      <trkpt lat="45.87897" lon="4.83671">
        <ele>170</ele>
        <time>2017-09-27T09:52:44Z</time>
      </trkpt>
      <trkpt lat="45.87896" lon="4.83675">
        <ele>169</ele>
        <time>2017-09-27T09:52:45Z</time>
      </trkpt>
      <trkpt lat="45.87891" lon="4.83681">
        <ele>169</ele>
        <time>2017-09-27T09:52:47Z</time>
      </trkpt>
      <trkpt lat="45.87889" lon="4.83684">
        <ele>169</ele>
        <time>2017-09-27T09:52:48Z</time>
      </trkpt>
      <trkpt lat="45.87884" lon="4.8369">
        <ele>169</ele>
        <time>2017-09-27T09:52:50Z</time>
      </trkpt>
      <trkpt lat="45.87881" lon="4.83692">
        <ele>169</ele>
        <time>2017-09-27T09:52:51Z</time>
      </trkpt>
      <trkpt lat="45.87875" lon="4.83699">
        <ele>168</ele>
        <time>2017-09-27T09:52:54Z</time>
      </trkpt>
      <trkpt lat="45.87873" lon="4.83701">
        <ele>168</ele>
        <time>2017-09-27T09:52:55Z</time>
      </trkpt>
      <trkpt lat="45.87866" lon="4.83706">
        <ele>168</ele>
        <time>2017-09-27T09:52:58Z</time>
      </trkpt>
      <trkpt lat="45.87863" lon="4.83709">
        <ele>168</ele>
        <time>2017-09-27T09:52:59Z</time>
      </trkpt>
      <trkpt lat="45.87857" lon="4.83716">
        <ele>168</ele>
        <time>2017-09-27T09:53:02Z</time>
      </trkpt>
      <trkpt lat="45.87856" lon="4.83718">
        <ele>168</ele>
        <time>2017-09-27T09:53:03Z</time>
      </trkpt>
      <trkpt lat="45.87857" lon="4.83731">
        <ele>168</ele>
        <time>2017-09-27T09:59:40Z</time>
      </trkpt>
      <trkpt lat="45.87856" lon="4.83731">
        <ele>168</ele>
        <time>2017-09-27T09:59:41Z</time>
      </trkpt>
      <trkpt lat="45.8785" lon="4.83737">
        <ele>167</ele>
        <time>2017-09-27T09:59:46Z</time>
      </trkpt>
      <trkpt lat="45.87849" lon="4.83739">
        <ele>167</ele>
        <time>2017-09-27T09:59:47Z</time>
      </trkpt>
      <trkpt lat="45.87842" lon="4.83747">
        <ele>166</ele>
        <time>2017-09-27T09:59:51Z</time>
      </trkpt>
      <trkpt lat="45.87839" lon="4.83749">
        <ele>166</ele>
        <time>2017-09-27T09:59:52Z</time>
      </trkpt>
      <trkpt lat="45.87833" lon="4.83754">
        <ele>166</ele>
        <time>2017-09-27T09:59:54Z</time>
      </trkpt>
      <trkpt lat="45.8783" lon="4.83757">
        <ele>166</ele>
        <time>2017-09-27T09:59:55Z</time>
      </trkpt>
      <trkpt lat="45.87823" lon="4.83764">
        <ele>167</ele>
        <time>2017-09-27T09:59:57Z</time>
      </trkpt>
      <trkpt lat="45.87819" lon="4.83767">
        <ele>167</ele>
        <time>2017-09-27T09:59:58Z</time>
      </trkpt>
      <trkpt lat="45.87812" lon="4.83775">
        <ele>168</ele>
        <time>2017-09-27T10:00:00Z</time>
      </trkpt>
      <trkpt lat="45.87808" lon="4.83778">
        <ele>168</ele>
        <time>2017-09-27T10:00:01Z</time>
      </trkpt>
      <trkpt lat="45.87802" lon="4.83784">
        <ele>168</ele>
        <time>2017-09-27T10:00:03Z</time>
      </trkpt>
      <trkpt lat="45.87799" lon="4.83787">
        <ele>168</ele>
        <time>2017-09-27T10:00:04Z</time>
      </trkpt>
      <trkpt lat="45.87796" lon="4.8379">
        <ele>168</ele>
        <time>2017-09-27T10:00:05Z</time>
      </trkpt>
      <trkpt lat="45.87791" lon="4.83794">
        <ele>169</ele>
        <time>2017-09-27T10:00:06Z</time>
      </trkpt>
      <trkpt lat="45.87784" lon="4.83801">
        <ele>169</ele>
        <time>2017-09-27T10:00:08Z</time>
      </trkpt>
      <trkpt lat="45.8778" lon="4.83804">
        <ele>169</ele>
        <time>2017-09-27T10:00:09Z</time>
      </trkpt>
      <trkpt lat="45.87776" lon="4.83807">
        <ele>169</ele>
        <time>2017-09-27T10:00:10Z</time>
      </trkpt>
      <trkpt lat="45.87772" lon="4.8381">
        <ele>169</ele>
        <time>2017-09-27T10:00:11Z</time>
      </trkpt>
      <trkpt lat="45.87764" lon="4.83815">
        <ele>169</ele>
        <time>2017-09-27T10:00:13Z</time>
      </trkpt>
      <trkpt lat="45.8776" lon="4.83817">
        <ele>170</ele>
        <time>2017-09-27T10:00:14Z</time>
      </trkpt>
      <trkpt lat="45.87755" lon="4.83823">
        <ele>170</ele>
        <time>2017-09-27T10:00:16Z</time>
      </trkpt>
      <trkpt lat="45.87751" lon="4.83825">
        <ele>170</ele>
        <time>2017-09-27T10:00:17Z</time>
      </trkpt>
      <trkpt lat="45.87746" lon="4.83827">
        <ele>170</ele>
        <time>2017-09-27T10:00:19Z</time>
      </trkpt>
      <trkpt lat="45.87742" lon="4.83828">
        <ele>170</ele>
        <time>2017-09-27T10:00:20Z</time>
      </trkpt>
      <trkpt lat="45.87735" lon="4.83829">
        <ele>170</ele>
        <time>2017-09-27T10:00:22Z</time>
      </trkpt>
      <trkpt lat="45.87731" lon="4.8383">
        <ele>170</ele>
        <time>2017-09-27T10:00:23Z</time>
      </trkpt>
      <trkpt lat="45.87723" lon="4.8383">
        <ele>170</ele>
        <time>2017-09-27T10:00:25Z</time>
      </trkpt>
      <trkpt lat="45.87719" lon="4.83829">
        <ele>169</ele>
        <time>2017-09-27T10:00:26Z</time>
      </trkpt>
      <trkpt lat="45.87712" lon="4.83825">
        <ele>169</ele>
        <time>2017-09-27T10:00:28Z</time>
      </trkpt>
      <trkpt lat="45.87709" lon="4.83822">
        <ele>169</ele>
        <time>2017-09-27T10:00:29Z</time>
      </trkpt>
      <trkpt lat="45.87703" lon="4.83815">
        <ele>169</ele>
        <time>2017-09-27T10:00:31Z</time>
      </trkpt>
      <trkpt lat="45.877" lon="4.8381">
        <ele>169</ele>
        <time>2017-09-27T10:00:32Z</time>
      </trkpt>
      <trkpt lat="45.87698" lon="4.83798">
        <ele>169</ele>
        <time>2017-09-27T10:00:34Z</time>
      </trkpt>
      <trkpt lat="45.87697" lon="4.83792">
        <ele>168</ele>
        <time>2017-09-27T10:00:35Z</time>
      </trkpt>
      <trkpt lat="45.87697" lon="4.8378">
        <ele>168</ele>
        <time>2017-09-27T10:00:37Z</time>
      </trkpt>
      <trkpt lat="45.87697" lon="4.83774">
        <ele>168</ele>
        <time>2017-09-27T10:00:38Z</time>
      </trkpt>
      <trkpt lat="45.87696" lon="4.83765">
        <ele>167</ele>
        <time>2017-09-27T10:00:40Z</time>
      </trkpt>
      <trkpt lat="45.87696" lon="4.8376">
        <ele>167</ele>
        <time>2017-09-27T10:00:41Z</time>
      </trkpt>
      <trkpt lat="45.87697" lon="4.83747">
        <ele>165</ele>
        <time>2017-09-27T10:00:43Z</time>
      </trkpt>
      <trkpt lat="45.87696" lon="4.83742">
        <ele>165</ele>
        <time>2017-09-27T10:00:44Z</time>
      </trkpt>
      <trkpt lat="45.87693" lon="4.83731">
        <ele>165</ele>
        <time>2017-09-27T10:00:46Z</time>
      </trkpt>
      <trkpt lat="45.87692" lon="4.83725">
        <ele>165</ele>
        <time>2017-09-27T10:00:47Z</time>
      </trkpt>
      <trkpt lat="45.87693" lon="4.83716">
        <ele>165</ele>
        <time>2017-09-27T10:00:49Z</time>
      </trkpt>
      <trkpt lat="45.87693" lon="4.8371">
        <ele>165</ele>
        <time>2017-09-27T10:00:50Z</time>
      </trkpt>
      <trkpt lat="45.87692" lon="4.83698">
        <ele>165</ele>
        <time>2017-09-27T10:00:52Z</time>
      </trkpt>
      <trkpt lat="45.87693" lon="4.83693">
        <ele>165</ele>
        <time>2017-09-27T10:00:53Z</time>
      </trkpt>
      <trkpt lat="45.87691" lon="4.8368">
        <ele>165</ele>
        <time>2017-09-27T10:00:55Z</time>
      </trkpt>
      <trkpt lat="45.87691" lon="4.83675">
        <ele>165</ele>
        <time>2017-09-27T10:00:56Z</time>
      </trkpt>
      <trkpt lat="45.8769" lon="4.83663">
        <ele>165</ele>
        <time>2017-09-27T10:00:58Z</time>
      </trkpt>
      <trkpt lat="45.87688" lon="4.83656">
        <ele>165</ele>
        <time>2017-09-27T10:00:59Z</time>
      </trkpt>
      <trkpt lat="45.87687" lon="4.83645">
        <ele>165</ele>
        <time>2017-09-27T10:01:01Z</time>
      </trkpt>
      <trkpt lat="45.87687" lon="4.83638">
        <ele>165</ele>
        <time>2017-09-27T10:01:02Z</time>
      </trkpt>
      <trkpt lat="45.87687" lon="4.83632">
        <ele>165</ele>
        <time>2017-09-27T10:01:03Z</time>
      </trkpt>
      <trkpt lat="45.87685" lon="4.83625">
        <ele>165</ele>
        <time>2017-09-27T10:01:04Z</time>
      </trkpt>
      <trkpt lat="45.87684" lon="4.83618">
        <ele>165</ele>
        <time>2017-09-27T10:01:05Z</time>
      </trkpt>
      <trkpt lat="45.87682" lon="4.83612">
        <ele>165</ele>
        <time>2017-09-27T10:01:06Z</time>
      </trkpt>
      <trkpt lat="45.8768" lon="4.83605">
        <ele>165</ele>
        <time>2017-09-27T10:01:07Z</time>
      </trkpt>
      <trkpt lat="45.87682" lon="4.83596">
        <ele>165</ele>
        <time>2017-09-27T10:01:08Z</time>
      </trkpt>
      <trkpt lat="45.8768" lon="4.83588">
        <ele>165</ele>
        <time>2017-09-27T10:01:09Z</time>
      </trkpt>
      <trkpt lat="45.87679" lon="4.8358">
        <ele>166</ele>
        <time>2017-09-27T10:01:10Z</time>
      </trkpt>
      <trkpt lat="45.87679" lon="4.83572">
        <ele>167</ele>
        <time>2017-09-27T10:01:11Z</time>
      </trkpt>
      <trkpt lat="45.8768" lon="4.83565">
        <ele>167</ele>
        <time>2017-09-27T10:01:12Z</time>
      </trkpt>
      <trkpt lat="45.87682" lon="4.83559">
        <ele>167</ele>
        <time>2017-09-27T10:01:13Z</time>
      </trkpt>
      <trkpt lat="45.87685" lon="4.83554">
        <ele>168</ele>
        <time>2017-09-27T10:01:14Z</time>
      </trkpt>
      <trkpt lat="45.87688" lon="4.83545">
        <ele>168</ele>
        <time>2017-09-27T10:01:16Z</time>
      </trkpt>
      <trkpt lat="45.87688" lon="4.8354">
        <ele>168</ele>
        <time>2017-09-27T10:01:17Z</time>
      </trkpt>
      <trkpt lat="45.87686" lon="4.83531">
        <ele>169</ele>
        <time>2017-09-27T10:01:19Z</time>
      </trkpt>
      <trkpt lat="45.87686" lon="4.83525">
        <ele>169</ele>
        <time>2017-09-27T10:01:20Z</time>
      </trkpt>
      <trkpt lat="45.87683" lon="4.83515">
        <ele>170</ele>
        <time>2017-09-27T10:01:22Z</time>
      </trkpt>
      <trkpt lat="45.87681" lon="4.83509">
        <ele>170</ele>
        <time>2017-09-27T10:01:23Z</time>
      </trkpt>
      <trkpt lat="45.8768" lon="4.83503">
        <ele>170</ele>
        <time>2017-09-27T10:01:24Z</time>
      </trkpt>
      <trkpt lat="45.87679" lon="4.83496">
        <ele>171</ele>
        <time>2017-09-27T10:01:25Z</time>
      </trkpt>
      <trkpt lat="45.87676" lon="4.83489">
        <ele>171</ele>
        <time>2017-09-27T10:01:26Z</time>
      </trkpt>
      <trkpt lat="45.87674" lon="4.83482">
        <ele>172</ele>
        <time>2017-09-27T10:01:27Z</time>
      </trkpt>
      <trkpt lat="45.8767" lon="4.83471">
        <ele>172</ele>
        <time>2017-09-27T10:01:29Z</time>
      </trkpt>
      <trkpt lat="45.87668" lon="4.83465">
        <ele>172</ele>
        <time>2017-09-27T10:01:30Z</time>
      </trkpt>
      <trkpt lat="45.87664" lon="4.83455">
        <ele>172</ele>
        <time>2017-09-27T10:01:32Z</time>
      </trkpt>
      <trkpt lat="45.87662" lon="4.83451">
        <ele>172</ele>
        <time>2017-09-27T10:01:33Z</time>
      </trkpt>
      <trkpt lat="45.87657" lon="4.83442">
        <ele>172</ele>
        <time>2017-09-27T10:01:35Z</time>
      </trkpt>
      <trkpt lat="45.87654" lon="4.83439">
        <ele>172</ele>
        <time>2017-09-27T10:01:36Z</time>
      </trkpt>
      <trkpt lat="45.8765" lon="4.83434">
        <ele>172</ele>
        <time>2017-09-27T10:01:37Z</time>
      </trkpt>
      <trkpt lat="45.87647" lon="4.83429">
        <ele>172</ele>
        <time>2017-09-27T10:01:38Z</time>
      </trkpt>
      <trkpt lat="45.87641" lon="4.8342">
        <ele>172</ele>
        <time>2017-09-27T10:01:40Z</time>
      </trkpt>
      <trkpt lat="45.87637" lon="4.83416">
        <ele>173</ele>
        <time>2017-09-27T10:01:41Z</time>
      </trkpt>
      <trkpt lat="45.8763" lon="4.83408">
        <ele>174</ele>
        <time>2017-09-27T10:01:43Z</time>
      </trkpt>
      <trkpt lat="45.87627" lon="4.83405">
        <ele>174</ele>
        <time>2017-09-27T10:01:44Z</time>
      </trkpt>
      <trkpt lat="45.87624" lon="4.83402">
        <ele>174</ele>
        <time>2017-09-27T10:01:45Z</time>
      </trkpt>
      <trkpt lat="45.8762" lon="4.83398">
        <ele>174</ele>
        <time>2017-09-27T10:01:46Z</time>
      </trkpt>
      <trkpt lat="45.87613" lon="4.8339">
        <ele>174</ele>
        <time>2017-09-27T10:01:48Z</time>
      </trkpt>
      <trkpt lat="45.87609" lon="4.83386">
        <ele>174</ele>
        <time>2017-09-27T10:01:49Z</time>
      </trkpt>
      <trkpt lat="45.87603" lon="4.83379">
        <ele>174</ele>
        <time>2017-09-27T10:01:51Z</time>
      </trkpt>
      <trkpt lat="45.87601" lon="4.83376">
        <ele>174</ele>
        <time>2017-09-27T10:01:52Z</time>
      </trkpt>
      <trkpt lat="45.87594" lon="4.8337">
        <ele>174</ele>
        <time>2017-09-27T10:01:54Z</time>
      </trkpt>
      <trkpt lat="45.87591" lon="4.83367">
        <ele>174</ele>
        <time>2017-09-27T10:01:55Z</time>
      </trkpt>
      <trkpt lat="45.87584" lon="4.8336">
        <ele>175</ele>
        <time>2017-09-27T10:01:57Z</time>
      </trkpt>
      <trkpt lat="45.87581" lon="4.83355">
        <ele>176</ele>
        <time>2017-09-27T10:01:58Z</time>
      </trkpt>
      <trkpt lat="45.87574" lon="4.83346">
        <ele>176</ele>
        <time>2017-09-27T10:02:00Z</time>
      </trkpt>
      <trkpt lat="45.87572" lon="4.83341">
        <ele>176</ele>
        <time>2017-09-27T10:02:01Z</time>
      </trkpt>
      <trkpt lat="45.87566" lon="4.83333">
        <ele>177</ele>
        <time>2017-09-27T10:02:03Z</time>
      </trkpt>
      <trkpt lat="45.87563" lon="4.83329">
        <ele>177</ele>
        <time>2017-09-27T10:02:04Z</time>
      </trkpt>
      <trkpt lat="45.87558" lon="4.83319">
        <ele>177</ele>
        <time>2017-09-27T10:02:06Z</time>
      </trkpt>
      <trkpt lat="45.87556" lon="4.83314">
        <ele>177</ele>
        <time>2017-09-27T10:02:07Z</time>
      </trkpt>
      <trkpt lat="45.8755" lon="4.83305">
        <ele>177</ele>
        <time>2017-09-27T10:02:09Z</time>
      </trkpt>
      <trkpt lat="45.87549" lon="4.83302">
        <ele>177</ele>
        <time>2017-09-27T10:02:10Z</time>
      </trkpt>
      <trkpt lat="45.87547" lon="4.83294">
        <ele>177</ele>
        <time>2017-09-27T10:02:12Z</time>
      </trkpt>
      <trkpt lat="45.87546" lon="4.8329">
        <ele>178</ele>
        <time>2017-09-27T10:02:13Z</time>
      </trkpt>
      <trkpt lat="45.87545" lon="4.8328">
        <ele>178</ele>
        <time>2017-09-27T10:02:15Z</time>
      </trkpt>
      <trkpt lat="45.87545" lon="4.83276">
        <ele>178</ele>
        <time>2017-09-27T10:02:16Z</time>
      </trkpt>
      <trkpt lat="45.87548" lon="4.83266">
        <ele>178</ele>
        <time>2017-09-27T10:02:18Z</time>
      </trkpt>
      <trkpt lat="45.8755" lon="4.83263">
        <ele>178</ele>
        <time>2017-09-27T10:02:19Z</time>
      </trkpt>
      <trkpt lat="45.87555" lon="4.83256">
        <ele>178</ele>
        <time>2017-09-27T10:02:21Z</time>
      </trkpt>
      <trkpt lat="45.87558" lon="4.83254">
        <ele>178</ele>
        <time>2017-09-27T10:02:22Z</time>
      </trkpt>
      <trkpt lat="45.87564" lon="4.83248">
        <ele>180</ele>
        <time>2017-09-27T10:02:25Z</time>
      </trkpt>
      <trkpt lat="45.87566" lon="4.83246">
        <ele>180</ele>
        <time>2017-09-27T10:02:26Z</time>
      </trkpt>
      <trkpt lat="45.87572" lon="4.83237">
        <ele>180</ele>
        <time>2017-09-27T10:02:30Z</time>
      </trkpt>
      <trkpt lat="45.87573" lon="4.83234">
        <ele>180</ele>
        <time>2017-09-27T10:02:31Z</time>
      </trkpt>
      <trkpt lat="45.87574" lon="4.83223">
        <ele>181</ele>
        <time>2017-09-27T10:02:34Z</time>
      </trkpt>
      <trkpt lat="45.87573" lon="4.83219">
        <ele>181</ele>
        <time>2017-09-27T10:02:35Z</time>
      </trkpt>
      <trkpt lat="45.87568" lon="4.83209">
        <ele>182</ele>
        <time>2017-09-27T10:02:38Z</time>
      </trkpt>
      <trkpt lat="45.87566" lon="4.83206">
        <ele>182</ele>
        <time>2017-09-27T10:02:39Z</time>
      </trkpt>
      <trkpt lat="45.87562" lon="4.83198">
        <ele>182</ele>
        <time>2017-09-27T10:02:42Z</time>
      </trkpt>
      <trkpt lat="45.8756" lon="4.83196">
        <ele>182</ele>
        <time>2017-09-27T10:02:43Z</time>
      </trkpt>
      <trkpt lat="45.87556" lon="4.83188">
        <ele>183</ele>
        <time>2017-09-27T10:02:46Z</time>
      </trkpt>
      <trkpt lat="45.87555" lon="4.83185">
        <ele>183</ele>
        <time>2017-09-27T10:02:47Z</time>
      </trkpt>
      <trkpt lat="45.87551" lon="4.83176">
        <ele>183</ele>
        <time>2017-09-27T10:02:50Z</time>
      </trkpt>
      <trkpt lat="45.8755" lon="4.83173">
        <ele>183</ele>
        <time>2017-09-27T10:02:51Z</time>
      </trkpt>
      <trkpt lat="45.87546" lon="4.83164">
        <ele>189</ele>
        <time>2017-09-27T10:02:55Z</time>
      </trkpt>
      <trkpt lat="45.87545" lon="4.83162">
        <ele>189</ele>
        <time>2017-09-27T10:02:56Z</time>
      </trkpt>
      <trkpt lat="45.87539" lon="4.83154">
        <ele>190</ele>
        <time>2017-09-27T10:03:01Z</time>
      </trkpt>
      <trkpt lat="45.87536" lon="4.83154">
        <ele>190</ele>
        <time>2017-09-27T10:03:02Z</time>
      </trkpt>
      <trkpt lat="45.87529" lon="4.83154">
        <ele>190</ele>
        <time>2017-09-27T10:03:05Z</time>
      </trkpt>
      <trkpt lat="45.87527" lon="4.83154">
        <ele>190</ele>
        <time>2017-09-27T10:03:06Z</time>
      </trkpt>
      <trkpt lat="45.87518" lon="4.83156">
        <ele>190</ele>
        <time>2017-09-27T10:03:10Z</time>
      </trkpt>
      <trkpt lat="45.87516" lon="4.83157">
        <ele>190</ele>
        <time>2017-09-27T10:03:11Z</time>
      </trkpt>
      <trkpt lat="45.87509" lon="4.83157">
        <ele>190</ele>
        <time>2017-09-27T10:03:14Z</time>
      </trkpt>
      <trkpt lat="45.87507" lon="4.83157">
        <ele>190</ele>
        <time>2017-09-27T10:03:15Z</time>
      </trkpt>
      <trkpt lat="45.87498" lon="4.83159">
        <ele>191</ele>
        <time>2017-09-27T10:03:19Z</time>
      </trkpt>
      <trkpt lat="45.87496" lon="4.83158">
        <ele>192</ele>
        <time>2017-09-27T10:03:20Z</time>
      </trkpt>
      <trkpt lat="45.87489" lon="4.83153">
        <ele>193</ele>
        <time>2017-09-27T10:03:24Z</time>
      </trkpt>
      <trkpt lat="45.87487" lon="4.83151">
        <ele>193</ele>
        <time>2017-09-27T10:03:25Z</time>
      </trkpt>
      <trkpt lat="45.87483" lon="4.83141">
        <ele>194</ele>
        <time>2017-09-27T10:03:30Z</time>
      </trkpt>
      <trkpt lat="45.87483" lon="4.83138">
        <ele>194</ele>
        <time>2017-09-27T10:03:31Z</time>
      </trkpt>
      <trkpt lat="45.87485" lon="4.83127">
        <ele>195</ele>
        <time>2017-09-27T10:03:35Z</time>
      </trkpt>
      <trkpt lat="45.87486" lon="4.83125">
        <ele>195</ele>
        <time>2017-09-27T10:03:36Z</time>
      </trkpt>
      <trkpt lat="45.87494" lon="4.83118">
        <ele>195</ele>
        <time>2017-09-27T10:03:40Z</time>
      </trkpt>
      <trkpt lat="45.87496" lon="4.83117">
        <ele>195</ele>
        <time>2017-09-27T10:03:41Z</time>
      </trkpt>
      <trkpt lat="45.87503" lon="4.83112">
        <ele>194</ele>
        <time>2017-09-27T10:03:45Z</time>
      </trkpt>
      <trkpt lat="45.87504" lon="4.83111">
        <ele>194</ele>
        <time>2017-09-27T10:03:46Z</time>
      </trkpt>
      <trkpt lat="45.8751" lon="4.83104">
        <ele>194</ele>
        <time>2017-09-27T10:03:51Z</time>
      </trkpt>
      <trkpt lat="45.87511" lon="4.83102">
        <ele>194</ele>
        <time>2017-09-27T10:03:52Z</time>
      </trkpt>
      <trkpt lat="45.87517" lon="4.83092">
        <ele>195</ele>
        <time>2017-09-27T10:03:57Z</time>
      </trkpt>
      <trkpt lat="45.87518" lon="4.8309">
        <ele>195</ele>
        <time>2017-09-27T10:03:58Z</time>
      </trkpt>
      <trkpt lat="45.87523" lon="4.8308">
        <ele>199</ele>
        <time>2017-09-27T10:04:03Z</time>
      </trkpt>
      <trkpt lat="45.87523" lon="4.83078">
        <ele>199</ele>
        <time>2017-09-27T10:04:04Z</time>
      </trkpt>
      <trkpt lat="45.87528" lon="4.83069">
        <ele>200</ele>
        <time>2017-09-27T10:04:08Z</time>
      </trkpt>
      <trkpt lat="45.87528" lon="4.83066">
        <ele>200</ele>
        <time>2017-09-27T10:04:09Z</time>
      </trkpt>
      <trkpt lat="45.87531" lon="4.83056">
        <ele>200</ele>
        <time>2017-09-27T10:04:13Z</time>
      </trkpt>
      <trkpt lat="45.87532" lon="4.83053">
        <ele>200</ele>
        <time>2017-09-27T10:04:14Z</time>
      </trkpt>
      <trkpt lat="45.87534" lon="4.83042">
        <ele>201</ele>
        <time>2017-09-27T10:04:18Z</time>
      </trkpt>
      <trkpt lat="45.87534" lon="4.83038">
        <ele>201</ele>
        <time>2017-09-27T10:04:19Z</time>
      </trkpt>
      <trkpt lat="45.87535" lon="4.83026">
        <ele>201</ele>
        <time>2017-09-27T10:04:23Z</time>
      </trkpt>
      <trkpt lat="45.87535" lon="4.83023">
        <ele>202</ele>
        <time>2017-09-27T10:04:24Z</time>
      </trkpt>
      <trkpt lat="45.87535" lon="4.83012">
        <ele>202</ele>
        <time>2017-09-27T10:04:28Z</time>
      </trkpt>
      <trkpt lat="45.87535" lon="4.83009">
        <ele>202</ele>
        <time>2017-09-27T10:04:29Z</time>
      </trkpt>
      <trkpt lat="45.87534" lon="4.82998">
        <ele>206</ele>
        <time>2017-09-27T10:04:33Z</time>
      </trkpt>
      <trkpt lat="45.87534" lon="4.82995">
        <ele>206</ele>
        <time>2017-09-27T10:04:34Z</time>
      </trkpt>
      <trkpt lat="45.87532" lon="4.82983">
        <ele>206</ele>
        <time>2017-09-27T10:04:38Z</time>
      </trkpt>
      <trkpt lat="45.87531" lon="4.8298">
        <ele>206</ele>
        <time>2017-09-27T10:04:39Z</time>
      </trkpt>
      <trkpt lat="45.87529" lon="4.82968">
        <ele>206</ele>
        <time>2017-09-27T10:04:43Z</time>
      </trkpt>
      <trkpt lat="45.87528" lon="4.82965">
        <ele>206</ele>
        <time>2017-09-27T10:04:44Z</time>
      </trkpt>
      <trkpt lat="45.87526" lon="4.82953">
        <ele>206</ele>
        <time>2017-09-27T10:04:48Z</time>
      </trkpt>
      <trkpt lat="45.87525" lon="4.8295">
        <ele>206</ele>
        <time>2017-09-27T10:04:49Z</time>
      </trkpt>
      <trkpt lat="45.87522" lon="4.82941">
        <ele>207</ele>
        <time>2017-09-27T10:04:53Z</time>
      </trkpt>
      <trkpt lat="45.87522" lon="4.82938">
        <ele>207</ele>
        <time>2017-09-27T10:04:54Z</time>
      </trkpt>
      <trkpt lat="45.87519" lon="4.82928">
        <ele>207</ele>
        <time>2017-09-27T10:04:58Z</time>
      </trkpt>
      <trkpt lat="45.87518" lon="4.82925">
        <ele>208</ele>
        <time>2017-09-27T10:04:59Z</time>
      </trkpt>
      <trkpt lat="45.87514" lon="4.82916">
        <ele>207</ele>
        <time>2017-09-27T10:05:03Z</time>
      </trkpt>
      <trkpt lat="45.87513" lon="4.82914">
        <ele>207</ele>
        <time>2017-09-27T10:05:04Z</time>
      </trkpt>
      <trkpt lat="45.8751" lon="4.82905">
        <ele>207</ele>
        <time>2017-09-27T10:05:07Z</time>
      </trkpt>
      <trkpt lat="45.87509" lon="4.82902">
        <ele>207</ele>
        <time>2017-09-27T10:05:08Z</time>
      </trkpt>
      <trkpt lat="45.87506" lon="4.82891">
        <ele>206</ele>
        <time>2017-09-27T10:05:12Z</time>
      </trkpt>
      <trkpt lat="45.87505" lon="4.82888">
        <ele>206</ele>
        <time>2017-09-27T10:05:13Z</time>
      </trkpt>
      <trkpt lat="45.87501" lon="4.82879">
        <ele>205</ele>
        <time>2017-09-27T10:05:17Z</time>
      </trkpt>
      <trkpt lat="45.875" lon="4.82876">
        <ele>210</ele>
        <time>2017-09-27T10:05:18Z</time>
      </trkpt>
      <trkpt lat="45.87496" lon="4.82866">
        <ele>210</ele>
        <time>2017-09-27T10:05:22Z</time>
      </trkpt>
      <trkpt lat="45.87495" lon="4.82864">
        <ele>210</ele>
        <time>2017-09-27T10:05:23Z</time>
      </trkpt>
      <trkpt lat="45.87491" lon="4.82854">
        <ele>210</ele>
        <time>2017-09-27T10:05:27Z</time>
      </trkpt>
      <trkpt lat="45.8749" lon="4.82852">
        <ele>209</ele>
        <time>2017-09-27T10:05:28Z</time>
      </trkpt>
      <trkpt lat="45.87486" lon="4.8284">
        <ele>209</ele>
        <time>2017-09-27T10:05:32Z</time>
      </trkpt>
      <trkpt lat="45.87485" lon="4.82837">
        <ele>209</ele>
        <time>2017-09-27T10:05:33Z</time>
      </trkpt>
      <trkpt lat="45.87481" lon="4.82828">
        <ele>208</ele>
        <time>2017-09-27T10:05:36Z</time>
      </trkpt>
      <trkpt lat="45.8748" lon="4.82825">
        <ele>209</ele>
        <time>2017-09-27T10:05:37Z</time>
      </trkpt>
      <trkpt lat="45.87475" lon="4.82818">
        <ele>209</ele>
        <time>2017-09-27T10:05:40Z</time>
      </trkpt>
      <trkpt lat="45.87473" lon="4.82815">
        <ele>209</ele>
        <time>2017-09-27T10:05:41Z</time>
      </trkpt>
      <trkpt lat="45.8747" lon="4.82805">
        <ele>209</ele>
        <time>2017-09-27T10:05:45Z</time>
      </trkpt>
      <trkpt lat="45.87469" lon="4.82802">
        <ele>209</ele>
        <time>2017-09-27T10:05:46Z</time>
      </trkpt>
      <trkpt lat="45.87465" lon="4.82792">
        <ele>209</ele>
        <time>2017-09-27T10:05:49Z</time>
      </trkpt>
      <trkpt lat="45.87464" lon="4.82789">
        <ele>209</ele>
        <time>2017-09-27T10:05:50Z</time>
      </trkpt>
      <trkpt lat="45.8746" lon="4.8278">
        <ele>209</ele>
        <time>2017-09-27T10:05:54Z</time>
      </trkpt>
      <trkpt lat="45.87459" lon="4.82777">
        <ele>209</ele>
        <time>2017-09-27T10:05:55Z</time>
      </trkpt>
      <trkpt lat="45.87455" lon="4.82769">
        <ele>209</ele>
        <time>2017-09-27T10:05:57Z</time>
      </trkpt>
      <trkpt lat="45.87453" lon="4.82766">
        <ele>210</ele>
        <time>2017-09-27T10:05:58Z</time>
      </trkpt>
      <trkpt lat="45.87449" lon="4.82755">
        <ele>210</ele>
        <time>2017-09-27T10:06:02Z</time>
      </trkpt>
      <trkpt lat="45.87448" lon="4.82752">
        <ele>210</ele>
        <time>2017-09-27T10:06:03Z</time>
      </trkpt>
      <trkpt lat="45.87444" lon="4.82745">
        <ele>208</ele>
        <time>2017-09-27T10:06:05Z</time>
      </trkpt>
      <trkpt lat="45.87443" lon="4.82741">
        <ele>209</ele>
        <time>2017-09-27T10:06:06Z</time>
      </trkpt>
      <trkpt lat="45.87439" lon="4.82734">
        <ele>209</ele>
        <time>2017-09-27T10:06:08Z</time>
      </trkpt>
      <trkpt lat="45.87437" lon="4.82731">
        <ele>209</ele>
        <time>2017-09-27T10:06:09Z</time>
      </trkpt>
      <trkpt lat="45.87432" lon="4.82722">
        <ele>209</ele>
        <time>2017-09-27T10:06:12Z</time>
      </trkpt>
      <trkpt lat="45.87431" lon="4.82719">
        <ele>208</ele>
        <time>2017-09-27T10:06:13Z</time>
      </trkpt>
      <trkpt lat="45.87427" lon="4.82712">
        <ele>208</ele>
        <time>2017-09-27T10:06:15Z</time>
      </trkpt>
      <trkpt lat="45.87425" lon="4.82708">
        <ele>208</ele>
        <time>2017-09-27T10:06:16Z</time>
      </trkpt>
      <trkpt lat="45.87419" lon="4.82699">
        <ele>208</ele>
        <time>2017-09-27T10:06:19Z</time>
      </trkpt>
      <trkpt lat="45.87418" lon="4.82696">
        <ele>208</ele>
        <time>2017-09-27T10:06:20Z</time>
      </trkpt>
      <trkpt lat="45.87414" lon="4.82687">
        <ele>214</ele>
        <time>2017-09-27T10:06:22Z</time>
      </trkpt>
      <trkpt lat="45.87412" lon="4.82682">
        <ele>214</ele>
        <time>2017-09-27T10:06:23Z</time>
      </trkpt>
      <trkpt lat="45.87409" lon="4.82675">
        <ele>213</ele>
        <time>2017-09-27T10:06:25Z</time>
      </trkpt>
      <trkpt lat="45.87407" lon="4.82671">
        <ele>213</ele>
        <time>2017-09-27T10:06:26Z</time>
      </trkpt>
      <trkpt lat="45.87404" lon="4.82664">
        <ele>212</ele>
        <time>2017-09-27T10:06:28Z</time>
      </trkpt>
      <trkpt lat="45.87402" lon="4.82659">
        <ele>212</ele>
        <time>2017-09-27T10:06:29Z</time>
      </trkpt>
      <trkpt lat="45.87399" lon="4.8265">
        <ele>212</ele>
        <time>2017-09-27T10:06:31Z</time>
      </trkpt>
      <trkpt lat="45.87396" lon="4.82645">
        <ele>212</ele>
        <time>2017-09-27T10:06:32Z</time>
      </trkpt>
      <trkpt lat="45.87392" lon="4.82637">
        <ele>212</ele>
        <time>2017-09-27T10:06:34Z</time>
      </trkpt>
      <trkpt lat="45.8739" lon="4.82633">
        <ele>212</ele>
        <time>2017-09-27T10:06:35Z</time>
      </trkpt>
      <trkpt lat="45.87385" lon="4.82624">
        <ele>212</ele>
        <time>2017-09-27T10:06:38Z</time>
      </trkpt>
      <trkpt lat="45.87384" lon="4.8262">
        <ele>212</ele>
        <time>2017-09-27T10:06:39Z</time>
      </trkpt>
      <trkpt lat="45.87381" lon="4.82613">
        <ele>212</ele>
        <time>2017-09-27T10:06:41Z</time>
      </trkpt>
      <trkpt lat="45.87379" lon="4.82609">
        <ele>212</ele>
        <time>2017-09-27T10:06:42Z</time>
      </trkpt>
      <trkpt lat="45.87375" lon="4.826">
        <ele>212</ele>
        <time>2017-09-27T10:06:44Z</time>
      </trkpt>
      <trkpt lat="45.87374" lon="4.82596">
        <ele>212</ele>
        <time>2017-09-27T10:06:45Z</time>
      </trkpt>
      <trkpt lat="45.87369" lon="4.82586">
        <ele>213</ele>
        <time>2017-09-27T10:06:48Z</time>
      </trkpt>
      <trkpt lat="45.87368" lon="4.82583">
        <ele>209</ele>
        <time>2017-09-27T10:06:49Z</time>
      </trkpt>
      <trkpt lat="45.87364" lon="4.82574">
        <ele>209</ele>
        <time>2017-09-27T10:06:52Z</time>
      </trkpt>
      <trkpt lat="45.87362" lon="4.8257">
        <ele>209</ele>
        <time>2017-09-27T10:06:53Z</time>
      </trkpt>
      <trkpt lat="45.87358" lon="4.82562">
        <ele>209</ele>
        <time>2017-09-27T10:06:55Z</time>
      </trkpt>
      <trkpt lat="45.87357" lon="4.82558">
        <ele>209</ele>
        <time>2017-09-27T10:06:56Z</time>
      </trkpt>
      <trkpt lat="45.87354" lon="4.8255">
        <ele>209</ele>
        <time>2017-09-27T10:06:58Z</time>
      </trkpt>
      <trkpt lat="45.87353" lon="4.82547">
        <ele>209</ele>
        <time>2017-09-27T10:06:59Z</time>
      </trkpt>
      <trkpt lat="45.87349" lon="4.82538">
        <ele>208</ele>
        <time>2017-09-27T10:07:02Z</time>
      </trkpt>
      <trkpt lat="45.87348" lon="4.82534">
        <ele>208</ele>
        <time>2017-09-27T10:07:03Z</time>
      </trkpt>
      <trkpt lat="45.87345" lon="4.82526">
        <ele>208</ele>
        <time>2017-09-27T10:07:05Z</time>
      </trkpt>
      <trkpt lat="45.87343" lon="4.82522">
        <ele>208</ele>
        <time>2017-09-27T10:07:06Z</time>
      </trkpt>
      <trkpt lat="45.87339" lon="4.82514">
        <ele>208</ele>
        <time>2017-09-27T10:07:08Z</time>
      </trkpt>
      <trkpt lat="45.87337" lon="4.82511">
        <ele>208</ele>
        <time>2017-09-27T10:07:09Z</time>
      </trkpt>
      <trkpt lat="45.87333" lon="4.82503">
        <ele>210</ele>
        <time>2017-09-27T10:07:11Z</time>
      </trkpt>
      <trkpt lat="45.87331" lon="4.82499">
        <ele>209</ele>
        <time>2017-09-27T10:07:12Z</time>
      </trkpt>
      <trkpt lat="45.87327" lon="4.8249">
        <ele>210</ele>
        <time>2017-09-27T10:07:14Z</time>
      </trkpt>
      <trkpt lat="45.87325" lon="4.82486">
        <ele>211</ele>
        <time>2017-09-27T10:07:15Z</time>
      </trkpt>
      <trkpt lat="45.87321" lon="4.82478">
        <ele>211</ele>
        <time>2017-09-27T10:07:17Z</time>
      </trkpt>
      <trkpt lat="45.87319" lon="4.82474">
        <ele>211</ele>
        <time>2017-09-27T10:07:18Z</time>
      </trkpt>
      <trkpt lat="45.87314" lon="4.82465">
        <ele>212</ele>
        <time>2017-09-27T10:07:20Z</time>
      </trkpt>
      <trkpt lat="45.87312" lon="4.8246">
        <ele>212</ele>
        <time>2017-09-27T10:07:21Z</time>
      </trkpt>
      <trkpt lat="45.87309" lon="4.82455">
        <ele>212</ele>
        <time>2017-09-27T10:07:22Z</time>
      </trkpt>
      <trkpt lat="45.87306" lon="4.8245">
        <ele>212</ele>
        <time>2017-09-27T10:07:23Z</time>
      </trkpt>
      <trkpt lat="45.87302" lon="4.82444">
        <ele>212</ele>
        <time>2017-09-27T10:07:24Z</time>
      </trkpt>
      <trkpt lat="45.87299" lon="4.82439">
        <ele>212</ele>
        <time>2017-09-27T10:07:25Z</time>
      </trkpt>
      <trkpt lat="45.87295" lon="4.82434">
        <ele>212</ele>
        <time>2017-09-27T10:07:26Z</time>
      </trkpt>
      <trkpt lat="45.87292" lon="4.82428">
        <ele>212</ele>
        <time>2017-09-27T10:07:27Z</time>
      </trkpt>
      <trkpt lat="45.87289" lon="4.82422">
        <ele>212</ele>
        <time>2017-09-27T10:07:28Z</time>
      </trkpt>
      <trkpt lat="45.87282" lon="4.82413">
        <ele>209</ele>
        <time>2017-09-27T10:07:29Z</time>
      </trkpt>
      <trkpt lat="45.8728" lon="4.82406">
        <ele>209</ele>
        <time>2017-09-27T10:07:30Z</time>
      </trkpt>
      <trkpt lat="45.87276" lon="4.824">
        <ele>209</ele>
        <time>2017-09-27T10:07:31Z</time>
      </trkpt>
      <trkpt lat="45.87272" lon="4.82394">
        <ele>209</ele>
        <time>2017-09-27T10:07:32Z</time>
      </trkpt>
      <trkpt lat="45.87269" lon="4.82386">
        <ele>209</ele>
        <time>2017-09-27T10:07:33Z</time>
      </trkpt>
      <trkpt lat="45.87263" lon="4.82378">
        <ele>209</ele>
        <time>2017-09-27T10:07:34Z</time>
      </trkpt>
      <trkpt lat="45.87258" lon="4.8237">
        <ele>208</ele>
        <time>2017-09-27T10:07:35Z</time>
      </trkpt>
      <trkpt lat="45.87253" lon="4.82362">
        <ele>208</ele>
        <time>2017-09-27T10:07:36Z</time>
      </trkpt>
      <trkpt lat="45.87249" lon="4.82353">
        <ele>213</ele>
        <time>2017-09-27T10:07:37Z</time>
      </trkpt>
      <trkpt lat="45.87242" lon="4.82344">
        <ele>212</ele>
        <time>2017-09-27T10:07:38Z</time>
      </trkpt>
      <trkpt lat="45.87239" lon="4.82334">
        <ele>211</ele>
        <time>2017-09-27T10:07:39Z</time>
      </trkpt>
      <trkpt lat="45.87234" lon="4.82325">
        <ele>209</ele>
        <time>2017-09-27T10:07:40Z</time>
      </trkpt>
      <trkpt lat="45.87229" lon="4.82316">
        <ele>210</ele>
        <time>2017-09-27T10:07:41Z</time>
      </trkpt>
      <trkpt lat="45.87224" lon="4.82306">
        <ele>210</ele>
        <time>2017-09-27T10:07:42Z</time>
      </trkpt>
      <trkpt lat="45.87217" lon="4.82293">
        <ele>210</ele>
        <time>2017-09-27T10:07:43Z</time>
      </trkpt>
      <trkpt lat="45.87212" lon="4.82282">
        <ele>209</ele>
        <time>2017-09-27T10:07:44Z</time>
      </trkpt>
      <trkpt lat="45.87207" lon="4.82271">
        <ele>209</ele>
        <time>2017-09-27T10:07:45Z</time>
      </trkpt>
      <trkpt lat="45.87204" lon="4.8226">
        <ele>209</ele>
        <time>2017-09-27T10:07:46Z</time>
      </trkpt>
      <trkpt lat="45.87201" lon="4.82248">
        <ele>207</ele>
        <time>2017-09-27T10:07:47Z</time>
      </trkpt>
      <trkpt lat="45.87198" lon="4.82238">
        <ele>207</ele>
        <time>2017-09-27T10:07:48Z</time>
      </trkpt>
      <trkpt lat="45.87194" lon="4.82227">
        <ele>207</ele>
        <time>2017-09-27T10:07:49Z</time>
      </trkpt>
      <trkpt lat="45.87188" lon="4.82218">
        <ele>208</ele>
        <time>2017-09-27T10:07:50Z</time>
      </trkpt>
      <trkpt lat="45.87185" lon="4.82208">
        <ele>208</ele>
        <time>2017-09-27T10:07:51Z</time>
      </trkpt>
      <trkpt lat="45.8718" lon="4.82198">
        <ele>208</ele>
        <time>2017-09-27T10:07:52Z</time>
      </trkpt>
      <trkpt lat="45.87176" lon="4.82188">
        <ele>208</ele>
        <time>2017-09-27T10:07:53Z</time>
      </trkpt>
      <trkpt lat="45.87174" lon="4.8218">
        <ele>208</ele>
        <time>2017-09-27T10:07:54Z</time>
      </trkpt>
      <trkpt lat="45.87171" lon="4.82173">
        <ele>208</ele>
        <time>2017-09-27T10:07:55Z</time>
      </trkpt>
      <trkpt lat="45.87168" lon="4.82166">
        <ele>208</ele>
        <time>2017-09-27T10:07:56Z</time>
      </trkpt>
      <trkpt lat="45.87166" lon="4.82159">
        <ele>209</ele>
        <time>2017-09-27T10:07:57Z</time>
      </trkpt>
      <trkpt lat="45.87163" lon="4.82147">
        <ele>210</ele>
        <time>2017-09-27T10:07:59Z</time>
      </trkpt>
      <trkpt lat="45.87162" lon="4.82142">
        <ele>211</ele>
        <time>2017-09-27T10:08:00Z</time>
      </trkpt>
      <trkpt lat="45.87159" lon="4.82138">
        <ele>211</ele>
        <time>2017-09-27T10:08:01Z</time>
      </trkpt>
      <trkpt lat="45.87153" lon="4.82132">
        <ele>211</ele>
        <time>2017-09-27T10:08:02Z</time>
      </trkpt>
      <trkpt lat="45.87147" lon="4.82124">
        <ele>212</ele>
        <time>2017-09-27T10:08:04Z</time>
      </trkpt>
      <trkpt lat="45.87143" lon="4.82119">
        <ele>212</ele>
        <time>2017-09-27T10:08:05Z</time>
      </trkpt>
      <trkpt lat="45.87137" lon="4.82115">
        <ele>212</ele>
        <time>2017-09-27T10:08:07Z</time>
      </trkpt>
      <trkpt lat="45.87134" lon="4.82113">
        <ele>212</ele>
        <time>2017-09-27T10:08:08Z</time>
      </trkpt>
      <trkpt lat="45.87128" lon="4.82108">
        <ele>212</ele>
        <time>2017-09-27T10:08:10Z</time>
      </trkpt>
      <trkpt lat="45.87124" lon="4.82105">
        <ele>212</ele>
        <time>2017-09-27T10:08:11Z</time>
      </trkpt>
      <trkpt lat="45.87118" lon="4.82101">
        <ele>213</ele>
        <time>2017-09-27T10:08:13Z</time>
      </trkpt>
      <trkpt lat="45.87115" lon="4.82099">
        <ele>213</ele>
        <time>2017-09-27T10:08:14Z</time>
      </trkpt>
      <trkpt lat="45.87108" lon="4.82095">
        <ele>213</ele>
        <time>2017-09-27T10:08:17Z</time>
      </trkpt>
      <trkpt lat="45.87105" lon="4.82093">
        <ele>213</ele>
        <time>2017-09-27T10:08:18Z</time>
      </trkpt>
      <trkpt lat="45.87098" lon="4.82089">
        <ele>213</ele>
        <time>2017-09-27T10:08:20Z</time>
      </trkpt>
      <trkpt lat="45.87095" lon="4.82087">
        <ele>213</ele>
        <time>2017-09-27T10:08:21Z</time>
      </trkpt>
      <trkpt lat="45.8709" lon="4.82083">
        <ele>215</ele>
        <time>2017-09-27T10:08:23Z</time>
      </trkpt>
      <trkpt lat="45.87086" lon="4.8208">
        <ele>215</ele>
        <time>2017-09-27T10:08:24Z</time>
      </trkpt>
      <trkpt lat="45.8708" lon="4.82076">
        <ele>215</ele>
        <time>2017-09-27T10:08:26Z</time>
      </trkpt>
      <trkpt lat="45.87077" lon="4.82074">
        <ele>216</ele>
        <time>2017-09-27T10:08:27Z</time>
      </trkpt>
      <trkpt lat="45.87071" lon="4.82069">
        <ele>216</ele>
        <time>2017-09-27T10:08:29Z</time>
      </trkpt>
      <trkpt lat="45.87068" lon="4.82067">
        <ele>217</ele>
        <time>2017-09-27T10:08:30Z</time>
      </trkpt>
      <trkpt lat="45.87062" lon="4.82063">
        <ele>217</ele>
        <time>2017-09-27T10:08:32Z</time>
      </trkpt>
      <trkpt lat="45.87058" lon="4.82061">
        <ele>217</ele>
        <time>2017-09-27T10:08:33Z</time>
      </trkpt>
      <trkpt lat="45.87053" lon="4.82057">
        <ele>218</ele>
        <time>2017-09-27T10:08:35Z</time>
      </trkpt>
      <trkpt lat="45.8705" lon="4.82055">
        <ele>218</ele>
        <time>2017-09-27T10:08:36Z</time>
      </trkpt>
      <trkpt lat="45.87042" lon="4.8205">
        <ele>218</ele>
        <time>2017-09-27T10:08:39Z</time>
      </trkpt>
      <trkpt lat="45.87039" lon="4.82048">
        <ele>218</ele>
        <time>2017-09-27T10:08:40Z</time>
      </trkpt>
      <trkpt lat="45.87032" lon="4.82042">
        <ele>218</ele>
        <time>2017-09-27T10:08:43Z</time>
      </trkpt>
      <trkpt lat="45.87029" lon="4.82041">
        <ele>218</ele>
        <time>2017-09-27T10:08:44Z</time>
      </trkpt>
      <trkpt lat="45.87021" lon="4.82038">
        <ele>218</ele>
        <time>2017-09-27T10:08:48Z</time>
      </trkpt>
      <trkpt lat="45.87019" lon="4.82037">
        <ele>218</ele>
        <time>2017-09-27T10:08:49Z</time>
      </trkpt>
      <trkpt lat="45.87012" lon="4.82032">
        <ele>218</ele>
        <time>2017-09-27T10:08:52Z</time>
      </trkpt>
      <trkpt lat="45.8701" lon="4.8203">
        <ele>218</ele>
        <time>2017-09-27T10:08:53Z</time>
      </trkpt>
      <trkpt lat="45.87004" lon="4.82025">
        <ele>218</ele>
        <time>2017-09-27T10:08:56Z</time>
      </trkpt>
      <trkpt lat="45.87002" lon="4.82023">
        <ele>218</ele>
        <time>2017-09-27T10:08:57Z</time>
      </trkpt>
      <trkpt lat="45.86995" lon="4.82019">
        <ele>222</ele>
        <time>2017-09-27T10:09:00Z</time>
      </trkpt>
      <trkpt lat="45.86993" lon="4.82017">
        <ele>222</ele>
        <time>2017-09-27T10:09:01Z</time>
      </trkpt>
      <trkpt lat="45.86989" lon="4.82006">
        <ele>221</ele>
        <time>2017-09-27T10:09:05Z</time>
      </trkpt>
      <trkpt lat="45.86989" lon="4.82002">
        <ele>221</ele>
        <time>2017-09-27T10:09:06Z</time>
      </trkpt>
      <trkpt lat="45.8699" lon="4.81994">
        <ele>221</ele>
        <time>2017-09-27T10:09:08Z</time>
      </trkpt>
      <trkpt lat="45.8699" lon="4.81989">
        <ele>222</ele>
        <time>2017-09-27T10:09:09Z</time>
      </trkpt>
      <trkpt lat="45.8699" lon="4.81978">
        <ele>224</ele>
        <time>2017-09-27T10:09:12Z</time>
      </trkpt>
      <trkpt lat="45.8699" lon="4.81975">
        <ele>224</ele>
        <time>2017-09-27T10:09:13Z</time>
      </trkpt>
      <trkpt lat="45.8699" lon="4.81965">
        <ele>225</ele>
        <time>2017-09-27T10:09:16Z</time>
      </trkpt>
      <trkpt lat="45.8699" lon="4.81961">
        <ele>226</ele>
        <time>2017-09-27T10:09:17Z</time>
      </trkpt>
      <trkpt lat="45.86993" lon="4.81951">
        <ele>227</ele>
        <time>2017-09-27T10:09:20Z</time>
      </trkpt>
      <trkpt lat="45.86994" lon="4.81949">
        <ele>227</ele>
        <time>2017-09-27T10:09:21Z</time>
      </trkpt>
      <trkpt lat="45.87003" lon="4.81947">
        <ele>229</ele>
        <time>2017-09-27T10:09:26Z</time>
      </trkpt>
      <trkpt lat="45.87005" lon="4.81948">
        <ele>229</ele>
        <time>2017-09-27T10:09:27Z</time>
      </trkpt>
      <trkpt lat="45.87013" lon="4.81948">
        <ele>229</ele>
        <time>2017-09-27T10:09:31Z</time>
      </trkpt>
      <trkpt lat="45.87016" lon="4.8195">
        <ele>229</ele>
        <time>2017-09-27T10:09:32Z</time>
      </trkpt>
      <trkpt lat="45.87023" lon="4.81953">
        <ele>228</ele>
        <time>2017-09-27T10:09:35Z</time>
      </trkpt>
      <trkpt lat="45.87025" lon="4.81953">
        <ele>229</ele>
        <time>2017-09-27T10:09:36Z</time>
      </trkpt>
      <trkpt lat="45.87033" lon="4.81956">
        <ele>228</ele>
        <time>2017-09-27T10:09:40Z</time>
      </trkpt>
      <trkpt lat="45.87034" lon="4.81958">
        <ele>228</ele>
        <time>2017-09-27T10:09:41Z</time>
      </trkpt>
      <trkpt lat="45.87041" lon="4.81963">
        <ele>228</ele>
        <time>2017-09-27T10:09:45Z</time>
      </trkpt>
      <trkpt lat="45.87043" lon="4.81964">
        <ele>228</ele>
        <time>2017-09-27T10:09:46Z</time>
      </trkpt>
      <trkpt lat="45.87051" lon="4.81966">
        <ele>228</ele>
        <time>2017-09-27T10:09:49Z</time>
      </trkpt>
      <trkpt lat="45.87053" lon="4.81967">
        <ele>228</ele>
        <time>2017-09-27T10:09:50Z</time>
      </trkpt>
      <trkpt lat="45.8706" lon="4.81969">
        <ele>228</ele>
        <time>2017-09-27T10:09:53Z</time>
      </trkpt>
      <trkpt lat="45.87062" lon="4.81969">
        <ele>228</ele>
        <time>2017-09-27T10:09:54Z</time>
      </trkpt>
      <trkpt lat="45.87071" lon="4.8197">
        <ele>228</ele>
        <time>2017-09-27T10:09:58Z</time>
      </trkpt>
      <trkpt lat="45.87073" lon="4.81971">
        <ele>227</ele>
        <time>2017-09-27T10:09:59Z</time>
      </trkpt>
      <trkpt lat="45.87081" lon="4.81974">
        <ele>227</ele>
        <time>2017-09-27T10:10:02Z</time>
      </trkpt>
      <trkpt lat="45.87084" lon="4.81975">
        <ele>229</ele>
        <time>2017-09-27T10:10:03Z</time>
      </trkpt>
      <trkpt lat="45.87092" lon="4.81973">
        <ele>229</ele>
        <time>2017-09-27T10:10:07Z</time>
      </trkpt>
      <trkpt lat="45.87095" lon="4.81972">
        <ele>229</ele>
        <time>2017-09-27T10:10:08Z</time>
      </trkpt>
      <trkpt lat="45.87103" lon="4.81972">
        <ele>230</ele>
        <time>2017-09-27T10:10:12Z</time>
      </trkpt>
      <trkpt lat="45.87105" lon="4.81972">
        <ele>230</ele>
        <time>2017-09-27T10:10:13Z</time>
      </trkpt>
      <trkpt lat="45.87114" lon="4.81973">
        <ele>230</ele>
        <time>2017-09-27T10:10:17Z</time>
      </trkpt>
      <trkpt lat="45.87116" lon="4.81973">
        <ele>230</ele>
        <time>2017-09-27T10:10:18Z</time>
      </trkpt>
      <trkpt lat="45.87123" lon="4.81971">
        <ele>231</ele>
        <time>2017-09-27T10:10:21Z</time>
      </trkpt>
      <trkpt lat="45.87125" lon="4.81971">
        <ele>231</ele>
        <time>2017-09-27T10:10:22Z</time>
      </trkpt>
      <trkpt lat="45.87133" lon="4.81973">
        <ele>231</ele>
        <time>2017-09-27T10:10:25Z</time>
      </trkpt>
      <trkpt lat="45.87135" lon="4.81973">
        <ele>231</ele>
        <time>2017-09-27T10:10:26Z</time>
      </trkpt>
      <trkpt lat="45.87142" lon="4.81972">
        <ele>231</ele>
        <time>2017-09-27T10:10:29Z</time>
      </trkpt>
      <trkpt lat="45.87145" lon="4.81972">
        <ele>231</ele>
        <time>2017-09-27T10:10:30Z</time>
      </trkpt>
      <trkpt lat="45.87152" lon="4.8197">
        <ele>231</ele>
        <time>2017-09-27T10:10:33Z</time>
      </trkpt>
      <trkpt lat="45.87154" lon="4.81969">
        <ele>231</ele>
        <time>2017-09-27T10:10:34Z</time>
      </trkpt>
      <trkpt lat="45.87163" lon="4.81969">
        <ele>231</ele>
        <time>2017-09-27T10:10:38Z</time>
      </trkpt>
      <trkpt lat="45.87165" lon="4.81969">
        <ele>231</ele>
        <time>2017-09-27T10:10:39Z</time>
      </trkpt>
      <trkpt lat="45.87172" lon="4.81968">
        <ele>230</ele>
        <time>2017-09-27T10:10:42Z</time>
      </trkpt>
      <trkpt lat="45.87175" lon="4.81967">
        <ele>230</ele>
        <time>2017-09-27T10:10:43Z</time>
      </trkpt>
      <trkpt lat="45.87182" lon="4.81966">
        <ele>231</ele>
        <time>2017-09-27T10:10:46Z</time>
      </trkpt>
      <trkpt lat="45.87184" lon="4.81966">
        <ele>231</ele>
        <time>2017-09-27T10:10:47Z</time>
      </trkpt>
      <trkpt lat="45.87192" lon="4.81966">
        <ele>231</ele>
        <time>2017-09-27T10:10:51Z</time>
      </trkpt>
      <trkpt lat="45.87194" lon="4.81966">
        <ele>231</ele>
        <time>2017-09-27T10:10:52Z</time>
      </trkpt>
      <trkpt lat="45.87202" lon="4.81965">
        <ele>231</ele>
        <time>2017-09-27T10:10:55Z</time>
      </trkpt>
      <trkpt lat="45.87204" lon="4.81964">
        <ele>231</ele>
        <time>2017-09-27T10:10:56Z</time>
      </trkpt>
      <trkpt lat="45.87211" lon="4.81959">
        <ele>231</ele>
        <time>2017-09-27T10:10:59Z</time>
      </trkpt>
      <trkpt lat="45.87213" lon="4.81957">
        <ele>231</ele>
        <time>2017-09-27T10:11:00Z</time>
      </trkpt>
      <trkpt lat="45.87222" lon="4.81953">
        <ele>231</ele>
        <time>2017-09-27T10:11:04Z</time>
      </trkpt>
      <trkpt lat="45.87224" lon="4.81952">
        <ele>231</ele>
        <time>2017-09-27T10:11:05Z</time>
      </trkpt>
      <trkpt lat="45.87231" lon="4.8195">
        <ele>231</ele>
        <time>2017-09-27T10:11:08Z</time>
      </trkpt>
      <trkpt lat="45.87234" lon="4.81949">
        <ele>231</ele>
        <time>2017-09-27T10:11:09Z</time>
      </trkpt>
      <trkpt lat="45.87241" lon="4.81944">
        <ele>232</ele>
        <time>2017-09-27T10:11:13Z</time>
      </trkpt>
      <trkpt lat="45.87243" lon="4.81942">
        <ele>232</ele>
        <time>2017-09-27T10:11:14Z</time>
      </trkpt>
      <trkpt lat="45.87249" lon="4.81938">
        <ele>232</ele>
        <time>2017-09-27T10:11:16Z</time>
      </trkpt>
      <trkpt lat="45.87251" lon="4.81936">
        <ele>231</ele>
        <time>2017-09-27T10:11:17Z</time>
      </trkpt>
      <trkpt lat="45.87259" lon="4.81931">
        <ele>231</ele>
        <time>2017-09-27T10:11:20Z</time>
      </trkpt>
      <trkpt lat="45.87261" lon="4.8193">
        <ele>231</ele>
        <time>2017-09-27T10:11:21Z</time>
      </trkpt>
      <trkpt lat="45.87267" lon="4.81927">
        <ele>231</ele>
        <time>2017-09-27T10:11:23Z</time>
      </trkpt>
      <trkpt lat="45.8727" lon="4.81925">
        <ele>231</ele>
        <time>2017-09-27T10:11:24Z</time>
      </trkpt>
      <trkpt lat="45.87276" lon="4.8192">
        <ele>231</ele>
        <time>2017-09-27T10:11:26Z</time>
      </trkpt>
      <trkpt lat="45.87278" lon="4.81917">
        <ele>231</ele>
        <time>2017-09-27T10:11:27Z</time>
      </trkpt>
      <trkpt lat="45.87284" lon="4.81912">
        <ele>235</ele>
        <time>2017-09-27T10:11:29Z</time>
      </trkpt>
      <trkpt lat="45.87286" lon="4.8191">
        <ele>235</ele>
        <time>2017-09-27T10:11:30Z</time>
      </trkpt>
      <trkpt lat="45.87293" lon="4.81903">
        <ele>235</ele>
        <time>2017-09-27T10:11:33Z</time>
      </trkpt>
      <trkpt lat="45.87294" lon="4.819">
        <ele>235</ele>
        <time>2017-09-27T10:11:34Z</time>
      </trkpt>
      <trkpt lat="45.87296" lon="4.8189">
        <ele>235</ele>
        <time>2017-09-27T10:11:37Z</time>
      </trkpt>
      <trkpt lat="45.87296" lon="4.81887">
        <ele>235</ele>
        <time>2017-09-27T10:11:38Z</time>
      </trkpt>
      <trkpt lat="45.87299" lon="4.81876">
        <ele>235</ele>
        <time>2017-09-27T10:11:42Z</time>
      </trkpt>
      <trkpt lat="45.87299" lon="4.81872">
        <ele>235</ele>
        <time>2017-09-27T10:11:43Z</time>
      </trkpt>
      <trkpt lat="45.87301" lon="4.81863">
        <ele>235</ele>
        <time>2017-09-27T10:11:45Z</time>
      </trkpt>
      <trkpt lat="45.87301" lon="4.81859">
        <ele>236</ele>
        <time>2017-09-27T10:11:46Z</time>
      </trkpt>
      <trkpt lat="45.87303" lon="4.81849">
        <ele>236</ele>
        <time>2017-09-27T10:11:49Z</time>
      </trkpt>
      <trkpt lat="45.87304" lon="4.81846">
        <ele>236</ele>
        <time>2017-09-27T10:11:50Z</time>
      </trkpt>
      <trkpt lat="45.87306" lon="4.81835">
        <ele>236</ele>
        <time>2017-09-27T10:11:53Z</time>
      </trkpt>
      <trkpt lat="45.87308" lon="4.81832">
        <ele>238</ele>
        <time>2017-09-27T10:11:54Z</time>
      </trkpt>
      <trkpt lat="45.87311" lon="4.81824">
        <ele>238</ele>
        <time>2017-09-27T10:11:56Z</time>
      </trkpt>
      <trkpt lat="45.87312" lon="4.81819">
        <ele>238</ele>
        <time>2017-09-27T10:11:57Z</time>
      </trkpt>
      <trkpt lat="45.87317" lon="4.81809">
        <ele>238</ele>
        <time>2017-09-27T10:12:00Z</time>
      </trkpt>
      <trkpt lat="45.87318" lon="4.81805">
        <ele>238</ele>
        <time>2017-09-27T10:12:01Z</time>
      </trkpt>
      <trkpt lat="45.87321" lon="4.81795">
        <ele>238</ele>
        <time>2017-09-27T10:12:04Z</time>
      </trkpt>
      <trkpt lat="45.87323" lon="4.81791">
        <ele>238</ele>
        <time>2017-09-27T10:12:05Z</time>
      </trkpt>
      <trkpt lat="45.87325" lon="4.81781">
        <ele>238</ele>
        <time>2017-09-27T10:12:08Z</time>
      </trkpt>
      <trkpt lat="45.87326" lon="4.81778">
        <ele>238</ele>
        <time>2017-09-27T10:12:09Z</time>
      </trkpt>
      <trkpt lat="45.8733" lon="4.81766">
        <ele>238</ele>
        <time>2017-09-27T10:12:12Z</time>
      </trkpt>
      <trkpt lat="45.87331" lon="4.81763">
        <ele>238</ele>
        <time>2017-09-27T10:12:13Z</time>
      </trkpt>
      <trkpt lat="45.87333" lon="4.81756">
        <ele>238</ele>
        <time>2017-09-27T10:12:15Z</time>
      </trkpt>
      <trkpt lat="45.87335" lon="4.81752">
        <ele>237</ele>
        <time>2017-09-27T10:12:16Z</time>
      </trkpt>
      <trkpt lat="45.87338" lon="4.81743">
        <ele>237</ele>
        <time>2017-09-27T10:12:18Z</time>
      </trkpt>
      <trkpt lat="45.87339" lon="4.8174">
        <ele>237</ele>
        <time>2017-09-27T10:12:19Z</time>
      </trkpt>
      <trkpt lat="45.8734" lon="4.8173">
        <ele>236</ele>
        <time>2017-09-27T10:12:22Z</time>
      </trkpt>
      <trkpt lat="45.87341" lon="4.81727">
        <ele>236</ele>
        <time>2017-09-27T10:12:23Z</time>
      </trkpt>
      <trkpt lat="45.87344" lon="4.81716">
        <ele>236</ele>
        <time>2017-09-27T10:12:26Z</time>
      </trkpt>
      <trkpt lat="45.87344" lon="4.81713">
        <ele>236</ele>
        <time>2017-09-27T10:12:27Z</time>
      </trkpt>
      <trkpt lat="45.87347" lon="4.81703">
        <ele>236</ele>
        <time>2017-09-27T10:12:31Z</time>
      </trkpt>
      <trkpt lat="45.87348" lon="4.817">
        <ele>236</ele>
        <time>2017-09-27T10:12:32Z</time>
      </trkpt>
      <trkpt lat="45.87352" lon="4.81691">
        <ele>237</ele>
        <time>2017-09-27T10:12:35Z</time>
      </trkpt>
      <trkpt lat="45.87353" lon="4.81687">
        <ele>237</ele>
        <time>2017-09-27T10:12:36Z</time>
      </trkpt>
      <trkpt lat="45.87358" lon="4.81676">
        <ele>237</ele>
        <time>2017-09-27T10:12:39Z</time>
      </trkpt>
      <trkpt lat="45.87359" lon="4.81673">
        <ele>237</ele>
        <time>2017-09-27T10:12:40Z</time>
      </trkpt>
      <trkpt lat="45.87363" lon="4.81664">
        <ele>239</ele>
        <time>2017-09-27T10:12:43Z</time>
      </trkpt>
      <trkpt lat="45.87364" lon="4.8166">
        <ele>239</ele>
        <time>2017-09-27T10:12:44Z</time>
      </trkpt>
      <trkpt lat="45.87367" lon="4.81648">
        <ele>239</ele>
        <time>2017-09-27T10:12:47Z</time>
      </trkpt>
      <trkpt lat="45.87368" lon="4.81645">
        <ele>239</ele>
        <time>2017-09-27T10:12:48Z</time>
      </trkpt>
      <trkpt lat="45.87372" lon="4.81634">
        <ele>239</ele>
        <time>2017-09-27T10:12:51Z</time>
      </trkpt>
      <trkpt lat="45.87373" lon="4.8163">
        <ele>239</ele>
        <time>2017-09-27T10:12:52Z</time>
      </trkpt>
      <trkpt lat="45.87376" lon="4.8162">
        <ele>239</ele>
        <time>2017-09-27T10:12:55Z</time>
      </trkpt>
      <trkpt lat="45.87377" lon="4.81616">
        <ele>239</ele>
        <time>2017-09-27T10:12:56Z</time>
      </trkpt>
      <trkpt lat="45.87381" lon="4.81606">
        <ele>239</ele>
        <time>2017-09-27T10:12:59Z</time>
      </trkpt>
      <trkpt lat="45.87382" lon="4.81602">
        <ele>239</ele>
        <time>2017-09-27T10:13:00Z</time>
      </trkpt>
      <trkpt lat="45.87384" lon="4.81591">
        <ele>239</ele>
        <time>2017-09-27T10:13:03Z</time>
      </trkpt>
      <trkpt lat="45.87385" lon="4.81588">
        <ele>239</ele>
        <time>2017-09-27T10:13:04Z</time>
      </trkpt>
      <trkpt lat="45.87387" lon="4.81575">
        <ele>243</ele>
        <time>2017-09-27T10:13:07Z</time>
      </trkpt>
      <trkpt lat="45.87387" lon="4.81572">
        <ele>243</ele>
        <time>2017-09-27T10:13:08Z</time>
      </trkpt>
      <trkpt lat="45.87389" lon="4.8156">
        <ele>243</ele>
        <time>2017-09-27T10:13:11Z</time>
      </trkpt>
      <trkpt lat="45.87389" lon="4.81558">
        <ele>243</ele>
        <time>2017-09-27T10:13:12Z</time>
      </trkpt>
      <trkpt lat="45.87391" lon="4.81546">
        <ele>244</ele>
        <time>2017-09-27T10:13:16Z</time>
      </trkpt>
      <trkpt lat="45.87393" lon="4.81542">
        <ele>244</ele>
        <time>2017-09-27T10:13:17Z</time>
      </trkpt>
      <trkpt lat="45.87399" lon="4.81533">
        <ele>244</ele>
        <time>2017-09-27T10:13:20Z</time>
      </trkpt>
      <trkpt lat="45.87401" lon="4.8153">
        <ele>244</ele>
        <time>2017-09-27T10:13:21Z</time>
      </trkpt>
      <trkpt lat="45.87405" lon="4.8152">
        <ele>244</ele>
        <time>2017-09-27T10:13:25Z</time>
      </trkpt>
      <trkpt lat="45.87406" lon="4.81518">
        <ele>244</ele>
        <time>2017-09-27T10:13:26Z</time>
      </trkpt>
      <trkpt lat="45.87409" lon="4.81507">
        <ele>243</ele>
        <time>2017-09-27T10:13:29Z</time>
      </trkpt>
      <trkpt lat="45.8741" lon="4.81502">
        <ele>243</ele>
        <time>2017-09-27T10:13:30Z</time>
      </trkpt>
      <trkpt lat="45.87412" lon="4.81491">
        <ele>245</ele>
        <time>2017-09-27T10:13:33Z</time>
      </trkpt>
      <trkpt lat="45.87413" lon="4.81488">
        <ele>245</ele>
        <time>2017-09-27T10:13:34Z</time>
      </trkpt>
      <trkpt lat="45.87418" lon="4.8148">
        <ele>242</ele>
        <time>2017-09-27T10:13:37Z</time>
      </trkpt>
      <trkpt lat="45.8742" lon="4.81476">
        <ele>242</ele>
        <time>2017-09-27T10:13:38Z</time>
      </trkpt>
      <trkpt lat="45.87423" lon="4.81467">
        <ele>242</ele>
        <time>2017-09-27T10:13:40Z</time>
      </trkpt>
      <trkpt lat="45.87425" lon="4.81463">
        <ele>242</ele>
        <time>2017-09-27T10:13:41Z</time>
      </trkpt>
      <trkpt lat="45.87427" lon="4.81453">
        <ele>242</ele>
        <time>2017-09-27T10:13:44Z</time>
      </trkpt>
      <trkpt lat="45.87428" lon="4.81449">
        <ele>243</ele>
        <time>2017-09-27T10:13:45Z</time>
      </trkpt>
      <trkpt lat="45.87432" lon="4.81442">
        <ele>243</ele>
        <time>2017-09-27T10:13:47Z</time>
      </trkpt>
      <trkpt lat="45.87434" lon="4.81439">
        <ele>243</ele>
        <time>2017-09-27T10:13:48Z</time>
      </trkpt>
      <trkpt lat="45.8744" lon="4.81431">
        <ele>243</ele>
        <time>2017-09-27T10:13:51Z</time>
      </trkpt>
      <trkpt lat="45.87442" lon="4.81428">
        <ele>243</ele>
        <time>2017-09-27T10:13:52Z</time>
      </trkpt>
      <trkpt lat="45.87445" lon="4.8142">
        <ele>243</ele>
        <time>2017-09-27T10:13:54Z</time>
      </trkpt>
      <trkpt lat="45.87447" lon="4.81416">
        <ele>248</ele>
        <time>2017-09-27T10:13:55Z</time>
      </trkpt>
      <trkpt lat="45.87453" lon="4.81408">
        <ele>247</ele>
        <time>2017-09-27T10:13:58Z</time>
      </trkpt>
      <trkpt lat="45.87455" lon="4.81406">
        <ele>247</ele>
        <time>2017-09-27T10:13:59Z</time>
      </trkpt>
      <trkpt lat="45.8746" lon="4.81401">
        <ele>247</ele>
        <time>2017-09-27T10:14:01Z</time>
      </trkpt>
      <trkpt lat="45.87463" lon="4.81397">
        <ele>247</ele>
        <time>2017-09-27T10:14:02Z</time>
      </trkpt>
      <trkpt lat="45.87467" lon="4.81388">
        <ele>247</ele>
        <time>2017-09-27T10:14:05Z</time>
      </trkpt>
      <trkpt lat="45.87468" lon="4.81385">
        <ele>248</ele>
        <time>2017-09-27T10:14:06Z</time>
      </trkpt>
      <trkpt lat="45.87472" lon="4.81378">
        <ele>248</ele>
        <time>2017-09-27T10:14:08Z</time>
      </trkpt>
      <trkpt lat="45.87473" lon="4.81374">
        <ele>248</ele>
        <time>2017-09-27T10:14:09Z</time>
      </trkpt>
      <trkpt lat="45.87479" lon="4.81365">
        <ele>248</ele>
        <time>2017-09-27T10:14:12Z</time>
      </trkpt>
      <trkpt lat="45.8748" lon="4.81362">
        <ele>248</ele>
        <time>2017-09-27T10:14:13Z</time>
      </trkpt>
      <trkpt lat="45.87484" lon="4.81354">
        <ele>248</ele>
        <time>2017-09-27T10:14:15Z</time>
      </trkpt>
      <trkpt lat="45.87485" lon="4.81351">
        <ele>248</ele>
        <time>2017-09-27T10:14:16Z</time>
      </trkpt>
      <trkpt lat="45.87488" lon="4.81343">
        <ele>248</ele>
        <time>2017-09-27T10:14:18Z</time>
      </trkpt>
      <trkpt lat="45.8749" lon="4.8134">
        <ele>248</ele>
        <time>2017-09-27T10:14:19Z</time>
      </trkpt>
      <trkpt lat="45.87495" lon="4.8133">
        <ele>250</ele>
        <time>2017-09-27T10:14:22Z</time>
      </trkpt>
      <trkpt lat="45.87496" lon="4.81327">
        <ele>250</ele>
        <time>2017-09-27T10:14:23Z</time>
      </trkpt>
      <trkpt lat="45.87498" lon="4.81316">
        <ele>252</ele>
        <time>2017-09-27T10:14:27Z</time>
      </trkpt>
      <trkpt lat="45.87499" lon="4.81312">
        <ele>252</ele>
        <time>2017-09-27T10:14:28Z</time>
      </trkpt>
      <trkpt lat="45.875" lon="4.813">
        <ele>250</ele>
        <time>2017-09-27T10:14:31Z</time>
      </trkpt>
      <trkpt lat="45.87501" lon="4.81296">
        <ele>248</ele>
        <time>2017-09-27T10:14:32Z</time>
      </trkpt>
      <trkpt lat="45.87502" lon="4.81285">
        <ele>248</ele>
        <time>2017-09-27T10:14:35Z</time>
      </trkpt>
      <trkpt lat="45.87502" lon="4.81282">
        <ele>249</ele>
        <time>2017-09-27T10:14:36Z</time>
      </trkpt>
      <trkpt lat="45.87504" lon="4.81273">
        <ele>249</ele>
        <time>2017-09-27T10:14:40Z</time>
      </trkpt>
      <trkpt lat="45.87505" lon="4.81269">
        <ele>250</ele>
        <time>2017-09-27T10:14:41Z</time>
      </trkpt>
      <trkpt lat="45.87508" lon="4.81261">
        <ele>250</ele>
        <time>2017-09-27T10:14:43Z</time>
      </trkpt>
      <trkpt lat="45.87509" lon="4.81257">
        <ele>251</ele>
        <time>2017-09-27T10:14:44Z</time>
      </trkpt>
      <trkpt lat="45.87511" lon="4.81249">
        <ele>253</ele>
        <time>2017-09-27T10:14:46Z</time>
      </trkpt>
      <trkpt lat="45.87512" lon="4.81245">
        <ele>253</ele>
        <time>2017-09-27T10:14:47Z</time>
      </trkpt>
      <trkpt lat="45.87514" lon="4.81234">
        <ele>253</ele>
        <time>2017-09-27T10:14:50Z</time>
      </trkpt>
      <trkpt lat="45.87515" lon="4.81231">
        <ele>253</ele>
        <time>2017-09-27T10:14:51Z</time>
      </trkpt>
      <trkpt lat="45.87518" lon="4.81219">
        <ele>253</ele>
        <time>2017-09-27T10:14:54Z</time>
      </trkpt>
      <trkpt lat="45.87518" lon="4.81215">
        <ele>254</ele>
        <time>2017-09-27T10:14:55Z</time>
      </trkpt>
      <trkpt lat="45.87522" lon="4.81206">
        <ele>254</ele>
        <time>2017-09-27T10:14:59Z</time>
      </trkpt>
      <trkpt lat="45.87524" lon="4.81202">
        <ele>254</ele>
        <time>2017-09-27T10:15:00Z</time>
      </trkpt>
      <trkpt lat="45.87527" lon="4.81193">
        <ele>254</ele>
        <time>2017-09-27T10:15:03Z</time>
      </trkpt>
      <trkpt lat="45.87528" lon="4.8119">
        <ele>254</ele>
        <time>2017-09-27T10:15:04Z</time>
      </trkpt>
      <trkpt lat="45.87533" lon="4.8118">
        <ele>255</ele>
        <time>2017-09-27T10:15:08Z</time>
      </trkpt>
      <trkpt lat="45.87534" lon="4.81177">
        <ele>255</ele>
        <time>2017-09-27T10:15:09Z</time>
      </trkpt>
      <trkpt lat="45.87537" lon="4.81167">
        <ele>255</ele>
        <time>2017-09-27T10:15:13Z</time>
      </trkpt>
      <trkpt lat="45.87538" lon="4.81165">
        <ele>259</ele>
        <time>2017-09-27T10:15:14Z</time>
      </trkpt>
      <trkpt lat="45.87542" lon="4.81156">
        <ele>259</ele>
        <time>2017-09-27T10:15:19Z</time>
      </trkpt>
      <trkpt lat="45.87543" lon="4.81154">
        <ele>259</ele>
        <time>2017-09-27T10:15:20Z</time>
      </trkpt>
      <trkpt lat="45.87543" lon="4.81142">
        <ele>260</ele>
        <time>2017-09-27T10:15:25Z</time>
      </trkpt>
      <trkpt lat="45.87543" lon="4.81139">
        <ele>260</ele>
        <time>2017-09-27T10:15:26Z</time>
      </trkpt>
      <trkpt lat="45.87546" lon="4.81127">
        <ele>260</ele>
        <time>2017-09-27T10:15:31Z</time>
      </trkpt>
      <trkpt lat="45.87547" lon="4.81125">
        <ele>260</ele>
        <time>2017-09-27T10:15:32Z</time>
      </trkpt>
      <trkpt lat="45.87549" lon="4.81115">
        <ele>261</ele>
        <time>2017-09-27T10:15:37Z</time>
      </trkpt>
      <trkpt lat="45.8755" lon="4.81113">
        <ele>261</ele>
        <time>2017-09-27T10:15:38Z</time>
      </trkpt>
      <trkpt lat="45.87553" lon="4.81102">
        <ele>261</ele>
        <time>2017-09-27T10:15:42Z</time>
      </trkpt>
      <trkpt lat="45.87553" lon="4.81099">
        <ele>261</ele>
        <time>2017-09-27T10:15:43Z</time>
      </trkpt>
      <trkpt lat="45.87556" lon="4.8109">
        <ele>261</ele>
        <time>2017-09-27T10:15:46Z</time>
      </trkpt>
      <trkpt lat="45.87557" lon="4.81087">
        <ele>261</ele>
        <time>2017-09-27T10:15:47Z</time>
      </trkpt>
      <trkpt lat="45.87562" lon="4.81078">
        <ele>265</ele>
        <time>2017-09-27T10:15:50Z</time>
      </trkpt>
      <trkpt lat="45.87563" lon="4.81074">
        <ele>265</ele>
        <time>2017-09-27T10:15:51Z</time>
      </trkpt>
      <trkpt lat="45.87566" lon="4.81064">
        <ele>265</ele>
        <time>2017-09-27T10:15:56Z</time>
      </trkpt>
      <trkpt lat="45.87567" lon="4.81061">
        <ele>265</ele>
        <time>2017-09-27T10:15:57Z</time>
      </trkpt>
      <trkpt lat="45.8757" lon="4.81051">
        <ele>266</ele>
        <time>2017-09-27T10:16:00Z</time>
      </trkpt>
      <trkpt lat="45.87571" lon="4.81048">
        <ele>266</ele>
        <time>2017-09-27T10:16:01Z</time>
      </trkpt>
      <trkpt lat="45.87574" lon="4.81038">
        <ele>266</ele>
        <time>2017-09-27T10:16:04Z</time>
      </trkpt>
      <trkpt lat="45.87574" lon="4.81035">
        <ele>266</ele>
        <time>2017-09-27T10:16:05Z</time>
      </trkpt>
      <trkpt lat="45.87575" lon="4.81023">
        <ele>266</ele>
        <time>2017-09-27T10:16:09Z</time>
      </trkpt>
      <trkpt lat="45.87575" lon="4.81021">
        <ele>266</ele>
        <time>2017-09-27T10:16:10Z</time>
      </trkpt>
      <trkpt lat="45.87577" lon="4.81011">
        <ele>266</ele>
        <time>2017-09-27T10:16:14Z</time>
      </trkpt>
      <trkpt lat="45.87578" lon="4.81008">
        <ele>266</ele>
        <time>2017-09-27T10:16:15Z</time>
      </trkpt>
      <trkpt lat="45.87581" lon="4.80998">
        <ele>266</ele>
        <time>2017-09-27T10:16:18Z</time>
      </trkpt>
      <trkpt lat="45.87582" lon="4.80995">
        <ele>267</ele>
        <time>2017-09-27T10:16:19Z</time>
      </trkpt>
      <trkpt lat="45.87587" lon="4.80985">
        <ele>264</ele>
        <time>2017-09-27T10:16:22Z</time>
      </trkpt>
      <trkpt lat="45.87589" lon="4.80982">
        <ele>264</ele>
        <time>2017-09-27T10:16:23Z</time>
      </trkpt>
      <trkpt lat="45.87593" lon="4.80974">
        <ele>263</ele>
        <time>2017-09-27T10:16:25Z</time>
      </trkpt>
      <trkpt lat="45.87594" lon="4.80971">
        <ele>263</ele>
        <time>2017-09-27T10:16:26Z</time>
      </trkpt>
      <trkpt lat="45.876" lon="4.80964">
        <ele>263</ele>
        <time>2017-09-27T10:16:30Z</time>
      </trkpt>
      <trkpt lat="45.87602" lon="4.80962">
        <ele>263</ele>
        <time>2017-09-27T10:16:31Z</time>
      </trkpt>
      <trkpt lat="45.87607" lon="4.80952">
        <ele>263</ele>
        <time>2017-09-27T10:16:34Z</time>
      </trkpt>
      <trkpt lat="45.87608" lon="4.80947">
        <ele>263</ele>
        <time>2017-09-27T10:16:35Z</time>
      </trkpt>
      <trkpt lat="45.87611" lon="4.80939">
        <ele>264</ele>
        <time>2017-09-27T10:16:37Z</time>
      </trkpt>
      <trkpt lat="45.87612" lon="4.80935">
        <ele>264</ele>
        <time>2017-09-27T10:16:38Z</time>
      </trkpt>
      <trkpt lat="45.87616" lon="4.80924">
        <ele>264</ele>
        <time>2017-09-27T10:16:41Z</time>
      </trkpt>
      <trkpt lat="45.87617" lon="4.80921">
        <ele>264</ele>
        <time>2017-09-27T10:16:42Z</time>
      </trkpt>
      <trkpt lat="45.87619" lon="4.8091">
        <ele>266</ele>
        <time>2017-09-27T10:16:45Z</time>
      </trkpt>
      <trkpt lat="45.87619" lon="4.80907">
        <ele>266</ele>
        <time>2017-09-27T10:16:46Z</time>
      </trkpt>
      <trkpt lat="45.87622" lon="4.80895">
        <ele>265</ele>
        <time>2017-09-27T10:16:49Z</time>
      </trkpt>
      <trkpt lat="45.87623" lon="4.8089">
        <ele>265</ele>
        <time>2017-09-27T10:16:50Z</time>
      </trkpt>
      <trkpt lat="45.87625" lon="4.80882">
        <ele>265</ele>
        <time>2017-09-27T10:16:51Z</time>
      </trkpt>
      <trkpt lat="45.87625" lon="4.80876">
        <ele>265</ele>
        <time>2017-09-27T10:16:52Z</time>
      </trkpt>
      <trkpt lat="45.87628" lon="4.8087">
        <ele>265</ele>
        <time>2017-09-27T10:16:53Z</time>
      </trkpt>
      <trkpt lat="45.8763" lon="4.80862">
        <ele>265</ele>
        <time>2017-09-27T10:16:54Z</time>
      </trkpt>
      <trkpt lat="45.87633" lon="4.80853">
        <ele>265</ele>
        <time>2017-09-27T10:16:55Z</time>
      </trkpt>
      <trkpt lat="45.87635" lon="4.80844">
        <ele>265</ele>
        <time>2017-09-27T10:16:56Z</time>
      </trkpt>
      <trkpt lat="45.87637" lon="4.80834">
        <ele>265</ele>
        <time>2017-09-27T10:16:57Z</time>
      </trkpt>
      <trkpt lat="45.87639" lon="4.80825">
        <ele>267</ele>
        <time>2017-09-27T10:16:58Z</time>
      </trkpt>
      <trkpt lat="45.8764" lon="4.80814">
        <ele>268</ele>
        <time>2017-09-27T10:16:59Z</time>
      </trkpt>
      <trkpt lat="45.87642" lon="4.80803">
        <ele>268</ele>
        <time>2017-09-27T10:17:00Z</time>
      </trkpt>
      <trkpt lat="45.87643" lon="4.80795">
        <ele>268</ele>
        <time>2017-09-27T10:17:01Z</time>
      </trkpt>
      <trkpt lat="45.87645" lon="4.80786">
        <ele>269</ele>
        <time>2017-09-27T10:17:02Z</time>
      </trkpt>
      <trkpt lat="45.87647" lon="4.8078">
        <ele>269</ele>
        <time>2017-09-27T10:17:03Z</time>
      </trkpt>
      <trkpt lat="45.87649" lon="4.80773">
        <ele>269</ele>
        <time>2017-09-27T10:17:04Z</time>
      </trkpt>
      <trkpt lat="45.87654" lon="4.80763">
        <ele>269</ele>
        <time>2017-09-27T10:17:06Z</time>
      </trkpt>
      <trkpt lat="45.87653" lon="4.8076">
        <ele>269</ele>
        <time>2017-09-27T10:17:07Z</time>
      </trkpt>
      <trkpt lat="45.87654" lon="4.80752">
        <ele>269</ele>
        <time>2017-09-27T10:17:09Z</time>
      </trkpt>
      <trkpt lat="45.87655" lon="4.80746">
        <ele>270</ele>
        <time>2017-09-27T10:17:10Z</time>
      </trkpt>
      <trkpt lat="45.87657" lon="4.80736">
        <ele>271</ele>
        <time>2017-09-27T10:17:12Z</time>
      </trkpt>
      <trkpt lat="45.87658" lon="4.80731">
        <ele>271</ele>
        <time>2017-09-27T10:17:13Z</time>
      </trkpt>
      <trkpt lat="45.87661" lon="4.80721">
        <ele>271</ele>
        <time>2017-09-27T10:17:16Z</time>
      </trkpt>
      <trkpt lat="45.87662" lon="4.80717">
        <ele>271</ele>
        <time>2017-09-27T10:17:17Z</time>
      </trkpt>
      <trkpt lat="45.87665" lon="4.80708">
        <ele>271</ele>
        <time>2017-09-27T10:17:19Z</time>
      </trkpt>
      <trkpt lat="45.87667" lon="4.80704">
        <ele>271</ele>
        <time>2017-09-27T10:17:20Z</time>
      </trkpt>
      <trkpt lat="45.87669" lon="4.80695">
        <ele>267</ele>
        <time>2017-09-27T10:17:22Z</time>
      </trkpt>
      <trkpt lat="45.8767" lon="4.80691">
        <ele>267</ele>
        <time>2017-09-27T10:17:23Z</time>
      </trkpt>
      <trkpt lat="45.87673" lon="4.80681">
        <ele>267</ele>
        <time>2017-09-27T10:17:26Z</time>
      </trkpt>
      <trkpt lat="45.87674" lon="4.80678">
        <ele>268</ele>
        <time>2017-09-27T10:17:27Z</time>
      </trkpt>
      <trkpt lat="45.87676" lon="4.80666">
        <ele>268</ele>
        <time>2017-09-27T10:17:30Z</time>
      </trkpt>
      <trkpt lat="45.87677" lon="4.80662">
        <ele>267</ele>
        <time>2017-09-27T10:17:31Z</time>
      </trkpt>
      <trkpt lat="45.8768" lon="4.80653">
        <ele>267</ele>
        <time>2017-09-27T10:17:33Z</time>
      </trkpt>
      <trkpt lat="45.8768" lon="4.80648">
        <ele>267</ele>
        <time>2017-09-27T10:17:34Z</time>
      </trkpt>
      <trkpt lat="45.87682" lon="4.80637">
        <ele>266</ele>
        <time>2017-09-27T10:17:36Z</time>
      </trkpt>
      <trkpt lat="45.87682" lon="4.8063">
        <ele>266</ele>
        <time>2017-09-27T10:17:37Z</time>
      </trkpt>
      <trkpt lat="45.87683" lon="4.80623">
        <ele>266</ele>
        <time>2017-09-27T10:17:38Z</time>
      </trkpt>
      <trkpt lat="45.87683" lon="4.80616">
        <ele>266</ele>
        <time>2017-09-27T10:17:39Z</time>
      </trkpt>
      <trkpt lat="45.87683" lon="4.80609">
        <ele>266</ele>
        <time>2017-09-27T10:17:40Z</time>
      </trkpt>
      <trkpt lat="45.87685" lon="4.80602">
        <ele>266</ele>
        <time>2017-09-27T10:17:41Z</time>
      </trkpt>
      <trkpt lat="45.87688" lon="4.80591">
        <ele>266</ele>
        <time>2017-09-27T10:17:43Z</time>
      </trkpt>
      <trkpt lat="45.87689" lon="4.80582">
        <ele>265</ele>
        <time>2017-09-27T10:17:44Z</time>
      </trkpt>
      <trkpt lat="45.87692" lon="4.80574">
        <ele>264</ele>
        <time>2017-09-27T10:17:45Z</time>
      </trkpt>
      <trkpt lat="45.87692" lon="4.80566">
        <ele>264</ele>
        <time>2017-09-27T10:17:46Z</time>
      </trkpt>
      <trkpt lat="45.87692" lon="4.80557">
        <ele>264</ele>
        <time>2017-09-27T10:17:47Z</time>
      </trkpt>
      <trkpt lat="45.87694" lon="4.80548">
        <ele>263</ele>
        <time>2017-09-27T10:17:48Z</time>
      </trkpt>
      <trkpt lat="45.87695" lon="4.80541">
        <ele>263</ele>
        <time>2017-09-27T10:17:49Z</time>
      </trkpt>
      <trkpt lat="45.87695" lon="4.80532">
        <ele>263</ele>
        <time>2017-09-27T10:17:50Z</time>
      </trkpt>
      <trkpt lat="45.87697" lon="4.80526">
        <ele>263</ele>
        <time>2017-09-27T10:17:51Z</time>
      </trkpt>
      <trkpt lat="45.87699" lon="4.80518">
        <ele>263</ele>
        <time>2017-09-27T10:17:52Z</time>
      </trkpt>
      <trkpt lat="45.87701" lon="4.80511">
        <ele>263</ele>
        <time>2017-09-27T10:17:53Z</time>
      </trkpt>
      <trkpt lat="45.87702" lon="4.80504">
        <ele>263</ele>
        <time>2017-09-27T10:17:54Z</time>
      </trkpt>
      <trkpt lat="45.87704" lon="4.80498">
        <ele>262</ele>
        <time>2017-09-27T10:17:55Z</time>
      </trkpt>
      <trkpt lat="45.87706" lon="4.80492">
        <ele>262</ele>
        <time>2017-09-27T10:17:56Z</time>
      </trkpt>
      <trkpt lat="45.87709" lon="4.80487">
        <ele>261</ele>
        <time>2017-09-27T10:17:57Z</time>
      </trkpt>
      <trkpt lat="45.87713" lon="4.80484">
        <ele>261</ele>
        <time>2017-09-27T10:17:58Z</time>
      </trkpt>
      <trkpt lat="45.8772" lon="4.80476">
        <ele>261</ele>
        <time>2017-09-27T10:18:00Z</time>
      </trkpt>
      <trkpt lat="45.8772" lon="4.80472">
        <ele>261</ele>
        <time>2017-09-27T10:18:01Z</time>
      </trkpt>
      <trkpt lat="45.87725" lon="4.80467">
        <ele>261</ele>
        <time>2017-09-27T10:18:02Z</time>
      </trkpt>
      <trkpt lat="45.8773" lon="4.8046">
        <ele>260</ele>
        <time>2017-09-27T10:18:03Z</time>
      </trkpt>
      <trkpt lat="45.87734" lon="4.80453">
        <ele>260</ele>
        <time>2017-09-27T10:18:04Z</time>
      </trkpt>
      <trkpt lat="45.87737" lon="4.80447">
        <ele>260</ele>
        <time>2017-09-27T10:18:05Z</time>
      </trkpt>
      <trkpt lat="45.87741" lon="4.80441">
        <ele>259</ele>
        <time>2017-09-27T10:18:06Z</time>
      </trkpt>
      <trkpt lat="45.87744" lon="4.80435">
        <ele>259</ele>
        <time>2017-09-27T10:18:07Z</time>
      </trkpt>
      <trkpt lat="45.87747" lon="4.8043">
        <ele>258</ele>
        <time>2017-09-27T10:18:08Z</time>
      </trkpt>
      <trkpt lat="45.87751" lon="4.80426">
        <ele>255</ele>
        <time>2017-09-27T10:18:09Z</time>
      </trkpt>
      <trkpt lat="45.87755" lon="4.80421">
        <ele>256</ele>
        <time>2017-09-27T10:18:10Z</time>
      </trkpt>
      <trkpt lat="45.8776" lon="4.80417">
        <ele>255</ele>
        <time>2017-09-27T10:18:11Z</time>
      </trkpt>
      <trkpt lat="45.87766" lon="4.80409">
        <ele>256</ele>
        <time>2017-09-27T10:18:13Z</time>
      </trkpt>
      <trkpt lat="45.87768" lon="4.80406">
        <ele>256</ele>
        <time>2017-09-27T10:18:14Z</time>
      </trkpt>
      <trkpt lat="45.87773" lon="4.80398">
        <ele>256</ele>
        <time>2017-09-27T10:18:16Z</time>
      </trkpt>
      <trkpt lat="45.87775" lon="4.80394">
        <ele>256</ele>
        <time>2017-09-27T10:18:17Z</time>
      </trkpt>
      <trkpt lat="45.87778" lon="4.80384">
        <ele>257</ele>
        <time>2017-09-27T10:18:19Z</time>
      </trkpt>
      <trkpt lat="45.8778" lon="4.80381">
        <ele>257</ele>
        <time>2017-09-27T10:18:20Z</time>
      </trkpt>
      <trkpt lat="45.87785" lon="4.80374">
        <ele>257</ele>
        <time>2017-09-27T10:18:22Z</time>
      </trkpt>
      <trkpt lat="45.87788" lon="4.8037">
        <ele>257</ele>
        <time>2017-09-27T10:18:23Z</time>
      </trkpt>
      <trkpt lat="45.87793" lon="4.80362">
        <ele>257</ele>
        <time>2017-09-27T10:18:25Z</time>
      </trkpt>
      <trkpt lat="45.87795" lon="4.80359">
        <ele>257</ele>
        <time>2017-09-27T10:18:26Z</time>
      </trkpt>
      <trkpt lat="45.878" lon="4.80353">
        <ele>257</ele>
        <time>2017-09-27T10:18:28Z</time>
      </trkpt>
      <trkpt lat="45.87802" lon="4.8035">
        <ele>257</ele>
        <time>2017-09-27T10:18:29Z</time>
      </trkpt>
      <trkpt lat="45.87806" lon="4.80341">
        <ele>257</ele>
        <time>2017-09-27T10:18:31Z</time>
      </trkpt>
      <trkpt lat="45.87807" lon="4.80336">
        <ele>257</ele>
        <time>2017-09-27T10:18:32Z</time>
      </trkpt>
      <trkpt lat="45.87809" lon="4.80327">
        <ele>258</ele>
        <time>2017-09-27T10:18:34Z</time>
      </trkpt>
      <trkpt lat="45.8781" lon="4.80321">
        <ele>259</ele>
        <time>2017-09-27T10:18:35Z</time>
      </trkpt>
      <trkpt lat="45.87812" lon="4.80312">
        <ele>259</ele>
        <time>2017-09-27T10:18:37Z</time>
      </trkpt>
      <trkpt lat="45.87814" lon="4.80307">
        <ele>259</ele>
        <time>2017-09-27T10:18:38Z</time>
      </trkpt>
      <trkpt lat="45.87817" lon="4.80297">
        <ele>259</ele>
        <time>2017-09-27T10:18:40Z</time>
      </trkpt>
      <trkpt lat="45.87819" lon="4.80292">
        <ele>259</ele>
        <time>2017-09-27T10:18:41Z</time>
      </trkpt>
      <trkpt lat="45.87822" lon="4.80281">
        <ele>259</ele>
        <time>2017-09-27T10:18:43Z</time>
      </trkpt>
      <trkpt lat="45.87823" lon="4.80275">
        <ele>259</ele>
        <time>2017-09-27T10:18:44Z</time>
      </trkpt>
      <trkpt lat="45.87824" lon="4.80262">
        <ele>258</ele>
        <time>2017-09-27T10:18:46Z</time>
      </trkpt>
      <trkpt lat="45.87823" lon="4.80256">
        <ele>258</ele>
        <time>2017-09-27T10:18:47Z</time>
      </trkpt>
      <trkpt lat="45.87826" lon="4.80246">
        <ele>258</ele>
        <time>2017-09-27T10:18:49Z</time>
      </trkpt>
      <trkpt lat="45.87827" lon="4.80241">
        <ele>259</ele>
        <time>2017-09-27T10:18:50Z</time>
      </trkpt>
      <trkpt lat="45.8783" lon="4.80229">
        <ele>260</ele>
        <time>2017-09-27T10:18:53Z</time>
      </trkpt>
      <trkpt lat="45.87831" lon="4.80224">
        <ele>261</ele>
        <time>2017-09-27T10:18:54Z</time>
      </trkpt>
      <trkpt lat="45.87834" lon="4.80213">
        <ele>257</ele>
        <time>2017-09-27T10:18:57Z</time>
      </trkpt>
      <trkpt lat="45.87835" lon="4.8021">
        <ele>258</ele>
        <time>2017-09-27T10:18:58Z</time>
      </trkpt>
      <trkpt lat="45.87838" lon="4.80202">
        <ele>258</ele>
        <time>2017-09-27T10:19:00Z</time>
      </trkpt>
      <trkpt lat="45.8784" lon="4.80198">
        <ele>258</ele>
        <time>2017-09-27T10:19:01Z</time>
      </trkpt>
      <trkpt lat="45.87844" lon="4.80189">
        <ele>259</ele>
        <time>2017-09-27T10:19:03Z</time>
      </trkpt>
      <trkpt lat="45.87846" lon="4.80184">
        <ele>259</ele>
        <time>2017-09-27T10:19:04Z</time>
      </trkpt>
      <trkpt lat="45.87849" lon="4.80176">
        <ele>259</ele>
        <time>2017-09-27T10:19:06Z</time>
      </trkpt>
      <trkpt lat="45.87851" lon="4.80171">
        <ele>259</ele>
        <time>2017-09-27T10:19:07Z</time>
      </trkpt>
      <trkpt lat="45.87856" lon="4.80163">
        <ele>262</ele>
        <time>2017-09-27T10:19:09Z</time>
      </trkpt>
      <trkpt lat="45.87858" lon="4.8016">
        <ele>262</ele>
        <time>2017-09-27T10:19:10Z</time>
      </trkpt>
      <trkpt lat="45.87864" lon="4.8015">
        <ele>262</ele>
        <time>2017-09-27T10:19:13Z</time>
      </trkpt>
      <trkpt lat="45.87867" lon="4.80147">
        <ele>262</ele>
        <time>2017-09-27T10:19:14Z</time>
      </trkpt>
      <trkpt lat="45.87872" lon="4.8014">
        <ele>262</ele>
        <time>2017-09-27T10:19:16Z</time>
      </trkpt>
      <trkpt lat="45.87875" lon="4.80136">
        <ele>262</ele>
        <time>2017-09-27T10:19:17Z</time>
      </trkpt>
      <trkpt lat="45.87879" lon="4.8013">
        <ele>262</ele>
        <time>2017-09-27T10:19:19Z</time>
      </trkpt>
      <trkpt lat="45.87881" lon="4.80127">
        <ele>262</ele>
        <time>2017-09-27T10:19:20Z</time>
      </trkpt>
      <trkpt lat="45.87886" lon="4.80121">
        <ele>263</ele>
        <time>2017-09-27T10:19:22Z</time>
      </trkpt>
      <trkpt lat="45.87889" lon="4.80119">
        <ele>262</ele>
        <time>2017-09-27T10:19:23Z</time>
      </trkpt>
      <trkpt lat="45.87895" lon="4.80114">
        <ele>262</ele>
        <time>2017-09-27T10:19:25Z</time>
      </trkpt>
      <trkpt lat="45.87897" lon="4.80112">
        <ele>262</ele>
        <time>2017-09-27T10:19:26Z</time>
      </trkpt>
      <trkpt lat="45.87903" lon="4.80105">
        <ele>262</ele>
        <time>2017-09-27T10:19:28Z</time>
      </trkpt>
      <trkpt lat="45.87905" lon="4.80101">
        <ele>262</ele>
        <time>2017-09-27T10:19:29Z</time>
      </trkpt>
      <trkpt lat="45.87913" lon="4.80094">
        <ele>262</ele>
        <time>2017-09-27T10:19:31Z</time>
      </trkpt>
      <trkpt lat="45.87919" lon="4.80094">
        <ele>260</ele>
        <time>2017-09-27T10:19:32Z</time>
      </trkpt>
      <trkpt lat="45.87924" lon="4.8009">
        <ele>260</ele>
        <time>2017-09-27T10:19:33Z</time>
      </trkpt>
      <trkpt lat="45.87928" lon="4.80088">
        <ele>260</ele>
        <time>2017-09-27T10:19:34Z</time>
      </trkpt>
      <trkpt lat="45.87933" lon="4.80085">
        <ele>259</ele>
        <time>2017-09-27T10:19:35Z</time>
      </trkpt>
      <trkpt lat="45.87937" lon="4.80082">
        <ele>259</ele>
        <time>2017-09-27T10:19:36Z</time>
      </trkpt>
      <trkpt lat="45.87942" lon="4.80077">
        <ele>259</ele>
        <time>2017-09-27T10:19:37Z</time>
      </trkpt>
      <trkpt lat="45.87947" lon="4.80074">
        <ele>258</ele>
        <time>2017-09-27T10:19:38Z</time>
      </trkpt>
      <trkpt lat="45.87951" lon="4.80071">
        <ele>258</ele>
        <time>2017-09-27T10:19:39Z</time>
      </trkpt>
      <trkpt lat="45.87956" lon="4.80066">
        <ele>257</ele>
        <time>2017-09-27T10:19:40Z</time>
      </trkpt>
      <trkpt lat="45.87961" lon="4.80061">
        <ele>257</ele>
        <time>2017-09-27T10:19:41Z</time>
      </trkpt>
      <trkpt lat="45.87965" lon="4.80055">
        <ele>257</ele>
        <time>2017-09-27T10:19:42Z</time>
      </trkpt>
      <trkpt lat="45.87969" lon="4.80049">
        <ele>257</ele>
        <time>2017-09-27T10:19:43Z</time>
      </trkpt>
      <trkpt lat="45.87976" lon="4.80043">
        <ele>256</ele>
        <time>2017-09-27T10:19:44Z</time>
      </trkpt>
      <trkpt lat="45.87981" lon="4.80037">
        <ele>256</ele>
        <time>2017-09-27T10:19:45Z</time>
      </trkpt>
      <trkpt lat="45.87986" lon="4.80029">
        <ele>255</ele>
        <time>2017-09-27T10:19:46Z</time>
      </trkpt>
      <trkpt lat="45.87991" lon="4.80021">
        <ele>255</ele>
        <time>2017-09-27T10:19:47Z</time>
      </trkpt>
      <trkpt lat="45.87995" lon="4.80012">
        <ele>253</ele>
        <time>2017-09-27T10:19:48Z</time>
      </trkpt>
      <trkpt lat="45.87998" lon="4.80002">
        <ele>252</ele>
        <time>2017-09-27T10:19:49Z</time>
      </trkpt>
      <trkpt lat="45.88001" lon="4.79992">
        <ele>250</ele>
        <time>2017-09-27T10:19:50Z</time>
      </trkpt>
      <trkpt lat="45.88004" lon="4.79982">
        <ele>250</ele>
        <time>2017-09-27T10:19:51Z</time>
      </trkpt>
      <trkpt lat="45.88007" lon="4.79972">
        <ele>250</ele>
        <time>2017-09-27T10:19:52Z</time>
      </trkpt>
      <trkpt lat="45.8801" lon="4.79961">
        <ele>250</ele>
        <time>2017-09-27T10:19:53Z</time>
      </trkpt>
      <trkpt lat="45.88013" lon="4.79952">
        <ele>250</ele>
        <time>2017-09-27T10:19:54Z</time>
      </trkpt>
      <trkpt lat="45.88016" lon="4.79941">
        <ele>250</ele>
        <time>2017-09-27T10:19:55Z</time>
      </trkpt>
      <trkpt lat="45.88019" lon="4.7993">
        <ele>250</ele>
        <time>2017-09-27T10:19:56Z</time>
      </trkpt>
      <trkpt lat="45.88023" lon="4.79918">
        <ele>250</ele>
        <time>2017-09-27T10:19:57Z</time>
      </trkpt>
      <trkpt lat="45.88026" lon="4.79907">
        <ele>248</ele>
        <time>2017-09-27T10:19:58Z</time>
      </trkpt>
      <trkpt lat="45.88028" lon="4.79897">
        <ele>248</ele>
        <time>2017-09-27T10:19:59Z</time>
      </trkpt>
      <trkpt lat="45.8803" lon="4.79888">
        <ele>247</ele>
        <time>2017-09-27T10:20:00Z</time>
      </trkpt>
      <trkpt lat="45.88033" lon="4.79881">
        <ele>247</ele>
        <time>2017-09-27T10:20:01Z</time>
      </trkpt>
      <trkpt lat="45.88034" lon="4.79873">
        <ele>247</ele>
        <time>2017-09-27T10:20:02Z</time>
      </trkpt>
      <trkpt lat="45.88035" lon="4.79867">
        <ele>247</ele>
        <time>2017-09-27T10:20:03Z</time>
      </trkpt>
      <trkpt lat="45.88036" lon="4.79859">
        <ele>247</ele>
        <time>2017-09-27T10:20:04Z</time>
      </trkpt>
      <trkpt lat="45.88037" lon="4.79852">
        <ele>246</ele>
        <time>2017-09-27T10:20:05Z</time>
      </trkpt>
      <trkpt lat="45.88038" lon="4.79844">
        <ele>246</ele>
        <time>2017-09-27T10:20:06Z</time>
      </trkpt>
      <trkpt lat="45.88037" lon="4.79836">
        <ele>246</ele>
        <time>2017-09-27T10:20:07Z</time>
      </trkpt>
      <trkpt lat="45.88034" lon="4.79828">
        <ele>243</ele>
        <time>2017-09-27T10:20:08Z</time>
      </trkpt>
      <trkpt lat="45.88032" lon="4.79819">
        <ele>243</ele>
        <time>2017-09-27T10:20:09Z</time>
      </trkpt>
      <trkpt lat="45.8803" lon="4.79809">
        <ele>243</ele>
        <time>2017-09-27T10:20:10Z</time>
      </trkpt>
      <trkpt lat="45.88029" lon="4.798">
        <ele>242</ele>
        <time>2017-09-27T10:20:11Z</time>
      </trkpt>
      <trkpt lat="45.88028" lon="4.7979">
        <ele>242</ele>
        <time>2017-09-27T10:20:12Z</time>
      </trkpt>
      <trkpt lat="45.88027" lon="4.79781">
        <ele>242</ele>
        <time>2017-09-27T10:20:13Z</time>
      </trkpt>
      <trkpt lat="45.88023" lon="4.79771">
        <ele>242</ele>
        <time>2017-09-27T10:20:14Z</time>
      </trkpt>
      <trkpt lat="45.8802" lon="4.7976">
        <ele>241</ele>
        <time>2017-09-27T10:20:15Z</time>
      </trkpt>
      <trkpt lat="45.88018" lon="4.79751">
        <ele>241</ele>
        <time>2017-09-27T10:20:16Z</time>
      </trkpt>
      <trkpt lat="45.88014" lon="4.7974">
        <ele>238</ele>
        <time>2017-09-27T10:20:17Z</time>
      </trkpt>
      <trkpt lat="45.88008" lon="4.7973">
        <ele>238</ele>
        <time>2017-09-27T10:20:18Z</time>
      </trkpt>
      <trkpt lat="45.88003" lon="4.7972">
        <ele>237</ele>
        <time>2017-09-27T10:20:19Z</time>
      </trkpt>
      <trkpt lat="45.87999" lon="4.7971">
        <ele>242</ele>
        <time>2017-09-27T10:20:20Z</time>
      </trkpt>
      <trkpt lat="45.87994" lon="4.79701">
        <ele>241</ele>
        <time>2017-09-27T10:20:21Z</time>
      </trkpt>
      <trkpt lat="45.87988" lon="4.7969">
        <ele>240</ele>
        <time>2017-09-27T10:20:22Z</time>
      </trkpt>
      <trkpt lat="45.87982" lon="4.79679">
        <ele>240</ele>
        <time>2017-09-27T10:20:23Z</time>
      </trkpt>
      <trkpt lat="45.8798" lon="4.7967">
        <ele>240</ele>
        <time>2017-09-27T10:20:24Z</time>
      </trkpt>
      <trkpt lat="45.87976" lon="4.79658">
        <ele>238</ele>
        <time>2017-09-27T10:20:25Z</time>
      </trkpt>
      <trkpt lat="45.87973" lon="4.79648">
        <ele>239</ele>
        <time>2017-09-27T10:20:26Z</time>
      </trkpt>
      <trkpt lat="45.87968" lon="4.79637">
        <ele>239</ele>
        <time>2017-09-27T10:20:27Z</time>
      </trkpt>
      <trkpt lat="45.87964" lon="4.79628">
        <ele>239</ele>
        <time>2017-09-27T10:20:28Z</time>
      </trkpt>
      <trkpt lat="45.87959" lon="4.7962">
        <ele>240</ele>
        <time>2017-09-27T10:20:29Z</time>
      </trkpt>
      <trkpt lat="45.87955" lon="4.79612">
        <ele>240</ele>
        <time>2017-09-27T10:20:30Z</time>
      </trkpt>
      <trkpt lat="45.87948" lon="4.79605">
        <ele>241</ele>
        <time>2017-09-27T10:20:31Z</time>
      </trkpt>
      <trkpt lat="45.87945" lon="4.79594">
        <ele>241</ele>
        <time>2017-09-27T10:20:33Z</time>
      </trkpt>
      <trkpt lat="45.87944" lon="4.79589">
        <ele>241</ele>
        <time>2017-09-27T10:20:34Z</time>
      </trkpt>
      <trkpt lat="45.87941" lon="4.79582">
        <ele>241</ele>
        <time>2017-09-27T10:20:36Z</time>
      </trkpt>
      <trkpt lat="45.87939" lon="4.79577">
        <ele>241</ele>
        <time>2017-09-27T10:20:37Z</time>
      </trkpt>
      <trkpt lat="45.87936" lon="4.79567">
        <ele>241</ele>
        <time>2017-09-27T10:20:39Z</time>
      </trkpt>
      <trkpt lat="45.87935" lon="4.79561">
        <ele>241</ele>
        <time>2017-09-27T10:20:40Z</time>
      </trkpt>
      <trkpt lat="45.87931" lon="4.79551">
        <ele>241</ele>
        <time>2017-09-27T10:20:42Z</time>
      </trkpt>
      <trkpt lat="45.87931" lon="4.79546">
        <ele>241</ele>
        <time>2017-09-27T10:20:43Z</time>
      </trkpt>
      <trkpt lat="45.8793" lon="4.79536">
        <ele>241</ele>
        <time>2017-09-27T10:20:45Z</time>
      </trkpt>
      <trkpt lat="45.87929" lon="4.79532">
        <ele>241</ele>
        <time>2017-09-27T10:20:46Z</time>
      </trkpt>
      <trkpt lat="45.87925" lon="4.79522">
        <ele>241</ele>
        <time>2017-09-27T10:20:48Z</time>
      </trkpt>
      <trkpt lat="45.87924" lon="4.79518">
        <ele>242</ele>
        <time>2017-09-27T10:20:49Z</time>
      </trkpt>
      <trkpt lat="45.87922" lon="4.79508">
        <ele>243</ele>
        <time>2017-09-27T10:20:51Z</time>
      </trkpt>
      <trkpt lat="45.8792" lon="4.79503">
        <ele>244</ele>
        <time>2017-09-27T10:20:52Z</time>
      </trkpt>
      <trkpt lat="45.87918" lon="4.79495">
        <ele>243</ele>
        <time>2017-09-27T10:20:54Z</time>
      </trkpt>
      <trkpt lat="45.87917" lon="4.79491">
        <ele>242</ele>
        <time>2017-09-27T10:20:55Z</time>
      </trkpt>
      <trkpt lat="45.87914" lon="4.79479">
        <ele>246</ele>
        <time>2017-09-27T10:20:58Z</time>
      </trkpt>
      <trkpt lat="45.87913" lon="4.79475">
        <ele>246</ele>
        <time>2017-09-27T10:20:59Z</time>
      </trkpt>
      <trkpt lat="45.87911" lon="4.79465">
        <ele>246</ele>
        <time>2017-09-27T10:21:02Z</time>
      </trkpt>
      <trkpt lat="45.8791" lon="4.79462">
        <ele>246</ele>
        <time>2017-09-27T10:21:03Z</time>
      </trkpt>
      <trkpt lat="45.87906" lon="4.79451">
        <ele>245</ele>
        <time>2017-09-27T10:21:06Z</time>
      </trkpt>
      <trkpt lat="45.87904" lon="4.79447">
        <ele>245</ele>
        <time>2017-09-27T10:21:07Z</time>
      </trkpt>
      <trkpt lat="45.87902" lon="4.79437">
        <ele>244</ele>
        <time>2017-09-27T10:21:09Z</time>
      </trkpt>
      <trkpt lat="45.87901" lon="4.79431">
        <ele>244</ele>
        <time>2017-09-27T10:21:10Z</time>
      </trkpt>
      <trkpt lat="45.87899" lon="4.7942">
        <ele>243</ele>
        <time>2017-09-27T10:21:12Z</time>
      </trkpt>
      <trkpt lat="45.87898" lon="4.79413">
        <ele>241</ele>
        <time>2017-09-27T10:21:13Z</time>
      </trkpt>
      <trkpt lat="45.87898" lon="4.79406">
        <ele>241</ele>
        <time>2017-09-27T10:21:14Z</time>
      </trkpt>
      <trkpt lat="45.87897" lon="4.79399">
        <ele>241</ele>
        <time>2017-09-27T10:21:15Z</time>
      </trkpt>
      <trkpt lat="45.87896" lon="4.79392">
        <ele>241</ele>
        <time>2017-09-27T10:21:16Z</time>
      </trkpt>
      <trkpt lat="45.87894" lon="4.79385">
        <ele>241</ele>
        <time>2017-09-27T10:21:17Z</time>
      </trkpt>
      <trkpt lat="45.87893" lon="4.79377">
        <ele>241</ele>
        <time>2017-09-27T10:21:18Z</time>
      </trkpt>
      <trkpt lat="45.87893" lon="4.79369">
        <ele>241</ele>
        <time>2017-09-27T10:21:19Z</time>
      </trkpt>
      <trkpt lat="45.87891" lon="4.79362">
        <ele>240</ele>
        <time>2017-09-27T10:21:20Z</time>
      </trkpt>
      <trkpt lat="45.8789" lon="4.79353">
        <ele>240</ele>
        <time>2017-09-27T10:21:21Z</time>
      </trkpt>
      <trkpt lat="45.87889" lon="4.79345">
        <ele>240</ele>
        <time>2017-09-27T10:21:22Z</time>
      </trkpt>
      <trkpt lat="45.87888" lon="4.79335">
        <ele>239</ele>
        <time>2017-09-27T10:21:23Z</time>
      </trkpt>
      <trkpt lat="45.87888" lon="4.79326">
        <ele>236</ele>
        <time>2017-09-27T10:21:24Z</time>
      </trkpt>
      <trkpt lat="45.87888" lon="4.79317">
        <ele>237</ele>
        <time>2017-09-27T10:21:25Z</time>
      </trkpt>
      <trkpt lat="45.87886" lon="4.79307">
        <ele>237</ele>
        <time>2017-09-27T10:21:26Z</time>
      </trkpt>
      <trkpt lat="45.87885" lon="4.79298">
        <ele>236</ele>
        <time>2017-09-27T10:21:27Z</time>
      </trkpt>
      <trkpt lat="45.87882" lon="4.79288">
        <ele>236</ele>
        <time>2017-09-27T10:21:28Z</time>
      </trkpt>
      <trkpt lat="45.87881" lon="4.79278">
        <ele>236</ele>
        <time>2017-09-27T10:21:29Z</time>
      </trkpt>
      <trkpt lat="45.8788" lon="4.79269">
        <ele>236</ele>
        <time>2017-09-27T10:21:30Z</time>
      </trkpt>
      <trkpt lat="45.87879" lon="4.79258">
        <ele>236</ele>
        <time>2017-09-27T10:21:31Z</time>
      </trkpt>
      <trkpt lat="45.87878" lon="4.79247">
        <ele>233</ele>
        <time>2017-09-27T10:21:32Z</time>
      </trkpt>
      <trkpt lat="45.87874" lon="4.79237">
        <ele>233</ele>
        <time>2017-09-27T10:21:33Z</time>
      </trkpt>
      <trkpt lat="45.87873" lon="4.79227">
        <ele>233</ele>
        <time>2017-09-27T10:21:34Z</time>
      </trkpt>
      <trkpt lat="45.87872" lon="4.79215">
        <ele>233</ele>
        <time>2017-09-27T10:21:35Z</time>
      </trkpt>
      <trkpt lat="45.8787" lon="4.79205">
        <ele>233</ele>
        <time>2017-09-27T10:21:36Z</time>
      </trkpt>
      <trkpt lat="45.87869" lon="4.79195">
        <ele>233</ele>
        <time>2017-09-27T10:21:37Z</time>
      </trkpt>
      <trkpt lat="45.87868" lon="4.79185">
        <ele>232</ele>
        <time>2017-09-27T10:21:38Z</time>
      </trkpt>
      <trkpt lat="45.87867" lon="4.79174">
        <ele>232</ele>
        <time>2017-09-27T10:21:39Z</time>
      </trkpt>
      <trkpt lat="45.87866" lon="4.79166">
        <ele>230</ele>
        <time>2017-09-27T10:21:40Z</time>
      </trkpt>
      <trkpt lat="45.87865" lon="4.79156">
        <ele>230</ele>
        <time>2017-09-27T10:21:41Z</time>
      </trkpt>
      <trkpt lat="45.87864" lon="4.79146">
        <ele>230</ele>
        <time>2017-09-27T10:21:42Z</time>
      </trkpt>
      <trkpt lat="45.87863" lon="4.79136">
        <ele>230</ele>
        <time>2017-09-27T10:21:43Z</time>
      </trkpt>
      <trkpt lat="45.87861" lon="4.79126">
        <ele>230</ele>
        <time>2017-09-27T10:21:44Z</time>
      </trkpt>
      <trkpt lat="45.87858" lon="4.79114">
        <ele>230</ele>
        <time>2017-09-27T10:21:45Z</time>
      </trkpt>
      <trkpt lat="45.87857" lon="4.79103">
        <ele>230</ele>
        <time>2017-09-27T10:21:46Z</time>
      </trkpt>
      <trkpt lat="45.87856" lon="4.79093">
        <ele>230</ele>
        <time>2017-09-27T10:21:47Z</time>
      </trkpt>
      <trkpt lat="45.87854" lon="4.79082">
        <ele>229</ele>
        <time>2017-09-27T10:21:48Z</time>
      </trkpt>
      <trkpt lat="45.87853" lon="4.79072">
        <ele>229</ele>
        <time>2017-09-27T10:21:49Z</time>
      </trkpt>
      <trkpt lat="45.87851" lon="4.79061">
        <ele>228</ele>
        <time>2017-09-27T10:21:50Z</time>
      </trkpt>
      <trkpt lat="45.87849" lon="4.79051">
        <ele>228</ele>
        <time>2017-09-27T10:21:51Z</time>
      </trkpt>
      <trkpt lat="45.87849" lon="4.7904">
        <ele>228</ele>
        <time>2017-09-27T10:21:52Z</time>
      </trkpt>
      <trkpt lat="45.87848" lon="4.7903">
        <ele>227</ele>
        <time>2017-09-27T10:21:53Z</time>
      </trkpt>
      <trkpt lat="45.87846" lon="4.79019">
        <ele>228</ele>
        <time>2017-09-27T10:21:54Z</time>
      </trkpt>
      <trkpt lat="45.87845" lon="4.79008">
        <ele>228</ele>
        <time>2017-09-27T10:21:55Z</time>
      </trkpt>
      <trkpt lat="45.87843" lon="4.78997">
        <ele>227</ele>
        <time>2017-09-27T10:21:56Z</time>
      </trkpt>
      <trkpt lat="45.87842" lon="4.78985">
        <ele>227</ele>
        <time>2017-09-27T10:21:57Z</time>
      </trkpt>
      <trkpt lat="45.87841" lon="4.78974">
        <ele>226</ele>
        <time>2017-09-27T10:21:58Z</time>
      </trkpt>
      <trkpt lat="45.8784" lon="4.78962">
        <ele>225</ele>
        <time>2017-09-27T10:21:59Z</time>
      </trkpt>
      <trkpt lat="45.87841" lon="4.78951">
        <ele>225</ele>
        <time>2017-09-27T10:22:00Z</time>
      </trkpt>
      <trkpt lat="45.87842" lon="4.78938">
        <ele>225</ele>
        <time>2017-09-27T10:22:01Z</time>
      </trkpt>
      <trkpt lat="45.87843" lon="4.78927">
        <ele>226</ele>
        <time>2017-09-27T10:22:02Z</time>
      </trkpt>
      <trkpt lat="45.87844" lon="4.78915">
        <ele>226</ele>
        <time>2017-09-27T10:22:03Z</time>
      </trkpt>
      <trkpt lat="45.87843" lon="4.78905">
        <ele>226</ele>
        <time>2017-09-27T10:22:04Z</time>
      </trkpt>
      <trkpt lat="45.87844" lon="4.78894">
        <ele>225</ele>
        <time>2017-09-27T10:22:05Z</time>
      </trkpt>
      <trkpt lat="45.87846" lon="4.78883">
        <ele>225</ele>
        <time>2017-09-27T10:22:06Z</time>
      </trkpt>
      <trkpt lat="45.87847" lon="4.78873">
        <ele>225</ele>
        <time>2017-09-27T10:22:07Z</time>
      </trkpt>
      <trkpt lat="45.87849" lon="4.78862">
        <ele>226</ele>
        <time>2017-09-27T10:22:08Z</time>
      </trkpt>
      <trkpt lat="45.8785" lon="4.78852">
        <ele>226</ele>
        <time>2017-09-27T10:22:09Z</time>
      </trkpt>
      <trkpt lat="45.87851" lon="4.78841">
        <ele>226</ele>
        <time>2017-09-27T10:22:10Z</time>
      </trkpt>
      <trkpt lat="45.87853" lon="4.78832">
        <ele>227</ele>
        <time>2017-09-27T10:22:11Z</time>
      </trkpt>
      <trkpt lat="45.87854" lon="4.78822">
        <ele>226</ele>
        <time>2017-09-27T10:22:12Z</time>
      </trkpt>
      <trkpt lat="45.87855" lon="4.78813">
        <ele>226</ele>
        <time>2017-09-27T10:22:13Z</time>
      </trkpt>
      <trkpt lat="45.87856" lon="4.78804">
        <ele>226</ele>
        <time>2017-09-27T10:22:14Z</time>
      </trkpt>
      <trkpt lat="45.87857" lon="4.78794">
        <ele>226</ele>
        <time>2017-09-27T10:22:15Z</time>
      </trkpt>
      <trkpt lat="45.87857" lon="4.78785">
        <ele>226</ele>
        <time>2017-09-27T10:22:16Z</time>
      </trkpt>
      <trkpt lat="45.87857" lon="4.78775">
        <ele>226</ele>
        <time>2017-09-27T10:22:17Z</time>
      </trkpt>
      <trkpt lat="45.87857" lon="4.78766">
        <ele>226</ele>
        <time>2017-09-27T10:22:18Z</time>
      </trkpt>
      <trkpt lat="45.87856" lon="4.78758">
        <ele>226</ele>
        <time>2017-09-27T10:22:19Z</time>
      </trkpt>
      <trkpt lat="45.87855" lon="4.7875">
        <ele>226</ele>
        <time>2017-09-27T10:22:20Z</time>
      </trkpt>
      <trkpt lat="45.87855" lon="4.78741">
        <ele>226</ele>
        <time>2017-09-27T10:22:21Z</time>
      </trkpt>
      <trkpt lat="45.87854" lon="4.78732">
        <ele>226</ele>
        <time>2017-09-27T10:22:22Z</time>
      </trkpt>
      <trkpt lat="45.87854" lon="4.78724">
        <ele>225</ele>
        <time>2017-09-27T10:22:23Z</time>
      </trkpt>
      <trkpt lat="45.87853" lon="4.78717">
        <ele>225</ele>
        <time>2017-09-27T10:22:24Z</time>
      </trkpt>
      <trkpt lat="45.87853" lon="4.78709">
        <ele>225</ele>
        <time>2017-09-27T10:22:25Z</time>
      </trkpt>
      <trkpt lat="45.87851" lon="4.787">
        <ele>225</ele>
        <time>2017-09-27T10:22:26Z</time>
      </trkpt>
      <trkpt lat="45.87847" lon="4.78689">
        <ele>226</ele>
        <time>2017-09-27T10:22:27Z</time>
      </trkpt>
      <trkpt lat="45.87846" lon="4.78681">
        <ele>226</ele>
        <time>2017-09-27T10:22:28Z</time>
      </trkpt>
      <trkpt lat="45.87845" lon="4.78673">
        <ele>227</ele>
        <time>2017-09-27T10:22:29Z</time>
      </trkpt>
      <trkpt lat="45.87844" lon="4.78666">
        <ele>227</ele>
        <time>2017-09-27T10:22:30Z</time>
      </trkpt>
      <trkpt lat="45.87844" lon="4.78659">
        <ele>227</ele>
        <time>2017-09-27T10:22:31Z</time>
      </trkpt>
      <trkpt lat="45.87843" lon="4.78652">
        <ele>226</ele>
        <time>2017-09-27T10:22:32Z</time>
      </trkpt>
      <trkpt lat="45.87841" lon="4.78645">
        <ele>226</ele>
        <time>2017-09-27T10:22:33Z</time>
      </trkpt>
      <trkpt lat="45.8784" lon="4.78638">
        <ele>226</ele>
        <time>2017-09-27T10:22:34Z</time>
      </trkpt>
      <trkpt lat="45.8784" lon="4.78632">
        <ele>226</ele>
        <time>2017-09-27T10:22:35Z</time>
      </trkpt>
      <trkpt lat="45.87839" lon="4.78619">
        <ele>226</ele>
        <time>2017-09-27T10:22:37Z</time>
      </trkpt>
      <trkpt lat="45.87837" lon="4.78613">
        <ele>226</ele>
        <time>2017-09-27T10:22:38Z</time>
      </trkpt>
      <trkpt lat="45.87835" lon="4.78607">
        <ele>226</ele>
        <time>2017-09-27T10:22:39Z</time>
      </trkpt>
      <trkpt lat="45.87834" lon="4.78601">
        <ele>227</ele>
        <time>2017-09-27T10:22:40Z</time>
      </trkpt>
      <trkpt lat="45.87832" lon="4.78588">
        <ele>228</ele>
        <time>2017-09-27T10:22:42Z</time>
      </trkpt>
      <trkpt lat="45.87832" lon="4.78582">
        <ele>228</ele>
        <time>2017-09-27T10:22:43Z</time>
      </trkpt>
      <trkpt lat="45.87831" lon="4.78575">
        <ele>228</ele>
        <time>2017-09-27T10:22:44Z</time>
      </trkpt>
      <trkpt lat="45.87829" lon="4.78569">
        <ele>228</ele>
        <time>2017-09-27T10:22:45Z</time>
      </trkpt>
      <trkpt lat="45.87829" lon="4.78557">
        <ele>228</ele>
        <time>2017-09-27T10:22:47Z</time>
      </trkpt>
      <trkpt lat="45.87828" lon="4.78551">
        <ele>228</ele>
        <time>2017-09-27T10:22:48Z</time>
      </trkpt>
      <trkpt lat="45.87825" lon="4.7854">
        <ele>228</ele>
        <time>2017-09-27T10:22:50Z</time>
      </trkpt>
      <trkpt lat="45.87825" lon="4.78533">
        <ele>228</ele>
        <time>2017-09-27T10:22:51Z</time>
      </trkpt>
      <trkpt lat="45.87822" lon="4.78521">
        <ele>228</ele>
        <time>2017-09-27T10:22:53Z</time>
      </trkpt>
      <trkpt lat="45.87822" lon="4.78515">
        <ele>227</ele>
        <time>2017-09-27T10:22:54Z</time>
      </trkpt>
      <trkpt lat="45.8782" lon="4.78503">
        <ele>227</ele>
        <time>2017-09-27T10:22:56Z</time>
      </trkpt>
      <trkpt lat="45.8782" lon="4.78496">
        <ele>226</ele>
        <time>2017-09-27T10:22:57Z</time>
      </trkpt>
      <trkpt lat="45.87817" lon="4.7849">
        <ele>226</ele>
        <time>2017-09-27T10:22:58Z</time>
      </trkpt>
      <trkpt lat="45.87814" lon="4.78484">
        <ele>226</ele>
        <time>2017-09-27T10:22:59Z</time>
      </trkpt>
      <trkpt lat="45.87814" lon="4.78472">
        <ele>226</ele>
        <time>2017-09-27T10:23:01Z</time>
      </trkpt>
      <trkpt lat="45.87816" lon="4.78468">
        <ele>226</ele>
        <time>2017-09-27T10:23:02Z</time>
      </trkpt>
      <trkpt lat="45.87825" lon="4.78464">
        <ele>226</ele>
        <time>2017-09-27T10:23:04Z</time>
      </trkpt>
      <trkpt lat="45.8783" lon="4.78463">
        <ele>226</ele>
        <time>2017-09-27T10:23:05Z</time>
      </trkpt>
      <trkpt lat="45.87836" lon="4.78463">
        <ele>223</ele>
        <time>2017-09-27T10:23:06Z</time>
      </trkpt>
      <trkpt lat="45.87841" lon="4.78461">
        <ele>222</ele>
        <time>2017-09-27T10:23:07Z</time>
      </trkpt>
      <trkpt lat="45.87846" lon="4.78458">
        <ele>222</ele>
        <time>2017-09-27T10:23:08Z</time>
      </trkpt>
      <trkpt lat="45.87853" lon="4.78457">
        <ele>222</ele>
        <time>2017-09-27T10:23:09Z</time>
      </trkpt>
      <trkpt lat="45.87859" lon="4.78455">
        <ele>222</ele>
        <time>2017-09-27T10:23:10Z</time>
      </trkpt>
      <trkpt lat="45.87866" lon="4.78454">
        <ele>222</ele>
        <time>2017-09-27T10:23:11Z</time>
      </trkpt>
      <trkpt lat="45.87873" lon="4.78452">
        <ele>221</ele>
        <time>2017-09-27T10:23:12Z</time>
      </trkpt>
      <trkpt lat="45.8788" lon="4.78451">
        <ele>221</ele>
        <time>2017-09-27T10:23:13Z</time>
      </trkpt>
      <trkpt lat="45.87887" lon="4.7845">
        <ele>221</ele>
        <time>2017-09-27T10:23:14Z</time>
      </trkpt>
      <trkpt lat="45.87895" lon="4.78445">
        <ele>220</ele>
        <time>2017-09-27T10:23:15Z</time>
      </trkpt>
      <trkpt lat="45.87901" lon="4.78442">
        <ele>220</ele>
        <time>2017-09-27T10:23:16Z</time>
      </trkpt>
      <trkpt lat="45.87909" lon="4.7844">
        <ele>220</ele>
        <time>2017-09-27T10:23:17Z</time>
      </trkpt>
      <trkpt lat="45.87916" lon="4.78439">
        <ele>219</ele>
        <time>2017-09-27T10:23:18Z</time>
      </trkpt>
      <trkpt lat="45.87925" lon="4.78436">
        <ele>216</ele>
        <time>2017-09-27T10:23:19Z</time>
      </trkpt>
      <trkpt lat="45.87932" lon="4.78433">
        <ele>216</ele>
        <time>2017-09-27T10:23:20Z</time>
      </trkpt>
      <trkpt lat="45.87939" lon="4.78431">
        <ele>216</ele>
        <time>2017-09-27T10:23:21Z</time>
      </trkpt>
      <trkpt lat="45.87947" lon="4.7843">
        <ele>216</ele>
        <time>2017-09-27T10:23:22Z</time>
      </trkpt>
      <trkpt lat="45.87955" lon="4.78427">
        <ele>216</ele>
        <time>2017-09-27T10:23:23Z</time>
      </trkpt>
      <trkpt lat="45.87961" lon="4.78426">
        <ele>215</ele>
        <time>2017-09-27T10:23:24Z</time>
      </trkpt>
      <trkpt lat="45.87968" lon="4.78425">
        <ele>215</ele>
        <time>2017-09-27T10:23:25Z</time>
      </trkpt>
      <trkpt lat="45.87974" lon="4.78423">
        <ele>215</ele>
        <time>2017-09-27T10:23:26Z</time>
      </trkpt>
      <trkpt lat="45.87979" lon="4.78421">
        <ele>215</ele>
        <time>2017-09-27T10:23:27Z</time>
      </trkpt>
      <trkpt lat="45.87982" lon="4.78418">
        <ele>214</ele>
        <time>2017-09-27T10:23:28Z</time>
      </trkpt>
      <trkpt lat="45.87986" lon="4.78409">
        <ele>214</ele>
        <time>2017-09-27T10:23:29Z</time>
      </trkpt>
      <trkpt lat="45.87986" lon="4.78397">
        <ele>214</ele>
        <time>2017-09-27T10:23:31Z</time>
      </trkpt>
      <trkpt lat="45.87985" lon="4.7839">
        <ele>215</ele>
        <time>2017-09-27T10:23:32Z</time>
      </trkpt>
      <trkpt lat="45.87984" lon="4.78377">
        <ele>215</ele>
        <time>2017-09-27T10:23:34Z</time>
      </trkpt>
      <trkpt lat="45.87984" lon="4.78369">
        <ele>215</ele>
        <time>2017-09-27T10:23:35Z</time>
      </trkpt>
      <trkpt lat="45.87983" lon="4.78363">
        <ele>215</ele>
        <time>2017-09-27T10:23:36Z</time>
      </trkpt>
      <trkpt lat="45.87984" lon="4.78356">
        <ele>215</ele>
        <time>2017-09-27T10:23:37Z</time>
      </trkpt>
      <trkpt lat="45.87984" lon="4.78349">
        <ele>215</ele>
        <time>2017-09-27T10:23:38Z</time>
      </trkpt>
      <trkpt lat="45.87984" lon="4.78342">
        <ele>215</ele>
        <time>2017-09-27T10:23:39Z</time>
      </trkpt>
      <trkpt lat="45.87984" lon="4.78335">
        <ele>215</ele>
        <time>2017-09-27T10:23:40Z</time>
      </trkpt>
      <trkpt lat="45.87985" lon="4.78328">
        <ele>215</ele>
        <time>2017-09-27T10:23:41Z</time>
      </trkpt>
      <trkpt lat="45.87986" lon="4.78321">
        <ele>215</ele>
        <time>2017-09-27T10:23:42Z</time>
      </trkpt>
      <trkpt lat="45.87987" lon="4.78314">
        <ele>215</ele>
        <time>2017-09-27T10:23:43Z</time>
      </trkpt>
      <trkpt lat="45.87987" lon="4.78306">
        <ele>215</ele>
        <time>2017-09-27T10:23:44Z</time>
      </trkpt>
      <trkpt lat="45.87988" lon="4.78301">
        <ele>215</ele>
        <time>2017-09-27T10:23:45Z</time>
      </trkpt>
      <trkpt lat="45.87989" lon="4.7829">
        <ele>215</ele>
        <time>2017-09-27T10:23:47Z</time>
      </trkpt>
      <trkpt lat="45.87989" lon="4.78285">
        <ele>215</ele>
        <time>2017-09-27T10:23:48Z</time>
      </trkpt>
      <trkpt lat="45.87992" lon="4.78275">
        <ele>215</ele>
        <time>2017-09-27T10:23:50Z</time>
      </trkpt>
      <trkpt lat="45.87994" lon="4.78269">
        <ele>215</ele>
        <time>2017-09-27T10:23:51Z</time>
      </trkpt>
      <trkpt lat="45.87996" lon="4.78262">
        <ele>215</ele>
        <time>2017-09-27T10:23:52Z</time>
      </trkpt>
      <trkpt lat="45.87997" lon="4.78256">
        <ele>214</ele>
        <time>2017-09-27T10:23:53Z</time>
      </trkpt>
      <trkpt lat="45.87998" lon="4.78249">
        <ele>214</ele>
        <time>2017-09-27T10:23:54Z</time>
      </trkpt>
      <trkpt lat="45.87999" lon="4.78242">
        <ele>215</ele>
        <time>2017-09-27T10:23:55Z</time>
      </trkpt>
      <trkpt lat="45.88001" lon="4.7823">
        <ele>214</ele>
        <time>2017-09-27T10:23:57Z</time>
      </trkpt>
      <trkpt lat="45.88002" lon="4.78222">
        <ele>214</ele>
        <time>2017-09-27T10:23:58Z</time>
      </trkpt>
      <trkpt lat="45.88004" lon="4.78212">
        <ele>214</ele>
        <time>2017-09-27T10:24:00Z</time>
      </trkpt>
      <trkpt lat="45.88003" lon="4.78206">
        <ele>214</ele>
        <time>2017-09-27T10:24:01Z</time>
      </trkpt>
      <trkpt lat="45.88005" lon="4.78193">
        <ele>214</ele>
        <time>2017-09-27T10:24:03Z</time>
      </trkpt>
      <trkpt lat="45.88004" lon="4.78186">
        <ele>214</ele>
        <time>2017-09-27T10:24:04Z</time>
      </trkpt>
      <trkpt lat="45.88003" lon="4.78179">
        <ele>214</ele>
        <time>2017-09-27T10:24:05Z</time>
      </trkpt>
      <trkpt lat="45.88003" lon="4.78172">
        <ele>215</ele>
        <time>2017-09-27T10:24:06Z</time>
      </trkpt>
      <trkpt lat="45.88002" lon="4.78165">
        <ele>215</ele>
        <time>2017-09-27T10:24:07Z</time>
      </trkpt>
      <trkpt lat="45.88003" lon="4.78159">
        <ele>215</ele>
        <time>2017-09-27T10:24:08Z</time>
      </trkpt>
      <trkpt lat="45.88003" lon="4.78152">
        <ele>214</ele>
        <time>2017-09-27T10:24:09Z</time>
      </trkpt>
      <trkpt lat="45.88002" lon="4.78145">
        <ele>214</ele>
        <time>2017-09-27T10:24:10Z</time>
      </trkpt>
      <trkpt lat="45.88002" lon="4.78139">
        <ele>214</ele>
        <time>2017-09-27T10:24:11Z</time>
      </trkpt>
      <trkpt lat="45.88002" lon="4.78132">
        <ele>214</ele>
        <time>2017-09-27T10:24:12Z</time>
      </trkpt>
      <trkpt lat="45.88001" lon="4.78124">
        <ele>214</ele>
        <time>2017-09-27T10:24:13Z</time>
      </trkpt>
      <trkpt lat="45.88" lon="4.78118">
        <ele>216</ele>
        <time>2017-09-27T10:24:14Z</time>
      </trkpt>
      <trkpt lat="45.87999" lon="4.78107">
        <ele>216</ele>
        <time>2017-09-27T10:24:16Z</time>
      </trkpt>
      <trkpt lat="45.87998" lon="4.78101">
        <ele>216</ele>
        <time>2017-09-27T10:24:17Z</time>
      </trkpt>
      <trkpt lat="45.87999" lon="4.7809">
        <ele>215</ele>
        <time>2017-09-27T10:24:19Z</time>
      </trkpt>
      <trkpt lat="45.87999" lon="4.78084">
        <ele>215</ele>
        <time>2017-09-27T10:24:20Z</time>
      </trkpt>
      <trkpt lat="45.87998" lon="4.78078">
        <ele>216</ele>
        <time>2017-09-27T10:24:21Z</time>
      </trkpt>
      <trkpt lat="45.87997" lon="4.78071">
        <ele>216</ele>
        <time>2017-09-27T10:24:22Z</time>
      </trkpt>
      <trkpt lat="45.87996" lon="4.78063">
        <ele>217</ele>
        <time>2017-09-27T10:24:23Z</time>
      </trkpt>
      <trkpt lat="45.87994" lon="4.78056">
        <ele>217</ele>
        <time>2017-09-27T10:24:24Z</time>
      </trkpt>
      <trkpt lat="45.87993" lon="4.78049">
        <ele>217</ele>
        <time>2017-09-27T10:24:25Z</time>
      </trkpt>
      <trkpt lat="45.87991" lon="4.78043">
        <ele>217</ele>
        <time>2017-09-27T10:24:26Z</time>
      </trkpt>
      <trkpt lat="45.87989" lon="4.78032">
        <ele>218</ele>
        <time>2017-09-27T10:24:28Z</time>
      </trkpt>
      <trkpt lat="45.87987" lon="4.78027">
        <ele>218</ele>
        <time>2017-09-27T10:24:29Z</time>
      </trkpt>
      <trkpt lat="45.87986" lon="4.78016">
        <ele>218</ele>
        <time>2017-09-27T10:24:31Z</time>
      </trkpt>
      <trkpt lat="45.87985" lon="4.7801">
        <ele>218</ele>
        <time>2017-09-27T10:24:32Z</time>
      </trkpt>
      <trkpt lat="45.87985" lon="4.78003">
        <ele>218</ele>
        <time>2017-09-27T10:24:33Z</time>
      </trkpt>
      <trkpt lat="45.87985" lon="4.77996">
        <ele>218</ele>
        <time>2017-09-27T10:24:34Z</time>
      </trkpt>
      <trkpt lat="45.87983" lon="4.7799">
        <ele>219</ele>
        <time>2017-09-27T10:24:35Z</time>
      </trkpt>
      <trkpt lat="45.87982" lon="4.77983">
        <ele>219</ele>
        <time>2017-09-27T10:24:36Z</time>
      </trkpt>
      <trkpt lat="45.87981" lon="4.77973">
        <ele>219</ele>
        <time>2017-09-27T10:24:38Z</time>
      </trkpt>
      <trkpt lat="45.8798" lon="4.77968">
        <ele>219</ele>
        <time>2017-09-27T10:24:39Z</time>
      </trkpt>
      <trkpt lat="45.87979" lon="4.7796">
        <ele>219</ele>
        <time>2017-09-27T10:24:41Z</time>
      </trkpt>
      <trkpt lat="45.87978" lon="4.77955">
        <ele>219</ele>
        <time>2017-09-27T10:24:42Z</time>
      </trkpt>
      <trkpt lat="45.87974" lon="4.77948">
        <ele>219</ele>
        <time>2017-09-27T10:24:44Z</time>
      </trkpt>
      <trkpt lat="45.87973" lon="4.77944">
        <ele>219</ele>
        <time>2017-09-27T10:24:45Z</time>
      </trkpt>
      <trkpt lat="45.8797" lon="4.77933">
        <ele>220</ele>
        <time>2017-09-27T10:24:47Z</time>
      </trkpt>
      <trkpt lat="45.87969" lon="4.77927">
        <ele>220</ele>
        <time>2017-09-27T10:24:48Z</time>
      </trkpt>
      <trkpt lat="45.87969" lon="4.7792">
        <ele>220</ele>
        <time>2017-09-27T10:24:49Z</time>
      </trkpt>
      <trkpt lat="45.87969" lon="4.77913">
        <ele>219</ele>
        <time>2017-09-27T10:24:50Z</time>
      </trkpt>
      <trkpt lat="45.87968" lon="4.77906">
        <ele>219</ele>
        <time>2017-09-27T10:24:51Z</time>
      </trkpt>
      <trkpt lat="45.87967" lon="4.77899">
        <ele>219</ele>
        <time>2017-09-27T10:24:52Z</time>
      </trkpt>
      <trkpt lat="45.87968" lon="4.77891">
        <ele>219</ele>
        <time>2017-09-27T10:24:53Z</time>
      </trkpt>
      <trkpt lat="45.87968" lon="4.77885">
        <ele>219</ele>
        <time>2017-09-27T10:24:54Z</time>
      </trkpt>
      <trkpt lat="45.87967" lon="4.77878">
        <ele>219</ele>
        <time>2017-09-27T10:24:55Z</time>
      </trkpt>
      <trkpt lat="45.87967" lon="4.77871">
        <ele>219</ele>
        <time>2017-09-27T10:24:56Z</time>
      </trkpt>
      <trkpt lat="45.87967" lon="4.77864">
        <ele>219</ele>
        <time>2017-09-27T10:24:57Z</time>
      </trkpt>
      <trkpt lat="45.87967" lon="4.77856">
        <ele>219</ele>
        <time>2017-09-27T10:24:58Z</time>
      </trkpt>
      <trkpt lat="45.87967" lon="4.77849">
        <ele>219</ele>
        <time>2017-09-27T10:24:59Z</time>
      </trkpt>
      <trkpt lat="45.87967" lon="4.77843">
        <ele>219</ele>
        <time>2017-09-27T10:25:00Z</time>
      </trkpt>
      <trkpt lat="45.87967" lon="4.7783">
        <ele>218</ele>
        <time>2017-09-27T10:25:02Z</time>
      </trkpt>
      <trkpt lat="45.87967" lon="4.77824">
        <ele>218</ele>
        <time>2017-09-27T10:25:03Z</time>
      </trkpt>
      <trkpt lat="45.87967" lon="4.77817">
        <ele>218</ele>
        <time>2017-09-27T10:25:04Z</time>
      </trkpt>
      <trkpt lat="45.87966" lon="4.7781">
        <ele>218</ele>
        <time>2017-09-27T10:25:05Z</time>
      </trkpt>
      <trkpt lat="45.87965" lon="4.77803">
        <ele>219</ele>
        <time>2017-09-27T10:25:06Z</time>
      </trkpt>
      <trkpt lat="45.87963" lon="4.77797">
        <ele>219</ele>
        <time>2017-09-27T10:25:07Z</time>
      </trkpt>
      <trkpt lat="45.87962" lon="4.7779">
        <ele>219</ele>
        <time>2017-09-27T10:25:08Z</time>
      </trkpt>
      <trkpt lat="45.87961" lon="4.77783">
        <ele>219</ele>
        <time>2017-09-27T10:25:09Z</time>
      </trkpt>
      <trkpt lat="45.8796" lon="4.77777">
        <ele>219</ele>
        <time>2017-09-27T10:25:10Z</time>
      </trkpt>
      <trkpt lat="45.8796" lon="4.7777">
        <ele>219</ele>
        <time>2017-09-27T10:25:11Z</time>
      </trkpt>
      <trkpt lat="45.8796" lon="4.77763">
        <ele>219</ele>
        <time>2017-09-27T10:25:12Z</time>
      </trkpt>
      <trkpt lat="45.87959" lon="4.77756">
        <ele>219</ele>
        <time>2017-09-27T10:25:13Z</time>
      </trkpt>
      <trkpt lat="45.87957" lon="4.77749">
        <ele>218</ele>
        <time>2017-09-27T10:25:14Z</time>
      </trkpt>
      <trkpt lat="45.87957" lon="4.77742">
        <ele>218</ele>
        <time>2017-09-27T10:25:15Z</time>
      </trkpt>
      <trkpt lat="45.87958" lon="4.77729">
        <ele>218</ele>
        <time>2017-09-27T10:25:17Z</time>
      </trkpt>
      <trkpt lat="45.87958" lon="4.77723">
        <ele>218</ele>
        <time>2017-09-27T10:25:18Z</time>
      </trkpt>
      <trkpt lat="45.87957" lon="4.77716">
        <ele>218</ele>
        <time>2017-09-27T10:25:19Z</time>
      </trkpt>
      <trkpt lat="45.87958" lon="4.7771">
        <ele>218</ele>
        <time>2017-09-27T10:25:20Z</time>
      </trkpt>
      <trkpt lat="45.87959" lon="4.77699">
        <ele>218</ele>
        <time>2017-09-27T10:25:22Z</time>
      </trkpt>
      <trkpt lat="45.87963" lon="4.77694">
        <ele>218</ele>
        <time>2017-09-27T10:25:23Z</time>
      </trkpt>
      <trkpt lat="45.87963" lon="4.77688">
        <ele>218</ele>
        <time>2017-09-27T10:25:24Z</time>
      </trkpt>
      <trkpt lat="45.87966" lon="4.77681">
        <ele>218</ele>
        <time>2017-09-27T10:25:25Z</time>
      </trkpt>
      <trkpt lat="45.87968" lon="4.77669">
        <ele>218</ele>
        <time>2017-09-27T10:25:27Z</time>
      </trkpt>
      <trkpt lat="45.87969" lon="4.77663">
        <ele>218</ele>
        <time>2017-09-27T10:25:28Z</time>
      </trkpt>
      <trkpt lat="45.87971" lon="4.7765">
        <ele>218</ele>
        <time>2017-09-27T10:25:30Z</time>
      </trkpt>
      <trkpt lat="45.8797" lon="4.77642">
        <ele>218</ele>
        <time>2017-09-27T10:25:31Z</time>
      </trkpt>
      <trkpt lat="45.87973" lon="4.7763">
        <ele>218</ele>
        <time>2017-09-27T10:25:33Z</time>
      </trkpt>
      <trkpt lat="45.87973" lon="4.77624">
        <ele>218</ele>
        <time>2017-09-27T10:25:34Z</time>
      </trkpt>
      <trkpt lat="45.87976" lon="4.77612">
        <ele>218</ele>
        <time>2017-09-27T10:25:36Z</time>
      </trkpt>
      <trkpt lat="45.87976" lon="4.77605">
        <ele>218</ele>
        <time>2017-09-27T10:25:37Z</time>
      </trkpt>
      <trkpt lat="45.87978" lon="4.77593">
        <ele>218</ele>
        <time>2017-09-27T10:25:39Z</time>
      </trkpt>
      <trkpt lat="45.87979" lon="4.77586">
        <ele>218</ele>
        <time>2017-09-27T10:25:40Z</time>
      </trkpt>
      <trkpt lat="45.87981" lon="4.77574">
        <ele>217</ele>
        <time>2017-09-27T10:25:42Z</time>
      </trkpt>
      <trkpt lat="45.87982" lon="4.77569">
        <ele>217</ele>
        <time>2017-09-27T10:25:43Z</time>
      </trkpt>
      <trkpt lat="45.87985" lon="4.77558">
        <ele>217</ele>
        <time>2017-09-27T10:25:45Z</time>
      </trkpt>
      <trkpt lat="45.87986" lon="4.77551">
        <ele>217</ele>
        <time>2017-09-27T10:25:46Z</time>
      </trkpt>
      <trkpt lat="45.87987" lon="4.77544">
        <ele>217</ele>
        <time>2017-09-27T10:25:47Z</time>
      </trkpt>
      <trkpt lat="45.87989" lon="4.77537">
        <ele>217</ele>
        <time>2017-09-27T10:25:48Z</time>
      </trkpt>
      <trkpt lat="45.8799" lon="4.77529">
        <ele>217</ele>
        <time>2017-09-27T10:25:49Z</time>
      </trkpt>
      <trkpt lat="45.8799" lon="4.77522">
        <ele>217</ele>
        <time>2017-09-27T10:25:50Z</time>
      </trkpt>
      <trkpt lat="45.87991" lon="4.77515">
        <ele>217</ele>
        <time>2017-09-27T10:25:51Z</time>
      </trkpt>
      <trkpt lat="45.87991" lon="4.77509">
        <ele>217</ele>
        <time>2017-09-27T10:25:52Z</time>
      </trkpt>
      <trkpt lat="45.87993" lon="4.77503">
        <ele>216</ele>
        <time>2017-09-27T10:25:53Z</time>
      </trkpt>
      <trkpt lat="45.87994" lon="4.77495">
        <ele>216</ele>
        <time>2017-09-27T10:25:54Z</time>
      </trkpt>
      <trkpt lat="45.87995" lon="4.77487">
        <ele>216</ele>
        <time>2017-09-27T10:25:55Z</time>
      </trkpt>
      <trkpt lat="45.87993" lon="4.77478">
        <ele>217</ele>
        <time>2017-09-27T10:25:56Z</time>
      </trkpt>
      <trkpt lat="45.87994" lon="4.77469">
        <ele>217</ele>
        <time>2017-09-27T10:25:57Z</time>
      </trkpt>
      <trkpt lat="45.87995" lon="4.77462">
        <ele>217</ele>
        <time>2017-09-27T10:25:58Z</time>
      </trkpt>
      <trkpt lat="45.87996" lon="4.77454">
        <ele>217</ele>
        <time>2017-09-27T10:25:59Z</time>
      </trkpt>
      <trkpt lat="45.87997" lon="4.77446">
        <ele>216</ele>
        <time>2017-09-27T10:26:00Z</time>
      </trkpt>
      <trkpt lat="45.87998" lon="4.77438">
        <ele>216</ele>
        <time>2017-09-27T10:26:01Z</time>
      </trkpt>
      <trkpt lat="45.87998" lon="4.7743">
        <ele>216</ele>
        <time>2017-09-27T10:26:02Z</time>
      </trkpt>
      <trkpt lat="45.88001" lon="4.77422">
        <ele>215</ele>
        <time>2017-09-27T10:26:03Z</time>
      </trkpt>
      <trkpt lat="45.88003" lon="4.77415">
        <ele>215</ele>
        <time>2017-09-27T10:26:04Z</time>
      </trkpt>
      <trkpt lat="45.88004" lon="4.77408">
        <ele>215</ele>
        <time>2017-09-27T10:26:05Z</time>
      </trkpt>
      <trkpt lat="45.88005" lon="4.77401">
        <ele>215</ele>
        <time>2017-09-27T10:26:06Z</time>
      </trkpt>
      <trkpt lat="45.88007" lon="4.77395">
        <ele>215</ele>
        <time>2017-09-27T10:26:07Z</time>
      </trkpt>
      <trkpt lat="45.88007" lon="4.77387">
        <ele>215</ele>
        <time>2017-09-27T10:26:08Z</time>
      </trkpt>
      <trkpt lat="45.88007" lon="4.7738">
        <ele>215</ele>
        <time>2017-09-27T10:26:09Z</time>
      </trkpt>
      <trkpt lat="45.88008" lon="4.77374">
        <ele>215</ele>
        <time>2017-09-27T10:26:10Z</time>
      </trkpt>
      <trkpt lat="45.88008" lon="4.77367">
        <ele>215</ele>
        <time>2017-09-27T10:26:11Z</time>
      </trkpt>
      <trkpt lat="45.8801" lon="4.7736">
        <ele>215</ele>
        <time>2017-09-27T10:26:12Z</time>
      </trkpt>
      <trkpt lat="45.88012" lon="4.77353">
        <ele>215</ele>
        <time>2017-09-27T10:26:13Z</time>
      </trkpt>
      <trkpt lat="45.88011" lon="4.77344">
        <ele>215</ele>
        <time>2017-09-27T10:26:14Z</time>
      </trkpt>
      <trkpt lat="45.8801" lon="4.77337">
        <ele>215</ele>
        <time>2017-09-27T10:26:15Z</time>
      </trkpt>
      <trkpt lat="45.88012" lon="4.77329">
        <ele>216</ele>
        <time>2017-09-27T10:26:16Z</time>
      </trkpt>
      <trkpt lat="45.88014" lon="4.77321">
        <ele>215</ele>
        <time>2017-09-27T10:26:17Z</time>
      </trkpt>
      <trkpt lat="45.88015" lon="4.77313">
        <ele>215</ele>
        <time>2017-09-27T10:26:18Z</time>
      </trkpt>
      <trkpt lat="45.88017" lon="4.77306">
        <ele>215</ele>
        <time>2017-09-27T10:26:19Z</time>
      </trkpt>
      <trkpt lat="45.88019" lon="4.77298">
        <ele>215</ele>
        <time>2017-09-27T10:26:20Z</time>
      </trkpt>
      <trkpt lat="45.8802" lon="4.77291">
        <ele>215</ele>
        <time>2017-09-27T10:26:21Z</time>
      </trkpt>
      <trkpt lat="45.88021" lon="4.77284">
        <ele>215</ele>
        <time>2017-09-27T10:26:22Z</time>
      </trkpt>
      <trkpt lat="45.88023" lon="4.77277">
        <ele>215</ele>
        <time>2017-09-27T10:26:23Z</time>
      </trkpt>
      <trkpt lat="45.88024" lon="4.7727">
        <ele>216</ele>
        <time>2017-09-27T10:26:24Z</time>
      </trkpt>
      <trkpt lat="45.88025" lon="4.77263">
        <ele>216</ele>
        <time>2017-09-27T10:26:25Z</time>
      </trkpt>
      <trkpt lat="45.88026" lon="4.77256">
        <ele>216</ele>
        <time>2017-09-27T10:26:26Z</time>
      </trkpt>
      <trkpt lat="45.88027" lon="4.77249">
        <ele>216</ele>
        <time>2017-09-27T10:26:27Z</time>
      </trkpt>
      <trkpt lat="45.88028" lon="4.77243">
        <ele>216</ele>
        <time>2017-09-27T10:26:28Z</time>
      </trkpt>
      <trkpt lat="45.8803" lon="4.77231">
        <ele>216</ele>
        <time>2017-09-27T10:26:30Z</time>
      </trkpt>
      <trkpt lat="45.88031" lon="4.77224">
        <ele>216</ele>
        <time>2017-09-27T10:26:31Z</time>
      </trkpt>
      <trkpt lat="45.88032" lon="4.77217">
        <ele>216</ele>
        <time>2017-09-27T10:26:32Z</time>
      </trkpt>
      <trkpt lat="45.88032" lon="4.77211">
        <ele>216</ele>
        <time>2017-09-27T10:26:33Z</time>
      </trkpt>
      <trkpt lat="45.88033" lon="4.77204">
        <ele>216</ele>
        <time>2017-09-27T10:26:34Z</time>
      </trkpt>
      <trkpt lat="45.88033" lon="4.77197">
        <ele>216</ele>
        <time>2017-09-27T10:26:35Z</time>
      </trkpt>
      <trkpt lat="45.88033" lon="4.77191">
        <ele>216</ele>
        <time>2017-09-27T10:26:36Z</time>
      </trkpt>
      <trkpt lat="45.88035" lon="4.77184">
        <ele>216</ele>
        <time>2017-09-27T10:26:37Z</time>
      </trkpt>
      <trkpt lat="45.88036" lon="4.77178">
        <ele>216</ele>
        <time>2017-09-27T10:26:38Z</time>
      </trkpt>
      <trkpt lat="45.88037" lon="4.77171">
        <ele>216</ele>
        <time>2017-09-27T10:26:39Z</time>
      </trkpt>
      <trkpt lat="45.88036" lon="4.77158">
        <ele>215</ele>
        <time>2017-09-27T10:26:41Z</time>
      </trkpt>
      <trkpt lat="45.88038" lon="4.77151">
        <ele>215</ele>
        <time>2017-09-27T10:26:42Z</time>
      </trkpt>
      <trkpt lat="45.88038" lon="4.77145">
        <ele>215</ele>
        <time>2017-09-27T10:26:43Z</time>
      </trkpt>
      <trkpt lat="45.88039" lon="4.77138">
        <ele>215</ele>
        <time>2017-09-27T10:26:44Z</time>
      </trkpt>
      <trkpt lat="45.88039" lon="4.77131">
        <ele>215</ele>
        <time>2017-09-27T10:26:45Z</time>
      </trkpt>
      <trkpt lat="45.8804" lon="4.77125">
        <ele>215</ele>
        <time>2017-09-27T10:26:46Z</time>
      </trkpt>
      <trkpt lat="45.88043" lon="4.77112">
        <ele>215</ele>
        <time>2017-09-27T10:26:48Z</time>
      </trkpt>
      <trkpt lat="45.88045" lon="4.77104">
        <ele>215</ele>
        <time>2017-09-27T10:26:49Z</time>
      </trkpt>
      <trkpt lat="45.88047" lon="4.77097">
        <ele>215</ele>
        <time>2017-09-27T10:26:50Z</time>
      </trkpt>
      <trkpt lat="45.88047" lon="4.77091">
        <ele>215</ele>
        <time>2017-09-27T10:26:51Z</time>
      </trkpt>
      <trkpt lat="45.88048" lon="4.77084">
        <ele>215</ele>
        <time>2017-09-27T10:26:52Z</time>
      </trkpt>
      <trkpt lat="45.88048" lon="4.77076">
        <ele>214</ele>
        <time>2017-09-27T10:26:53Z</time>
      </trkpt>
      <trkpt lat="45.8805" lon="4.7707">
        <ele>214</ele>
        <time>2017-09-27T10:26:54Z</time>
      </trkpt>
      <trkpt lat="45.88053" lon="4.77064">
        <ele>214</ele>
        <time>2017-09-27T10:26:55Z</time>
      </trkpt>
      <trkpt lat="45.88055" lon="4.77058">
        <ele>214</ele>
        <time>2017-09-27T10:26:56Z</time>
      </trkpt>
      <trkpt lat="45.88055" lon="4.77049">
        <ele>214</ele>
        <time>2017-09-27T10:26:57Z</time>
      </trkpt>
      <trkpt lat="45.88056" lon="4.77043">
        <ele>214</ele>
        <time>2017-09-27T10:26:58Z</time>
      </trkpt>
      <trkpt lat="45.88059" lon="4.77035">
        <ele>214</ele>
        <time>2017-09-27T10:26:59Z</time>
      </trkpt>
      <trkpt lat="45.8806" lon="4.77028">
        <ele>214</ele>
        <time>2017-09-27T10:27:00Z</time>
      </trkpt>
      <trkpt lat="45.88062" lon="4.77022">
        <ele>214</ele>
        <time>2017-09-27T10:27:01Z</time>
      </trkpt>
      <trkpt lat="45.88063" lon="4.77016">
        <ele>214</ele>
        <time>2017-09-27T10:27:02Z</time>
      </trkpt>
      <trkpt lat="45.88064" lon="4.77009">
        <ele>214</ele>
        <time>2017-09-27T10:27:03Z</time>
      </trkpt>
      <trkpt lat="45.88066" lon="4.77002">
        <ele>213</ele>
        <time>2017-09-27T10:27:04Z</time>
      </trkpt>
      <trkpt lat="45.88068" lon="4.76995">
        <ele>213</ele>
        <time>2017-09-27T10:27:05Z</time>
      </trkpt>
      <trkpt lat="45.8807" lon="4.7699">
        <ele>213</ele>
        <time>2017-09-27T10:27:06Z</time>
      </trkpt>
      <trkpt lat="45.88071" lon="4.76983">
        <ele>213</ele>
        <time>2017-09-27T10:27:07Z</time>
      </trkpt>
      <trkpt lat="45.88073" lon="4.76976">
        <ele>213</ele>
        <time>2017-09-27T10:27:08Z</time>
      </trkpt>
      <trkpt lat="45.88074" lon="4.7697">
        <ele>213</ele>
        <time>2017-09-27T10:27:09Z</time>
      </trkpt>
      <trkpt lat="45.88076" lon="4.76963">
        <ele>213</ele>
        <time>2017-09-27T10:27:10Z</time>
      </trkpt>
      <trkpt lat="45.88078" lon="4.76957">
        <ele>213</ele>
        <time>2017-09-27T10:27:11Z</time>
      </trkpt>
      <trkpt lat="45.88079" lon="4.7695">
        <ele>213</ele>
        <time>2017-09-27T10:27:12Z</time>
      </trkpt>
      <trkpt lat="45.88081" lon="4.76943">
        <ele>213</ele>
        <time>2017-09-27T10:27:13Z</time>
      </trkpt>
      <trkpt lat="45.88083" lon="4.76937">
        <ele>213</ele>
        <time>2017-09-27T10:27:14Z</time>
      </trkpt>
      <trkpt lat="45.88084" lon="4.76931">
        <ele>212</ele>
        <time>2017-09-27T10:27:15Z</time>
      </trkpt>
      <trkpt lat="45.88085" lon="4.76924">
        <ele>213</ele>
        <time>2017-09-27T10:27:16Z</time>
      </trkpt>
      <trkpt lat="45.88086" lon="4.76918">
        <ele>213</ele>
        <time>2017-09-27T10:27:17Z</time>
      </trkpt>
      <trkpt lat="45.88089" lon="4.76906">
        <ele>213</ele>
        <time>2017-09-27T10:27:19Z</time>
      </trkpt>
      <trkpt lat="45.88091" lon="4.769">
        <ele>212</ele>
        <time>2017-09-27T10:27:20Z</time>
      </trkpt>
      <trkpt lat="45.88092" lon="4.76893">
        <ele>212</ele>
        <time>2017-09-27T10:27:21Z</time>
      </trkpt>
      <trkpt lat="45.88093" lon="4.76885">
        <ele>212</ele>
        <time>2017-09-27T10:27:22Z</time>
      </trkpt>
      <trkpt lat="45.88094" lon="4.76877">
        <ele>212</ele>
        <time>2017-09-27T10:27:23Z</time>
      </trkpt>
      <trkpt lat="45.88095" lon="4.7687">
        <ele>212</ele>
        <time>2017-09-27T10:27:24Z</time>
      </trkpt>
      <trkpt lat="45.88096" lon="4.76861">
        <ele>212</ele>
        <time>2017-09-27T10:27:25Z</time>
      </trkpt>
      <trkpt lat="45.88097" lon="4.76853">
        <ele>212</ele>
        <time>2017-09-27T10:27:26Z</time>
      </trkpt>
      <trkpt lat="45.88098" lon="4.76846">
        <ele>212</ele>
        <time>2017-09-27T10:27:27Z</time>
      </trkpt>
      <trkpt lat="45.88099" lon="4.76839">
        <ele>212</ele>
        <time>2017-09-27T10:27:28Z</time>
      </trkpt>
      <trkpt lat="45.881" lon="4.76831">
        <ele>213</ele>
        <time>2017-09-27T10:27:29Z</time>
      </trkpt>
      <trkpt lat="45.88101" lon="4.76824">
        <ele>213</ele>
        <time>2017-09-27T10:27:30Z</time>
      </trkpt>
      <trkpt lat="45.88101" lon="4.76816">
        <ele>213</ele>
        <time>2017-09-27T10:27:31Z</time>
      </trkpt>
      <trkpt lat="45.88101" lon="4.76809">
        <ele>213</ele>
        <time>2017-09-27T10:27:32Z</time>
      </trkpt>
      <trkpt lat="45.88102" lon="4.76802">
        <ele>213</ele>
        <time>2017-09-27T10:27:33Z</time>
      </trkpt>
      <trkpt lat="45.88103" lon="4.76796">
        <ele>213</ele>
        <time>2017-09-27T10:27:34Z</time>
      </trkpt>
      <trkpt lat="45.88104" lon="4.7679">
        <ele>213</ele>
        <time>2017-09-27T10:27:35Z</time>
      </trkpt>
      <trkpt lat="45.88106" lon="4.76783">
        <ele>213</ele>
        <time>2017-09-27T10:27:36Z</time>
      </trkpt>
      <trkpt lat="45.88107" lon="4.76772">
        <ele>213</ele>
        <time>2017-09-27T10:27:38Z</time>
      </trkpt>
      <trkpt lat="45.88107" lon="4.76768">
        <ele>213</ele>
        <time>2017-09-27T10:27:39Z</time>
      </trkpt>
      <trkpt lat="45.88108" lon="4.7676">
        <ele>213</ele>
        <time>2017-09-27T10:27:40Z</time>
      </trkpt>
      <trkpt lat="45.8811" lon="4.76753">
        <ele>213</ele>
        <time>2017-09-27T10:27:41Z</time>
      </trkpt>
      <trkpt lat="45.88113" lon="4.76746">
        <ele>214</ele>
        <time>2017-09-27T10:27:42Z</time>
      </trkpt>
      <trkpt lat="45.88115" lon="4.76738">
        <ele>214</ele>
        <time>2017-09-27T10:27:43Z</time>
      </trkpt>
      <trkpt lat="45.88118" lon="4.76731">
        <ele>214</ele>
        <time>2017-09-27T10:27:44Z</time>
      </trkpt>
      <trkpt lat="45.88122" lon="4.76724">
        <ele>214</ele>
        <time>2017-09-27T10:27:45Z</time>
      </trkpt>
      <trkpt lat="45.88124" lon="4.76719">
        <ele>214</ele>
        <time>2017-09-27T10:27:46Z</time>
      </trkpt>
      <trkpt lat="45.88126" lon="4.76713">
        <ele>214</ele>
        <time>2017-09-27T10:27:47Z</time>
      </trkpt>
      <trkpt lat="45.8813" lon="4.76706">
        <ele>214</ele>
        <time>2017-09-27T10:27:48Z</time>
      </trkpt>
      <trkpt lat="45.88133" lon="4.767">
        <ele>214</ele>
        <time>2017-09-27T10:27:49Z</time>
      </trkpt>
      <trkpt lat="45.88135" lon="4.76694">
        <ele>214</ele>
        <time>2017-09-27T10:27:50Z</time>
      </trkpt>
      <trkpt lat="45.88138" lon="4.76689">
        <ele>214</ele>
        <time>2017-09-27T10:27:51Z</time>
      </trkpt>
      <trkpt lat="45.8814" lon="4.76683">
        <ele>214</ele>
        <time>2017-09-27T10:27:52Z</time>
      </trkpt>
      <trkpt lat="45.88142" lon="4.76677">
        <ele>214</ele>
        <time>2017-09-27T10:27:53Z</time>
      </trkpt>
      <trkpt lat="45.88145" lon="4.7667">
        <ele>214</ele>
        <time>2017-09-27T10:27:54Z</time>
      </trkpt>
      <trkpt lat="45.88148" lon="4.76664">
        <ele>214</ele>
        <time>2017-09-27T10:27:55Z</time>
      </trkpt>
      <trkpt lat="45.88152" lon="4.76657">
        <ele>214</ele>
        <time>2017-09-27T10:27:56Z</time>
      </trkpt>
      <trkpt lat="45.88154" lon="4.76648">
        <ele>214</ele>
        <time>2017-09-27T10:27:57Z</time>
      </trkpt>
      <trkpt lat="45.88158" lon="4.76642">
        <ele>215</ele>
        <time>2017-09-27T10:27:58Z</time>
      </trkpt>
      <trkpt lat="45.8816" lon="4.76635">
        <ele>215</ele>
        <time>2017-09-27T10:27:59Z</time>
      </trkpt>
      <trkpt lat="45.88163" lon="4.76628">
        <ele>215</ele>
        <time>2017-09-27T10:28:00Z</time>
      </trkpt>
      <trkpt lat="45.88165" lon="4.7662">
        <ele>215</ele>
        <time>2017-09-27T10:28:01Z</time>
      </trkpt>
      <trkpt lat="45.88167" lon="4.76613">
        <ele>214</ele>
        <time>2017-09-27T10:28:02Z</time>
      </trkpt>
      <trkpt lat="45.8817" lon="4.76607">
        <ele>214</ele>
        <time>2017-09-27T10:28:03Z</time>
      </trkpt>
      <trkpt lat="45.88172" lon="4.76601">
        <ele>214</ele>
        <time>2017-09-27T10:28:04Z</time>
      </trkpt>
      <trkpt lat="45.88174" lon="4.76595">
        <ele>214</ele>
        <time>2017-09-27T10:28:05Z</time>
      </trkpt>
      <trkpt lat="45.88177" lon="4.76589">
        <ele>214</ele>
        <time>2017-09-27T10:28:06Z</time>
      </trkpt>
      <trkpt lat="45.88179" lon="4.76582">
        <ele>215</ele>
        <time>2017-09-27T10:28:07Z</time>
      </trkpt>
      <trkpt lat="45.88179" lon="4.76575">
        <ele>215</ele>
        <time>2017-09-27T10:28:08Z</time>
      </trkpt>
      <trkpt lat="45.8818" lon="4.76568">
        <ele>214</ele>
        <time>2017-09-27T10:28:09Z</time>
      </trkpt>
      <trkpt lat="45.88182" lon="4.76561">
        <ele>214</ele>
        <time>2017-09-27T10:28:10Z</time>
      </trkpt>
      <trkpt lat="45.88184" lon="4.76556">
        <ele>214</ele>
        <time>2017-09-27T10:28:11Z</time>
      </trkpt>
      <trkpt lat="45.88185" lon="4.76544">
        <ele>214</ele>
        <time>2017-09-27T10:28:13Z</time>
      </trkpt>
      <trkpt lat="45.88185" lon="4.76538">
        <ele>214</ele>
        <time>2017-09-27T10:28:14Z</time>
      </trkpt>
      <trkpt lat="45.88187" lon="4.76532">
        <ele>214</ele>
        <time>2017-09-27T10:28:15Z</time>
      </trkpt>
      <trkpt lat="45.88189" lon="4.76526">
        <ele>214</ele>
        <time>2017-09-27T10:28:16Z</time>
      </trkpt>
      <trkpt lat="45.88191" lon="4.76519">
        <ele>214</ele>
        <time>2017-09-27T10:28:17Z</time>
      </trkpt>
      <trkpt lat="45.88194" lon="4.76513">
        <ele>214</ele>
        <time>2017-09-27T10:28:18Z</time>
      </trkpt>
      <trkpt lat="45.88196" lon="4.76507">
        <ele>214</ele>
        <time>2017-09-27T10:28:19Z</time>
      </trkpt>
      <trkpt lat="45.88198" lon="4.765">
        <ele>214</ele>
        <time>2017-09-27T10:28:20Z</time>
      </trkpt>
      <trkpt lat="45.88202" lon="4.76489">
        <ele>214</ele>
        <time>2017-09-27T10:28:22Z</time>
      </trkpt>
      <trkpt lat="45.88203" lon="4.76484">
        <ele>214</ele>
        <time>2017-09-27T10:28:23Z</time>
      </trkpt>
      <trkpt lat="45.88207" lon="4.76473">
        <ele>214</ele>
        <time>2017-09-27T10:28:25Z</time>
      </trkpt>
      <trkpt lat="45.88209" lon="4.76467">
        <ele>214</ele>
        <time>2017-09-27T10:28:26Z</time>
      </trkpt>
      <trkpt lat="45.88212" lon="4.76461">
        <ele>214</ele>
        <time>2017-09-27T10:28:27Z</time>
      </trkpt>
      <trkpt lat="45.88214" lon="4.76455">
        <ele>214</ele>
        <time>2017-09-27T10:28:28Z</time>
      </trkpt>
      <trkpt lat="45.88215" lon="4.76448">
        <ele>214</ele>
        <time>2017-09-27T10:28:29Z</time>
      </trkpt>
      <trkpt lat="45.88218" lon="4.76441">
        <ele>214</ele>
        <time>2017-09-27T10:28:30Z</time>
      </trkpt>
      <trkpt lat="45.88221" lon="4.76434">
        <ele>214</ele>
        <time>2017-09-27T10:28:31Z</time>
      </trkpt>
      <trkpt lat="45.88224" lon="4.76429">
        <ele>214</ele>
        <time>2017-09-27T10:28:32Z</time>
      </trkpt>
      <trkpt lat="45.88226" lon="4.76423">
        <ele>214</ele>
        <time>2017-09-27T10:28:33Z</time>
      </trkpt>
      <trkpt lat="45.8823" lon="4.76416">
        <ele>215</ele>
        <time>2017-09-27T10:28:34Z</time>
      </trkpt>
      <trkpt lat="45.88232" lon="4.76409">
        <ele>215</ele>
        <time>2017-09-27T10:28:35Z</time>
      </trkpt>
      <trkpt lat="45.88234" lon="4.76403">
        <ele>215</ele>
        <time>2017-09-27T10:28:36Z</time>
      </trkpt>
      <trkpt lat="45.88236" lon="4.76397">
        <ele>215</ele>
        <time>2017-09-27T10:28:37Z</time>
      </trkpt>
      <trkpt lat="45.88237" lon="4.76391">
        <ele>215</ele>
        <time>2017-09-27T10:28:38Z</time>
      </trkpt>
      <trkpt lat="45.88242" lon="4.7638">
        <ele>215</ele>
        <time>2017-09-27T10:28:40Z</time>
      </trkpt>
      <trkpt lat="45.88245" lon="4.76374">
        <ele>215</ele>
        <time>2017-09-27T10:28:41Z</time>
      </trkpt>
      <trkpt lat="45.88249" lon="4.76363">
        <ele>215</ele>
        <time>2017-09-27T10:28:43Z</time>
      </trkpt>
      <trkpt lat="45.88251" lon="4.76357">
        <ele>214</ele>
        <time>2017-09-27T10:28:44Z</time>
      </trkpt>
      <trkpt lat="45.88253" lon="4.76352">
        <ele>214</ele>
        <time>2017-09-27T10:28:45Z</time>
      </trkpt>
      <trkpt lat="45.88256" lon="4.76346">
        <ele>214</ele>
        <time>2017-09-27T10:28:46Z</time>
      </trkpt>
      <trkpt lat="45.88258" lon="4.7634">
        <ele>214</ele>
        <time>2017-09-27T10:28:47Z</time>
      </trkpt>
      <trkpt lat="45.88261" lon="4.76335">
        <ele>214</ele>
        <time>2017-09-27T10:28:48Z</time>
      </trkpt>
      <trkpt lat="45.88263" lon="4.76328">
        <ele>214</ele>
        <time>2017-09-27T10:28:49Z</time>
      </trkpt>
      <trkpt lat="45.88266" lon="4.7632">
        <ele>214</ele>
        <time>2017-09-27T10:28:50Z</time>
      </trkpt>
      <trkpt lat="45.88267" lon="4.76312">
        <ele>214</ele>
        <time>2017-09-27T10:28:51Z</time>
      </trkpt>
      <trkpt lat="45.88268" lon="4.76303">
        <ele>214</ele>
        <time>2017-09-27T10:28:52Z</time>
      </trkpt>
      <trkpt lat="45.8827" lon="4.76295">
        <ele>214</ele>
        <time>2017-09-27T10:28:53Z</time>
      </trkpt>
      <trkpt lat="45.88272" lon="4.76288">
        <ele>214</ele>
        <time>2017-09-27T10:28:54Z</time>
      </trkpt>
      <trkpt lat="45.88272" lon="4.76279">
        <ele>214</ele>
        <time>2017-09-27T10:28:55Z</time>
      </trkpt>
      <trkpt lat="45.88273" lon="4.76271">
        <ele>214</ele>
        <time>2017-09-27T10:28:56Z</time>
      </trkpt>
      <trkpt lat="45.88275" lon="4.76262">
        <ele>214</ele>
        <time>2017-09-27T10:28:57Z</time>
      </trkpt>
      <trkpt lat="45.88276" lon="4.76255">
        <ele>214</ele>
        <time>2017-09-27T10:28:58Z</time>
      </trkpt>
      <trkpt lat="45.88277" lon="4.76247">
        <ele>213</ele>
        <time>2017-09-27T10:28:59Z</time>
      </trkpt>
      <trkpt lat="45.88278" lon="4.76239">
        <ele>213</ele>
        <time>2017-09-27T10:29:00Z</time>
      </trkpt>
      <trkpt lat="45.88279" lon="4.76231">
        <ele>213</ele>
        <time>2017-09-27T10:29:01Z</time>
      </trkpt>
      <trkpt lat="45.8828" lon="4.76224">
        <ele>213</ele>
        <time>2017-09-27T10:29:02Z</time>
      </trkpt>
      <trkpt lat="45.88281" lon="4.76216">
        <ele>213</ele>
        <time>2017-09-27T10:29:03Z</time>
      </trkpt>
      <trkpt lat="45.88281" lon="4.76209">
        <ele>213</ele>
        <time>2017-09-27T10:29:04Z</time>
      </trkpt>
      <trkpt lat="45.88282" lon="4.762">
        <ele>213</ele>
        <time>2017-09-27T10:29:05Z</time>
      </trkpt>
      <trkpt lat="45.88284" lon="4.7619">
        <ele>213</ele>
        <time>2017-09-27T10:29:06Z</time>
      </trkpt>
      <trkpt lat="45.88283" lon="4.76183">
        <ele>213</ele>
        <time>2017-09-27T10:29:07Z</time>
      </trkpt>
      <trkpt lat="45.88284" lon="4.76175">
        <ele>212</ele>
        <time>2017-09-27T10:29:08Z</time>
      </trkpt>
      <trkpt lat="45.88284" lon="4.76166">
        <ele>211</ele>
        <time>2017-09-27T10:29:09Z</time>
      </trkpt>
      <trkpt lat="45.88285" lon="4.76158">
        <ele>211</ele>
        <time>2017-09-27T10:29:10Z</time>
      </trkpt>
      <trkpt lat="45.88285" lon="4.76149">
        <ele>211</ele>
        <time>2017-09-27T10:29:11Z</time>
      </trkpt>
      <trkpt lat="45.88285" lon="4.76139">
        <ele>210</ele>
        <time>2017-09-27T10:29:12Z</time>
      </trkpt>
      <trkpt lat="45.88286" lon="4.76129">
        <ele>210</ele>
        <time>2017-09-27T10:29:13Z</time>
      </trkpt>
      <trkpt lat="45.88287" lon="4.7612">
        <ele>210</ele>
        <time>2017-09-27T10:29:14Z</time>
      </trkpt>
      <trkpt lat="45.88286" lon="4.76111">
        <ele>210</ele>
        <time>2017-09-27T10:29:15Z</time>
      </trkpt>
      <trkpt lat="45.88287" lon="4.76101">
        <ele>210</ele>
        <time>2017-09-27T10:29:16Z</time>
      </trkpt>
      <trkpt lat="45.88287" lon="4.76091">
        <ele>210</ele>
        <time>2017-09-27T10:29:17Z</time>
      </trkpt>
      <trkpt lat="45.88288" lon="4.7608">
        <ele>208</ele>
        <time>2017-09-27T10:29:18Z</time>
      </trkpt>
      <trkpt lat="45.88288" lon="4.76071">
        <ele>208</ele>
        <time>2017-09-27T10:29:19Z</time>
      </trkpt>
      <trkpt lat="45.88284" lon="4.76059">
        <ele>208</ele>
        <time>2017-09-27T10:29:20Z</time>
      </trkpt>
      <trkpt lat="45.88284" lon="4.7605">
        <ele>208</ele>
        <time>2017-09-27T10:29:21Z</time>
      </trkpt>
      <trkpt lat="45.88285" lon="4.76039">
        <ele>208</ele>
        <time>2017-09-27T10:29:22Z</time>
      </trkpt>
      <trkpt lat="45.88286" lon="4.7603">
        <ele>207</ele>
        <time>2017-09-27T10:29:23Z</time>
      </trkpt>
      <trkpt lat="45.88288" lon="4.7602">
        <ele>207</ele>
        <time>2017-09-27T10:29:24Z</time>
      </trkpt>
      <trkpt lat="45.88289" lon="4.76011">
        <ele>207</ele>
        <time>2017-09-27T10:29:25Z</time>
      </trkpt>
      <trkpt lat="45.88292" lon="4.76002">
        <ele>207</ele>
        <time>2017-09-27T10:29:26Z</time>
      </trkpt>
      <trkpt lat="45.88296" lon="4.75992">
        <ele>206</ele>
        <time>2017-09-27T10:29:27Z</time>
      </trkpt>
      <trkpt lat="45.883" lon="4.75983">
        <ele>206</ele>
        <time>2017-09-27T10:29:28Z</time>
      </trkpt>
      <trkpt lat="45.88303" lon="4.75973">
        <ele>206</ele>
        <time>2017-09-27T10:29:29Z</time>
      </trkpt>
      <trkpt lat="45.88306" lon="4.75965">
        <ele>206</ele>
        <time>2017-09-27T10:29:30Z</time>
      </trkpt>
      <trkpt lat="45.8831" lon="4.75955">
        <ele>206</ele>
        <time>2017-09-27T10:29:31Z</time>
      </trkpt>
      <trkpt lat="45.88313" lon="4.75946">
        <ele>206</ele>
        <time>2017-09-27T10:29:32Z</time>
      </trkpt>
      <trkpt lat="45.88315" lon="4.75937">
        <ele>206</ele>
        <time>2017-09-27T10:29:33Z</time>
      </trkpt>
      <trkpt lat="45.88318" lon="4.75927">
        <ele>205</ele>
        <time>2017-09-27T10:29:34Z</time>
      </trkpt>
      <trkpt lat="45.88321" lon="4.75918">
        <ele>205</ele>
        <time>2017-09-27T10:29:35Z</time>
      </trkpt>
      <trkpt lat="45.88323" lon="4.75907">
        <ele>205</ele>
        <time>2017-09-27T10:29:36Z</time>
      </trkpt>
      <trkpt lat="45.88325" lon="4.75897">
        <ele>205</ele>
        <time>2017-09-27T10:29:37Z</time>
      </trkpt>
      <trkpt lat="45.88326" lon="4.75888">
        <ele>205</ele>
        <time>2017-09-27T10:29:38Z</time>
      </trkpt>
      <trkpt lat="45.88328" lon="4.75879">
        <ele>204</ele>
        <time>2017-09-27T10:29:39Z</time>
      </trkpt>
      <trkpt lat="45.8833" lon="4.7587">
        <ele>204</ele>
        <time>2017-09-27T10:29:40Z</time>
      </trkpt>
      <trkpt lat="45.88331" lon="4.7586">
        <ele>204</ele>
        <time>2017-09-27T10:29:41Z</time>
      </trkpt>
      <trkpt lat="45.88332" lon="4.75851">
        <ele>204</ele>
        <time>2017-09-27T10:29:42Z</time>
      </trkpt>
      <trkpt lat="45.88333" lon="4.75842">
        <ele>203</ele>
        <time>2017-09-27T10:29:43Z</time>
      </trkpt>
      <trkpt lat="45.88334" lon="4.7583">
        <ele>203</ele>
        <time>2017-09-27T10:29:44Z</time>
      </trkpt>
      <trkpt lat="45.88335" lon="4.75821">
        <ele>203</ele>
        <time>2017-09-27T10:29:45Z</time>
      </trkpt>
      <trkpt lat="45.88336" lon="4.75812">
        <ele>203</ele>
        <time>2017-09-27T10:29:46Z</time>
      </trkpt>
      <trkpt lat="45.88336" lon="4.75804">
        <ele>203</ele>
        <time>2017-09-27T10:29:47Z</time>
      </trkpt>
      <trkpt lat="45.88336" lon="4.75796">
        <ele>203</ele>
        <time>2017-09-27T10:29:48Z</time>
      </trkpt>
      <trkpt lat="45.88337" lon="4.75788">
        <ele>203</ele>
        <time>2017-09-27T10:29:49Z</time>
      </trkpt>
      <trkpt lat="45.88339" lon="4.7578">
        <ele>203</ele>
        <time>2017-09-27T10:29:50Z</time>
      </trkpt>
      <trkpt lat="45.8834" lon="4.75773">
        <ele>203</ele>
        <time>2017-09-27T10:29:51Z</time>
      </trkpt>
      <trkpt lat="45.88341" lon="4.75765">
        <ele>203</ele>
        <time>2017-09-27T10:29:52Z</time>
      </trkpt>
      <trkpt lat="45.88342" lon="4.75757">
        <ele>203</ele>
        <time>2017-09-27T10:29:53Z</time>
      </trkpt>
      <trkpt lat="45.88344" lon="4.75749">
        <ele>203</ele>
        <time>2017-09-27T10:29:54Z</time>
      </trkpt>
      <trkpt lat="45.88343" lon="4.7574">
        <ele>203</ele>
        <time>2017-09-27T10:29:55Z</time>
      </trkpt>
      <trkpt lat="45.88343" lon="4.75734">
        <ele>203</ele>
        <time>2017-09-27T10:29:56Z</time>
      </trkpt>
      <trkpt lat="45.88345" lon="4.75726">
        <ele>203</ele>
        <time>2017-09-27T10:29:57Z</time>
      </trkpt>
      <trkpt lat="45.88347" lon="4.75719">
        <ele>204</ele>
        <time>2017-09-27T10:29:58Z</time>
      </trkpt>
      <trkpt lat="45.8835" lon="4.75712">
        <ele>204</ele>
        <time>2017-09-27T10:29:59Z</time>
      </trkpt>
      <trkpt lat="45.88353" lon="4.75705">
        <ele>204</ele>
        <time>2017-09-27T10:30:00Z</time>
      </trkpt>
      <trkpt lat="45.88355" lon="4.75697">
        <ele>204</ele>
        <time>2017-09-27T10:30:01Z</time>
      </trkpt>
      <trkpt lat="45.88356" lon="4.75691">
        <ele>204</ele>
        <time>2017-09-27T10:30:02Z</time>
      </trkpt>
      <trkpt lat="45.88357" lon="4.75683">
        <ele>204</ele>
        <time>2017-09-27T10:30:03Z</time>
      </trkpt>
      <trkpt lat="45.88358" lon="4.75676">
        <ele>203</ele>
        <time>2017-09-27T10:30:04Z</time>
      </trkpt>
      <trkpt lat="45.88359" lon="4.75669">
        <ele>203</ele>
        <time>2017-09-27T10:30:05Z</time>
      </trkpt>
      <trkpt lat="45.8836" lon="4.75661">
        <ele>204</ele>
        <time>2017-09-27T10:30:06Z</time>
      </trkpt>
      <trkpt lat="45.88359" lon="4.75655">
        <ele>204</ele>
        <time>2017-09-27T10:30:07Z</time>
      </trkpt>
      <trkpt lat="45.88359" lon="4.75647">
        <ele>204</ele>
        <time>2017-09-27T10:30:08Z</time>
      </trkpt>
      <trkpt lat="45.8836" lon="4.75639">
        <ele>204</ele>
        <time>2017-09-27T10:30:09Z</time>
      </trkpt>
      <trkpt lat="45.8836" lon="4.75632">
        <ele>204</ele>
        <time>2017-09-27T10:30:10Z</time>
      </trkpt>
      <trkpt lat="45.8836" lon="4.75625">
        <ele>204</ele>
        <time>2017-09-27T10:30:11Z</time>
      </trkpt>
      <trkpt lat="45.88361" lon="4.75618">
        <ele>204</ele>
        <time>2017-09-27T10:30:12Z</time>
      </trkpt>
      <trkpt lat="45.88361" lon="4.75611">
        <ele>204</ele>
        <time>2017-09-27T10:30:13Z</time>
      </trkpt>
      <trkpt lat="45.88361" lon="4.75605">
        <ele>204</ele>
        <time>2017-09-27T10:30:14Z</time>
      </trkpt>
      <trkpt lat="45.88362" lon="4.75592">
        <ele>204</ele>
        <time>2017-09-27T10:30:16Z</time>
      </trkpt>
      <trkpt lat="45.88362" lon="4.75586">
        <ele>204</ele>
        <time>2017-09-27T10:30:17Z</time>
      </trkpt>
      <trkpt lat="45.8836" lon="4.75574">
        <ele>204</ele>
        <time>2017-09-27T10:30:19Z</time>
      </trkpt>
      <trkpt lat="45.88362" lon="4.75566">
        <ele>204</ele>
        <time>2017-09-27T10:30:20Z</time>
      </trkpt>
      <trkpt lat="45.88363" lon="4.75558">
        <ele>204</ele>
        <time>2017-09-27T10:30:21Z</time>
      </trkpt>
      <trkpt lat="45.88364" lon="4.75551">
        <ele>204</ele>
        <time>2017-09-27T10:30:22Z</time>
      </trkpt>
      <trkpt lat="45.88364" lon="4.75543">
        <ele>204</ele>
        <time>2017-09-27T10:30:23Z</time>
      </trkpt>
      <trkpt lat="45.88364" lon="4.75534">
        <ele>204</ele>
        <time>2017-09-27T10:30:24Z</time>
      </trkpt>
      <trkpt lat="45.88364" lon="4.75525">
        <ele>204</ele>
        <time>2017-09-27T10:30:25Z</time>
      </trkpt>
      <trkpt lat="45.88363" lon="4.75517">
        <ele>204</ele>
        <time>2017-09-27T10:30:26Z</time>
      </trkpt>
      <trkpt lat="45.88363" lon="4.75509">
        <ele>204</ele>
        <time>2017-09-27T10:30:27Z</time>
      </trkpt>
      <trkpt lat="45.88362" lon="4.75501">
        <ele>204</ele>
        <time>2017-09-27T10:30:28Z</time>
      </trkpt>
      <trkpt lat="45.88362" lon="4.75493">
        <ele>203</ele>
        <time>2017-09-27T10:30:29Z</time>
      </trkpt>
      <trkpt lat="45.88362" lon="4.75485">
        <ele>203</ele>
        <time>2017-09-27T10:30:30Z</time>
      </trkpt>
      <trkpt lat="45.88364" lon="4.75476">
        <ele>203</ele>
        <time>2017-09-27T10:30:31Z</time>
      </trkpt>
      <trkpt lat="45.88365" lon="4.75467">
        <ele>203</ele>
        <time>2017-09-27T10:30:32Z</time>
      </trkpt>
      <trkpt lat="45.88365" lon="4.7546">
        <ele>203</ele>
        <time>2017-09-27T10:30:33Z</time>
      </trkpt>
      <trkpt lat="45.88366" lon="4.75452">
        <ele>203</ele>
        <time>2017-09-27T10:30:34Z</time>
      </trkpt>
      <trkpt lat="45.88367" lon="4.75444">
        <ele>203</ele>
        <time>2017-09-27T10:30:35Z</time>
      </trkpt>
      <trkpt lat="45.88368" lon="4.75437">
        <ele>203</ele>
        <time>2017-09-27T10:30:36Z</time>
      </trkpt>
      <trkpt lat="45.88369" lon="4.7543">
        <ele>203</ele>
        <time>2017-09-27T10:30:37Z</time>
      </trkpt>
      <trkpt lat="45.88371" lon="4.75423">
        <ele>203</ele>
        <time>2017-09-27T10:30:38Z</time>
      </trkpt>
      <trkpt lat="45.88372" lon="4.75415">
        <ele>202</ele>
        <time>2017-09-27T10:30:39Z</time>
      </trkpt>
      <trkpt lat="45.88373" lon="4.75409">
        <ele>202</ele>
        <time>2017-09-27T10:30:40Z</time>
      </trkpt>
      <trkpt lat="45.88374" lon="4.75403">
        <ele>202</ele>
        <time>2017-09-27T10:30:41Z</time>
      </trkpt>
      <trkpt lat="45.88376" lon="4.75396">
        <ele>202</ele>
        <time>2017-09-27T10:30:42Z</time>
      </trkpt>
      <trkpt lat="45.88378" lon="4.75384">
        <ele>201</ele>
        <time>2017-09-27T10:30:44Z</time>
      </trkpt>
      <trkpt lat="45.88379" lon="4.7538">
        <ele>201</ele>
        <time>2017-09-27T10:30:45Z</time>
      </trkpt>
      <trkpt lat="45.88383" lon="4.7537">
        <ele>201</ele>
        <time>2017-09-27T10:30:47Z</time>
      </trkpt>
      <trkpt lat="45.88386" lon="4.75366">
        <ele>201</ele>
        <time>2017-09-27T10:30:48Z</time>
      </trkpt>
      <trkpt lat="45.88388" lon="4.75361">
        <ele>201</ele>
        <time>2017-09-27T10:30:49Z</time>
      </trkpt>
      <trkpt lat="45.88392" lon="4.75356">
        <ele>201</ele>
        <time>2017-09-27T10:30:50Z</time>
      </trkpt>
      <trkpt lat="45.88395" lon="4.75351">
        <ele>201</ele>
        <time>2017-09-27T10:30:51Z</time>
      </trkpt>
      <trkpt lat="45.88398" lon="4.75345">
        <ele>201</ele>
        <time>2017-09-27T10:30:52Z</time>
      </trkpt>
      <trkpt lat="45.884" lon="4.75339">
        <ele>201</ele>
        <time>2017-09-27T10:30:53Z</time>
      </trkpt>
      <trkpt lat="45.88402" lon="4.75332">
        <ele>200</ele>
        <time>2017-09-27T10:30:54Z</time>
      </trkpt>
      <trkpt lat="45.88404" lon="4.75326">
        <ele>200</ele>
        <time>2017-09-27T10:30:55Z</time>
      </trkpt>
      <trkpt lat="45.88407" lon="4.7532">
        <ele>200</ele>
        <time>2017-09-27T10:30:56Z</time>
      </trkpt>
      <trkpt lat="45.88413" lon="4.7531">
        <ele>200</ele>
        <time>2017-09-27T10:30:58Z</time>
      </trkpt>
      <trkpt lat="45.88416" lon="4.75306">
        <ele>200</ele>
        <time>2017-09-27T10:30:59Z</time>
      </trkpt>
      <trkpt lat="45.8842" lon="4.753">
        <ele>201</ele>
        <time>2017-09-27T10:31:00Z</time>
      </trkpt>
      <trkpt lat="45.88424" lon="4.75296">
        <ele>201</ele>
        <time>2017-09-27T10:31:01Z</time>
      </trkpt>
      <trkpt lat="45.88428" lon="4.75293">
        <ele>201</ele>
        <time>2017-09-27T10:31:02Z</time>
      </trkpt>
      <trkpt lat="45.88432" lon="4.75289">
        <ele>201</ele>
        <time>2017-09-27T10:31:03Z</time>
      </trkpt>
      <trkpt lat="45.88435" lon="4.75284">
        <ele>201</ele>
        <time>2017-09-27T10:31:04Z</time>
      </trkpt>
      <trkpt lat="45.8844" lon="4.75281">
        <ele>201</ele>
        <time>2017-09-27T10:31:05Z</time>
      </trkpt>
      <trkpt lat="45.88445" lon="4.75279">
        <ele>201</ele>
        <time>2017-09-27T10:31:06Z</time>
      </trkpt>
      <trkpt lat="45.8845" lon="4.75277">
        <ele>201</ele>
        <time>2017-09-27T10:31:07Z</time>
      </trkpt>
      <trkpt lat="45.88455" lon="4.75273">
        <ele>201</ele>
        <time>2017-09-27T10:31:08Z</time>
      </trkpt>
      <trkpt lat="45.88461" lon="4.7527">
        <ele>201</ele>
        <time>2017-09-27T10:31:09Z</time>
      </trkpt>
      <trkpt lat="45.88466" lon="4.75267">
        <ele>201</ele>
        <time>2017-09-27T10:31:10Z</time>
      </trkpt>
      <trkpt lat="45.88471" lon="4.75265">
        <ele>201</ele>
        <time>2017-09-27T10:31:11Z</time>
      </trkpt>
      <trkpt lat="45.88476" lon="4.75262">
        <ele>201</ele>
        <time>2017-09-27T10:31:12Z</time>
      </trkpt>
      <trkpt lat="45.88481" lon="4.75259">
        <ele>201</ele>
        <time>2017-09-27T10:31:13Z</time>
      </trkpt>
      <trkpt lat="45.88486" lon="4.75256">
        <ele>201</ele>
        <time>2017-09-27T10:31:14Z</time>
      </trkpt>
      <trkpt lat="45.8849" lon="4.75253">
        <ele>201</ele>
        <time>2017-09-27T10:31:15Z</time>
      </trkpt>
      <trkpt lat="45.88495" lon="4.7525">
        <ele>201</ele>
        <time>2017-09-27T10:31:16Z</time>
      </trkpt>
      <trkpt lat="45.88499" lon="4.75247">
        <ele>201</ele>
        <time>2017-09-27T10:31:17Z</time>
      </trkpt>
      <trkpt lat="45.88506" lon="4.7524">
        <ele>201</ele>
        <time>2017-09-27T10:31:19Z</time>
      </trkpt>
      <trkpt lat="45.8851" lon="4.75236">
        <ele>201</ele>
        <time>2017-09-27T10:31:20Z</time>
      </trkpt>
      <trkpt lat="45.88514" lon="4.75231">
        <ele>201</ele>
        <time>2017-09-27T10:31:21Z</time>
      </trkpt>
      <trkpt lat="45.88518" lon="4.75225">
        <ele>201</ele>
        <time>2017-09-27T10:31:22Z</time>
      </trkpt>
      <trkpt lat="45.88521" lon="4.75218">
        <ele>201</ele>
        <time>2017-09-27T10:31:23Z</time>
      </trkpt>
      <trkpt lat="45.88524" lon="4.75211">
        <ele>201</ele>
        <time>2017-09-27T10:31:24Z</time>
      </trkpt>
      <trkpt lat="45.88528" lon="4.75205">
        <ele>201</ele>
        <time>2017-09-27T10:31:25Z</time>
      </trkpt>
      <trkpt lat="45.88531" lon="4.75198">
        <ele>201</ele>
        <time>2017-09-27T10:31:26Z</time>
      </trkpt>
      <trkpt lat="45.88533" lon="4.75192">
        <ele>201</ele>
        <time>2017-09-27T10:31:27Z</time>
      </trkpt>
      <trkpt lat="45.88536" lon="4.75185">
        <ele>201</ele>
        <time>2017-09-27T10:31:28Z</time>
      </trkpt>
      <trkpt lat="45.88539" lon="4.75179">
        <ele>201</ele>
        <time>2017-09-27T10:31:29Z</time>
      </trkpt>
      <trkpt lat="45.88542" lon="4.75172">
        <ele>201</ele>
        <time>2017-09-27T10:31:30Z</time>
      </trkpt>
      <trkpt lat="45.88545" lon="4.75167">
        <ele>201</ele>
        <time>2017-09-27T10:31:31Z</time>
      </trkpt>
      <trkpt lat="45.88547" lon="4.75162">
        <ele>201</ele>
        <time>2017-09-27T10:31:32Z</time>
      </trkpt>
      <trkpt lat="45.88551" lon="4.75156">
        <ele>201</ele>
        <time>2017-09-27T10:31:33Z</time>
      </trkpt>
      <trkpt lat="45.88554" lon="4.75151">
        <ele>201</ele>
        <time>2017-09-27T10:31:34Z</time>
      </trkpt>
      <trkpt lat="45.88559" lon="4.75142">
        <ele>201</ele>
        <time>2017-09-27T10:31:36Z</time>
      </trkpt>
      <trkpt lat="45.88562" lon="4.75137">
        <ele>201</ele>
        <time>2017-09-27T10:31:37Z</time>
      </trkpt>
      <trkpt lat="45.88569" lon="4.75131">
        <ele>201</ele>
        <time>2017-09-27T10:31:39Z</time>
      </trkpt>
      <trkpt lat="45.88573" lon="4.75127">
        <ele>201</ele>
        <time>2017-09-27T10:31:40Z</time>
      </trkpt>
      <trkpt lat="45.88578" lon="4.7512">
        <ele>201</ele>
        <time>2017-09-27T10:31:42Z</time>
      </trkpt>
      <trkpt lat="45.88582" lon="4.75117">
        <ele>201</ele>
        <time>2017-09-27T10:31:43Z</time>
      </trkpt>
      <trkpt lat="45.88586" lon="4.75113">
        <ele>202</ele>
        <time>2017-09-27T10:31:44Z</time>
      </trkpt>
      <trkpt lat="45.88589" lon="4.75109">
        <ele>202</ele>
        <time>2017-09-27T10:31:45Z</time>
      </trkpt>
      <trkpt lat="45.88594" lon="4.75105">
        <ele>202</ele>
        <time>2017-09-27T10:31:46Z</time>
      </trkpt>
      <trkpt lat="45.88598" lon="4.75099">
        <ele>202</ele>
        <time>2017-09-27T10:31:47Z</time>
      </trkpt>
      <trkpt lat="45.886" lon="4.75095">
        <ele>202</ele>
        <time>2017-09-27T10:31:48Z</time>
      </trkpt>
      <trkpt lat="45.88604" lon="4.7509">
        <ele>202</ele>
        <time>2017-09-27T10:31:49Z</time>
      </trkpt>
      <trkpt lat="45.88606" lon="4.75084">
        <ele>202</ele>
        <time>2017-09-27T10:31:50Z</time>
      </trkpt>
      <trkpt lat="45.88609" lon="4.75079">
        <ele>202</ele>
        <time>2017-09-27T10:31:51Z</time>
      </trkpt>
      <trkpt lat="45.88612" lon="4.75067">
        <ele>202</ele>
        <time>2017-09-27T10:31:53Z</time>
      </trkpt>
      <trkpt lat="45.88614" lon="4.7506">
        <ele>202</ele>
        <time>2017-09-27T10:31:54Z</time>
      </trkpt>
      <trkpt lat="45.88615" lon="4.75053">
        <ele>202</ele>
        <time>2017-09-27T10:31:55Z</time>
      </trkpt>
      <trkpt lat="45.88615" lon="4.75047">
        <ele>202</ele>
        <time>2017-09-27T10:31:56Z</time>
      </trkpt>
      <trkpt lat="45.88617" lon="4.75041">
        <ele>202</ele>
        <time>2017-09-27T10:31:57Z</time>
      </trkpt>
      <trkpt lat="45.88619" lon="4.75032">
        <ele>202</ele>
        <time>2017-09-27T10:31:58Z</time>
      </trkpt>
      <trkpt lat="45.88618" lon="4.75023">
        <ele>202</ele>
        <time>2017-09-27T10:31:59Z</time>
      </trkpt>
      <trkpt lat="45.8862" lon="4.75015">
        <ele>201</ele>
        <time>2017-09-27T10:32:00Z</time>
      </trkpt>
      <trkpt lat="45.88622" lon="4.75008">
        <ele>201</ele>
        <time>2017-09-27T10:32:01Z</time>
      </trkpt>
      <trkpt lat="45.88623" lon="4.75001">
        <ele>201</ele>
        <time>2017-09-27T10:32:02Z</time>
      </trkpt>
      <trkpt lat="45.88625" lon="4.74994">
        <ele>201</ele>
        <time>2017-09-27T10:32:03Z</time>
      </trkpt>
      <trkpt lat="45.88626" lon="4.74987">
        <ele>201</ele>
        <time>2017-09-27T10:32:04Z</time>
      </trkpt>
      <trkpt lat="45.88628" lon="4.74981">
        <ele>201</ele>
        <time>2017-09-27T10:32:05Z</time>
      </trkpt>
      <trkpt lat="45.88629" lon="4.74975">
        <ele>201</ele>
        <time>2017-09-27T10:32:06Z</time>
      </trkpt>
      <trkpt lat="45.88631" lon="4.74963">
        <ele>201</ele>
        <time>2017-09-27T10:32:08Z</time>
      </trkpt>
      <trkpt lat="45.88633" lon="4.74956">
        <ele>201</ele>
        <time>2017-09-27T10:32:09Z</time>
      </trkpt>
      <trkpt lat="45.88637" lon="4.74945">
        <ele>201</ele>
        <time>2017-09-27T10:32:11Z</time>
      </trkpt>
      <trkpt lat="45.88639" lon="4.7494">
        <ele>201</ele>
        <time>2017-09-27T10:32:12Z</time>
      </trkpt>
      <trkpt lat="45.88646" lon="4.74931">
        <ele>202</ele>
        <time>2017-09-27T10:32:14Z</time>
      </trkpt>
      <trkpt lat="45.88649" lon="4.74927">
        <ele>202</ele>
        <time>2017-09-27T10:32:15Z</time>
      </trkpt>
      <trkpt lat="45.88656" lon="4.74921">
        <ele>202</ele>
        <time>2017-09-27T10:32:17Z</time>
      </trkpt>
      <trkpt lat="45.8866" lon="4.74919">
        <ele>202</ele>
        <time>2017-09-27T10:32:18Z</time>
      </trkpt>
      <trkpt lat="45.88667" lon="4.74918">
        <ele>202</ele>
        <time>2017-09-27T10:32:20Z</time>
      </trkpt>
      <trkpt lat="45.88671" lon="4.74919">
        <ele>202</ele>
        <time>2017-09-27T10:32:21Z</time>
      </trkpt>
      <trkpt lat="45.88679" lon="4.74923">
        <ele>202</ele>
        <time>2017-09-27T10:32:23Z</time>
      </trkpt>
      <trkpt lat="45.88683" lon="4.74925">
        <ele>202</ele>
        <time>2017-09-27T10:32:24Z</time>
      </trkpt>
      <trkpt lat="45.88691" lon="4.74929">
        <ele>202</ele>
        <time>2017-09-27T10:32:26Z</time>
      </trkpt>
      <trkpt lat="45.88696" lon="4.7493">
        <ele>202</ele>
        <time>2017-09-27T10:32:27Z</time>
      </trkpt>
      <trkpt lat="45.887" lon="4.74932">
        <ele>202</ele>
        <time>2017-09-27T10:32:28Z</time>
      </trkpt>
      <trkpt lat="45.88705" lon="4.74933">
        <ele>202</ele>
        <time>2017-09-27T10:32:29Z</time>
      </trkpt>
      <trkpt lat="45.8871" lon="4.74934">
        <ele>201</ele>
        <time>2017-09-27T10:32:30Z</time>
      </trkpt>
      <trkpt lat="45.88714" lon="4.74935">
        <ele>201</ele>
        <time>2017-09-27T10:32:31Z</time>
      </trkpt>
      <trkpt lat="45.88718" lon="4.74937">
        <ele>201</ele>
        <time>2017-09-27T10:32:32Z</time>
      </trkpt>
      <trkpt lat="45.88723" lon="4.74937">
        <ele>201</ele>
        <time>2017-09-27T10:32:33Z</time>
      </trkpt>
      <trkpt lat="45.88728" lon="4.74937">
        <ele>201</ele>
        <time>2017-09-27T10:32:34Z</time>
      </trkpt>
      <trkpt lat="45.88733" lon="4.74939">
        <ele>201</ele>
        <time>2017-09-27T10:32:35Z</time>
      </trkpt>
      <trkpt lat="45.88739" lon="4.7494">
        <ele>201</ele>
        <time>2017-09-27T10:32:36Z</time>
      </trkpt>
      <trkpt lat="45.88745" lon="4.74941">
        <ele>201</ele>
        <time>2017-09-27T10:32:37Z</time>
      </trkpt>
      <trkpt lat="45.8875" lon="4.74942">
        <ele>201</ele>
        <time>2017-09-27T10:32:38Z</time>
      </trkpt>
      <trkpt lat="45.88755" lon="4.74945">
        <ele>201</ele>
        <time>2017-09-27T10:32:39Z</time>
      </trkpt>
      <trkpt lat="45.88761" lon="4.74946">
        <ele>201</ele>
        <time>2017-09-27T10:32:40Z</time>
      </trkpt>
      <trkpt lat="45.88766" lon="4.74946">
        <ele>201</ele>
        <time>2017-09-27T10:32:41Z</time>
      </trkpt>
      <trkpt lat="45.8877" lon="4.74947">
        <ele>201</ele>
        <time>2017-09-27T10:32:42Z</time>
      </trkpt>
      <trkpt lat="45.88775" lon="4.74948">
        <ele>201</ele>
        <time>2017-09-27T10:32:43Z</time>
      </trkpt>
      <trkpt lat="45.88783" lon="4.7495">
        <ele>201</ele>
        <time>2017-09-27T10:32:45Z</time>
      </trkpt>
      <trkpt lat="45.88788" lon="4.7495">
        <ele>201</ele>
        <time>2017-09-27T10:32:46Z</time>
      </trkpt>
      <trkpt lat="45.88792" lon="4.74952">
        <ele>201</ele>
        <time>2017-09-27T10:32:47Z</time>
      </trkpt>
      <trkpt lat="45.88797" lon="4.74951">
        <ele>201</ele>
        <time>2017-09-27T10:32:48Z</time>
      </trkpt>
      <trkpt lat="45.88805" lon="4.74952">
        <ele>201</ele>
        <time>2017-09-27T10:32:50Z</time>
      </trkpt>
      <trkpt lat="45.8881" lon="4.74952">
        <ele>201</ele>
        <time>2017-09-27T10:32:51Z</time>
      </trkpt>
      <trkpt lat="45.88817" lon="4.74955">
        <ele>201</ele>
        <time>2017-09-27T10:32:53Z</time>
      </trkpt>
      <trkpt lat="45.88821" lon="4.74955">
        <ele>201</ele>
        <time>2017-09-27T10:32:54Z</time>
      </trkpt>
      <trkpt lat="45.88828" lon="4.74957">
        <ele>201</ele>
        <time>2017-09-27T10:32:56Z</time>
      </trkpt>
      <trkpt lat="45.88832" lon="4.74957">
        <ele>201</ele>
        <time>2017-09-27T10:32:57Z</time>
      </trkpt>
      <trkpt lat="45.88839" lon="4.74958">
        <ele>201</ele>
        <time>2017-09-27T10:32:59Z</time>
      </trkpt>
      <trkpt lat="45.88843" lon="4.74958">
        <ele>201</ele>
        <time>2017-09-27T10:33:00Z</time>
      </trkpt>
      <trkpt lat="45.88852" lon="4.7496">
        <ele>201</ele>
        <time>2017-09-27T10:33:02Z</time>
      </trkpt>
      <trkpt lat="45.88856" lon="4.7496">
        <ele>201</ele>
        <time>2017-09-27T10:33:03Z</time>
      </trkpt>
      <trkpt lat="45.88864" lon="4.74962">
        <ele>201</ele>
        <time>2017-09-27T10:33:05Z</time>
      </trkpt>
      <trkpt lat="45.88867" lon="4.74963">
        <ele>201</ele>
        <time>2017-09-27T10:33:06Z</time>
      </trkpt>
      <trkpt lat="45.88875" lon="4.74966">
        <ele>201</ele>
        <time>2017-09-27T10:33:08Z</time>
      </trkpt>
      <trkpt lat="45.88879" lon="4.74968">
        <ele>201</ele>
        <time>2017-09-27T10:33:09Z</time>
      </trkpt>
      <trkpt lat="45.88884" lon="4.74968">
        <ele>201</ele>
        <time>2017-09-27T10:33:10Z</time>
      </trkpt>
      <trkpt lat="45.8889" lon="4.74968">
        <ele>201</ele>
        <time>2017-09-27T10:33:11Z</time>
      </trkpt>
      <trkpt lat="45.88896" lon="4.74968">
        <ele>201</ele>
        <time>2017-09-27T10:33:12Z</time>
      </trkpt>
      <trkpt lat="45.88901" lon="4.74967">
        <ele>201</ele>
        <time>2017-09-27T10:33:13Z</time>
      </trkpt>
      <trkpt lat="45.88906" lon="4.74965">
        <ele>201</ele>
        <time>2017-09-27T10:33:14Z</time>
      </trkpt>
      <trkpt lat="45.88912" lon="4.74963">
        <ele>201</ele>
        <time>2017-09-27T10:33:15Z</time>
      </trkpt>
      <trkpt lat="45.88916" lon="4.7496">
        <ele>201</ele>
        <time>2017-09-27T10:33:16Z</time>
      </trkpt>
      <trkpt lat="45.8892" lon="4.74957">
        <ele>200</ele>
        <time>2017-09-27T10:33:17Z</time>
      </trkpt>
      <trkpt lat="45.88928" lon="4.74953">
        <ele>200</ele>
        <time>2017-09-27T10:33:19Z</time>
      </trkpt>
      <trkpt lat="45.88931" lon="4.74952">
        <ele>200</ele>
        <time>2017-09-27T10:33:20Z</time>
      </trkpt>
      <trkpt lat="45.88937" lon="4.74948">
        <ele>200</ele>
        <time>2017-09-27T10:33:22Z</time>
      </trkpt>
      <trkpt lat="45.8894" lon="4.74946">
        <ele>200</ele>
        <time>2017-09-27T10:33:23Z</time>
      </trkpt>
      <trkpt lat="45.88945" lon="4.74945">
        <ele>200</ele>
        <time>2017-09-27T10:33:24Z</time>
      </trkpt>
      <trkpt lat="45.8895" lon="4.74942">
        <ele>200</ele>
        <time>2017-09-27T10:33:25Z</time>
      </trkpt>
      <trkpt lat="45.88955" lon="4.74939">
        <ele>200</ele>
        <time>2017-09-27T10:33:26Z</time>
      </trkpt>
      <trkpt lat="45.8896" lon="4.74936">
        <ele>200</ele>
        <time>2017-09-27T10:33:27Z</time>
      </trkpt>
      <trkpt lat="45.88965" lon="4.74933">
        <ele>200</ele>
        <time>2017-09-27T10:33:28Z</time>
      </trkpt>
      <trkpt lat="45.8897" lon="4.7493">
        <ele>200</ele>
        <time>2017-09-27T10:33:29Z</time>
      </trkpt>
      <trkpt lat="45.88974" lon="4.74927">
        <ele>200</ele>
        <time>2017-09-27T10:33:30Z</time>
      </trkpt>
      <trkpt lat="45.88978" lon="4.74925">
        <ele>199</ele>
        <time>2017-09-27T10:33:31Z</time>
      </trkpt>
      <trkpt lat="45.88983" lon="4.74923">
        <ele>199</ele>
        <time>2017-09-27T10:33:32Z</time>
      </trkpt>
      <trkpt lat="45.88987" lon="4.74922">
        <ele>199</ele>
        <time>2017-09-27T10:33:33Z</time>
      </trkpt>
      <trkpt lat="45.88995" lon="4.74918">
        <ele>199</ele>
        <time>2017-09-27T10:33:35Z</time>
      </trkpt>
      <trkpt lat="45.88999" lon="4.74915">
        <ele>199</ele>
        <time>2017-09-27T10:33:36Z</time>
      </trkpt>
      <trkpt lat="45.89003" lon="4.74913">
        <ele>199</ele>
        <time>2017-09-27T10:33:37Z</time>
      </trkpt>
      <trkpt lat="45.89007" lon="4.74909">
        <ele>199</ele>
        <time>2017-09-27T10:33:38Z</time>
      </trkpt>
      <trkpt lat="45.89011" lon="4.74906">
        <ele>199</ele>
        <time>2017-09-27T10:33:39Z</time>
      </trkpt>
      <trkpt lat="45.89016" lon="4.74902">
        <ele>199</ele>
        <time>2017-09-27T10:33:40Z</time>
      </trkpt>
      <trkpt lat="45.89021" lon="4.74898">
        <ele>199</ele>
        <time>2017-09-27T10:33:41Z</time>
      </trkpt>
      <trkpt lat="45.89025" lon="4.74894">
        <ele>199</ele>
        <time>2017-09-27T10:33:42Z</time>
      </trkpt>
      <trkpt lat="45.89031" lon="4.7489">
        <ele>199</ele>
        <time>2017-09-27T10:33:43Z</time>
      </trkpt>
      <trkpt lat="45.89036" lon="4.74886">
        <ele>199</ele>
        <time>2017-09-27T10:33:44Z</time>
      </trkpt>
      <trkpt lat="45.89042" lon="4.74883">
        <ele>199</ele>
        <time>2017-09-27T10:33:45Z</time>
      </trkpt>
      <trkpt lat="45.89047" lon="4.74881">
        <ele>199</ele>
        <time>2017-09-27T10:33:46Z</time>
      </trkpt>
      <trkpt lat="45.89052" lon="4.74879">
        <ele>199</ele>
        <time>2017-09-27T10:33:47Z</time>
      </trkpt>
      <trkpt lat="45.89058" lon="4.74878">
        <ele>199</ele>
        <time>2017-09-27T10:33:48Z</time>
      </trkpt>
      <trkpt lat="45.89063" lon="4.74877">
        <ele>199</ele>
        <time>2017-09-27T10:33:49Z</time>
      </trkpt>
      <trkpt lat="45.89068" lon="4.74875">
        <ele>199</ele>
        <time>2017-09-27T10:33:50Z</time>
      </trkpt>
      <trkpt lat="45.89073" lon="4.74873">
        <ele>199</ele>
        <time>2017-09-27T10:33:51Z</time>
      </trkpt>
      <trkpt lat="45.89078" lon="4.74873">
        <ele>199</ele>
        <time>2017-09-27T10:33:52Z</time>
      </trkpt>
      <trkpt lat="45.89083" lon="4.74871">
        <ele>199</ele>
        <time>2017-09-27T10:33:53Z</time>
      </trkpt>
      <trkpt lat="45.89088" lon="4.74869">
        <ele>199</ele>
        <time>2017-09-27T10:33:54Z</time>
      </trkpt>
      <trkpt lat="45.89093" lon="4.74867">
        <ele>199</ele>
        <time>2017-09-27T10:33:55Z</time>
      </trkpt>
      <trkpt lat="45.89099" lon="4.74865">
        <ele>199</ele>
        <time>2017-09-27T10:33:56Z</time>
      </trkpt>
      <trkpt lat="45.89105" lon="4.74864">
        <ele>199</ele>
        <time>2017-09-27T10:33:57Z</time>
      </trkpt>
      <trkpt lat="45.89112" lon="4.74863">
        <ele>199</ele>
        <time>2017-09-27T10:33:58Z</time>
      </trkpt>
      <trkpt lat="45.89119" lon="4.74863">
        <ele>199</ele>
        <time>2017-09-27T10:33:59Z</time>
      </trkpt>
      <trkpt lat="45.89125" lon="4.74862">
        <ele>199</ele>
        <time>2017-09-27T10:34:00Z</time>
      </trkpt>
      <trkpt lat="45.89131" lon="4.74862">
        <ele>199</ele>
        <time>2017-09-27T10:34:01Z</time>
      </trkpt>
      <trkpt lat="45.89137" lon="4.74862">
        <ele>199</ele>
        <time>2017-09-27T10:34:02Z</time>
      </trkpt>
      <trkpt lat="45.89143" lon="4.74861">
        <ele>199</ele>
        <time>2017-09-27T10:34:03Z</time>
      </trkpt>
      <trkpt lat="45.89149" lon="4.74861">
        <ele>199</ele>
        <time>2017-09-27T10:34:04Z</time>
      </trkpt>
      <trkpt lat="45.89155" lon="4.7486">
        <ele>199</ele>
        <time>2017-09-27T10:34:05Z</time>
      </trkpt>
      <trkpt lat="45.89161" lon="4.74861">
        <ele>199</ele>
        <time>2017-09-27T10:34:06Z</time>
      </trkpt>
      <trkpt lat="45.89167" lon="4.7486">
        <ele>198</ele>
        <time>2017-09-27T10:34:07Z</time>
      </trkpt>
      <trkpt lat="45.89172" lon="4.74858">
        <ele>198</ele>
        <time>2017-09-27T10:34:08Z</time>
      </trkpt>
      <trkpt lat="45.89179" lon="4.74859">
        <ele>198</ele>
        <time>2017-09-27T10:34:09Z</time>
      </trkpt>
      <trkpt lat="45.89185" lon="4.74859">
        <ele>198</ele>
        <time>2017-09-27T10:34:10Z</time>
      </trkpt>
      <trkpt lat="45.89191" lon="4.74859">
        <ele>198</ele>
        <time>2017-09-27T10:34:11Z</time>
      </trkpt>
      <trkpt lat="45.89196" lon="4.74859">
        <ele>198</ele>
        <time>2017-09-27T10:34:12Z</time>
      </trkpt>
      <trkpt lat="45.89203" lon="4.7486">
        <ele>198</ele>
        <time>2017-09-27T10:34:13Z</time>
      </trkpt>
      <trkpt lat="45.89209" lon="4.74858">
        <ele>198</ele>
        <time>2017-09-27T10:34:14Z</time>
      </trkpt>
      <trkpt lat="45.89215" lon="4.74859">
        <ele>198</ele>
        <time>2017-09-27T10:34:15Z</time>
      </trkpt>
      <trkpt lat="45.89221" lon="4.74859">
        <ele>198</ele>
        <time>2017-09-27T10:34:16Z</time>
      </trkpt>
      <trkpt lat="45.89227" lon="4.7486">
        <ele>198</ele>
        <time>2017-09-27T10:34:17Z</time>
      </trkpt>
      <trkpt lat="45.89232" lon="4.7486">
        <ele>198</ele>
        <time>2017-09-27T10:34:18Z</time>
      </trkpt>
      <trkpt lat="45.89238" lon="4.74859">
        <ele>198</ele>
        <time>2017-09-27T10:34:19Z</time>
      </trkpt>
      <trkpt lat="45.89243" lon="4.7486">
        <ele>198</ele>
        <time>2017-09-27T10:34:20Z</time>
      </trkpt>
      <trkpt lat="45.89248" lon="4.74861">
        <ele>198</ele>
        <time>2017-09-27T10:34:21Z</time>
      </trkpt>
      <trkpt lat="45.89254" lon="4.74861">
        <ele>198</ele>
        <time>2017-09-27T10:34:22Z</time>
      </trkpt>
      <trkpt lat="45.89259" lon="4.74862">
        <ele>198</ele>
        <time>2017-09-27T10:34:23Z</time>
      </trkpt>
      <trkpt lat="45.89264" lon="4.74863">
        <ele>198</ele>
        <time>2017-09-27T10:34:24Z</time>
      </trkpt>
      <trkpt lat="45.89272" lon="4.74863">
        <ele>198</ele>
        <time>2017-09-27T10:34:26Z</time>
      </trkpt>
      <trkpt lat="45.89276" lon="4.74865">
        <ele>198</ele>
        <time>2017-09-27T10:34:27Z</time>
      </trkpt>
      <trkpt lat="45.89282" lon="4.74864">
        <ele>198</ele>
        <time>2017-09-27T10:34:29Z</time>
      </trkpt>
      <trkpt lat="45.89286" lon="4.74863">
        <ele>198</ele>
        <time>2017-09-27T10:34:30Z</time>
      </trkpt>
      <trkpt lat="45.89291" lon="4.74867">
        <ele>198</ele>
        <time>2017-09-27T10:34:31Z</time>
      </trkpt>
      <trkpt lat="45.89297" lon="4.74868">
        <ele>198</ele>
        <time>2017-09-27T10:34:32Z</time>
      </trkpt>
      <trkpt lat="45.89302" lon="4.74867">
        <ele>198</ele>
        <time>2017-09-27T10:34:33Z</time>
      </trkpt>
      <trkpt lat="45.89307" lon="4.74867">
        <ele>198</ele>
        <time>2017-09-27T10:34:34Z</time>
      </trkpt>
      <trkpt lat="45.89311" lon="4.74867">
        <ele>198</ele>
        <time>2017-09-27T10:34:35Z</time>
      </trkpt>
      <trkpt lat="45.89317" lon="4.74867">
        <ele>198</ele>
        <time>2017-09-27T10:34:36Z</time>
      </trkpt>
      <trkpt lat="45.89323" lon="4.74869">
        <ele>198</ele>
        <time>2017-09-27T10:34:37Z</time>
      </trkpt>
      <trkpt lat="45.89329" lon="4.74868">
        <ele>198</ele>
        <time>2017-09-27T10:34:38Z</time>
      </trkpt>
      <trkpt lat="45.89334" lon="4.74868">
        <ele>199</ele>
        <time>2017-09-27T10:34:39Z</time>
      </trkpt>
      <trkpt lat="45.8934" lon="4.74868">
        <ele>199</ele>
        <time>2017-09-27T10:34:40Z</time>
      </trkpt>
      <trkpt lat="45.89345" lon="4.74869">
        <ele>199</ele>
        <time>2017-09-27T10:34:41Z</time>
      </trkpt>
      <trkpt lat="45.89349" lon="4.7487">
        <ele>199</ele>
        <time>2017-09-27T10:34:42Z</time>
      </trkpt>
      <trkpt lat="45.89354" lon="4.7487">
        <ele>199</ele>
        <time>2017-09-27T10:34:43Z</time>
      </trkpt>
      <trkpt lat="45.8936" lon="4.7487">
        <ele>199</ele>
        <time>2017-09-27T10:34:44Z</time>
      </trkpt>
      <trkpt lat="45.89365" lon="4.74871">
        <ele>199</ele>
        <time>2017-09-27T10:34:45Z</time>
      </trkpt>
      <trkpt lat="45.89371" lon="4.74871">
        <ele>199</ele>
        <time>2017-09-27T10:34:46Z</time>
      </trkpt>
      <trkpt lat="45.89377" lon="4.7487">
        <ele>199</ele>
        <time>2017-09-27T10:34:47Z</time>
      </trkpt>
      <trkpt lat="45.89383" lon="4.74871">
        <ele>199</ele>
        <time>2017-09-27T10:34:48Z</time>
      </trkpt>
      <trkpt lat="45.89388" lon="4.74871">
        <ele>199</ele>
        <time>2017-09-27T10:34:49Z</time>
      </trkpt>
      <trkpt lat="45.89392" lon="4.74872">
        <ele>199</ele>
        <time>2017-09-27T10:34:50Z</time>
      </trkpt>
      <trkpt lat="45.89401" lon="4.74873">
        <ele>199</ele>
        <time>2017-09-27T10:34:52Z</time>
      </trkpt>
      <trkpt lat="45.89405" lon="4.74873">
        <ele>199</ele>
        <time>2017-09-27T10:34:53Z</time>
      </trkpt>
      <trkpt lat="45.89408" lon="4.74874">
        <ele>199</ele>
        <time>2017-09-27T10:34:54Z</time>
      </trkpt>
      <trkpt lat="45.89414" lon="4.74876">
        <ele>199</ele>
        <time>2017-09-27T10:34:55Z</time>
      </trkpt>
      <trkpt lat="45.89418" lon="4.74877">
        <ele>199</ele>
        <time>2017-09-27T10:34:56Z</time>
      </trkpt>
      <trkpt lat="45.89423" lon="4.74877">
        <ele>199</ele>
        <time>2017-09-27T10:34:57Z</time>
      </trkpt>
      <trkpt lat="45.89429" lon="4.74878">
        <ele>199</ele>
        <time>2017-09-27T10:34:58Z</time>
      </trkpt>
      <trkpt lat="45.89434" lon="4.74879">
        <ele>199</ele>
        <time>2017-09-27T10:34:59Z</time>
      </trkpt>
      <trkpt lat="45.89438" lon="4.7488">
        <ele>199</ele>
        <time>2017-09-27T10:35:00Z</time>
      </trkpt>
      <trkpt lat="45.89443" lon="4.74881">
        <ele>199</ele>
        <time>2017-09-27T10:35:01Z</time>
      </trkpt>
      <trkpt lat="45.89448" lon="4.74884">
        <ele>199</ele>
        <time>2017-09-27T10:35:02Z</time>
      </trkpt>
      <trkpt lat="45.89453" lon="4.74884">
        <ele>199</ele>
        <time>2017-09-27T10:35:03Z</time>
      </trkpt>
      <trkpt lat="45.89459" lon="4.74884">
        <ele>199</ele>
        <time>2017-09-27T10:35:04Z</time>
      </trkpt>
      <trkpt lat="45.89464" lon="4.74884">
        <ele>199</ele>
        <time>2017-09-27T10:35:05Z</time>
      </trkpt>
      <trkpt lat="45.89469" lon="4.74885">
        <ele>199</ele>
        <time>2017-09-27T10:35:06Z</time>
      </trkpt>
      <trkpt lat="45.89474" lon="4.74886">
        <ele>199</ele>
        <time>2017-09-27T10:35:07Z</time>
      </trkpt>
      <trkpt lat="45.89478" lon="4.74887">
        <ele>199</ele>
        <time>2017-09-27T10:35:08Z</time>
      </trkpt>
      <trkpt lat="45.89484" lon="4.74888">
        <ele>199</ele>
        <time>2017-09-27T10:35:09Z</time>
      </trkpt>
      <trkpt lat="45.89489" lon="4.74889">
        <ele>199</ele>
        <time>2017-09-27T10:35:10Z</time>
      </trkpt>
      <trkpt lat="45.89495" lon="4.7489">
        <ele>199</ele>
        <time>2017-09-27T10:35:11Z</time>
      </trkpt>
      <trkpt lat="45.895" lon="4.74891">
        <ele>198</ele>
        <time>2017-09-27T10:35:12Z</time>
      </trkpt>
      <trkpt lat="45.89506" lon="4.74893">
        <ele>198</ele>
        <time>2017-09-27T10:35:13Z</time>
      </trkpt>
      <trkpt lat="45.89511" lon="4.74894">
        <ele>198</ele>
        <time>2017-09-27T10:35:14Z</time>
      </trkpt>
      <trkpt lat="45.89517" lon="4.74895">
        <ele>198</ele>
        <time>2017-09-27T10:35:15Z</time>
      </trkpt>
      <trkpt lat="45.89522" lon="4.74896">
        <ele>198</ele>
        <time>2017-09-27T10:35:16Z</time>
      </trkpt>
      <trkpt lat="45.89527" lon="4.74898">
        <ele>198</ele>
        <time>2017-09-27T10:35:17Z</time>
      </trkpt>
      <trkpt lat="45.89535" lon="4.74901">
        <ele>198</ele>
        <time>2017-09-27T10:35:19Z</time>
      </trkpt>
      <trkpt lat="45.8954" lon="4.749">
        <ele>198</ele>
        <time>2017-09-27T10:35:20Z</time>
      </trkpt>
      <trkpt lat="45.89545" lon="4.749">
        <ele>198</ele>
        <time>2017-09-27T10:35:21Z</time>
      </trkpt>
      <trkpt lat="45.89549" lon="4.74902">
        <ele>198</ele>
        <time>2017-09-27T10:35:22Z</time>
      </trkpt>
      <trkpt lat="45.89554" lon="4.74902">
        <ele>198</ele>
        <time>2017-09-27T10:35:23Z</time>
      </trkpt>
      <trkpt lat="45.89559" lon="4.74903">
        <ele>198</ele>
        <time>2017-09-27T10:35:24Z</time>
      </trkpt>
      <trkpt lat="45.89565" lon="4.74907">
        <ele>198</ele>
        <time>2017-09-27T10:35:25Z</time>
      </trkpt>
      <trkpt lat="45.89571" lon="4.74908">
        <ele>198</ele>
        <time>2017-09-27T10:35:26Z</time>
      </trkpt>
      <trkpt lat="45.89579" lon="4.74911">
        <ele>198</ele>
        <time>2017-09-27T10:35:28Z</time>
      </trkpt>
      <trkpt lat="45.89585" lon="4.74913">
        <ele>198</ele>
        <time>2017-09-27T10:35:29Z</time>
      </trkpt>
      <trkpt lat="45.89591" lon="4.74913">
        <ele>197</ele>
        <time>2017-09-27T10:35:30Z</time>
      </trkpt>
      <trkpt lat="45.89597" lon="4.74914">
        <ele>197</ele>
        <time>2017-09-27T10:35:31Z</time>
      </trkpt>
      <trkpt lat="45.89603" lon="4.74914">
        <ele>197</ele>
        <time>2017-09-27T10:35:32Z</time>
      </trkpt>
      <trkpt lat="45.89609" lon="4.74914">
        <ele>197</ele>
        <time>2017-09-27T10:35:33Z</time>
      </trkpt>
      <trkpt lat="45.89615" lon="4.74915">
        <ele>197</ele>
        <time>2017-09-27T10:35:34Z</time>
      </trkpt>
      <trkpt lat="45.8962" lon="4.74915">
        <ele>197</ele>
        <time>2017-09-27T10:35:35Z</time>
      </trkpt>
      <trkpt lat="45.89625" lon="4.74915">
        <ele>197</ele>
        <time>2017-09-27T10:35:36Z</time>
      </trkpt>
      <trkpt lat="45.8963" lon="4.74915">
        <ele>196</ele>
        <time>2017-09-27T10:35:37Z</time>
      </trkpt>
      <trkpt lat="45.89635" lon="4.74916">
        <ele>196</ele>
        <time>2017-09-27T10:35:38Z</time>
      </trkpt>
      <trkpt lat="45.8964" lon="4.74915">
        <ele>196</ele>
        <time>2017-09-27T10:35:39Z</time>
      </trkpt>
      <trkpt lat="45.89645" lon="4.74916">
        <ele>196</ele>
        <time>2017-09-27T10:35:40Z</time>
      </trkpt>
      <trkpt lat="45.89651" lon="4.74917">
        <ele>197</ele>
        <time>2017-09-27T10:35:41Z</time>
      </trkpt>
      <trkpt lat="45.89656" lon="4.74917">
        <ele>197</ele>
        <time>2017-09-27T10:35:42Z</time>
      </trkpt>
      <trkpt lat="45.89661" lon="4.74918">
        <ele>196</ele>
        <time>2017-09-27T10:35:43Z</time>
      </trkpt>
      <trkpt lat="45.89667" lon="4.74918">
        <ele>196</ele>
        <time>2017-09-27T10:35:44Z</time>
      </trkpt>
      <trkpt lat="45.89671" lon="4.74918">
        <ele>196</ele>
        <time>2017-09-27T10:35:45Z</time>
      </trkpt>
      <trkpt lat="45.89676" lon="4.74918">
        <ele>196</ele>
        <time>2017-09-27T10:35:46Z</time>
      </trkpt>
      <trkpt lat="45.89681" lon="4.74917">
        <ele>196</ele>
        <time>2017-09-27T10:35:47Z</time>
      </trkpt>
      <trkpt lat="45.89689" lon="4.74916">
        <ele>195</ele>
        <time>2017-09-27T10:35:49Z</time>
      </trkpt>
      <trkpt lat="45.89695" lon="4.74917">
        <ele>195</ele>
        <time>2017-09-27T10:35:50Z</time>
      </trkpt>
      <trkpt lat="45.89702" lon="4.74916">
        <ele>195</ele>
        <time>2017-09-27T10:35:52Z</time>
      </trkpt>
      <trkpt lat="45.89706" lon="4.74916">
        <ele>195</ele>
        <time>2017-09-27T10:35:53Z</time>
      </trkpt>
      <trkpt lat="45.89714" lon="4.74918">
        <ele>196</ele>
        <time>2017-09-27T10:35:55Z</time>
      </trkpt>
      <trkpt lat="45.89718" lon="4.74919">
        <ele>196</ele>
        <time>2017-09-27T10:35:56Z</time>
      </trkpt>
      <trkpt lat="45.89723" lon="4.74921">
        <ele>196</ele>
        <time>2017-09-27T10:35:57Z</time>
      </trkpt>
      <trkpt lat="45.89728" lon="4.74922">
        <ele>196</ele>
        <time>2017-09-27T10:35:58Z</time>
      </trkpt>
      <trkpt lat="45.89734" lon="4.74925">
        <ele>196</ele>
        <time>2017-09-27T10:35:59Z</time>
      </trkpt>
      <trkpt lat="45.89739" lon="4.74928">
        <ele>196</ele>
        <time>2017-09-27T10:36:00Z</time>
      </trkpt>
      <trkpt lat="45.89744" lon="4.7493">
        <ele>196</ele>
        <time>2017-09-27T10:36:01Z</time>
      </trkpt>
      <trkpt lat="45.89749" lon="4.74932">
        <ele>196</ele>
        <time>2017-09-27T10:36:02Z</time>
      </trkpt>
      <trkpt lat="45.89755" lon="4.74935">
        <ele>195</ele>
        <time>2017-09-27T10:36:03Z</time>
      </trkpt>
      <trkpt lat="45.8976" lon="4.74938">
        <ele>195</ele>
        <time>2017-09-27T10:36:04Z</time>
      </trkpt>
      <trkpt lat="45.89765" lon="4.74939">
        <ele>195</ele>
        <time>2017-09-27T10:36:05Z</time>
      </trkpt>
      <trkpt lat="45.89769" lon="4.74942">
        <ele>195</ele>
        <time>2017-09-27T10:36:06Z</time>
      </trkpt>
      <trkpt lat="45.89777" lon="4.74945">
        <ele>195</ele>
        <time>2017-09-27T10:36:08Z</time>
      </trkpt>
      <trkpt lat="45.89782" lon="4.74947">
        <ele>195</ele>
        <time>2017-09-27T10:36:09Z</time>
      </trkpt>
      <trkpt lat="45.89786" lon="4.74948">
        <ele>195</ele>
        <time>2017-09-27T10:36:10Z</time>
      </trkpt>
      <trkpt lat="45.89792" lon="4.7495">
        <ele>195</ele>
        <time>2017-09-27T10:36:11Z</time>
      </trkpt>
      <trkpt lat="45.89797" lon="4.74951">
        <ele>195</ele>
        <time>2017-09-27T10:36:12Z</time>
      </trkpt>
      <trkpt lat="45.89802" lon="4.74953">
        <ele>195</ele>
        <time>2017-09-27T10:36:13Z</time>
      </trkpt>
      <trkpt lat="45.89809" lon="4.74953">
        <ele>195</ele>
        <time>2017-09-27T10:36:14Z</time>
      </trkpt>
      <trkpt lat="45.89815" lon="4.74955">
        <ele>195</ele>
        <time>2017-09-27T10:36:15Z</time>
      </trkpt>
      <trkpt lat="45.8982" lon="4.74957">
        <ele>195</ele>
        <time>2017-09-27T10:36:16Z</time>
      </trkpt>
      <trkpt lat="45.89825" lon="4.74959">
        <ele>194</ele>
        <time>2017-09-27T10:36:17Z</time>
      </trkpt>
      <trkpt lat="45.8983" lon="4.7496">
        <ele>194</ele>
        <time>2017-09-27T10:36:18Z</time>
      </trkpt>
      <trkpt lat="45.89836" lon="4.74962">
        <ele>194</ele>
        <time>2017-09-27T10:36:19Z</time>
      </trkpt>
      <trkpt lat="45.8984" lon="4.74964">
        <ele>194</ele>
        <time>2017-09-27T10:36:20Z</time>
      </trkpt>
      <trkpt lat="45.89845" lon="4.74966">
        <ele>194</ele>
        <time>2017-09-27T10:36:21Z</time>
      </trkpt>
      <trkpt lat="45.89853" lon="4.74968">
        <ele>194</ele>
        <time>2017-09-27T10:36:23Z</time>
      </trkpt>
      <trkpt lat="45.89859" lon="4.7497">
        <ele>194</ele>
        <time>2017-09-27T10:36:24Z</time>
      </trkpt>
      <trkpt lat="45.89865" lon="4.74971">
        <ele>194</ele>
        <time>2017-09-27T10:36:25Z</time>
      </trkpt>
      <trkpt lat="45.8987" lon="4.74972">
        <ele>194</ele>
        <time>2017-09-27T10:36:26Z</time>
      </trkpt>
      <trkpt lat="45.89876" lon="4.74974">
        <ele>194</ele>
        <time>2017-09-27T10:36:27Z</time>
      </trkpt>
      <trkpt lat="45.89881" lon="4.74975">
        <ele>194</ele>
        <time>2017-09-27T10:36:28Z</time>
      </trkpt>
      <trkpt lat="45.89887" lon="4.74977">
        <ele>194</ele>
        <time>2017-09-27T10:36:29Z</time>
      </trkpt>
      <trkpt lat="45.89892" lon="4.74979">
        <ele>194</ele>
        <time>2017-09-27T10:36:30Z</time>
      </trkpt>
      <trkpt lat="45.89897" lon="4.7498">
        <ele>194</ele>
        <time>2017-09-27T10:36:31Z</time>
      </trkpt>
      <trkpt lat="45.89902" lon="4.74981">
        <ele>194</ele>
        <time>2017-09-27T10:36:32Z</time>
      </trkpt>
      <trkpt lat="45.89907" lon="4.74983">
        <ele>194</ele>
        <time>2017-09-27T10:36:33Z</time>
      </trkpt>
      <trkpt lat="45.89911" lon="4.74984">
        <ele>194</ele>
        <time>2017-09-27T10:36:34Z</time>
      </trkpt>
      <trkpt lat="45.89916" lon="4.74985">
        <ele>194</ele>
        <time>2017-09-27T10:36:35Z</time>
      </trkpt>
      <trkpt lat="45.89921" lon="4.74986">
        <ele>193</ele>
        <time>2017-09-27T10:36:36Z</time>
      </trkpt>
      <trkpt lat="45.89926" lon="4.74987">
        <ele>193</ele>
        <time>2017-09-27T10:36:37Z</time>
      </trkpt>
      <trkpt lat="45.89933" lon="4.74988">
        <ele>193</ele>
        <time>2017-09-27T10:36:38Z</time>
      </trkpt>
      <trkpt lat="45.8994" lon="4.74991">
        <ele>193</ele>
        <time>2017-09-27T10:36:39Z</time>
      </trkpt>
      <trkpt lat="45.89946" lon="4.74993">
        <ele>193</ele>
        <time>2017-09-27T10:36:40Z</time>
      </trkpt>
      <trkpt lat="45.89951" lon="4.74994">
        <ele>193</ele>
        <time>2017-09-27T10:36:41Z</time>
      </trkpt>
      <trkpt lat="45.89958" lon="4.74996">
        <ele>193</ele>
        <time>2017-09-27T10:36:42Z</time>
      </trkpt>
      <trkpt lat="45.89964" lon="4.74999">
        <ele>193</ele>
        <time>2017-09-27T10:36:43Z</time>
      </trkpt>
      <trkpt lat="45.8997" lon="4.75">
        <ele>193</ele>
        <time>2017-09-27T10:36:44Z</time>
      </trkpt>
      <trkpt lat="45.89976" lon="4.75001">
        <ele>193</ele>
        <time>2017-09-27T10:36:45Z</time>
      </trkpt>
      <trkpt lat="45.89981" lon="4.75001">
        <ele>193</ele>
        <time>2017-09-27T10:36:46Z</time>
      </trkpt>
      <trkpt lat="45.89986" lon="4.75002">
        <ele>193</ele>
        <time>2017-09-27T10:36:47Z</time>
      </trkpt>
      <trkpt lat="45.89992" lon="4.75004">
        <ele>193</ele>
        <time>2017-09-27T10:36:48Z</time>
      </trkpt>
      <trkpt lat="45.89998" lon="4.75006">
        <ele>192</ele>
        <time>2017-09-27T10:36:49Z</time>
      </trkpt>
      <trkpt lat="45.90003" lon="4.75007">
        <ele>192</ele>
        <time>2017-09-27T10:36:50Z</time>
      </trkpt>
      <trkpt lat="45.90008" lon="4.7501">
        <ele>193</ele>
        <time>2017-09-27T10:36:51Z</time>
      </trkpt>
      <trkpt lat="45.90013" lon="4.75012">
        <ele>193</ele>
        <time>2017-09-27T10:36:52Z</time>
      </trkpt>
      <trkpt lat="45.90017" lon="4.75014">
        <ele>193</ele>
        <time>2017-09-27T10:36:53Z</time>
      </trkpt>
      <trkpt lat="45.90022" lon="4.75016">
        <ele>193</ele>
        <time>2017-09-27T10:36:54Z</time>
      </trkpt>
      <trkpt lat="45.90027" lon="4.75017">
        <ele>193</ele>
        <time>2017-09-27T10:36:55Z</time>
      </trkpt>
      <trkpt lat="45.90033" lon="4.75019">
        <ele>193</ele>
        <time>2017-09-27T10:36:56Z</time>
      </trkpt>
      <trkpt lat="45.90038" lon="4.7502">
        <ele>193</ele>
        <time>2017-09-27T10:36:57Z</time>
      </trkpt>
      <trkpt lat="45.90044" lon="4.75021">
        <ele>193</ele>
        <time>2017-09-27T10:36:58Z</time>
      </trkpt>
      <trkpt lat="45.90049" lon="4.75024">
        <ele>193</ele>
        <time>2017-09-27T10:36:59Z</time>
      </trkpt>
      <trkpt lat="45.90055" lon="4.75025">
        <ele>193</ele>
        <time>2017-09-27T10:37:00Z</time>
      </trkpt>
      <trkpt lat="45.90062" lon="4.75027">
        <ele>193</ele>
        <time>2017-09-27T10:37:01Z</time>
      </trkpt>
      <trkpt lat="45.90068" lon="4.75028">
        <ele>193</ele>
        <time>2017-09-27T10:37:02Z</time>
      </trkpt>
      <trkpt lat="45.90074" lon="4.75031">
        <ele>193</ele>
        <time>2017-09-27T10:37:03Z</time>
      </trkpt>
      <trkpt lat="45.9008" lon="4.75034">
        <ele>193</ele>
        <time>2017-09-27T10:37:04Z</time>
      </trkpt>
      <trkpt lat="45.90086" lon="4.75037">
        <ele>192</ele>
        <time>2017-09-27T10:37:05Z</time>
      </trkpt>
      <trkpt lat="45.90091" lon="4.75039">
        <ele>192</ele>
        <time>2017-09-27T10:37:06Z</time>
      </trkpt>
      <trkpt lat="45.90098" lon="4.75041">
        <ele>192</ele>
        <time>2017-09-27T10:37:07Z</time>
      </trkpt>
      <trkpt lat="45.90104" lon="4.75044">
        <ele>192</ele>
        <time>2017-09-27T10:37:08Z</time>
      </trkpt>
      <trkpt lat="45.9011" lon="4.75046">
        <ele>192</ele>
        <time>2017-09-27T10:37:09Z</time>
      </trkpt>
      <trkpt lat="45.90115" lon="4.7505">
        <ele>192</ele>
        <time>2017-09-27T10:37:10Z</time>
      </trkpt>
      <trkpt lat="45.9012" lon="4.75053">
        <ele>192</ele>
        <time>2017-09-27T10:37:11Z</time>
      </trkpt>
      <trkpt lat="45.90126" lon="4.75056">
        <ele>192</ele>
        <time>2017-09-27T10:37:12Z</time>
      </trkpt>
      <trkpt lat="45.90131" lon="4.7506">
        <ele>192</ele>
        <time>2017-09-27T10:37:13Z</time>
      </trkpt>
      <trkpt lat="45.90136" lon="4.75063">
        <ele>192</ele>
        <time>2017-09-27T10:37:14Z</time>
      </trkpt>
      <trkpt lat="45.90141" lon="4.75067">
        <ele>192</ele>
        <time>2017-09-27T10:37:15Z</time>
      </trkpt>
      <trkpt lat="45.90146" lon="4.75071">
        <ele>192</ele>
        <time>2017-09-27T10:37:16Z</time>
      </trkpt>
      <trkpt lat="45.9015" lon="4.75077">
        <ele>191</ele>
        <time>2017-09-27T10:37:17Z</time>
      </trkpt>
      <trkpt lat="45.90154" lon="4.75082">
        <ele>191</ele>
        <time>2017-09-27T10:37:18Z</time>
      </trkpt>
      <trkpt lat="45.90159" lon="4.75085">
        <ele>192</ele>
        <time>2017-09-27T10:37:19Z</time>
      </trkpt>
      <trkpt lat="45.90164" lon="4.75086">
        <ele>191</ele>
        <time>2017-09-27T10:37:20Z</time>
      </trkpt>
      <trkpt lat="45.9017" lon="4.75084">
        <ele>191</ele>
        <time>2017-09-27T10:37:21Z</time>
      </trkpt>
      <trkpt lat="45.90174" lon="4.7508">
        <ele>191</ele>
        <time>2017-09-27T10:37:22Z</time>
      </trkpt>
      <trkpt lat="45.90178" lon="4.75076">
        <ele>191</ele>
        <time>2017-09-27T10:37:23Z</time>
      </trkpt>
      <trkpt lat="45.90183" lon="4.75071">
        <ele>191</ele>
        <time>2017-09-27T10:37:24Z</time>
      </trkpt>
      <trkpt lat="45.90188" lon="4.75068">
        <ele>191</ele>
        <time>2017-09-27T10:37:25Z</time>
      </trkpt>
      <trkpt lat="45.90193" lon="4.75065">
        <ele>191</ele>
        <time>2017-09-27T10:37:26Z</time>
      </trkpt>
      <trkpt lat="45.90198" lon="4.75062">
        <ele>191</ele>
        <time>2017-09-27T10:37:27Z</time>
      </trkpt>
      <trkpt lat="45.90203" lon="4.75061">
        <ele>191</ele>
        <time>2017-09-27T10:37:28Z</time>
      </trkpt>
      <trkpt lat="45.9021" lon="4.7506">
        <ele>191</ele>
        <time>2017-09-27T10:37:29Z</time>
      </trkpt>
      <trkpt lat="45.90216" lon="4.75058">
        <ele>191</ele>
        <time>2017-09-27T10:37:30Z</time>
      </trkpt>
      <trkpt lat="45.90222" lon="4.75056">
        <ele>191</ele>
        <time>2017-09-27T10:37:31Z</time>
      </trkpt>
      <trkpt lat="45.90229" lon="4.75054">
        <ele>191</ele>
        <time>2017-09-27T10:37:32Z</time>
      </trkpt>
      <trkpt lat="45.90235" lon="4.75053">
        <ele>191</ele>
        <time>2017-09-27T10:37:33Z</time>
      </trkpt>
      <trkpt lat="45.90242" lon="4.75051">
        <ele>191</ele>
        <time>2017-09-27T10:37:34Z</time>
      </trkpt>
      <trkpt lat="45.90248" lon="4.7505">
        <ele>191</ele>
        <time>2017-09-27T10:37:35Z</time>
      </trkpt>
      <trkpt lat="45.90255" lon="4.75048">
        <ele>190</ele>
        <time>2017-09-27T10:37:36Z</time>
      </trkpt>
      <trkpt lat="45.90262" lon="4.75046">
        <ele>190</ele>
        <time>2017-09-27T10:37:37Z</time>
      </trkpt>
      <trkpt lat="45.90269" lon="4.75045">
        <ele>190</ele>
        <time>2017-09-27T10:37:38Z</time>
      </trkpt>
      <trkpt lat="45.90275" lon="4.75042">
        <ele>190</ele>
        <time>2017-09-27T10:37:39Z</time>
      </trkpt>
      <trkpt lat="45.90281" lon="4.75041">
        <ele>190</ele>
        <time>2017-09-27T10:37:40Z</time>
      </trkpt>
      <trkpt lat="45.90287" lon="4.75039">
        <ele>190</ele>
        <time>2017-09-27T10:37:41Z</time>
      </trkpt>
      <trkpt lat="45.90294" lon="4.75037">
        <ele>189</ele>
        <time>2017-09-27T10:37:42Z</time>
      </trkpt>
      <trkpt lat="45.90301" lon="4.75035">
        <ele>189</ele>
        <time>2017-09-27T10:37:43Z</time>
      </trkpt>
      <trkpt lat="45.90307" lon="4.75033">
        <ele>189</ele>
        <time>2017-09-27T10:37:44Z</time>
      </trkpt>
      <trkpt lat="45.90314" lon="4.75032">
        <ele>189</ele>
        <time>2017-09-27T10:37:45Z</time>
      </trkpt>
      <trkpt lat="45.90321" lon="4.7503">
        <ele>189</ele>
        <time>2017-09-27T10:37:46Z</time>
      </trkpt>
      <trkpt lat="45.90328" lon="4.75029">
        <ele>189</ele>
        <time>2017-09-27T10:37:47Z</time>
      </trkpt>
      <trkpt lat="45.90333" lon="4.75027">
        <ele>189</ele>
        <time>2017-09-27T10:37:48Z</time>
      </trkpt>
      <trkpt lat="45.90339" lon="4.75025">
        <ele>188</ele>
        <time>2017-09-27T10:37:49Z</time>
      </trkpt>
      <trkpt lat="45.90346" lon="4.75025">
        <ele>188</ele>
        <time>2017-09-27T10:37:50Z</time>
      </trkpt>
      <trkpt lat="45.90352" lon="4.75023">
        <ele>188</ele>
        <time>2017-09-27T10:37:51Z</time>
      </trkpt>
      <trkpt lat="45.90358" lon="4.75021">
        <ele>188</ele>
        <time>2017-09-27T10:37:52Z</time>
      </trkpt>
      <trkpt lat="45.90364" lon="4.75019">
        <ele>188</ele>
        <time>2017-09-27T10:37:53Z</time>
      </trkpt>
      <trkpt lat="45.9037" lon="4.75018">
        <ele>188</ele>
        <time>2017-09-27T10:37:54Z</time>
      </trkpt>
      <trkpt lat="45.90376" lon="4.75016">
        <ele>188</ele>
        <time>2017-09-27T10:37:55Z</time>
      </trkpt>
      <trkpt lat="45.90382" lon="4.75014">
        <ele>188</ele>
        <time>2017-09-27T10:37:56Z</time>
      </trkpt>
      <trkpt lat="45.90388" lon="4.75013">
        <ele>188</ele>
        <time>2017-09-27T10:37:57Z</time>
      </trkpt>
      <trkpt lat="45.90393" lon="4.75012">
        <ele>188</ele>
        <time>2017-09-27T10:37:58Z</time>
      </trkpt>
      <trkpt lat="45.90399" lon="4.7501">
        <ele>188</ele>
        <time>2017-09-27T10:37:59Z</time>
      </trkpt>
      <trkpt lat="45.90405" lon="4.75008">
        <ele>188</ele>
        <time>2017-09-27T10:38:00Z</time>
      </trkpt>
      <trkpt lat="45.90411" lon="4.75006">
        <ele>188</ele>
        <time>2017-09-27T10:38:01Z</time>
      </trkpt>
      <trkpt lat="45.90415" lon="4.75004">
        <ele>188</ele>
        <time>2017-09-27T10:38:02Z</time>
      </trkpt>
      <trkpt lat="45.90421" lon="4.75002">
        <ele>188</ele>
        <time>2017-09-27T10:38:03Z</time>
      </trkpt>
      <trkpt lat="45.90427" lon="4.74999">
        <ele>187</ele>
        <time>2017-09-27T10:38:04Z</time>
      </trkpt>
      <trkpt lat="45.90432" lon="4.74997">
        <ele>187</ele>
        <time>2017-09-27T10:38:05Z</time>
      </trkpt>
      <trkpt lat="45.90437" lon="4.74995">
        <ele>187</ele>
        <time>2017-09-27T10:38:06Z</time>
      </trkpt>
      <trkpt lat="45.90442" lon="4.74994">
        <ele>186</ele>
        <time>2017-09-27T10:38:07Z</time>
      </trkpt>
      <trkpt lat="45.90447" lon="4.74993">
        <ele>186</ele>
        <time>2017-09-27T10:38:08Z</time>
      </trkpt>
      <trkpt lat="45.90454" lon="4.74995">
        <ele>186</ele>
        <time>2017-09-27T10:38:09Z</time>
      </trkpt>
      <trkpt lat="45.90461" lon="4.74995">
        <ele>186</ele>
        <time>2017-09-27T10:38:10Z</time>
      </trkpt>
      <trkpt lat="45.90467" lon="4.74993">
        <ele>186</ele>
        <time>2017-09-27T10:38:11Z</time>
      </trkpt>
      <trkpt lat="45.90474" lon="4.74993">
        <ele>186</ele>
        <time>2017-09-27T10:38:12Z</time>
      </trkpt>
      <trkpt lat="45.90481" lon="4.74992">
        <ele>186</ele>
        <time>2017-09-27T10:38:13Z</time>
      </trkpt>
      <trkpt lat="45.90489" lon="4.7499">
        <ele>186</ele>
        <time>2017-09-27T10:38:14Z</time>
      </trkpt>
      <trkpt lat="45.90495" lon="4.7499">
        <ele>186</ele>
        <time>2017-09-27T10:38:15Z</time>
      </trkpt>
      <trkpt lat="45.90502" lon="4.74988">
        <ele>185</ele>
        <time>2017-09-27T10:38:16Z</time>
      </trkpt>
      <trkpt lat="45.90508" lon="4.74987">
        <ele>185</ele>
        <time>2017-09-27T10:38:17Z</time>
      </trkpt>
      <trkpt lat="45.90515" lon="4.74986">
        <ele>185</ele>
        <time>2017-09-27T10:38:18Z</time>
      </trkpt>
      <trkpt lat="45.90522" lon="4.74986">
        <ele>185</ele>
        <time>2017-09-27T10:38:19Z</time>
      </trkpt>
      <trkpt lat="45.90528" lon="4.74985">
        <ele>185</ele>
        <time>2017-09-27T10:38:20Z</time>
      </trkpt>
      <trkpt lat="45.90535" lon="4.74983">
        <ele>185</ele>
        <time>2017-09-27T10:38:21Z</time>
      </trkpt>
      <trkpt lat="45.90541" lon="4.74982">
        <ele>185</ele>
        <time>2017-09-27T10:38:22Z</time>
      </trkpt>
      <trkpt lat="45.90547" lon="4.74981">
        <ele>185</ele>
        <time>2017-09-27T10:38:23Z</time>
      </trkpt>
      <trkpt lat="45.90554" lon="4.7498">
        <ele>185</ele>
        <time>2017-09-27T10:38:24Z</time>
      </trkpt>
      <trkpt lat="45.9056" lon="4.7498">
        <ele>185</ele>
        <time>2017-09-27T10:38:25Z</time>
      </trkpt>
      <trkpt lat="45.90565" lon="4.74979">
        <ele>185</ele>
        <time>2017-09-27T10:38:26Z</time>
      </trkpt>
      <trkpt lat="45.90571" lon="4.74978">
        <ele>184</ele>
        <time>2017-09-27T10:38:27Z</time>
      </trkpt>
      <trkpt lat="45.90577" lon="4.74979">
        <ele>185</ele>
        <time>2017-09-27T10:38:28Z</time>
      </trkpt>
      <trkpt lat="45.90583" lon="4.7498">
        <ele>185</ele>
        <time>2017-09-27T10:38:29Z</time>
      </trkpt>
      <trkpt lat="45.9059" lon="4.74978">
        <ele>184</ele>
        <time>2017-09-27T10:38:30Z</time>
      </trkpt>
      <trkpt lat="45.90596" lon="4.74976">
        <ele>184</ele>
        <time>2017-09-27T10:38:31Z</time>
      </trkpt>
      <trkpt lat="45.90603" lon="4.74975">
        <ele>184</ele>
        <time>2017-09-27T10:38:32Z</time>
      </trkpt>
      <trkpt lat="45.9061" lon="4.74975">
        <ele>184</ele>
        <time>2017-09-27T10:38:33Z</time>
      </trkpt>
      <trkpt lat="45.90618" lon="4.74975">
        <ele>184</ele>
        <time>2017-09-27T10:38:34Z</time>
      </trkpt>
      <trkpt lat="45.90626" lon="4.74974">
        <ele>183</ele>
        <time>2017-09-27T10:38:35Z</time>
      </trkpt>
      <trkpt lat="45.90632" lon="4.74971">
        <ele>183</ele>
        <time>2017-09-27T10:38:36Z</time>
      </trkpt>
      <trkpt lat="45.9064" lon="4.74969">
        <ele>183</ele>
        <time>2017-09-27T10:38:37Z</time>
      </trkpt>
      <trkpt lat="45.90646" lon="4.74965">
        <ele>183</ele>
        <time>2017-09-27T10:38:38Z</time>
      </trkpt>
      <trkpt lat="45.90654" lon="4.74961">
        <ele>183</ele>
        <time>2017-09-27T10:38:39Z</time>
      </trkpt>
      <trkpt lat="45.9066" lon="4.74958">
        <ele>183</ele>
        <time>2017-09-27T10:38:40Z</time>
      </trkpt>
      <trkpt lat="45.90669" lon="4.74955">
        <ele>182</ele>
        <time>2017-09-27T10:38:41Z</time>
      </trkpt>
      <trkpt lat="45.90676" lon="4.74954">
        <ele>182</ele>
        <time>2017-09-27T10:38:42Z</time>
      </trkpt>
      <trkpt lat="45.90683" lon="4.7495">
        <ele>181</ele>
        <time>2017-09-27T10:38:43Z</time>
      </trkpt>
      <trkpt lat="45.90689" lon="4.74947">
        <ele>181</ele>
        <time>2017-09-27T10:38:44Z</time>
      </trkpt>
      <trkpt lat="45.90695" lon="4.74943">
        <ele>181</ele>
        <time>2017-09-27T10:38:45Z</time>
      </trkpt>
      <trkpt lat="45.90702" lon="4.7494">
        <ele>181</ele>
        <time>2017-09-27T10:38:46Z</time>
      </trkpt>
      <trkpt lat="45.90709" lon="4.74937">
        <ele>181</ele>
        <time>2017-09-27T10:38:47Z</time>
      </trkpt>
      <trkpt lat="45.90716" lon="4.74935">
        <ele>181</ele>
        <time>2017-09-27T10:38:48Z</time>
      </trkpt>
      <trkpt lat="45.90721" lon="4.74936">
        <ele>181</ele>
        <time>2017-09-27T10:38:49Z</time>
      </trkpt>
      <trkpt lat="45.90728" lon="4.74938">
        <ele>181</ele>
        <time>2017-09-27T10:38:50Z</time>
      </trkpt>
      <trkpt lat="45.90733" lon="4.74942">
        <ele>181</ele>
        <time>2017-09-27T10:38:51Z</time>
      </trkpt>
      <trkpt lat="45.90738" lon="4.74945">
        <ele>181</ele>
        <time>2017-09-27T10:38:52Z</time>
      </trkpt>
      <trkpt lat="45.90745" lon="4.74947">
        <ele>181</ele>
        <time>2017-09-27T10:38:53Z</time>
      </trkpt>
      <trkpt lat="45.90751" lon="4.74949">
        <ele>180</ele>
        <time>2017-09-27T10:38:54Z</time>
      </trkpt>
      <trkpt lat="45.90756" lon="4.74952">
        <ele>180</ele>
        <time>2017-09-27T10:38:55Z</time>
      </trkpt>
      <trkpt lat="45.90762" lon="4.74954">
        <ele>180</ele>
        <time>2017-09-27T10:38:56Z</time>
      </trkpt>
      <trkpt lat="45.90767" lon="4.74956">
        <ele>180</ele>
        <time>2017-09-27T10:38:57Z</time>
      </trkpt>
      <trkpt lat="45.90773" lon="4.74958">
        <ele>180</ele>
        <time>2017-09-27T10:38:58Z</time>
      </trkpt>
      <trkpt lat="45.90779" lon="4.7496">
        <ele>180</ele>
        <time>2017-09-27T10:38:59Z</time>
      </trkpt>
      <trkpt lat="45.90784" lon="4.74961">
        <ele>180</ele>
        <time>2017-09-27T10:39:00Z</time>
      </trkpt>
      <trkpt lat="45.9079" lon="4.74963">
        <ele>180</ele>
        <time>2017-09-27T10:39:01Z</time>
      </trkpt>
      <trkpt lat="45.90795" lon="4.74965">
        <ele>179</ele>
        <time>2017-09-27T10:39:02Z</time>
      </trkpt>
      <trkpt lat="45.90802" lon="4.74967">
        <ele>179</ele>
        <time>2017-09-27T10:39:03Z</time>
      </trkpt>
      <trkpt lat="45.90808" lon="4.7497">
        <ele>179</ele>
        <time>2017-09-27T10:39:04Z</time>
      </trkpt>
      <trkpt lat="45.90814" lon="4.74972">
        <ele>179</ele>
        <time>2017-09-27T10:39:05Z</time>
      </trkpt>
      <trkpt lat="45.90821" lon="4.74974">
        <ele>179</ele>
        <time>2017-09-27T10:39:06Z</time>
      </trkpt>
      <trkpt lat="45.90827" lon="4.74976">
        <ele>179</ele>
        <time>2017-09-27T10:39:07Z</time>
      </trkpt>
      <trkpt lat="45.90833" lon="4.74978">
        <ele>179</ele>
        <time>2017-09-27T10:39:08Z</time>
      </trkpt>
      <trkpt lat="45.90839" lon="4.7498">
        <ele>179</ele>
        <time>2017-09-27T10:39:09Z</time>
      </trkpt>
      <trkpt lat="45.90844" lon="4.74984">
        <ele>179</ele>
        <time>2017-09-27T10:39:10Z</time>
      </trkpt>
      <trkpt lat="45.9085" lon="4.74986">
        <ele>179</ele>
        <time>2017-09-27T10:39:11Z</time>
      </trkpt>
      <trkpt lat="45.90855" lon="4.74988">
        <ele>179</ele>
        <time>2017-09-27T10:39:12Z</time>
      </trkpt>
      <trkpt lat="45.90861" lon="4.7499">
        <ele>179</ele>
        <time>2017-09-27T10:39:13Z</time>
      </trkpt>
      <trkpt lat="45.90866" lon="4.74992">
        <ele>179</ele>
        <time>2017-09-27T10:39:14Z</time>
      </trkpt>
      <trkpt lat="45.90871" lon="4.74994">
        <ele>179</ele>
        <time>2017-09-27T10:39:15Z</time>
      </trkpt>
      <trkpt lat="45.90876" lon="4.74995">
        <ele>178</ele>
        <time>2017-09-27T10:39:16Z</time>
      </trkpt>
      <trkpt lat="45.90881" lon="4.74997">
        <ele>178</ele>
        <time>2017-09-27T10:39:17Z</time>
      </trkpt>
      <trkpt lat="45.90887" lon="4.75">
        <ele>178</ele>
        <time>2017-09-27T10:39:18Z</time>
      </trkpt>
      <trkpt lat="45.90892" lon="4.75003">
        <ele>179</ele>
        <time>2017-09-27T10:39:19Z</time>
      </trkpt>
      <trkpt lat="45.90898" lon="4.75006">
        <ele>179</ele>
        <time>2017-09-27T10:39:20Z</time>
      </trkpt>
      <trkpt lat="45.90903" lon="4.75009">
        <ele>179</ele>
        <time>2017-09-27T10:39:21Z</time>
      </trkpt>
      <trkpt lat="45.9091" lon="4.75011">
        <ele>179</ele>
        <time>2017-09-27T10:39:22Z</time>
      </trkpt>
      <trkpt lat="45.90915" lon="4.75014">
        <ele>179</ele>
        <time>2017-09-27T10:39:23Z</time>
      </trkpt>
      <trkpt lat="45.90921" lon="4.75015">
        <ele>178</ele>
        <time>2017-09-27T10:39:24Z</time>
      </trkpt>
      <trkpt lat="45.90926" lon="4.75018">
        <ele>178</ele>
        <time>2017-09-27T10:39:25Z</time>
      </trkpt>
      <trkpt lat="45.90931" lon="4.7502">
        <ele>179</ele>
        <time>2017-09-27T10:39:26Z</time>
      </trkpt>
      <trkpt lat="45.90936" lon="4.75023">
        <ele>179</ele>
        <time>2017-09-27T10:39:27Z</time>
      </trkpt>
      <trkpt lat="45.90942" lon="4.75026">
        <ele>179</ele>
        <time>2017-09-27T10:39:28Z</time>
      </trkpt>
      <trkpt lat="45.90948" lon="4.75029">
        <ele>179</ele>
        <time>2017-09-27T10:39:29Z</time>
      </trkpt>
      <trkpt lat="45.90953" lon="4.75032">
        <ele>179</ele>
        <time>2017-09-27T10:39:30Z</time>
      </trkpt>
      <trkpt lat="45.90958" lon="4.75033">
        <ele>179</ele>
        <time>2017-09-27T10:39:31Z</time>
      </trkpt>
      <trkpt lat="45.90963" lon="4.75034">
        <ele>179</ele>
        <time>2017-09-27T10:39:32Z</time>
      </trkpt>
      <trkpt lat="45.90968" lon="4.75036">
        <ele>179</ele>
        <time>2017-09-27T10:39:33Z</time>
      </trkpt>
      <trkpt lat="45.90973" lon="4.75038">
        <ele>179</ele>
        <time>2017-09-27T10:39:34Z</time>
      </trkpt>
      <trkpt lat="45.90981" lon="4.75042">
        <ele>179</ele>
        <time>2017-09-27T10:39:36Z</time>
      </trkpt>
      <trkpt lat="45.90984" lon="4.75044">
        <ele>179</ele>
        <time>2017-09-27T10:39:37Z</time>
      </trkpt>
      <trkpt lat="45.90993" lon="4.75046">
        <ele>179</ele>
        <time>2017-09-27T10:39:39Z</time>
      </trkpt>
      <trkpt lat="45.90999" lon="4.75049">
        <ele>179</ele>
        <time>2017-09-27T10:39:40Z</time>
      </trkpt>
      <trkpt lat="45.91004" lon="4.75052">
        <ele>178</ele>
        <time>2017-09-27T10:39:41Z</time>
      </trkpt>
      <trkpt lat="45.9101" lon="4.75055">
        <ele>179</ele>
        <time>2017-09-27T10:39:42Z</time>
      </trkpt>
      <trkpt lat="45.91015" lon="4.75057">
        <ele>179</ele>
        <time>2017-09-27T10:39:43Z</time>
      </trkpt>
      <trkpt lat="45.91021" lon="4.75058">
        <ele>179</ele>
        <time>2017-09-27T10:39:44Z</time>
      </trkpt>
      <trkpt lat="45.91027" lon="4.75059">
        <ele>179</ele>
        <time>2017-09-27T10:39:45Z</time>
      </trkpt>
      <trkpt lat="45.91032" lon="4.7506">
        <ele>179</ele>
        <time>2017-09-27T10:39:46Z</time>
      </trkpt>
      <trkpt lat="45.91036" lon="4.75062">
        <ele>179</ele>
        <time>2017-09-27T10:39:47Z</time>
      </trkpt>
      <trkpt lat="45.91041" lon="4.75064">
        <ele>179</ele>
        <time>2017-09-27T10:39:48Z</time>
      </trkpt>
      <trkpt lat="45.91047" lon="4.75066">
        <ele>179</ele>
        <time>2017-09-27T10:39:49Z</time>
      </trkpt>
      <trkpt lat="45.91052" lon="4.75069">
        <ele>179</ele>
        <time>2017-09-27T10:39:50Z</time>
      </trkpt>
      <trkpt lat="45.91057" lon="4.7507">
        <ele>179</ele>
        <time>2017-09-27T10:39:51Z</time>
      </trkpt>
      <trkpt lat="45.91062" lon="4.75073">
        <ele>179</ele>
        <time>2017-09-27T10:39:52Z</time>
      </trkpt>
      <trkpt lat="45.9107" lon="4.75075">
        <ele>179</ele>
        <time>2017-09-27T10:39:54Z</time>
      </trkpt>
      <trkpt lat="45.91075" lon="4.75077">
        <ele>179</ele>
        <time>2017-09-27T10:39:55Z</time>
      </trkpt>
      <trkpt lat="45.91079" lon="4.75079">
        <ele>180</ele>
        <time>2017-09-27T10:39:56Z</time>
      </trkpt>
      <trkpt lat="45.91085" lon="4.7508">
        <ele>180</ele>
        <time>2017-09-27T10:39:57Z</time>
      </trkpt>
      <trkpt lat="45.91091" lon="4.75082">
        <ele>180</ele>
        <time>2017-09-27T10:39:58Z</time>
      </trkpt>
      <trkpt lat="45.91096" lon="4.75084">
        <ele>180</ele>
        <time>2017-09-27T10:39:59Z</time>
      </trkpt>
      <trkpt lat="45.91101" lon="4.75086">
        <ele>180</ele>
        <time>2017-09-27T10:40:00Z</time>
      </trkpt>
      <trkpt lat="45.91105" lon="4.75088">
        <ele>180</ele>
        <time>2017-09-27T10:40:01Z</time>
      </trkpt>
      <trkpt lat="45.9111" lon="4.7509">
        <ele>179</ele>
        <time>2017-09-27T10:40:02Z</time>
      </trkpt>
      <trkpt lat="45.91115" lon="4.75092">
        <ele>179</ele>
        <time>2017-09-27T10:40:03Z</time>
      </trkpt>
      <trkpt lat="45.91119" lon="4.75094">
        <ele>179</ele>
        <time>2017-09-27T10:40:04Z</time>
      </trkpt>
      <trkpt lat="45.91124" lon="4.75096">
        <ele>179</ele>
        <time>2017-09-27T10:40:05Z</time>
      </trkpt>
      <trkpt lat="45.91132" lon="4.75099">
        <ele>179</ele>
        <time>2017-09-27T10:40:07Z</time>
      </trkpt>
      <trkpt lat="45.91137" lon="4.75101">
        <ele>179</ele>
        <time>2017-09-27T10:40:08Z</time>
      </trkpt>
      <trkpt lat="45.91142" lon="4.75103">
        <ele>179</ele>
        <time>2017-09-27T10:40:09Z</time>
      </trkpt>
      <trkpt lat="45.91146" lon="4.75104">
        <ele>179</ele>
        <time>2017-09-27T10:40:10Z</time>
      </trkpt>
      <trkpt lat="45.91155" lon="4.75107">
        <ele>179</ele>
        <time>2017-09-27T10:40:12Z</time>
      </trkpt>
      <trkpt lat="45.9116" lon="4.75108">
        <ele>179</ele>
        <time>2017-09-27T10:40:13Z</time>
      </trkpt>
      <trkpt lat="45.91166" lon="4.7511">
        <ele>179</ele>
        <time>2017-09-27T10:40:14Z</time>
      </trkpt>
      <trkpt lat="45.91172" lon="4.75112">
        <ele>178</ele>
        <time>2017-09-27T10:40:15Z</time>
      </trkpt>
      <trkpt lat="45.91178" lon="4.75114">
        <ele>178</ele>
        <time>2017-09-27T10:40:16Z</time>
      </trkpt>
      <trkpt lat="45.91184" lon="4.75116">
        <ele>178</ele>
        <time>2017-09-27T10:40:17Z</time>
      </trkpt>
      <trkpt lat="45.9119" lon="4.75117">
        <ele>178</ele>
        <time>2017-09-27T10:40:18Z</time>
      </trkpt>
      <trkpt lat="45.91196" lon="4.75118">
        <ele>178</ele>
        <time>2017-09-27T10:40:19Z</time>
      </trkpt>
      <trkpt lat="45.91201" lon="4.75119">
        <ele>178</ele>
        <time>2017-09-27T10:40:20Z</time>
      </trkpt>
      <trkpt lat="45.91207" lon="4.7512">
        <ele>178</ele>
        <time>2017-09-27T10:40:21Z</time>
      </trkpt>
      <trkpt lat="45.91211" lon="4.7512">
        <ele>177</ele>
        <time>2017-09-27T10:40:22Z</time>
      </trkpt>
      <trkpt lat="45.91216" lon="4.75122">
        <ele>177</ele>
        <time>2017-09-27T10:40:23Z</time>
      </trkpt>
      <trkpt lat="45.91222" lon="4.75124">
        <ele>177</ele>
        <time>2017-09-27T10:40:24Z</time>
      </trkpt>
      <trkpt lat="45.91227" lon="4.75126">
        <ele>177</ele>
        <time>2017-09-27T10:40:25Z</time>
      </trkpt>
      <trkpt lat="45.91231" lon="4.75128">
        <ele>177</ele>
        <time>2017-09-27T10:40:26Z</time>
      </trkpt>
      <trkpt lat="45.91237" lon="4.7513">
        <ele>177</ele>
        <time>2017-09-27T10:40:27Z</time>
      </trkpt>
      <trkpt lat="45.91241" lon="4.75132">
        <ele>177</ele>
        <time>2017-09-27T10:40:28Z</time>
      </trkpt>
      <trkpt lat="45.91246" lon="4.75135">
        <ele>177</ele>
        <time>2017-09-27T10:40:29Z</time>
      </trkpt>
      <trkpt lat="45.91251" lon="4.75137">
        <ele>177</ele>
        <time>2017-09-27T10:40:30Z</time>
      </trkpt>
      <trkpt lat="45.91254" lon="4.75139">
        <ele>177</ele>
        <time>2017-09-27T10:40:31Z</time>
      </trkpt>
      <trkpt lat="45.91261" lon="4.75143">
        <ele>177</ele>
        <time>2017-09-27T10:40:33Z</time>
      </trkpt>
      <trkpt lat="45.91266" lon="4.75145">
        <ele>177</ele>
        <time>2017-09-27T10:40:34Z</time>
      </trkpt>
      <trkpt lat="45.91274" lon="4.75148">
        <ele>177</ele>
        <time>2017-09-27T10:40:36Z</time>
      </trkpt>
      <trkpt lat="45.91277" lon="4.7515">
        <ele>177</ele>
        <time>2017-09-27T10:40:37Z</time>
      </trkpt>
      <trkpt lat="45.91285" lon="4.75154">
        <ele>177</ele>
        <time>2017-09-27T10:40:39Z</time>
      </trkpt>
      <trkpt lat="45.9129" lon="4.75156">
        <ele>177</ele>
        <time>2017-09-27T10:40:40Z</time>
      </trkpt>
      <trkpt lat="45.91296" lon="4.75161">
        <ele>177</ele>
        <time>2017-09-27T10:40:42Z</time>
      </trkpt>
      <trkpt lat="45.91299" lon="4.75162">
        <ele>177</ele>
        <time>2017-09-27T10:40:43Z</time>
      </trkpt>
      <trkpt lat="45.91306" lon="4.75167">
        <ele>177</ele>
        <time>2017-09-27T10:40:49Z</time>
      </trkpt>
      <trkpt lat="45.91307" lon="4.75169">
        <ele>176</ele>
        <time>2017-09-27T10:40:50Z</time>
      </trkpt>
      <trkpt lat="45.9131" lon="4.75158">
        <ele>177</ele>
        <time>2017-09-27T10:40:54Z</time>
      </trkpt>
      <trkpt lat="45.91308" lon="4.75152">
        <ele>177</ele>
        <time>2017-09-27T10:40:55Z</time>
      </trkpt>
      <trkpt lat="45.91304" lon="4.75143">
        <ele>177</ele>
        <time>2017-09-27T10:40:56Z</time>
      </trkpt>
      <trkpt lat="45.91304" lon="4.75135">
        <ele>177</ele>
        <time>2017-09-27T10:40:57Z</time>
      </trkpt>
      <trkpt lat="45.91304" lon="4.75128">
        <ele>177</ele>
        <time>2017-09-27T10:40:58Z</time>
      </trkpt>
      <trkpt lat="45.91303" lon="4.75119">
        <ele>177</ele>
        <time>2017-09-27T10:40:59Z</time>
      </trkpt>
      <trkpt lat="45.91301" lon="4.75112">
        <ele>177</ele>
        <time>2017-09-27T10:41:00Z</time>
      </trkpt>
      <trkpt lat="45.913" lon="4.75104">
        <ele>177</ele>
        <time>2017-09-27T10:41:01Z</time>
      </trkpt>
      <trkpt lat="45.913" lon="4.75096">
        <ele>177</ele>
        <time>2017-09-27T10:41:02Z</time>
      </trkpt>
      <trkpt lat="45.91299" lon="4.75088">
        <ele>177</ele>
        <time>2017-09-27T10:41:03Z</time>
      </trkpt>
      <trkpt lat="45.91299" lon="4.75081">
        <ele>177</ele>
        <time>2017-09-27T10:41:04Z</time>
      </trkpt>
      <trkpt lat="45.91298" lon="4.75073">
        <ele>177</ele>
        <time>2017-09-27T10:41:05Z</time>
      </trkpt>
      <trkpt lat="45.91298" lon="4.75066">
        <ele>177</ele>
        <time>2017-09-27T10:41:06Z</time>
      </trkpt>
      <trkpt lat="45.91298" lon="4.75059">
        <ele>177</ele>
        <time>2017-09-27T10:41:07Z</time>
      </trkpt>
      <trkpt lat="45.91298" lon="4.75051">
        <ele>177</ele>
        <time>2017-09-27T10:41:08Z</time>
      </trkpt>
      <trkpt lat="45.91298" lon="4.75043">
        <ele>177</ele>
        <time>2017-09-27T10:41:09Z</time>
      </trkpt>
      <trkpt lat="45.91298" lon="4.75036">
        <ele>177</ele>
        <time>2017-09-27T10:41:10Z</time>
      </trkpt>
      <trkpt lat="45.91297" lon="4.75028">
        <ele>177</ele>
        <time>2017-09-27T10:41:11Z</time>
      </trkpt>
      <trkpt lat="45.91297" lon="4.75021">
        <ele>177</ele>
        <time>2017-09-27T10:41:12Z</time>
      </trkpt>
      <trkpt lat="45.91298" lon="4.75015">
        <ele>177</ele>
        <time>2017-09-27T10:41:13Z</time>
      </trkpt>
      <trkpt lat="45.91299" lon="4.75008">
        <ele>177</ele>
        <time>2017-09-27T10:41:14Z</time>
      </trkpt>
      <trkpt lat="45.91299" lon="4.75001">
        <ele>177</ele>
        <time>2017-09-27T10:41:15Z</time>
      </trkpt>
      <trkpt lat="45.91301" lon="4.74994">
        <ele>177</ele>
        <time>2017-09-27T10:41:16Z</time>
      </trkpt>
      <trkpt lat="45.91302" lon="4.74984">
        <ele>177</ele>
        <time>2017-09-27T10:41:17Z</time>
      </trkpt>
      <trkpt lat="45.91303" lon="4.74976">
        <ele>177</ele>
        <time>2017-09-27T10:41:18Z</time>
      </trkpt>
      <trkpt lat="45.91304" lon="4.74971">
        <ele>177</ele>
        <time>2017-09-27T10:41:19Z</time>
      </trkpt>
      <trkpt lat="45.91306" lon="4.74961">
        <ele>177</ele>
        <time>2017-09-27T10:41:21Z</time>
      </trkpt>
      <trkpt lat="45.91307" lon="4.74956">
        <ele>177</ele>
        <time>2017-09-27T10:41:22Z</time>
      </trkpt>
      <trkpt lat="45.91307" lon="4.74949">
        <ele>177</ele>
        <time>2017-09-27T10:41:23Z</time>
      </trkpt>
      <trkpt lat="45.91309" lon="4.7494">
        <ele>177</ele>
        <time>2017-09-27T10:41:24Z</time>
      </trkpt>
      <trkpt lat="45.9131" lon="4.74927">
        <ele>177</ele>
        <time>2017-09-27T10:41:26Z</time>
      </trkpt>
      <trkpt lat="45.91311" lon="4.7492">
        <ele>177</ele>
        <time>2017-09-27T10:41:27Z</time>
      </trkpt>
      <trkpt lat="45.91312" lon="4.74912">
        <ele>176</ele>
        <time>2017-09-27T10:41:28Z</time>
      </trkpt>
      <trkpt lat="45.91312" lon="4.74902">
        <ele>176</ele>
        <time>2017-09-27T10:41:29Z</time>
      </trkpt>
      <trkpt lat="45.91313" lon="4.74893">
        <ele>176</ele>
        <time>2017-09-27T10:41:30Z</time>
      </trkpt>
      <trkpt lat="45.91313" lon="4.74885">
        <ele>176</ele>
        <time>2017-09-27T10:41:31Z</time>
      </trkpt>
      <trkpt lat="45.91314" lon="4.74877">
        <ele>176</ele>
        <time>2017-09-27T10:41:32Z</time>
      </trkpt>
      <trkpt lat="45.91315" lon="4.74868">
        <ele>176</ele>
        <time>2017-09-27T10:41:33Z</time>
      </trkpt>
      <trkpt lat="45.91315" lon="4.7486">
        <ele>176</ele>
        <time>2017-09-27T10:41:34Z</time>
      </trkpt>
      <trkpt lat="45.91314" lon="4.74851">
        <ele>176</ele>
        <time>2017-09-27T10:41:35Z</time>
      </trkpt>
      <trkpt lat="45.91314" lon="4.74842">
        <ele>176</ele>
        <time>2017-09-27T10:41:36Z</time>
      </trkpt>
      <trkpt lat="45.91314" lon="4.74834">
        <ele>176</ele>
        <time>2017-09-27T10:41:37Z</time>
      </trkpt>
      <trkpt lat="45.91315" lon="4.74825">
        <ele>175</ele>
        <time>2017-09-27T10:41:38Z</time>
      </trkpt>
      <trkpt lat="45.91316" lon="4.74815">
        <ele>175</ele>
        <time>2017-09-27T10:41:39Z</time>
      </trkpt>
      <trkpt lat="45.91316" lon="4.74808">
        <ele>175</ele>
        <time>2017-09-27T10:41:40Z</time>
      </trkpt>
      <trkpt lat="45.91315" lon="4.74799">
        <ele>174</ele>
        <time>2017-09-27T10:41:41Z</time>
      </trkpt>
      <trkpt lat="45.91314" lon="4.74791">
        <ele>174</ele>
        <time>2017-09-27T10:41:42Z</time>
      </trkpt>
      <trkpt lat="45.91315" lon="4.74783">
        <ele>174</ele>
        <time>2017-09-27T10:41:43Z</time>
      </trkpt>
      <trkpt lat="45.91316" lon="4.74775">
        <ele>174</ele>
        <time>2017-09-27T10:41:44Z</time>
      </trkpt>
      <trkpt lat="45.91318" lon="4.74767">
        <ele>174</ele>
        <time>2017-09-27T10:41:45Z</time>
      </trkpt>
      <trkpt lat="45.9132" lon="4.74759">
        <ele>174</ele>
        <time>2017-09-27T10:41:46Z</time>
      </trkpt>
      <trkpt lat="45.91321" lon="4.74751">
        <ele>174</ele>
        <time>2017-09-27T10:41:47Z</time>
      </trkpt>
      <trkpt lat="45.91322" lon="4.74744">
        <ele>173</ele>
        <time>2017-09-27T10:41:48Z</time>
      </trkpt>
      <trkpt lat="45.91325" lon="4.74737">
        <ele>173</ele>
        <time>2017-09-27T10:41:49Z</time>
      </trkpt>
      <trkpt lat="45.91326" lon="4.7473">
        <ele>173</ele>
        <time>2017-09-27T10:41:50Z</time>
      </trkpt>
      <trkpt lat="45.91327" lon="4.74722">
        <ele>173</ele>
        <time>2017-09-27T10:41:51Z</time>
      </trkpt>
      <trkpt lat="45.91326" lon="4.74716">
        <ele>173</ele>
        <time>2017-09-27T10:41:52Z</time>
      </trkpt>
      <trkpt lat="45.91327" lon="4.74708">
        <ele>173</ele>
        <time>2017-09-27T10:41:53Z</time>
      </trkpt>
      <trkpt lat="45.91327" lon="4.747">
        <ele>173</ele>
        <time>2017-09-27T10:41:54Z</time>
      </trkpt>
      <trkpt lat="45.91326" lon="4.74694">
        <ele>173</ele>
        <time>2017-09-27T10:41:55Z</time>
      </trkpt>
      <trkpt lat="45.91325" lon="4.74683">
        <ele>173</ele>
        <time>2017-09-27T10:41:57Z</time>
      </trkpt>
      <trkpt lat="45.91323" lon="4.74677">
        <ele>173</ele>
        <time>2017-09-27T10:41:58Z</time>
      </trkpt>
      <trkpt lat="45.91322" lon="4.74669">
        <ele>173</ele>
        <time>2017-09-27T10:41:59Z</time>
      </trkpt>
      <trkpt lat="45.91319" lon="4.74662">
        <ele>173</ele>
        <time>2017-09-27T10:42:00Z</time>
      </trkpt>
      <trkpt lat="45.91316" lon="4.74655">
        <ele>173</ele>
        <time>2017-09-27T10:42:01Z</time>
      </trkpt>
      <trkpt lat="45.91313" lon="4.74647">
        <ele>173</ele>
        <time>2017-09-27T10:42:02Z</time>
      </trkpt>
      <trkpt lat="45.9131" lon="4.7464">
        <ele>173</ele>
        <time>2017-09-27T10:42:03Z</time>
      </trkpt>
      <trkpt lat="45.91306" lon="4.74634">
        <ele>173</ele>
        <time>2017-09-27T10:42:04Z</time>
      </trkpt>
      <trkpt lat="45.91303" lon="4.74627">
        <ele>173</ele>
        <time>2017-09-27T10:42:05Z</time>
      </trkpt>
      <trkpt lat="45.91299" lon="4.74619">
        <ele>173</ele>
        <time>2017-09-27T10:42:06Z</time>
      </trkpt>
      <trkpt lat="45.91295" lon="4.74613">
        <ele>173</ele>
        <time>2017-09-27T10:42:07Z</time>
      </trkpt>
      <trkpt lat="45.91292" lon="4.74606">
        <ele>173</ele>
        <time>2017-09-27T10:42:08Z</time>
      </trkpt>
      <trkpt lat="45.9129" lon="4.74599">
        <ele>173</ele>
        <time>2017-09-27T10:42:09Z</time>
      </trkpt>
      <trkpt lat="45.91288" lon="4.74592">
        <ele>173</ele>
        <time>2017-09-27T10:42:10Z</time>
      </trkpt>
      <trkpt lat="45.91286" lon="4.74585">
        <ele>173</ele>
        <time>2017-09-27T10:42:11Z</time>
      </trkpt>
      <trkpt lat="45.91283" lon="4.74578">
        <ele>173</ele>
        <time>2017-09-27T10:42:12Z</time>
      </trkpt>
      <trkpt lat="45.91281" lon="4.74572">
        <ele>173</ele>
        <time>2017-09-27T10:42:13Z</time>
      </trkpt>
      <trkpt lat="45.91278" lon="4.74567">
        <ele>173</ele>
        <time>2017-09-27T10:42:14Z</time>
      </trkpt>
      <trkpt lat="45.91274" lon="4.74556">
        <ele>173</ele>
        <time>2017-09-27T10:42:16Z</time>
      </trkpt>
      <trkpt lat="45.91271" lon="4.74551">
        <ele>173</ele>
        <time>2017-09-27T10:42:17Z</time>
      </trkpt>
      <trkpt lat="45.9127" lon="4.74544">
        <ele>173</ele>
        <time>2017-09-27T10:42:18Z</time>
      </trkpt>
      <trkpt lat="45.91267" lon="4.74538">
        <ele>173</ele>
        <time>2017-09-27T10:42:19Z</time>
      </trkpt>
      <trkpt lat="45.91265" lon="4.74531">
        <ele>173</ele>
        <time>2017-09-27T10:42:20Z</time>
      </trkpt>
      <trkpt lat="45.91263" lon="4.74523">
        <ele>173</ele>
        <time>2017-09-27T10:42:21Z</time>
      </trkpt>
      <trkpt lat="45.9126" lon="4.74516">
        <ele>174</ele>
        <time>2017-09-27T10:42:22Z</time>
      </trkpt>
      <trkpt lat="45.91258" lon="4.74509">
        <ele>174</ele>
        <time>2017-09-27T10:42:23Z</time>
      </trkpt>
      <trkpt lat="45.91255" lon="4.74501">
        <ele>174</ele>
        <time>2017-09-27T10:42:24Z</time>
      </trkpt>
      <trkpt lat="45.91253" lon="4.74493">
        <ele>174</ele>
        <time>2017-09-27T10:42:25Z</time>
      </trkpt>
      <trkpt lat="45.91252" lon="4.74486">
        <ele>174</ele>
        <time>2017-09-27T10:42:26Z</time>
      </trkpt>
      <trkpt lat="45.91249" lon="4.7448">
        <ele>174</ele>
        <time>2017-09-27T10:42:27Z</time>
      </trkpt>
      <trkpt lat="45.91247" lon="4.74473">
        <ele>174</ele>
        <time>2017-09-27T10:42:28Z</time>
      </trkpt>
      <trkpt lat="45.91245" lon="4.74466">
        <ele>174</ele>
        <time>2017-09-27T10:42:29Z</time>
      </trkpt>
      <trkpt lat="45.91243" lon="4.74459">
        <ele>174</ele>
        <time>2017-09-27T10:42:30Z</time>
      </trkpt>
      <trkpt lat="45.91241" lon="4.74452">
        <ele>174</ele>
        <time>2017-09-27T10:42:31Z</time>
      </trkpt>
      <trkpt lat="45.9124" lon="4.74446">
        <ele>174</ele>
        <time>2017-09-27T10:42:32Z</time>
      </trkpt>
      <trkpt lat="45.91238" lon="4.74439">
        <ele>174</ele>
        <time>2017-09-27T10:42:33Z</time>
      </trkpt>
      <trkpt lat="45.91236" lon="4.74431">
        <ele>174</ele>
        <time>2017-09-27T10:42:34Z</time>
      </trkpt>
      <trkpt lat="45.91234" lon="4.74424">
        <ele>174</ele>
        <time>2017-09-27T10:42:35Z</time>
      </trkpt>
      <trkpt lat="45.9123" lon="4.74416">
        <ele>174</ele>
        <time>2017-09-27T10:42:36Z</time>
      </trkpt>
      <trkpt lat="45.91228" lon="4.74408">
        <ele>174</ele>
        <time>2017-09-27T10:42:37Z</time>
      </trkpt>
      <trkpt lat="45.91227" lon="4.74401">
        <ele>174</ele>
        <time>2017-09-27T10:42:38Z</time>
      </trkpt>
      <trkpt lat="45.91225" lon="4.74393">
        <ele>174</ele>
        <time>2017-09-27T10:42:39Z</time>
      </trkpt>
      <trkpt lat="45.91223" lon="4.74385">
        <ele>174</ele>
        <time>2017-09-27T10:42:40Z</time>
      </trkpt>
      <trkpt lat="45.91221" lon="4.74378">
        <ele>174</ele>
        <time>2017-09-27T10:42:41Z</time>
      </trkpt>
      <trkpt lat="45.91219" lon="4.74372">
        <ele>174</ele>
        <time>2017-09-27T10:42:42Z</time>
      </trkpt>
      <trkpt lat="45.91217" lon="4.74366">
        <ele>174</ele>
        <time>2017-09-27T10:42:43Z</time>
      </trkpt>
      <trkpt lat="45.91216" lon="4.7436">
        <ele>174</ele>
        <time>2017-09-27T10:42:44Z</time>
      </trkpt>
      <trkpt lat="45.91214" lon="4.74353">
        <ele>175</ele>
        <time>2017-09-27T10:42:45Z</time>
      </trkpt>
      <trkpt lat="45.91212" lon="4.74346">
        <ele>175</ele>
        <time>2017-09-27T10:42:46Z</time>
      </trkpt>
      <trkpt lat="45.91209" lon="4.7434">
        <ele>175</ele>
        <time>2017-09-27T10:42:47Z</time>
      </trkpt>
      <trkpt lat="45.91207" lon="4.74334">
        <ele>175</ele>
        <time>2017-09-27T10:42:48Z</time>
      </trkpt>
      <trkpt lat="45.91205" lon="4.74326">
        <ele>175</ele>
        <time>2017-09-27T10:42:49Z</time>
      </trkpt>
      <trkpt lat="45.91203" lon="4.7432">
        <ele>175</ele>
        <time>2017-09-27T10:42:50Z</time>
      </trkpt>
      <trkpt lat="45.91199" lon="4.74313">
        <ele>175</ele>
        <time>2017-09-27T10:42:51Z</time>
      </trkpt>
      <trkpt lat="45.91197" lon="4.74306">
        <ele>175</ele>
        <time>2017-09-27T10:42:52Z</time>
      </trkpt>
      <trkpt lat="45.91195" lon="4.74299">
        <ele>175</ele>
        <time>2017-09-27T10:42:53Z</time>
      </trkpt>
      <trkpt lat="45.91195" lon="4.74292">
        <ele>175</ele>
        <time>2017-09-27T10:42:54Z</time>
      </trkpt>
      <trkpt lat="45.91194" lon="4.74284">
        <ele>175</ele>
        <time>2017-09-27T10:42:55Z</time>
      </trkpt>
      <trkpt lat="45.91193" lon="4.74277">
        <ele>175</ele>
        <time>2017-09-27T10:42:56Z</time>
      </trkpt>
      <trkpt lat="45.91191" lon="4.74269">
        <ele>175</ele>
        <time>2017-09-27T10:42:57Z</time>
      </trkpt>
      <trkpt lat="45.91189" lon="4.74261">
        <ele>175</ele>
        <time>2017-09-27T10:42:58Z</time>
      </trkpt>
      <trkpt lat="45.91188" lon="4.74254">
        <ele>175</ele>
        <time>2017-09-27T10:42:59Z</time>
      </trkpt>
      <trkpt lat="45.91186" lon="4.74246">
        <ele>175</ele>
        <time>2017-09-27T10:43:00Z</time>
      </trkpt>
      <trkpt lat="45.91186" lon="4.74237">
        <ele>175</ele>
        <time>2017-09-27T10:43:01Z</time>
      </trkpt>
      <trkpt lat="45.91185" lon="4.74228">
        <ele>175</ele>
        <time>2017-09-27T10:43:02Z</time>
      </trkpt>
      <trkpt lat="45.91184" lon="4.7422">
        <ele>175</ele>
        <time>2017-09-27T10:43:03Z</time>
      </trkpt>
      <trkpt lat="45.91183" lon="4.74212">
        <ele>175</ele>
        <time>2017-09-27T10:43:04Z</time>
      </trkpt>
      <trkpt lat="45.91181" lon="4.74207">
        <ele>175</ele>
        <time>2017-09-27T10:43:05Z</time>
      </trkpt>
      <trkpt lat="45.91181" lon="4.742">
        <ele>175</ele>
        <time>2017-09-27T10:43:06Z</time>
      </trkpt>
      <trkpt lat="45.9118" lon="4.74194">
        <ele>175</ele>
        <time>2017-09-27T10:43:07Z</time>
      </trkpt>
      <trkpt lat="45.91182" lon="4.74187">
        <ele>174</ele>
        <time>2017-09-27T10:43:08Z</time>
      </trkpt>
      <trkpt lat="45.91182" lon="4.7418">
        <ele>174</ele>
        <time>2017-09-27T10:43:09Z</time>
      </trkpt>
      <trkpt lat="45.91184" lon="4.74167">
        <ele>174</ele>
        <time>2017-09-27T10:43:11Z</time>
      </trkpt>
      <trkpt lat="45.91185" lon="4.7416">
        <ele>174</ele>
        <time>2017-09-27T10:43:12Z</time>
      </trkpt>
      <trkpt lat="45.91187" lon="4.7415">
        <ele>174</ele>
        <time>2017-09-27T10:43:14Z</time>
      </trkpt>
      <trkpt lat="45.91188" lon="4.74145">
        <ele>174</ele>
        <time>2017-09-27T10:43:15Z</time>
      </trkpt>
      <trkpt lat="45.9119" lon="4.74135">
        <ele>174</ele>
        <time>2017-09-27T10:43:17Z</time>
      </trkpt>
      <trkpt lat="45.91192" lon="4.74129">
        <ele>174</ele>
        <time>2017-09-27T10:43:18Z</time>
      </trkpt>
      <trkpt lat="45.91194" lon="4.74117">
        <ele>174</ele>
        <time>2017-09-27T10:43:20Z</time>
      </trkpt>
      <trkpt lat="45.91196" lon="4.74111">
        <ele>174</ele>
        <time>2017-09-27T10:43:21Z</time>
      </trkpt>
      <trkpt lat="45.91199" lon="4.74099">
        <ele>173</ele>
        <time>2017-09-27T10:43:23Z</time>
      </trkpt>
      <trkpt lat="45.91201" lon="4.74094">
        <ele>173</ele>
        <time>2017-09-27T10:43:24Z</time>
      </trkpt>
      <trkpt lat="45.91203" lon="4.74083">
        <ele>173</ele>
        <time>2017-09-27T10:43:26Z</time>
      </trkpt>
      <trkpt lat="45.91204" lon="4.74078">
        <ele>173</ele>
        <time>2017-09-27T10:43:27Z</time>
      </trkpt>
      <trkpt lat="45.91206" lon="4.74068">
        <ele>173</ele>
        <time>2017-09-27T10:43:29Z</time>
      </trkpt>
      <trkpt lat="45.91206" lon="4.74064">
        <ele>173</ele>
        <time>2017-09-27T10:43:30Z</time>
      </trkpt>
      <trkpt lat="45.91208" lon="4.74055">
        <ele>173</ele>
        <time>2017-09-27T10:43:32Z</time>
      </trkpt>
      <trkpt lat="45.91209" lon="4.74051">
        <ele>173</ele>
        <time>2017-09-27T10:43:33Z</time>
      </trkpt>
      <trkpt lat="45.91212" lon="4.74042">
        <ele>173</ele>
        <time>2017-09-27T10:43:35Z</time>
      </trkpt>
      <trkpt lat="45.91213" lon="4.74038">
        <ele>173</ele>
        <time>2017-09-27T10:43:36Z</time>
      </trkpt>
      <trkpt lat="45.91214" lon="4.74029">
        <ele>173</ele>
        <time>2017-09-27T10:43:38Z</time>
      </trkpt>
      <trkpt lat="45.91216" lon="4.74025">
        <ele>173</ele>
        <time>2017-09-27T10:43:39Z</time>
      </trkpt>
      <trkpt lat="45.91218" lon="4.74016">
        <ele>173</ele>
        <time>2017-09-27T10:43:41Z</time>
      </trkpt>
      <trkpt lat="45.91219" lon="4.7401">
        <ele>173</ele>
        <time>2017-09-27T10:43:42Z</time>
      </trkpt>
      <trkpt lat="45.9122" lon="4.74004">
        <ele>173</ele>
        <time>2017-09-27T10:43:43Z</time>
      </trkpt>
      <trkpt lat="45.91221" lon="4.73998">
        <ele>173</ele>
        <time>2017-09-27T10:43:44Z</time>
      </trkpt>
      <trkpt lat="45.91222" lon="4.73992">
        <ele>173</ele>
        <time>2017-09-27T10:43:45Z</time>
      </trkpt>
      <trkpt lat="45.91223" lon="4.73985">
        <ele>173</ele>
        <time>2017-09-27T10:43:46Z</time>
      </trkpt>
      <trkpt lat="45.91223" lon="4.73977">
        <ele>173</ele>
        <time>2017-09-27T10:43:47Z</time>
      </trkpt>
      <trkpt lat="45.91224" lon="4.7397">
        <ele>173</ele>
        <time>2017-09-27T10:43:48Z</time>
      </trkpt>
      <trkpt lat="45.91224" lon="4.73963">
        <ele>173</ele>
        <time>2017-09-27T10:43:49Z</time>
      </trkpt>
      <trkpt lat="45.91225" lon="4.73955">
        <ele>173</ele>
        <time>2017-09-27T10:43:50Z</time>
      </trkpt>
      <trkpt lat="45.91226" lon="4.73947">
        <ele>173</ele>
        <time>2017-09-27T10:43:51Z</time>
      </trkpt>
      <trkpt lat="45.91226" lon="4.7394">
        <ele>173</ele>
        <time>2017-09-27T10:43:52Z</time>
      </trkpt>
      <trkpt lat="45.91225" lon="4.73932">
        <ele>173</ele>
        <time>2017-09-27T10:43:53Z</time>
      </trkpt>
      <trkpt lat="45.91225" lon="4.73924">
        <ele>173</ele>
        <time>2017-09-27T10:43:54Z</time>
      </trkpt>
      <trkpt lat="45.91224" lon="4.73915">
        <ele>174</ele>
        <time>2017-09-27T10:43:55Z</time>
      </trkpt>
      <trkpt lat="45.91222" lon="4.73907">
        <ele>174</ele>
        <time>2017-09-27T10:43:56Z</time>
      </trkpt>
      <trkpt lat="45.9122" lon="4.73899">
        <ele>174</ele>
        <time>2017-09-27T10:43:57Z</time>
      </trkpt>
      <trkpt lat="45.91218" lon="4.73891">
        <ele>174</ele>
        <time>2017-09-27T10:43:58Z</time>
      </trkpt>
      <trkpt lat="45.91216" lon="4.73882">
        <ele>174</ele>
        <time>2017-09-27T10:43:59Z</time>
      </trkpt>
      <trkpt lat="45.91214" lon="4.73873">
        <ele>174</ele>
        <time>2017-09-27T10:44:00Z</time>
      </trkpt>
      <trkpt lat="45.91211" lon="4.73863">
        <ele>174</ele>
        <time>2017-09-27T10:44:01Z</time>
      </trkpt>
      <trkpt lat="45.91208" lon="4.73854">
        <ele>174</ele>
        <time>2017-09-27T10:44:02Z</time>
      </trkpt>
      <trkpt lat="45.91204" lon="4.73844">
        <ele>174</ele>
        <time>2017-09-27T10:44:03Z</time>
      </trkpt>
      <trkpt lat="45.912" lon="4.73835">
        <ele>174</ele>
        <time>2017-09-27T10:44:04Z</time>
      </trkpt>
      <trkpt lat="45.91196" lon="4.73826">
        <ele>175</ele>
        <time>2017-09-27T10:44:05Z</time>
      </trkpt>
      <trkpt lat="45.91192" lon="4.73817">
        <ele>175</ele>
        <time>2017-09-27T10:44:06Z</time>
      </trkpt>
      <trkpt lat="45.91187" lon="4.73807">
        <ele>175</ele>
        <time>2017-09-27T10:44:07Z</time>
      </trkpt>
      <trkpt lat="45.91182" lon="4.73799">
        <ele>175</ele>
        <time>2017-09-27T10:44:08Z</time>
      </trkpt>
      <trkpt lat="45.91177" lon="4.73789">
        <ele>175</ele>
        <time>2017-09-27T10:44:09Z</time>
      </trkpt>
      <trkpt lat="45.91173" lon="4.7378">
        <ele>175</ele>
        <time>2017-09-27T10:44:10Z</time>
      </trkpt>
      <trkpt lat="45.91169" lon="4.73772">
        <ele>175</ele>
        <time>2017-09-27T10:44:11Z</time>
      </trkpt>
      <trkpt lat="45.91165" lon="4.73765">
        <ele>175</ele>
        <time>2017-09-27T10:44:12Z</time>
      </trkpt>
      <trkpt lat="45.91162" lon="4.73758">
        <ele>175</ele>
        <time>2017-09-27T10:44:13Z</time>
      </trkpt>
      <trkpt lat="45.91161" lon="4.73752">
        <ele>175</ele>
        <time>2017-09-27T10:44:14Z</time>
      </trkpt>
      <trkpt lat="45.91161" lon="4.73745">
        <ele>175</ele>
        <time>2017-09-27T10:44:15Z</time>
      </trkpt>
      <trkpt lat="45.91163" lon="4.73739">
        <ele>175</ele>
        <time>2017-09-27T10:44:16Z</time>
      </trkpt>
      <trkpt lat="45.9117" lon="4.73733">
        <ele>175</ele>
        <time>2017-09-27T10:44:18Z</time>
      </trkpt>
      <trkpt lat="45.91175" lon="4.73735">
        <ele>175</ele>
        <time>2017-09-27T10:44:19Z</time>
      </trkpt>
      <trkpt lat="45.91182" lon="4.73739">
        <ele>175</ele>
        <time>2017-09-27T10:44:21Z</time>
      </trkpt>
      <trkpt lat="45.91186" lon="4.73739">
        <ele>175</ele>
        <time>2017-09-27T10:44:22Z</time>
      </trkpt>
      <trkpt lat="45.9119" lon="4.7374">
        <ele>175</ele>
        <time>2017-09-27T10:44:23Z</time>
      </trkpt>
      <trkpt lat="45.91195" lon="4.73741">
        <ele>175</ele>
        <time>2017-09-27T10:44:24Z</time>
      </trkpt>
      <trkpt lat="45.91199" lon="4.7374">
        <ele>175</ele>
        <time>2017-09-27T10:44:25Z</time>
      </trkpt>
      <trkpt lat="45.91204" lon="4.7374">
        <ele>175</ele>
        <time>2017-09-27T10:44:26Z</time>
      </trkpt>
      <trkpt lat="45.91209" lon="4.7374">
        <ele>175</ele>
        <time>2017-09-27T10:44:27Z</time>
      </trkpt>
      <trkpt lat="45.91213" lon="4.7374">
        <ele>175</ele>
        <time>2017-09-27T10:44:28Z</time>
      </trkpt>
      <trkpt lat="45.91218" lon="4.7374">
        <ele>175</ele>
        <time>2017-09-27T10:44:29Z</time>
      </trkpt>
      <trkpt lat="45.91224" lon="4.7374">
        <ele>175</ele>
        <time>2017-09-27T10:44:30Z</time>
      </trkpt>
      <trkpt lat="45.91229" lon="4.73741">
        <ele>175</ele>
        <time>2017-09-27T10:44:31Z</time>
      </trkpt>
      <trkpt lat="45.91233" lon="4.73741">
        <ele>175</ele>
        <time>2017-09-27T10:44:32Z</time>
      </trkpt>
      <trkpt lat="45.91238" lon="4.7374">
        <ele>175</ele>
        <time>2017-09-27T10:44:33Z</time>
      </trkpt>
      <trkpt lat="45.91244" lon="4.7374">
        <ele>175</ele>
        <time>2017-09-27T10:44:34Z</time>
      </trkpt>
      <trkpt lat="45.91249" lon="4.73741">
        <ele>175</ele>
        <time>2017-09-27T10:44:35Z</time>
      </trkpt>
      <trkpt lat="45.91254" lon="4.73739">
        <ele>175</ele>
        <time>2017-09-27T10:44:36Z</time>
      </trkpt>
      <trkpt lat="45.9126" lon="4.73739">
        <ele>175</ele>
        <time>2017-09-27T10:44:37Z</time>
      </trkpt>
      <trkpt lat="45.91266" lon="4.7374">
        <ele>174</ele>
        <time>2017-09-27T10:44:38Z</time>
      </trkpt>
      <trkpt lat="45.91272" lon="4.73741">
        <ele>174</ele>
        <time>2017-09-27T10:44:39Z</time>
      </trkpt>
      <trkpt lat="45.91277" lon="4.7374">
        <ele>174</ele>
        <time>2017-09-27T10:44:40Z</time>
      </trkpt>
      <trkpt lat="45.91282" lon="4.7374">
        <ele>174</ele>
        <time>2017-09-27T10:44:41Z</time>
      </trkpt>
      <trkpt lat="45.91287" lon="4.7374">
        <ele>174</ele>
        <time>2017-09-27T10:44:42Z</time>
      </trkpt>
      <trkpt lat="45.91292" lon="4.7374">
        <ele>174</ele>
        <time>2017-09-27T10:44:43Z</time>
      </trkpt>
      <trkpt lat="45.91296" lon="4.73738">
        <ele>174</ele>
        <time>2017-09-27T10:44:44Z</time>
      </trkpt>
      <trkpt lat="45.91302" lon="4.73738">
        <ele>174</ele>
        <time>2017-09-27T10:44:45Z</time>
      </trkpt>
      <trkpt lat="45.91307" lon="4.73739">
        <ele>174</ele>
        <time>2017-09-27T10:44:46Z</time>
      </trkpt>
      <trkpt lat="45.91313" lon="4.73738">
        <ele>174</ele>
        <time>2017-09-27T10:44:47Z</time>
      </trkpt>
      <trkpt lat="45.91319" lon="4.73737">
        <ele>174</ele>
        <time>2017-09-27T10:44:48Z</time>
      </trkpt>
      <trkpt lat="45.91325" lon="4.73736">
        <ele>174</ele>
        <time>2017-09-27T10:44:49Z</time>
      </trkpt>
      <trkpt lat="45.91331" lon="4.73736">
        <ele>173</ele>
        <time>2017-09-27T10:44:50Z</time>
      </trkpt>
      <trkpt lat="45.91337" lon="4.73736">
        <ele>173</ele>
        <time>2017-09-27T10:44:51Z</time>
      </trkpt>
      <trkpt lat="45.91343" lon="4.73736">
        <ele>173</ele>
        <time>2017-09-27T10:44:52Z</time>
      </trkpt>
      <trkpt lat="45.91348" lon="4.73736">
        <ele>173</ele>
        <time>2017-09-27T10:44:53Z</time>
      </trkpt>
      <trkpt lat="45.91353" lon="4.73736">
        <ele>173</ele>
        <time>2017-09-27T10:44:54Z</time>
      </trkpt>
      <trkpt lat="45.91358" lon="4.73737">
        <ele>173</ele>
        <time>2017-09-27T10:44:55Z</time>
      </trkpt>
      <trkpt lat="45.91363" lon="4.73738">
        <ele>173</ele>
        <time>2017-09-27T10:44:56Z</time>
      </trkpt>
      <trkpt lat="45.91368" lon="4.73738">
        <ele>173</ele>
        <time>2017-09-27T10:44:57Z</time>
      </trkpt>
      <trkpt lat="45.91374" lon="4.73737">
        <ele>173</ele>
        <time>2017-09-27T10:44:58Z</time>
      </trkpt>
      <trkpt lat="45.91379" lon="4.73737">
        <ele>173</ele>
        <time>2017-09-27T10:44:59Z</time>
      </trkpt>
      <trkpt lat="45.91384" lon="4.73738">
        <ele>173</ele>
        <time>2017-09-27T10:45:00Z</time>
      </trkpt>
      <trkpt lat="45.9139" lon="4.73737">
        <ele>173</ele>
        <time>2017-09-27T10:45:01Z</time>
      </trkpt>
      <trkpt lat="45.91394" lon="4.73737">
        <ele>173</ele>
        <time>2017-09-27T10:45:02Z</time>
      </trkpt>
      <trkpt lat="45.914" lon="4.73735">
        <ele>173</ele>
        <time>2017-09-27T10:45:03Z</time>
      </trkpt>
      <trkpt lat="45.91406" lon="4.73735">
        <ele>173</ele>
        <time>2017-09-27T10:45:04Z</time>
      </trkpt>
      <trkpt lat="45.91411" lon="4.73736">
        <ele>173</ele>
        <time>2017-09-27T10:45:05Z</time>
      </trkpt>
      <trkpt lat="45.91417" lon="4.73736">
        <ele>173</ele>
        <time>2017-09-27T10:45:06Z</time>
      </trkpt>
      <trkpt lat="45.91423" lon="4.73736">
        <ele>173</ele>
        <time>2017-09-27T10:45:07Z</time>
      </trkpt>
      <trkpt lat="45.9143" lon="4.73736">
        <ele>173</ele>
        <time>2017-09-27T10:45:08Z</time>
      </trkpt>
      <trkpt lat="45.91435" lon="4.73736">
        <ele>173</ele>
        <time>2017-09-27T10:45:09Z</time>
      </trkpt>
      <trkpt lat="45.91441" lon="4.73736">
        <ele>173</ele>
        <time>2017-09-27T10:45:10Z</time>
      </trkpt>
      <trkpt lat="45.91446" lon="4.73737">
        <ele>173</ele>
        <time>2017-09-27T10:45:11Z</time>
      </trkpt>
      <trkpt lat="45.91451" lon="4.73737">
        <ele>173</ele>
        <time>2017-09-27T10:45:12Z</time>
      </trkpt>
      <trkpt lat="45.91456" lon="4.73737">
        <ele>173</ele>
        <time>2017-09-27T10:45:13Z</time>
      </trkpt>
      <trkpt lat="45.9146" lon="4.73737">
        <ele>174</ele>
        <time>2017-09-27T10:45:14Z</time>
      </trkpt>
      <trkpt lat="45.91468" lon="4.73735">
        <ele>174</ele>
        <time>2017-09-27T10:45:16Z</time>
      </trkpt>
      <trkpt lat="45.91474" lon="4.73735">
        <ele>174</ele>
        <time>2017-09-27T10:45:17Z</time>
      </trkpt>
      <trkpt lat="45.91478" lon="4.73736">
        <ele>174</ele>
        <time>2017-09-27T10:45:18Z</time>
      </trkpt>
      <trkpt lat="45.91483" lon="4.73737">
        <ele>174</ele>
        <time>2017-09-27T10:45:19Z</time>
      </trkpt>
      <trkpt lat="45.91488" lon="4.73738">
        <ele>174</ele>
        <time>2017-09-27T10:45:20Z</time>
      </trkpt>
      <trkpt lat="45.91495" lon="4.73737">
        <ele>174</ele>
        <time>2017-09-27T10:45:21Z</time>
      </trkpt>
      <trkpt lat="45.91501" lon="4.73737">
        <ele>174</ele>
        <time>2017-09-27T10:45:22Z</time>
      </trkpt>
      <trkpt lat="45.91506" lon="4.73738">
        <ele>174</ele>
        <time>2017-09-27T10:45:23Z</time>
      </trkpt>
      <trkpt lat="45.91512" lon="4.73737">
        <ele>174</ele>
        <time>2017-09-27T10:45:24Z</time>
      </trkpt>
      <trkpt lat="45.91517" lon="4.73736">
        <ele>174</ele>
        <time>2017-09-27T10:45:25Z</time>
      </trkpt>
      <trkpt lat="45.91523" lon="4.73736">
        <ele>174</ele>
        <time>2017-09-27T10:45:26Z</time>
      </trkpt>
      <trkpt lat="45.91529" lon="4.73736">
        <ele>174</ele>
        <time>2017-09-27T10:45:27Z</time>
      </trkpt>
      <trkpt lat="45.91534" lon="4.73734">
        <ele>174</ele>
        <time>2017-09-27T10:45:28Z</time>
      </trkpt>
      <trkpt lat="45.91539" lon="4.73734">
        <ele>174</ele>
        <time>2017-09-27T10:45:29Z</time>
      </trkpt>
      <trkpt lat="45.91545" lon="4.73734">
        <ele>174</ele>
        <time>2017-09-27T10:45:30Z</time>
      </trkpt>
      <trkpt lat="45.9155" lon="4.73733">
        <ele>174</ele>
        <time>2017-09-27T10:45:31Z</time>
      </trkpt>
      <trkpt lat="45.91555" lon="4.73734">
        <ele>174</ele>
        <time>2017-09-27T10:45:32Z</time>
      </trkpt>
      <trkpt lat="45.9156" lon="4.73734">
        <ele>174</ele>
        <time>2017-09-27T10:45:33Z</time>
      </trkpt>
      <trkpt lat="45.91568" lon="4.73736">
        <ele>173</ele>
        <time>2017-09-27T10:45:35Z</time>
      </trkpt>
      <trkpt lat="45.91574" lon="4.73736">
        <ele>173</ele>
        <time>2017-09-27T10:45:36Z</time>
      </trkpt>
      <trkpt lat="45.91579" lon="4.73735">
        <ele>173</ele>
        <time>2017-09-27T10:45:37Z</time>
      </trkpt>
      <trkpt lat="45.91584" lon="4.73736">
        <ele>173</ele>
        <time>2017-09-27T10:45:38Z</time>
      </trkpt>
      <trkpt lat="45.9159" lon="4.73736">
        <ele>173</ele>
        <time>2017-09-27T10:45:39Z</time>
      </trkpt>
      <trkpt lat="45.91596" lon="4.73735">
        <ele>173</ele>
        <time>2017-09-27T10:45:40Z</time>
      </trkpt>
      <trkpt lat="45.91601" lon="4.73735">
        <ele>173</ele>
        <time>2017-09-27T10:45:41Z</time>
      </trkpt>
      <trkpt lat="45.91605" lon="4.73735">
        <ele>173</ele>
        <time>2017-09-27T10:45:42Z</time>
      </trkpt>
      <trkpt lat="45.9161" lon="4.73734">
        <ele>173</ele>
        <time>2017-09-27T10:45:43Z</time>
      </trkpt>
      <trkpt lat="45.91615" lon="4.73735">
        <ele>173</ele>
        <time>2017-09-27T10:45:44Z</time>
      </trkpt>
      <trkpt lat="45.91619" lon="4.73735">
        <ele>173</ele>
        <time>2017-09-27T10:45:45Z</time>
      </trkpt>
      <trkpt lat="45.91624" lon="4.73734">
        <ele>173</ele>
        <time>2017-09-27T10:45:46Z</time>
      </trkpt>
      <trkpt lat="45.91629" lon="4.73734">
        <ele>172</ele>
        <time>2017-09-27T10:45:47Z</time>
      </trkpt>
      <trkpt lat="45.91634" lon="4.73733">
        <ele>172</ele>
        <time>2017-09-27T10:45:48Z</time>
      </trkpt>
      <trkpt lat="45.9164" lon="4.73733">
        <ele>172</ele>
        <time>2017-09-27T10:45:49Z</time>
      </trkpt>
      <trkpt lat="45.91646" lon="4.73733">
        <ele>172</ele>
        <time>2017-09-27T10:45:50Z</time>
      </trkpt>
      <trkpt lat="45.91652" lon="4.7373">
        <ele>172</ele>
        <time>2017-09-27T10:45:51Z</time>
      </trkpt>
      <trkpt lat="45.91657" lon="4.7373">
        <ele>172</ele>
        <time>2017-09-27T10:45:52Z</time>
      </trkpt>
      <trkpt lat="45.91662" lon="4.73729">
        <ele>172</ele>
        <time>2017-09-27T10:45:53Z</time>
      </trkpt>
      <trkpt lat="45.91667" lon="4.73729">
        <ele>172</ele>
        <time>2017-09-27T10:45:54Z</time>
      </trkpt>
      <trkpt lat="45.91672" lon="4.73731">
        <ele>172</ele>
        <time>2017-09-27T10:45:55Z</time>
      </trkpt>
      <trkpt lat="45.91676" lon="4.73731">
        <ele>172</ele>
        <time>2017-09-27T10:45:56Z</time>
      </trkpt>
      <trkpt lat="45.91682" lon="4.73729">
        <ele>172</ele>
        <time>2017-09-27T10:45:57Z</time>
      </trkpt>
      <trkpt lat="45.91686" lon="4.73729">
        <ele>172</ele>
        <time>2017-09-27T10:45:58Z</time>
      </trkpt>
      <trkpt lat="45.91695" lon="4.7373">
        <ele>172</ele>
        <time>2017-09-27T10:46:00Z</time>
      </trkpt>
      <trkpt lat="45.91698" lon="4.73731">
        <ele>172</ele>
        <time>2017-09-27T10:46:01Z</time>
      </trkpt>
      <trkpt lat="45.91707" lon="4.73731">
        <ele>172</ele>
        <time>2017-09-27T10:46:03Z</time>
      </trkpt>
      <trkpt lat="45.9171" lon="4.73732">
        <ele>173</ele>
        <time>2017-09-27T10:46:04Z</time>
      </trkpt>
      <trkpt lat="45.91718" lon="4.73732">
        <ele>173</ele>
        <time>2017-09-27T10:46:06Z</time>
      </trkpt>
      <trkpt lat="45.91722" lon="4.73733">
        <ele>173</ele>
        <time>2017-09-27T10:46:07Z</time>
      </trkpt>
      <trkpt lat="45.91727" lon="4.73734">
        <ele>173</ele>
        <time>2017-09-27T10:46:08Z</time>
      </trkpt>
      <trkpt lat="45.91731" lon="4.73734">
        <ele>173</ele>
        <time>2017-09-27T10:46:09Z</time>
      </trkpt>
      <trkpt lat="45.91736" lon="4.73734">
        <ele>173</ele>
        <time>2017-09-27T10:46:10Z</time>
      </trkpt>
      <trkpt lat="45.91742" lon="4.73733">
        <ele>173</ele>
        <time>2017-09-27T10:46:11Z</time>
      </trkpt>
      <trkpt lat="45.91747" lon="4.73733">
        <ele>173</ele>
        <time>2017-09-27T10:46:12Z</time>
      </trkpt>
      <trkpt lat="45.91752" lon="4.73733">
        <ele>173</ele>
        <time>2017-09-27T10:46:13Z</time>
      </trkpt>
      <trkpt lat="45.91756" lon="4.73733">
        <ele>173</ele>
        <time>2017-09-27T10:46:14Z</time>
      </trkpt>
      <trkpt lat="45.91761" lon="4.73733">
        <ele>173</ele>
        <time>2017-09-27T10:46:15Z</time>
      </trkpt>
      <trkpt lat="45.91766" lon="4.73732">
        <ele>173</ele>
        <time>2017-09-27T10:46:16Z</time>
      </trkpt>
      <trkpt lat="45.91772" lon="4.73733">
        <ele>173</ele>
        <time>2017-09-27T10:46:17Z</time>
      </trkpt>
      <trkpt lat="45.91776" lon="4.73732">
        <ele>173</ele>
        <time>2017-09-27T10:46:18Z</time>
      </trkpt>
      <trkpt lat="45.91781" lon="4.73732">
        <ele>173</ele>
        <time>2017-09-27T10:46:19Z</time>
      </trkpt>
      <trkpt lat="45.91789" lon="4.73732">
        <ele>173</ele>
        <time>2017-09-27T10:46:21Z</time>
      </trkpt>
      <trkpt lat="45.91794" lon="4.73732">
        <ele>172</ele>
        <time>2017-09-27T10:46:22Z</time>
      </trkpt>
      <trkpt lat="45.91799" lon="4.73732">
        <ele>172</ele>
        <time>2017-09-27T10:46:23Z</time>
      </trkpt>
      <trkpt lat="45.91803" lon="4.73732">
        <ele>172</ele>
        <time>2017-09-27T10:46:24Z</time>
      </trkpt>
      <trkpt lat="45.91808" lon="4.73732">
        <ele>172</ele>
        <time>2017-09-27T10:46:25Z</time>
      </trkpt>
      <trkpt lat="45.91813" lon="4.73731">
        <ele>172</ele>
        <time>2017-09-27T10:46:26Z</time>
      </trkpt>
      <trkpt lat="45.91822" lon="4.73731">
        <ele>172</ele>
        <time>2017-09-27T10:46:28Z</time>
      </trkpt>
      <trkpt lat="45.91826" lon="4.73731">
        <ele>172</ele>
        <time>2017-09-27T10:46:29Z</time>
      </trkpt>
      <trkpt lat="45.91834" lon="4.73731">
        <ele>172</ele>
        <time>2017-09-27T10:46:31Z</time>
      </trkpt>
      <trkpt lat="45.91839" lon="4.73731">
        <ele>172</ele>
        <time>2017-09-27T10:46:32Z</time>
      </trkpt>
      <trkpt lat="45.91847" lon="4.73732">
        <ele>172</ele>
        <time>2017-09-27T10:46:34Z</time>
      </trkpt>
      <trkpt lat="45.91851" lon="4.73732">
        <ele>171</ele>
        <time>2017-09-27T10:46:35Z</time>
      </trkpt>
      <trkpt lat="45.91859" lon="4.73733">
        <ele>171</ele>
        <time>2017-09-27T10:46:37Z</time>
      </trkpt>
      <trkpt lat="45.91863" lon="4.73734">
        <ele>171</ele>
        <time>2017-09-27T10:46:38Z</time>
      </trkpt>
      <trkpt lat="45.91867" lon="4.73733">
        <ele>171</ele>
        <time>2017-09-27T10:46:39Z</time>
      </trkpt>
      <trkpt lat="45.91872" lon="4.73732">
        <ele>171</ele>
        <time>2017-09-27T10:46:40Z</time>
      </trkpt>
      <trkpt lat="45.91878" lon="4.73733">
        <ele>171</ele>
        <time>2017-09-27T10:46:41Z</time>
      </trkpt>
      <trkpt lat="45.91884" lon="4.73734">
        <ele>171</ele>
        <time>2017-09-27T10:46:42Z</time>
      </trkpt>
      <trkpt lat="45.91888" lon="4.73734">
        <ele>171</ele>
        <time>2017-09-27T10:46:43Z</time>
      </trkpt>
      <trkpt lat="45.91893" lon="4.73734">
        <ele>171</ele>
        <time>2017-09-27T10:46:44Z</time>
      </trkpt>
      <trkpt lat="45.91898" lon="4.73734">
        <ele>171</ele>
        <time>2017-09-27T10:46:45Z</time>
      </trkpt>
      <trkpt lat="45.91902" lon="4.73734">
        <ele>171</ele>
        <time>2017-09-27T10:46:46Z</time>
      </trkpt>
      <trkpt lat="45.91907" lon="4.73734">
        <ele>171</ele>
        <time>2017-09-27T10:46:47Z</time>
      </trkpt>
      <trkpt lat="45.91912" lon="4.73734">
        <ele>171</ele>
        <time>2017-09-27T10:46:48Z</time>
      </trkpt>
      <trkpt lat="45.91917" lon="4.73732">
        <ele>171</ele>
        <time>2017-09-27T10:46:49Z</time>
      </trkpt>
      <trkpt lat="45.91922" lon="4.73732">
        <ele>170</ele>
        <time>2017-09-27T10:46:50Z</time>
      </trkpt>
      <trkpt lat="45.91927" lon="4.73732">
        <ele>170</ele>
        <time>2017-09-27T10:46:51Z</time>
      </trkpt>
      <trkpt lat="45.91934" lon="4.73731">
        <ele>170</ele>
        <time>2017-09-27T10:46:52Z</time>
      </trkpt>
      <trkpt lat="45.91939" lon="4.73731">
        <ele>170</ele>
        <time>2017-09-27T10:46:53Z</time>
      </trkpt>
      <trkpt lat="45.91945" lon="4.73731">
        <ele>170</ele>
        <time>2017-09-27T10:46:54Z</time>
      </trkpt>
      <trkpt lat="45.91952" lon="4.73732">
        <ele>170</ele>
        <time>2017-09-27T10:46:55Z</time>
      </trkpt>
      <trkpt lat="45.91958" lon="4.73732">
        <ele>170</ele>
        <time>2017-09-27T10:46:56Z</time>
      </trkpt>
      <trkpt lat="45.91963" lon="4.73733">
        <ele>171</ele>
        <time>2017-09-27T10:46:57Z</time>
      </trkpt>
      <trkpt lat="45.91968" lon="4.73733">
        <ele>171</ele>
        <time>2017-09-27T10:46:58Z</time>
      </trkpt>
      <trkpt lat="45.91977" lon="4.73733">
        <ele>171</ele>
        <time>2017-09-27T10:47:00Z</time>
      </trkpt>
      <trkpt lat="45.91982" lon="4.73733">
        <ele>171</ele>
        <time>2017-09-27T10:47:01Z</time>
      </trkpt>
      <trkpt lat="45.91986" lon="4.73732">
        <ele>171</ele>
        <time>2017-09-27T10:47:02Z</time>
      </trkpt>
      <trkpt lat="45.91991" lon="4.73733">
        <ele>171</ele>
        <time>2017-09-27T10:47:03Z</time>
      </trkpt>
      <trkpt lat="45.91996" lon="4.73733">
        <ele>171</ele>
        <time>2017-09-27T10:47:04Z</time>
      </trkpt>
      <trkpt lat="45.92002" lon="4.73731">
        <ele>171</ele>
        <time>2017-09-27T10:47:05Z</time>
      </trkpt>
      <trkpt lat="45.92007" lon="4.73732">
        <ele>171</ele>
        <time>2017-09-27T10:47:06Z</time>
      </trkpt>
      <trkpt lat="45.92012" lon="4.73732">
        <ele>171</ele>
        <time>2017-09-27T10:47:07Z</time>
      </trkpt>
      <trkpt lat="45.92017" lon="4.73732">
        <ele>171</ele>
        <time>2017-09-27T10:47:08Z</time>
      </trkpt>
      <trkpt lat="45.92022" lon="4.73732">
        <ele>171</ele>
        <time>2017-09-27T10:47:09Z</time>
      </trkpt>
      <trkpt lat="45.92027" lon="4.73733">
        <ele>171</ele>
        <time>2017-09-27T10:47:10Z</time>
      </trkpt>
      <trkpt lat="45.92032" lon="4.73733">
        <ele>171</ele>
        <time>2017-09-27T10:47:11Z</time>
      </trkpt>
      <trkpt lat="45.92037" lon="4.73733">
        <ele>171</ele>
        <time>2017-09-27T10:47:12Z</time>
      </trkpt>
      <trkpt lat="45.92041" lon="4.73733">
        <ele>171</ele>
        <time>2017-09-27T10:47:13Z</time>
      </trkpt>
      <trkpt lat="45.9205" lon="4.73732">
        <ele>171</ele>
        <time>2017-09-27T10:47:15Z</time>
      </trkpt>
      <trkpt lat="45.92054" lon="4.73732">
        <ele>171</ele>
        <time>2017-09-27T10:47:16Z</time>
      </trkpt>
      <trkpt lat="45.92063" lon="4.73732">
        <ele>171</ele>
        <time>2017-09-27T10:47:18Z</time>
      </trkpt>
      <trkpt lat="45.92067" lon="4.73731">
        <ele>171</ele>
        <time>2017-09-27T10:47:19Z</time>
      </trkpt>
      <trkpt lat="45.92076" lon="4.73731">
        <ele>171</ele>
        <time>2017-09-27T10:47:21Z</time>
      </trkpt>
      <trkpt lat="45.92081" lon="4.7373">
        <ele>171</ele>
        <time>2017-09-27T10:47:22Z</time>
      </trkpt>
      <trkpt lat="45.92086" lon="4.7373">
        <ele>171</ele>
        <time>2017-09-27T10:47:23Z</time>
      </trkpt>
      <trkpt lat="45.92091" lon="4.7373">
        <ele>171</ele>
        <time>2017-09-27T10:47:24Z</time>
      </trkpt>
      <trkpt lat="45.92098" lon="4.73727">
        <ele>171</ele>
        <time>2017-09-27T10:47:25Z</time>
      </trkpt>
      <trkpt lat="45.92105" lon="4.73725">
        <ele>171</ele>
        <time>2017-09-27T10:47:26Z</time>
      </trkpt>
      <trkpt lat="45.9211" lon="4.73724">
        <ele>171</ele>
        <time>2017-09-27T10:47:27Z</time>
      </trkpt>
      <trkpt lat="45.92117" lon="4.73723">
        <ele>171</ele>
        <time>2017-09-27T10:47:28Z</time>
      </trkpt>
      <trkpt lat="45.92122" lon="4.7372">
        <ele>171</ele>
        <time>2017-09-27T10:47:29Z</time>
      </trkpt>
      <trkpt lat="45.92128" lon="4.73718">
        <ele>171</ele>
        <time>2017-09-27T10:47:30Z</time>
      </trkpt>
      <trkpt lat="45.92133" lon="4.73717">
        <ele>171</ele>
        <time>2017-09-27T10:47:31Z</time>
      </trkpt>
      <trkpt lat="45.92138" lon="4.73715">
        <ele>171</ele>
        <time>2017-09-27T10:47:32Z</time>
      </trkpt>
      <trkpt lat="45.92143" lon="4.73713">
        <ele>171</ele>
        <time>2017-09-27T10:47:33Z</time>
      </trkpt>
      <trkpt lat="45.92148" lon="4.73712">
        <ele>171</ele>
        <time>2017-09-27T10:47:34Z</time>
      </trkpt>
      <trkpt lat="45.92153" lon="4.73711">
        <ele>171</ele>
        <time>2017-09-27T10:47:35Z</time>
      </trkpt>
      <trkpt lat="45.92157" lon="4.7371">
        <ele>171</ele>
        <time>2017-09-27T10:47:36Z</time>
      </trkpt>
      <trkpt lat="45.92162" lon="4.73708">
        <ele>171</ele>
        <time>2017-09-27T10:47:37Z</time>
      </trkpt>
      <trkpt lat="45.92166" lon="4.73706">
        <ele>171</ele>
        <time>2017-09-27T10:47:38Z</time>
      </trkpt>
      <trkpt lat="45.92171" lon="4.73704">
        <ele>171</ele>
        <time>2017-09-27T10:47:39Z</time>
      </trkpt>
      <trkpt lat="45.92175" lon="4.73701">
        <ele>171</ele>
        <time>2017-09-27T10:47:40Z</time>
      </trkpt>
      <trkpt lat="45.92181" lon="4.73699">
        <ele>171</ele>
        <time>2017-09-27T10:47:41Z</time>
      </trkpt>
      <trkpt lat="45.92186" lon="4.73696">
        <ele>171</ele>
        <time>2017-09-27T10:47:42Z</time>
      </trkpt>
      <trkpt lat="45.92192" lon="4.73693">
        <ele>171</ele>
        <time>2017-09-27T10:47:43Z</time>
      </trkpt>
      <trkpt lat="45.92198" lon="4.73691">
        <ele>171</ele>
        <time>2017-09-27T10:47:44Z</time>
      </trkpt>
      <trkpt lat="45.92204" lon="4.73686">
        <ele>171</ele>
        <time>2017-09-27T10:47:45Z</time>
      </trkpt>
      <trkpt lat="45.9221" lon="4.73683">
        <ele>171</ele>
        <time>2017-09-27T10:47:46Z</time>
      </trkpt>
      <trkpt lat="45.92215" lon="4.7368">
        <ele>171</ele>
        <time>2017-09-27T10:47:47Z</time>
      </trkpt>
      <trkpt lat="45.92221" lon="4.73677">
        <ele>171</ele>
        <time>2017-09-27T10:47:48Z</time>
      </trkpt>
      <trkpt lat="45.92226" lon="4.73674">
        <ele>171</ele>
        <time>2017-09-27T10:47:49Z</time>
      </trkpt>
      <trkpt lat="45.92231" lon="4.73672">
        <ele>171</ele>
        <time>2017-09-27T10:47:50Z</time>
      </trkpt>
      <trkpt lat="45.92236" lon="4.73669">
        <ele>171</ele>
        <time>2017-09-27T10:47:51Z</time>
      </trkpt>
      <trkpt lat="45.92242" lon="4.73666">
        <ele>171</ele>
        <time>2017-09-27T10:47:52Z</time>
      </trkpt>
      <trkpt lat="45.92247" lon="4.73663">
        <ele>171</ele>
        <time>2017-09-27T10:47:53Z</time>
      </trkpt>
      <trkpt lat="45.92251" lon="4.7366">
        <ele>171</ele>
        <time>2017-09-27T10:47:54Z</time>
      </trkpt>
      <trkpt lat="45.92256" lon="4.73656">
        <ele>171</ele>
        <time>2017-09-27T10:47:55Z</time>
      </trkpt>
      <trkpt lat="45.92261" lon="4.73653">
        <ele>171</ele>
        <time>2017-09-27T10:47:56Z</time>
      </trkpt>
      <trkpt lat="45.92265" lon="4.7365">
        <ele>171</ele>
        <time>2017-09-27T10:47:57Z</time>
      </trkpt>
      <trkpt lat="45.9227" lon="4.73647">
        <ele>172</ele>
        <time>2017-09-27T10:47:58Z</time>
      </trkpt>
      <trkpt lat="45.92275" lon="4.73645">
        <ele>172</ele>
        <time>2017-09-27T10:47:59Z</time>
      </trkpt>
      <trkpt lat="45.9228" lon="4.73643">
        <ele>172</ele>
        <time>2017-09-27T10:48:00Z</time>
      </trkpt>
      <trkpt lat="45.92284" lon="4.73641">
        <ele>172</ele>
        <time>2017-09-27T10:48:01Z</time>
      </trkpt>
      <trkpt lat="45.92289" lon="4.73638">
        <ele>172</ele>
        <time>2017-09-27T10:48:02Z</time>
      </trkpt>
      <trkpt lat="45.92294" lon="4.73635">
        <ele>172</ele>
        <time>2017-09-27T10:48:03Z</time>
      </trkpt>
      <trkpt lat="45.92297" lon="4.73632">
        <ele>172</ele>
        <time>2017-09-27T10:48:04Z</time>
      </trkpt>
      <trkpt lat="45.92302" lon="4.7363">
        <ele>172</ele>
        <time>2017-09-27T10:48:05Z</time>
      </trkpt>
      <trkpt lat="45.92306" lon="4.73628">
        <ele>172</ele>
        <time>2017-09-27T10:48:06Z</time>
      </trkpt>
      <trkpt lat="45.92311" lon="4.73625">
        <ele>172</ele>
        <time>2017-09-27T10:48:07Z</time>
      </trkpt>
      <trkpt lat="45.92316" lon="4.73622">
        <ele>172</ele>
        <time>2017-09-27T10:48:08Z</time>
      </trkpt>
      <trkpt lat="45.92321" lon="4.73618">
        <ele>172</ele>
        <time>2017-09-27T10:48:09Z</time>
      </trkpt>
      <trkpt lat="45.92326" lon="4.73615">
        <ele>172</ele>
        <time>2017-09-27T10:48:10Z</time>
      </trkpt>
      <trkpt lat="45.92331" lon="4.73612">
        <ele>172</ele>
        <time>2017-09-27T10:48:11Z</time>
      </trkpt>
      <trkpt lat="45.92336" lon="4.7361">
        <ele>173</ele>
        <time>2017-09-27T10:48:12Z</time>
      </trkpt>
      <trkpt lat="45.9234" lon="4.73608">
        <ele>173</ele>
        <time>2017-09-27T10:48:13Z</time>
      </trkpt>
      <trkpt lat="45.92345" lon="4.73605">
        <ele>173</ele>
        <time>2017-09-27T10:48:14Z</time>
      </trkpt>
      <trkpt lat="45.9235" lon="4.73603">
        <ele>173</ele>
        <time>2017-09-27T10:48:15Z</time>
      </trkpt>
      <trkpt lat="45.92354" lon="4.73601">
        <ele>173</ele>
        <time>2017-09-27T10:48:16Z</time>
      </trkpt>
      <trkpt lat="45.92359" lon="4.73599">
        <ele>173</ele>
        <time>2017-09-27T10:48:17Z</time>
      </trkpt>
      <trkpt lat="45.92364" lon="4.73597">
        <ele>173</ele>
        <time>2017-09-27T10:48:18Z</time>
      </trkpt>
      <trkpt lat="45.92372" lon="4.73593">
        <ele>173</ele>
        <time>2017-09-27T10:48:20Z</time>
      </trkpt>
      <trkpt lat="45.92376" lon="4.7359">
        <ele>173</ele>
        <time>2017-09-27T10:48:21Z</time>
      </trkpt>
      <trkpt lat="45.92381" lon="4.73589">
        <ele>173</ele>
        <time>2017-09-27T10:48:22Z</time>
      </trkpt>
      <trkpt lat="45.92386" lon="4.73585">
        <ele>173</ele>
        <time>2017-09-27T10:48:23Z</time>
      </trkpt>
      <trkpt lat="45.92391" lon="4.73584">
        <ele>173</ele>
        <time>2017-09-27T10:48:24Z</time>
      </trkpt>
      <trkpt lat="45.92396" lon="4.73581">
        <ele>173</ele>
        <time>2017-09-27T10:48:25Z</time>
      </trkpt>
      <trkpt lat="45.92401" lon="4.73578">
        <ele>173</ele>
        <time>2017-09-27T10:48:26Z</time>
      </trkpt>
      <trkpt lat="45.92406" lon="4.73576">
        <ele>173</ele>
        <time>2017-09-27T10:48:27Z</time>
      </trkpt>
      <trkpt lat="45.9241" lon="4.73573">
        <ele>173</ele>
        <time>2017-09-27T10:48:28Z</time>
      </trkpt>
      <trkpt lat="45.92415" lon="4.73571">
        <ele>173</ele>
        <time>2017-09-27T10:48:29Z</time>
      </trkpt>
      <trkpt lat="45.9242" lon="4.73568">
        <ele>174</ele>
        <time>2017-09-27T10:48:30Z</time>
      </trkpt>
      <trkpt lat="45.92425" lon="4.73566">
        <ele>174</ele>
        <time>2017-09-27T10:48:31Z</time>
      </trkpt>
      <trkpt lat="45.92433" lon="4.7356">
        <ele>174</ele>
        <time>2017-09-27T10:48:33Z</time>
      </trkpt>
      <trkpt lat="45.92437" lon="4.73558">
        <ele>174</ele>
        <time>2017-09-27T10:48:34Z</time>
      </trkpt>
      <trkpt lat="45.92441" lon="4.73556">
        <ele>174</ele>
        <time>2017-09-27T10:48:35Z</time>
      </trkpt>
      <trkpt lat="45.92445" lon="4.73553">
        <ele>174</ele>
        <time>2017-09-27T10:48:36Z</time>
      </trkpt>
      <trkpt lat="45.9245" lon="4.73551">
        <ele>174</ele>
        <time>2017-09-27T10:48:37Z</time>
      </trkpt>
      <trkpt lat="45.92454" lon="4.73548">
        <ele>174</ele>
        <time>2017-09-27T10:48:38Z</time>
      </trkpt>
      <trkpt lat="45.92462" lon="4.73548">
        <ele>173</ele>
        <time>2017-09-27T10:48:40Z</time>
      </trkpt>
      <trkpt lat="45.92465" lon="4.73551">
        <ele>173</ele>
        <time>2017-09-27T10:48:41Z</time>
      </trkpt>
      <trkpt lat="45.92468" lon="4.7356">
        <ele>173</ele>
        <time>2017-09-27T10:48:43Z</time>
      </trkpt>
      <trkpt lat="45.92468" lon="4.73566">
        <ele>173</ele>
        <time>2017-09-27T10:48:44Z</time>
      </trkpt>
      <trkpt lat="45.92469" lon="4.73573">
        <ele>173</ele>
        <time>2017-09-27T10:48:45Z</time>
      </trkpt>
      <trkpt lat="45.92469" lon="4.73581">
        <ele>173</ele>
        <time>2017-09-27T10:48:46Z</time>
      </trkpt>
      <trkpt lat="45.92468" lon="4.73588">
        <ele>174</ele>
        <time>2017-09-27T10:48:47Z</time>
      </trkpt>
      <trkpt lat="45.92468" lon="4.73595">
        <ele>174</ele>
        <time>2017-09-27T10:48:48Z</time>
      </trkpt>
      <trkpt lat="45.92467" lon="4.73602">
        <ele>174</ele>
        <time>2017-09-27T10:48:49Z</time>
      </trkpt>
      <trkpt lat="45.92467" lon="4.73609">
        <ele>174</ele>
        <time>2017-09-27T10:48:50Z</time>
      </trkpt>
      <trkpt lat="45.92467" lon="4.73615">
        <ele>174</ele>
        <time>2017-09-27T10:48:51Z</time>
      </trkpt>
      <trkpt lat="45.92467" lon="4.73623">
        <ele>174</ele>
        <time>2017-09-27T10:48:52Z</time>
      </trkpt>
      <trkpt lat="45.92468" lon="4.73635">
        <ele>174</ele>
        <time>2017-09-27T10:48:54Z</time>
      </trkpt>
      <trkpt lat="45.92468" lon="4.73641">
        <ele>174</ele>
        <time>2017-09-27T10:48:55Z</time>
      </trkpt>
      <trkpt lat="45.92468" lon="4.73648">
        <ele>174</ele>
        <time>2017-09-27T10:48:56Z</time>
      </trkpt>
      <trkpt lat="45.92468" lon="4.73654">
        <ele>174</ele>
        <time>2017-09-27T10:48:57Z</time>
      </trkpt>
      <trkpt lat="45.92468" lon="4.73667">
        <ele>174</ele>
        <time>2017-09-27T10:48:59Z</time>
      </trkpt>
      <trkpt lat="45.92468" lon="4.73672">
        <ele>174</ele>
        <time>2017-09-27T10:49:00Z</time>
      </trkpt>
      <trkpt lat="45.92467" lon="4.73682">
        <ele>174</ele>
        <time>2017-09-27T10:49:02Z</time>
      </trkpt>
      <trkpt lat="45.92467" lon="4.73686">
        <ele>174</ele>
        <time>2017-09-27T10:49:03Z</time>
      </trkpt>
      <trkpt lat="45.92468" lon="4.73698">
        <ele>174</ele>
        <time>2017-09-27T10:49:05Z</time>
      </trkpt>
      <trkpt lat="45.92467" lon="4.73702">
        <ele>174</ele>
        <time>2017-09-27T10:49:06Z</time>
      </trkpt>
      <trkpt lat="45.92461" lon="4.7371">
        <ele>174</ele>
        <time>2017-09-27T10:49:16Z</time>
      </trkpt>
      <trkpt lat="45.9246" lon="4.7371">
        <ele>174</ele>
        <time>2017-09-27T10:49:17Z</time>
      </trkpt>
      <trkpt lat="45.92457" lon="4.73708">
        <ele>174</ele>
        <time>2017-09-27T10:49:36.998Z</time>
      </trkpt>
    </trkseg>
  </trk>
</gpx>